Gwinnett County Detention Center

Sorted by Date of Admission

Public Information - 14 Day Docket Book

This document lists the most recent admissions to the Gwinnett County Detention Center This information is presented in Date order, beginning with the most recent admissions. Line items are by charge so you will see name and address information duplicated for each charge on an individual's booking. If the charge is blank the individual is in the booking process and has not had any charge(s) added yet. Bond amounts that are 0 or blank indicate that the individual has not been granted a bond on that individual charge. This data is live and constantly being updated. Each time you check the information, the data may be different. New inmates are constantly added, and you will find names and information will often change as inmate identities are verified and updated. I.E. if you run this report on two different occasions it will not be surprising for you to find differences in the two reports.
Admission Date Release Date Last Name First Name Middle Name Original Offender ID Offender ID Address Charge Bond Bond Type Arresting Agency Charges/Photo
03/30/2015 00:22BAILEYADRIANCARVEZ9952349599523495 , $Gwinnett County PoliceCharges
03/30/2015 00:08PERALTA-CASTILLOJOSEA9952349499523494 , $Gwinnett County PoliceCharges
03/29/2015 23:29JACKSONDAWON9952349299523492 , $Lawrenceville PoliceCharges
03/29/2015 23:20ENLOWJEREMY9952349199523493 , @ * AGGRAVATED ASSAULT$0Gwinnett County PoliceCharges
03/29/2015 23:10LEFLOREDEWEYSYLVESTER9951985099519850 2469 BIG CREEK TER, STONE MOUNTAIN GA 30087@ * SIMPLE ASSAULT$1850SBGwinnett County PoliceCharges
03/29/2015 23:10DENMANEDWINBENTLEY9952349099523490 3471 STONEVINE WAY, BUFORD GA 30519FAILURE TO APPEAR$593CBLawrenceville PoliceCharges
03/29/2015 23:00ALLENTERRANCEBENJAMIN9945965199459651 6382 WEDGEWOOD TRCE, TUCKER GA 30084$Gwinnett County SheriffCharges
03/29/2015 22:52LEWISSHAKITAMONIQUE9952175399521753 3476 SILVER MAPLE DR, DULUTH GA 30096$Gwinnett County SheriffCharges
03/29/2015 22:1903/30/2015 00:16PULLUMKISHATURNER9952348999523489 55 BRYSON LNDG SW, LILBURN GA 30047FAILURE TO APPEAR$305CBGwinnett County SheriffCharges
03/29/2015 22:08ADIMAHEMMANUELOHEJIH9952348899523488 216 PARK LAKE LANE, NORCROSS GA 30092@ * SIMPLE BATTERY$2400SBGwinnett County PoliceCharges
03/29/2015 22:01MCDANIELSLATORUSELTON9952348799523487 1643 SOUTHGATE MILL DR NW, DULUTH GA 30096FAILURE TO APPEAR$180CBGwinnett County PoliceCharges
03/29/2015 21:2803/29/2015 22:45ABU ELNIAJRANY9952348699523486 6616 SEVENOAKS DR, TUCKER GA 30084POSSESSION OF LESS THAN OZ MARIJUANA$585CBGwinnett County PoliceCharges
03/29/2015 21:15NORMANALEXISSHARICK9949154699491546 109 MEMORIAL ST, LAWRENCEVILLE GA 30046@ * AGGRAVATED ASSAULT$11200SBLawrenceville PoliceCharges
03/29/2015 21:06LEWISROYCECLAYTON9941658899416588 4075 BERKELEY PARK DR, DULUTH GA 30096* VIOLATION OF PROBATION$0NBGwinnett County SheriffCharges
03/29/2015 21:03PINONMIGUELA9952348599523485 , $Gwinnett County SheriffCharges
03/29/2015 20:29GIBSONMICHELLEASHLEY9942871299428735 790 MEADOWSONG CIR, LAWRENCEVILLE GA 30043@ * CRUELTY TO CHILDREN$9000SBGwinnett County PoliceCharges
03/29/2015 20:09LANEDANIELDEMETRIUS LE SHON9952348499523484 1376 TRASK PKWY, SEABROOK SC 29940*FORGERY 4TH DEGREE$2950SBGwinnett County PoliceCharges
03/29/2015 19:48CHAVEZJOSEALFREDO9950945699509456APT A 856 MARTIN HEIGHTS DR, LAWRENCEVILLE GA 30044$Gwinnett County PoliceCharges
03/29/2015 19:18WHITTEN ELCOCKRAYVONDAY JORE9952348399523483 4575 SECRET COVE CT, SUGAR HILL GA 30518@ * THEFT BY SHOPLIFTING$1300SBGwinnett County PoliceCharges
03/29/2015 19:16REGALADO-SANCHEZRUBEN9943462499434624 880 BURNING BUSH DR, LOGANVILLE GA 30052VIOLATION OF PROBATION$0NBGwinnett County PoliceCharges
03/29/2015 18:3003/30/2015 00:17WYATTAZIARUTH9952348099523480 912 KENNESAW DR, FOREST PARK GA 30297*FORGERY 4TH DEGREE$2950SBGwinnett County SheriffCharges
03/29/2015 18:27BYBELALLANEDWARD9952347999523479 4352 BURNS RD NW, LILBURN GA 30047FAILURE TO APPEAR$470CBGwinnett County SheriffCharges
03/29/2015 18:27BYBELALLANEDWARD9952347999523479 4352 BURNS RD NW, LILBURN GA 30047FAILURE TO APPEAR$35CBGwinnett County SheriffCharges
03/29/2015 18:18DAVISJAMALTYRICO9952347899523478 536 AMAL DR SW, ATLANTA GA 30315FAILURE TO APPEAR$621CBGwinnett County SheriffCharges
03/29/2015 18:17FORDBRADYALEXANDER9950766899507668 2912 WINDING GROVE, LITHONIA GA 30038* VIOLATION OF PROBATION$0NBGwinnett County SheriffCharges
03/29/2015 17:55GALLEGO GRAJALESKEVIN9952347799523477 1025 GRACE DR, LAWRENCEVILLE GA 30043*MAUFACTUR/POSS/PURCH/DIST/SALE MARIJUAN$9000SBGwinnett County PoliceCharges
03/29/2015 17:55GALLEGO GRAJALESKEVIN9952347799523477 1025 GRACE DR, LAWRENCEVILLE GA 30043* OBSTRUCTION LAW ENFORCEMENT OFFICER$1300SBGwinnett County PoliceCharges
03/29/2015 17:5303/29/2015 23:22TAYLORKENNETH9902638199026381 2827 SWARTHMORE DR, LAWRENCEVILLE GA 30044FAILURE TO APPEAR$798CBGwinnett County PoliceCharges
03/29/2015 17:37GARCIAWILLIE9951579699515796 5140 MALISA RDG, OAKWOOD GA 30566@ * AGGRAVATED ASSAULT$5700SBGwinnett County SheriffCharges
03/29/2015 17:37GARCIAWILLIE9951579699515796 5140 MALISA RDG, OAKWOOD GA 30566@ * AGGRAVATED ASSAULT$5700SBGwinnett County SheriffCharges
03/29/2015 17:37GARCIAWILLIE9951579699515796 5140 MALISA RDG, OAKWOOD GA 30566* OBSTRUCTION LAW ENFORCEMENT OFFICER$1300SBGwinnett County SheriffCharges
03/29/2015 17:37GARCIAWILLIE9951579699515796 5140 MALISA RDG, OAKWOOD GA 30566@ * AGGRAVATED ASSAULT$5700SBGwinnett County SheriffCharges
03/29/2015 17:28MIRANDA MARTINEZROSALIO9952347699523476 310 WINDING RIVER DR, ATLANTA GA 30350HOLD FOR OTHER AGENCY$0NBGwinnett County PoliceCharges
03/29/2015 17:28MIRANDA MARTINEZROSALIO9952347699523476 310 WINDING RIVER DR, ATLANTA GA 30350TEMP TAG - VIN, MAKE, YR$152SBGwinnett County PoliceCharges
03/29/2015 17:28MIRANDA MARTINEZROSALIO9952347699523476 310 WINDING RIVER DR, ATLANTA GA 30350*NO DRIVERS LICENSE$705SBGwinnett County PoliceCharges
03/29/2015 17:15COHENSPATRICKTIMOTHY9952347599523475 1707 PARK COLONY DR, NORCROSS GA 30093@ * AGGRAVATED ASSAULT$5700SBGwinnett County PoliceCharges
03/29/2015 15:2403/29/2015 23:11COWANMONIKANATALYA ALA-ROSA9952347399523473 6015 OAKBROOK PKWY ROOM 211, NORCROSS GA 30093HOLD FOR OTHER AGENCY$0NBGwinnett County PoliceCharges
03/29/2015 15:12POPEJANARIOBERNARD9949573499495734 557 HUNTINGTON PL, ROSWELL GA 30076HOLD FOR OTHER AGENCY$0NBGwinnett County PoliceCharges
03/29/2015 15:12POPEJANARIOBERNARD9949573499495734 557 HUNTINGTON PL, ROSWELL GA 30076@ * AGGRAVATED ASSAULT$0NBGwinnett County PoliceCharges
03/29/2015 15:12POPEJANARIOBERNARD9949573499495734 557 HUNTINGTON PL, ROSWELL GA 30076HOLD FOR OTHER AGENCY$0NBGwinnett County PoliceCharges
03/29/2015 14:50GAINESMARQUEZLAMAR9951184499511844 178 MARTIN CIR, LAWRENCEVILLE GA 30046* VIOLATION OF PROBATION$0NBGwinnett County SheriffCharges
03/29/2015 14:3903/29/2015 22:30KOLEDOYETOMIWAADETAYO9939911099399110 209 SUMMERBROOK DR, ATLANTA GA 30350* VIOLATION OF EMPLOYMENT SECURITY LAW$11200SBGwinnett County SheriffCharges
03/29/2015 14:20BATESMONICAALISHA9952347299523472 1982 BREWER BLVD SW, ATLANTA GA 30310FAILURE TO APPEAR$805CBGwinnett County SheriffCharges
03/29/2015 14:11BARNESKENDRALASHAWN9950057299500572 1807 CONCEPTS 21 DRIVE, NORCROSS GA 30092* VIOLATION OF PROBATION$0NBGwinnett County SheriffCharges
03/29/2015 14:0403/29/2015 18:17CORTES-LOPEZERIK9952347199523471 641 FOREST HILLS PATH, FOREST PARK GA 30297IMPROPER LANE CHANGE$96CBGwinnett County PoliceCharges
03/29/2015 14:0403/29/2015 18:17CORTES-LOPEZERIK9952347199523471 641 FOREST HILLS PATH, FOREST PARK GA 30297*DRIVING W/O LICENSE-FAIL OBTAIN 30 DAYS$705CBGwinnett County PoliceCharges
03/29/2015 13:56GONZALEZDANYJOEL9948364599483645 1405 HILLARY COVE TERRACE, LAWRENCEVILLE GA 30043THEFT BY SHOPLIFTING$355SBSuwanee PoliceCharges
03/29/2015 13:56GONZALEZDANYJOEL9948364599483645 1405 HILLARY COVE TERRACE, LAWRENCEVILLE GA 30043HOLD FOR IMMIGRATION$0NBSuwanee PoliceCharges
03/29/2015 13:3903/29/2015 23:33MILLERGREGORYOLIVER9940078299400782 3250 SWEETWATER RD APT 2606, LAWRENCEVILLE GA 30044@ * SIMPLE ASSAULT$1300SBGwinnett County PoliceCharges
03/29/2015 13:17SOLOMONBRANDINKARL LAWYER9952347099523470 730 BERESFORD CIR APT 1, STONE MOUNTAIN GA 30083* VIOLATION OF PROBATION$0NBNorcross PoliceCharges
03/29/2015 12:1503/29/2015 16:32ROBLEROMAYNORFRANCISCO9952346999523469 68 PEACHTREE IND BLVD, NORCROSS GA 30360*NO DRIVERS LICENSE$705CBGwinnett County PoliceCharges
03/29/2015 11:2403/29/2015 17:09SWANEPOELSEANDAVID9935748999357489 1250 GOODWIN RD NE, ATLANTA GA 30324FAILURE TO APPEAR$605CBGwinnett County SheriffCharges
03/29/2015 11:1303/29/2015 14:21MOFFETTALTEASHASHANIQUA9945809199458091 3852 PLEASANT OAKS DR, LAWRENCEVILLE GA 30044*DRIVING ON A SUSPENDED LICENSE$860SBNorcross PoliceCharges
03/29/2015 11:1303/29/2015 14:21MOFFETTALTEASHASHANIQUA9945809199458091 3852 PLEASANT OAKS DR, LAWRENCEVILLE GA 30044FAILURE TO APPEAR$196CBNorcross PoliceCharges
03/29/2015 10:50FERNANDEZJORGE9937776899478616 734 WILKES DR, LOGANVILLE GA 30052* CRIMINAL TRESPASS$1300SBGwinnett County PoliceCharges
03/29/2015 09:34BURGESSELIZABETHMARIE9950796799507967 5402 AMHERST WAY, FLOWERY BRANCH GA 30542* VIOLATION OF PROBATION$0NBGwinnett County SheriffCharges
03/29/2015 09:34BURGESSELIZABETHMARIE9950796799507967 5402 AMHERST WAY, FLOWERY BRANCH GA 30542HOLD FOR OTHER AGENCY$0NBGwinnett County SheriffCharges
03/29/2015 09:34BURGESSELIZABETHMARIE9950796799507967 5402 AMHERST WAY, FLOWERY BRANCH GA 30542HOLD FOR OTHER AGENCY$0NBGwinnett County SheriffCharges
03/29/2015 08:35GULLYANTHONYTERRELL9929242299292484 2633 WINSLOW RIDGE DR, BUFORD GA 30519OPEN CONTAINER LAW$299SBGwinnett County PoliceCharges
03/29/2015 08:35GULLYANTHONYTERRELL9929242299292484 2633 WINSLOW RIDGE DR, BUFORD GA 30519SPEEDING$180SBGwinnett County PoliceCharges
03/29/2015 08:35GULLYANTHONYTERRELL9929242299292484 2633 WINSLOW RIDGE DR, BUFORD GA 30519* DRIVING WHILE LIC SUSP/REVOKED$705SBGwinnett County PoliceCharges
03/29/2015 08:35GULLYANTHONYTERRELL9929242299292484 2633 WINSLOW RIDGE DR, BUFORD GA 30519HOLD FOR OTHER AGENCY$0NBGwinnett County PoliceCharges
03/29/2015 07:1003/29/2015 14:28LOPEZ-LEONAGUSTIN9952346699523466 2276 WIND LASS DR, BUFORD GA 30518* DUI-MORE THAN 0.10%BLOOD ALCOHOL$2006CBGwinnett County PoliceCharges
03/29/2015 07:1003/29/2015 14:28LOPEZ-LEONAGUSTIN9952346699523466 2276 WIND LASS DR, BUFORD GA 30518IMPROPER LANE CHANGE$68CBGwinnett County PoliceCharges
03/29/2015 07:1003/29/2015 14:28LOPEZ-LEONAGUSTIN9952346699523466 2276 WIND LASS DR, BUFORD GA 30518FAILURE TO OBEY STOP SIGN$68CBGwinnett County PoliceCharges
03/29/2015 06:4403/29/2015 19:31AUSTINANNANICOLE9952346599523465 130 LONGWOOD LN, EASLEY SC 29642POSS/PURCHASE ALCOHOL UNDER 21$140CBGwinnett County PoliceCharges
03/29/2015 06:4103/29/2015 21:17MABLIJULIENICOLE9952346499523464 12725 CONCORD HALL DR, ALPHARETTA GA 30005*DUI .02 UNDER 21$2006SBGwinnett County PoliceCharges
03/29/2015 06:4103/29/2015 21:17MABLIJULIENICOLE9952346499523464 12725 CONCORD HALL DR, ALPHARETTA GA 30005IMPROPER LANE CHANGE$96SBGwinnett County PoliceCharges
03/29/2015 06:2503/29/2015 21:13TILLERTYRONERAVI9952346399523463 4100 CREEK STONE CT, STONE MOUNTAIN GA 30083HOLD FOR OTHER AGENCY$0NBGwinnett County PoliceCharges
03/29/2015 06:2103/29/2015 12:50AVILA-COLONAPEDRO9952346299523462 2522 BENJAMIN E MAYS DR SW, ATLANTA GA 30311* DUI-MORE THAN 0.10%BLOOD ALCOHOL$2006CBGwinnett County PoliceCharges
03/29/2015 06:2103/29/2015 12:50AVILA-COLONAPEDRO9952346299523462 2522 BENJAMIN E MAYS DR SW, ATLANTA GA 30311IMPROPER/ERRATIC LANE CHANGE$68CBGwinnett County PoliceCharges
03/29/2015 06:2103/29/2015 12:50AVILA-COLONAPEDRO9952346299523462 2522 BENJAMIN E MAYS DR SW, ATLANTA GA 30311FAILURE TO MAINTAIN INSURANCE$299CBGwinnett County PoliceCharges
03/29/2015 06:2103/29/2015 12:50AVILA-COLONAPEDRO9952346299523462 2522 BENJAMIN E MAYS DR SW, ATLANTA GA 30311*NO DRIVERS LICENSE$705CBGwinnett County PoliceCharges
03/29/2015 06:1503/29/2015 18:10TATISBRIANALEXANDER9952346199523461 1536 BOUVIER PL, LAWRENCEVILLE GA 30043* DUI - DRUGS/ALCOHOL$2006SBGwinnett County PoliceCharges
03/29/2015 06:1503/29/2015 18:10TATISBRIANALEXANDER9952346199523461 1536 BOUVIER PL, LAWRENCEVILLE GA 30043SPEEDING$145SBGwinnett County PoliceCharges
03/29/2015 06:1503/29/2015 18:10TATISBRIANALEXANDER9952346199523461 1536 BOUVIER PL, LAWRENCEVILLE GA 30043RECKLESS DRIVING$425SBGwinnett County PoliceCharges
03/29/2015 06:1503/29/2015 18:10TATISBRIANALEXANDER9952346199523461 1536 BOUVIER PL, LAWRENCEVILLE GA 30043SPEEDING$145SBGwinnett County PoliceCharges
03/29/2015 06:1503/29/2015 18:10TATISBRIANALEXANDER9952346199523461 1536 BOUVIER PL, LAWRENCEVILLE GA 30043IMPROPER/ERRATIC LANE CHANGE$68SBGwinnett County PoliceCharges
03/29/2015 06:1503/29/2015 18:10TATISBRIANALEXANDER9952346199523461 1536 BOUVIER PL, LAWRENCEVILLE GA 30043VEH SEAT BELT REQUIRED-FRONT SEAT$15SBGwinnett County PoliceCharges
03/29/2015 06:1503/29/2015 18:10TATISBRIANALEXANDER9952346199523461 1536 BOUVIER PL, LAWRENCEVILLE GA 30043FAILURE TO APPEAR$566CBGwinnett County PoliceCharges
03/29/2015 06:1503/29/2015 18:10TATISBRIANALEXANDER9952346199523461 1536 BOUVIER PL, LAWRENCEVILLE GA 30043NON TRANSPARENT MAT. ON WINDOW$56SBGwinnett County PoliceCharges
03/29/2015 05:5103/29/2015 12:33KIMHUICHANG9952346099523460 675 BURNHAM RDG, LAWRENCEVILLE GA 30046* DUI-MORE THAN 0.10%BLOOD ALCOHOL$2006CBGwinnett County PoliceCharges
03/29/2015 05:5103/29/2015 12:33KIMHUICHANG9952346099523460 675 BURNHAM RDG, LAWRENCEVILLE GA 30046FAILURE TO OBEY TRAFFIC DEVICE$56CBGwinnett County PoliceCharges
03/29/2015 05:2803/29/2015 23:03SEGOVIA-BONILLAOMAR9952345999523459 381 HILLWOOD DR, LAWRENCEVILLE GA 30044* DUI-MORE THAN 0.10%BLOOD ALCOHOL$2006CBGwinnett County PoliceCharges
03/29/2015 05:2803/29/2015 23:03SEGOVIA-BONILLAOMAR9952345999523459 381 HILLWOOD DR, LAWRENCEVILLE GA 30044DRIVING WITHOUT HEADLIGHTS$68CBGwinnett County PoliceCharges
03/29/2015 05:2803/29/2015 23:03SEGOVIA-BONILLAOMAR9952345999523459 381 HILLWOOD DR, LAWRENCEVILLE GA 30044*DRIVING W/O LICENSE-FAIL OBTAIN 30 DAYS$705CBGwinnett County PoliceCharges
03/29/2015 05:1203/29/2015 12:29ROBERTSTASHASHAWAANIA9952345899523458 1565 BRAMLETT FOREST TRL, LAWRENCEVILLE GA 30045POSSESSION OF LESS 1 OZ. MARIJUANA$585SBGwinnett County PoliceCharges
03/29/2015 05:0903/29/2015 13:00HIGGSKHALIL9952345799523457 105 WINNSTEAD PLACE, COVINGTON GA 30016POSS OF < 1 OZ OF MARIJ.$585CBGwinnett County PoliceCharges
03/29/2015 05:04SMITHROMAJISTRAVELL9944281799442817 988 WINDING DOWN, GRAYSON GA 30017POSSESSION OF LESS THAN OZ MARIJUANA$585SBGwinnett County PoliceCharges
03/29/2015 05:04SMITHROMAJISTRAVELL9944281799442817 988 WINDING DOWN, GRAYSON GA 30017SPEEDING$215SBGwinnett County PoliceCharges
03/29/2015 04:4803/29/2015 12:01BYRAMMATTHEWSCOTT9940329499403294 1781 KEENLAND PL, LAWRENCEVILLE GA 30043* DUI-ALCOHOL$2006SBGwinnett County PoliceCharges
03/29/2015 04:4803/29/2015 12:01BYRAMMATTHEWSCOTT9940329499403294 1781 KEENLAND PL, LAWRENCEVILLE GA 30043FAILURE TO OBEY STOP SIGN$68SBGwinnett County PoliceCharges
03/29/2015 04:09EZZIKOURIOMARI9952345699523456 934 ARLINGTON DR, TUCKER GA 30084@ * MURDER$0NBGwinnett County PoliceCharges
03/29/2015 04:09EZZIKOURIOMARI9952345699523456 934 ARLINGTON DR, TUCKER GA 30084* CONSPIRACY TO COMMIT A CRIME$0NBGwinnett County PoliceCharges
03/29/2015 03:5903/29/2015 06:24BAKERLEIGHANNE9923956599239565 1829 SUWANNEE VALLEY, LAWRENCEVILLE GA 30043*DUI$1580SBNorcross PoliceCharges
03/29/2015 03:4403/29/2015 08:32GUTTAKISHAN9952345599523455 3170 WYNTREE DR, NORCROSS GA 30074*DRIVING UNDER INFLUENCE DRUGS/ALCOHOL$1623SBDuluth PoliceCharges
03/29/2015 03:4403/29/2015 08:32GUTTAKISHAN9952345599523455 3170 WYNTREE DR, NORCROSS GA 30074FAILURE TO MAINTAIN LANE$129.25SBDuluth PoliceCharges
03/29/2015 03:3003/29/2015 12:31WILLIAMSSHONDERILASHAE9952345299523452 309 FOREST PL, LAWRENCEVILLE GA 30046*DISORDERLY CONDUCT$140SBGwinnett County PoliceCharges
03/29/2015 03:2003/29/2015 12:04THOMAS JRCARLALFRED9944711699447116 4720 POLLY PLACE, SNELLVILLE GA 30039FAILURE TO HAVE LICENSE ON PERSON$19SBGwinnett County PoliceCharges
03/29/2015 03:2003/29/2015 12:04THOMAS JRCARLALFRED9944711699447116 4720 POLLY PLACE, SNELLVILLE GA 30039STRIKING UNATTENDED VEHICLE$152SBGwinnett County PoliceCharges
03/29/2015 03:2003/29/2015 12:04THOMAS JRCARLALFRED9944711699447116 4720 POLLY PLACE, SNELLVILLE GA 30039RECKLESS DRIVING$425SBGwinnett County PoliceCharges
03/29/2015 03:2003/29/2015 12:04THOMAS JRCARLALFRED9944711699447116 4720 POLLY PLACE, SNELLVILLE GA 30039* FLEEING OR ATTEMPTING TO ELUDE$705SBGwinnett County PoliceCharges
03/29/2015 02:35GRAVITTDALAMICHAEL89088858908885 4790 THOMPSON MILL RD, BUFORD GA 30519@ * BURGLARY$2950SBGwinnett County PoliceCharges
03/29/2015 02:2603/29/2015 06:34SEDJICALMIR9952345199523451 2924 ENFIELD ROAD, CHARLOTTE NC 28205PUBLIC DRUNK$288.5CBSnellville PoliceCharges
03/29/2015 02:2603/29/2015 06:34SEDJICALMIR9952345199523451 2924 ENFIELD ROAD, CHARLOTTE NC 28205LOITERING/PROWLING$208CBSnellville PoliceCharges
03/29/2015 02:2603/29/2015 06:34SEDJICALMIR9952345199523451 2924 ENFIELD ROAD, CHARLOTTE NC 28205*SUSPENDED/REVOKED LIC$816CBSnellville PoliceCharges
03/29/2015 01:44GONZALEZ-RODERIGUEZISRAEL9952345099523450 5331 WILLIAMS ROAD, NORCROSS GA 30093FOLLOWING TOO CLOSE$155SBLilburn PoliceCharges
03/29/2015 01:44GONZALEZ-RODERIGUEZISRAEL9952345099523450 5331 WILLIAMS ROAD, NORCROSS GA 30093*DUTY TO STOP WHEN INVOLVED IN ACCIDENT$715SBLilburn PoliceCharges
03/29/2015 01:44GONZALEZ-RODERIGUEZISRAEL9952345099523450 5331 WILLIAMS ROAD, NORCROSS GA 30093*NOT LICENSED TO DRIVE$715SBLilburn PoliceCharges
03/29/2015 01:44GONZALEZ-RODERIGUEZISRAEL9952345099523450 5331 WILLIAMS ROAD, NORCROSS GA 30093*DUI--ALCOHOL$1266SBLilburn PoliceCharges
03/29/2015 01:2903/29/2015 03:34JOHNSONALEXISSAKIA9952344999523449 945 CLARIDGE LN, LAWRENCEVILLE GA 30046FAIL MAINTAIN LANE$133SBLawrenceville PoliceCharges
03/29/2015 01:2903/29/2015 03:34JOHNSONALEXISSAKIA9952344999523449 945 CLARIDGE LN, LAWRENCEVILLE GA 30046*DRIVING WHILE LIC.SUSP/REVOKED$803SBLawrenceville PoliceCharges
03/29/2015 01:2103/29/2015 18:43THOMASTEAREANCEAUSTIN9952344899523448 551 WATERSTONE DR, LAWRENCEVILLE GA 30046M/V MUST HAVE 2 HEADLIGHTS$68SBLawrenceville PoliceCharges
03/29/2015 01:2103/29/2015 18:43THOMASTEAREANCEAUSTIN9952344899523448 551 WATERSTONE DR, LAWRENCEVILLE GA 30046*MAUFACTUR/POSS/PURCH/DIST/SALE MARIJUAN$5700SBLawrenceville PoliceCharges
03/29/2015 00:2503/29/2015 10:38ROMANKEVIN9952344299523442 352 SPRINGBOTTOM CT, LAWRENCEVILLE GA 30046POSS OF < 1 OZ OF MARIJ.$585CBGwinnett County PoliceCharges
03/29/2015 00:2503/29/2015 10:38ROMANKEVIN9952344299523442 352 SPRINGBOTTOM CT, LAWRENCEVILLE GA 30046BRAKE LIGHTS REQUIRED$68CBGwinnett County PoliceCharges
03/29/2015 00:2403/29/2015 13:22DAVISKEVINLEE9952344199523441 723 WEST CREEK LANE, MONROE GA GAOBSTRUCTION/GIVING FALSE INFORMATION$371SBAuburn PDCharges
03/28/2015 23:43YELDEREUGENEANTHONY9952344099523440 1037 WILDWOOD GLN, STONE MOUNTAIN GA 30083*SUSPENDED/REVOKED LIC$816SBSnellville PoliceCharges
03/28/2015 23:43YELDEREUGENEANTHONY9952344099523440 1037 WILDWOOD GLN, STONE MOUNTAIN GA 30083NO BRAKE LIGHTS OR WORKING TURN SIGNALS$117SBSnellville PoliceCharges
03/28/2015 23:30SWILLINGSJESSICAYOLANDA9951481999514819 2767 WINDY HILL RD SE #332, MARIETTA GA 30067IMPROPER U-TURN$123SBSuwanee PoliceCharges
03/28/2015 23:30SWILLINGSJESSICAYOLANDA9951481999514819 2767 WINDY HILL RD SE #332, MARIETTA GA 30067HOLD FOR OTHER AGENCY$0NBSuwanee PoliceCharges
03/28/2015 23:17PARKJEENWU9948087499480874 2886 LANDINGTON WAY, DULUTH GA 30096*DISORDERLY CONDUCT$315SBDuluth PoliceCharges
03/28/2015 23:17PARKJEENWU9948087499480874 2886 LANDINGTON WAY, DULUTH GA 30096HOLD FOR IMMIGRATION$0NBDuluth PoliceCharges
03/28/2015 23:15MARSHALLWARRENPATRICK9952343999523439 501 PLANTATION BLVD, LAWRENCEVILLE GA 30046* POSS OF FIREARM BY CONVICTED FELON$0NBLawrenceville PoliceCharges
03/28/2015 23:15MARSHALLWARRENPATRICK9952343999523439 501 PLANTATION BLVD, LAWRENCEVILLE GA 30046NO INSURANCE$440SBLawrenceville PoliceCharges
03/28/2015 23:15MARSHALLWARRENPATRICK9952343999523439 501 PLANTATION BLVD, LAWRENCEVILLE GA 30046*DRIVING WHILE LIC.SUSP/REVOKED$803SBLawrenceville PoliceCharges
03/28/2015 23:07BEXHOENTON9952343899523438 674 OLD CUMMING RD, SUGAR HILL GA 30518@ * BATTERY$2950SBGwinnett County PoliceCharges
03/28/2015 22:50COTTONSAMARAALEXANDRIA9952343799523437 5051 STATION CIR, NORCROSS GA 30071@ * BATTERY$2950SBNorcross PoliceCharges
03/28/2015 22:50COTTONSAMARAALEXANDRIA9952343799523437 5051 STATION CIR, NORCROSS GA 30071FAILURE TO APPEAR$369CBNorcross PoliceCharges
03/28/2015 22:2703/29/2015 22:26YOUNGANTONIO9948625199486251 393 STONE MOUNTAIN ST APT K3, LAWRENCEVILLE GA 30046TRAFFIC CONTROL SIGNS$105SBLawrenceville PoliceCharges
03/28/2015 22:2703/29/2015 22:26YOUNGANTONIO9948625199486251 393 STONE MOUNTAIN ST APT K3, LAWRENCEVILLE GA 30046OPEN CONTAINER VIOL(DRIVER ONLY)$333SBLawrenceville PoliceCharges
03/28/2015 22:2703/29/2015 22:26YOUNGANTONIO9948625199486251 393 STONE MOUNTAIN ST APT K3, LAWRENCEVILLE GA 30046* DUI ALCOHOL$1230SBLawrenceville PoliceCharges
03/28/2015 22:0003/29/2015 01:11RODRIGUEZ-LUGOCARLAMICHELLE9931281999312819 281 RIDGECREST DR, LAWRENCEVILLE GA 30046BRAKE LIGHT STANDARDS$60CBLawrenceville PoliceCharges
03/28/2015 22:0003/29/2015 01:11RODRIGUEZ-LUGOCARLAMICHELLE9931281999312819 281 RIDGECREST DR, LAWRENCEVILLE GA 30046*DRIVING WHILE LIC.SUSP/REVOKED$803CBLawrenceville PoliceCharges
03/28/2015 21:19SHIELDSKENTERIOWADE9952343699523436 9316 TERRA DR SW, COVINGTON GA 30014*NO DRIVERS LICENSE$705SBGwinnett County PoliceCharges
03/28/2015 21:19SHIELDSKENTERIOWADE9952343699523436 9316 TERRA DR SW, COVINGTON GA 30014IMPROPER/ERRATIC LANE CHANGE$68SBGwinnett County PoliceCharges
03/28/2015 21:05COTTONDAVIDWAYNE9952343599523435 2330 JOHHNY ELLISON DR, MELBOURNE FL 32901PEDESTRIAN SOLICITING RIDES OR BUSINESS$123SBSuwanee PoliceCharges
03/28/2015 21:05COTTONDAVIDWAYNE9952343599523435 2330 JOHHNY ELLISON DR, MELBOURNE FL 32901PED WALK ON SHOULDER$68SBSuwanee PoliceCharges
03/28/2015 20:3003/29/2015 00:56TOOKESJESSICAGABRIEL9952343499523434 3032 SENTINEL CIR, LAWRENCEVILLE GA 30043NO BRAKE LIGHTS$56CBGwinnett County PoliceCharges
03/28/2015 20:3003/29/2015 00:56TOOKESJESSICAGABRIEL9952343499523434 3032 SENTINEL CIR, LAWRENCEVILLE GA 30043EXPIRED LICENSE$67CBGwinnett County PoliceCharges
03/28/2015 19:47MCADAMSGEORGEDANNY9951925699519256 2476 LUKE CT, BUFORD GA 30519@ * BATTERY$2950SBGwinnett County PoliceCharges
03/28/2015 19:47MCADAMSGEORGEDANNY9951925699519256 2476 LUKE CT, BUFORD GA 30519*OBSTRUCTION OF OFFICER$5700SBGwinnett County PoliceCharges
03/28/2015 19:04HADDOCKBRANDONGREGORY9907841299078412 6406 MOSSY OAK LNDG, BRASELTON GA 30517HOLD FOR OTHER AGENCY$0NBGwinnett County PoliceCharges
03/28/2015 18:4803/29/2015 00:45ALVAREZMILTONALEXANDER9952343399523433 3005 STONE MOUNTAIN ST, LITHONIA GA 30058*NOT LICENSED TO DRIVE$715CBLilburn PoliceCharges
03/28/2015 18:4803/29/2015 00:45ALVAREZMILTONALEXANDER9952343399523433 3005 STONE MOUNTAIN ST, LITHONIA GA 30058SPEEDING$183CBLilburn PoliceCharges
03/28/2015 18:38SCOTTGLORIAJEAN9935627599356275 206 SPRING WATER DR APT 206, NORCROSS GA 30093* DUI - DRUGS/ALCOHOL$0NBGwinnett County SheriffCharges
03/28/2015 18:3103/28/2015 21:57BROWNDEANDREQUARTEZ9941601199416011 817 LAKE KNOLL DR NW, LILBURN GA 30047SPEEDING / 1ST OFFENSE / 19-23 OVER$250SBLawrenceville PoliceCharges
03/28/2015 18:3103/28/2015 21:57BROWNDEANDREQUARTEZ9941601199416011 817 LAKE KNOLL DR NW, LILBURN GA 30047*DRIVING WHILE LIC.SUSP/REVOKED$803SBLawrenceville PoliceCharges
03/28/2015 18:24WAREMICHAELGEORGE9952343299523432 1020 OAK CHASE DR APT J, TUCKER GA 30084@ * THEFT BY TAKING$650SBGwinnett County PoliceCharges
03/28/2015 18:24WAREMICHAELGEORGE9952343299523432 1020 OAK CHASE DR APT J, TUCKER GA 30084* USE OF LICENSE PLATE TO CONCEAL I.D.$650SBGwinnett County PoliceCharges
03/28/2015 18:24WAREMICHAELGEORGE9952343299523432 1020 OAK CHASE DR APT J, TUCKER GA 30084HOLD FOR OTHER AGENCY$0NBGwinnett County PoliceCharges
03/28/2015 18:1603/29/2015 11:07SHOWALTERDAYLONJEVON9952343199523431 4896 BOTTLE BRUSH CT, SNELLVILLE GA 30039* GIVING FALSE NAME OR INFORMATION$1300SBGwinnett County PoliceCharges
03/28/2015 18:1603/29/2015 11:07SHOWALTERDAYLONJEVON9952343199523431 4896 BOTTLE BRUSH CT, SNELLVILLE GA 30039@ * THEFT BY SHOPLIFTING$1300SBGwinnett County PoliceCharges
03/28/2015 17:5303/28/2015 23:40CAMPBELLDARRYLELESTON9952343099523430 2270 GRASSY SPRINGS CT, CONYERS GA 30012FAILURE TO APPEAR$1393CBSnellville PoliceCharges
03/28/2015 17:5303/28/2015 23:40CAMPBELLDARRYLELESTON9952343099523430 2270 GRASSY SPRINGS CT, CONYERS GA 30012SPEEDING 16-20 OVER$186.5CBSnellville PoliceCharges
03/28/2015 17:3703/29/2015 02:59MARTINEZ-ROCHACRISTIAN9951290199512901 3242 KIBBE CT, LAWRENCEVILLE GA 30044@ * THEFT BY SHOPLIFTING$1300SBGwinnett County PoliceCharges
03/28/2015 17:2203/28/2015 22:54JORGENSENSTEPHANIEBROOKE9952342999523429 3625 IRVIN DR, LOGANVILLE GA 30052@ * THEFT BY SHOPLIFTING$1300SBGwinnett County PoliceCharges
03/28/2015 17:11THOMASLABERONANTHONY9952187199521871 238 AMP CIRCLE, EDGARD LA 70049*DISORDERLY CONDUCT$140SBGwinnett County PoliceCharges
03/28/2015 17:0403/28/2015 22:04NELSONCHRISTINEVIEIRA9952342899523428 1791 PENNY LN, LAWRENCEVILLE GA 30043IMPROPER/ERRATIC LANE CHANGE$96CBGwinnett County PoliceCharges
03/28/2015 17:0403/28/2015 22:04NELSONCHRISTINEVIEIRA9952342899523428 1791 PENNY LN, LAWRENCEVILLE GA 30043NO BRAKES ON MOTOR VEHICLES$96CBGwinnett County PoliceCharges
03/28/2015 17:0403/28/2015 22:04NELSONCHRISTINEVIEIRA9952342899523428 1791 PENNY LN, LAWRENCEVILLE GA 30043* DUI-DRUGS$2006CBGwinnett County PoliceCharges
03/28/2015 16:4103/28/2015 18:45MARTINEZMARLONALEXANDER9952342799523427 3815 NEW CASTLE WAY, SNELLVILLE GA 30039HOLD FOR OTHER AGENCY$0NBLawrenceville PoliceCharges
03/28/2015 16:27TARVESTADBRIANASHLEY9905067299050672 4695 NORTH CHRUCH LN SW, SMYRNA GA 30080@ * THEFT BY TAKING$1850SBDuluth PoliceCharges
03/28/2015 16:27TARVESTADBRIANASHLEY9905067299050672 4695 NORTH CHRUCH LN SW, SMYRNA GA 30080* CRIMINAL TRESPASS$1300SBDuluth PoliceCharges
03/28/2015 16:17VELTREJOHNJAMES9952342699523426 2618 SW 118TH ST, BOYNTON BEACH FL 33435DISORDERLY CONDUCT$422SBSuwanee PoliceCharges
03/28/2015 15:5703/29/2015 01:54CHEATHAMROBERTW9952342599523425 4679 DUNWOODY CLUB DR, ATLANTA GA 30350HOLD FOR OTHER AGENCY$0NBGwinnett County PoliceCharges
03/28/2015 15:5703/29/2015 01:54CHEATHAMROBERTW9952342599523425 4679 DUNWOODY CLUB DR, ATLANTA GA 30350HOLD FOR OTHER AGENCY$0NBGwinnett County PoliceCharges
03/28/2015 15:48POWELLJONATHANTAYLOR9951222399512223 5301 MUIRFIELD RUN, NORCROSS GA 30093VIOLATION OF PROBATION$0NBDuluth PoliceCharges
03/28/2015 15:3503/28/2015 20:55OLGUIN-ZENILRIGOBERTO9952342499523424 507 AMBERS DR, NORCROSS GA 30071*NO VALID LICENSE$860CBNorcross PoliceCharges
03/28/2015 15:3503/28/2015 20:55OLGUIN-ZENILRIGOBERTO9952342499523424 507 AMBERS DR, NORCROSS GA 30071FAILURE TO OBEY TRAFFIC CONTROL DEVICE$280CBNorcross PoliceCharges
03/28/2015 15:1303/28/2015 20:02NELSONPAULETTEYNEICE9952342399523423 2302 MARTINGALE LN, LAWRENCEVILLE GA 30044KNOWINGLY DRIVING MV W/SUSP/REV REG$727SBSuwanee PoliceCharges
03/28/2015 15:1303/28/2015 20:02NELSONPAULETTEYNEICE9952342399523423 2302 MARTINGALE LN, LAWRENCEVILLE GA 30044*SUSPENDED LICENSE$1176.25SBSuwanee PoliceCharges
03/28/2015 15:1303/28/2015 20:02NELSONPAULETTEYNEICE9952342399523423 2302 MARTINGALE LN, LAWRENCEVILLE GA 30044NO PROOF INSURANCE$648SBSuwanee PoliceCharges
03/28/2015 14:3203/28/2015 19:52TORRES-MADEROHECTORMANUEL9952342299523422 5225 VIRGINIA AVE, CUMMING GA 30041DRIVING WHILE UNLICENSED$759CBSuwanee PoliceCharges
03/28/2015 14:3203/28/2015 19:52TORRES-MADEROHECTORMANUEL9952342299523422 5225 VIRGINIA AVE, CUMMING GA 30041UNSAFE TIRES$123CBSuwanee PoliceCharges
03/28/2015 14:2203/28/2015 17:24SAMMONSMICHAELWILLIS9300467493004674 30 PARKER RD, AUBURN GA 30011FTA BENCH WARRANT$348CBLawrenceville PoliceCharges
03/28/2015 14:20HORNEJAMESELLIOTT9700607797006077 4301 BRADLEY DR, SNELLVILLE GA 30039FAILURE TO APPEAR$856CBGwinnett County PoliceCharges
03/28/2015 14:0303/28/2015 15:13RATZLAFFGREGORYSCOTT9952342199523421 3292 THOMPSON BRIDGE RD SUITE 370, GAINESVILLE GA 30506$Gwinnett County SheriffCharges
03/28/2015 14:0003/28/2015 17:25STEENKACIRAQUEL9951965999519659 2451 SUWANEE POINTE DR, LAWRENCEVILLE GA 30043HOLD FOR OTHER AGENCY$0NBGwinnett County PoliceCharges
03/28/2015 13:43POWEBRANDONRONELL9940309299403092 1226 MCKNIGHT RD, CLEVELAND MS 38732* VIOLATION OF PROBATION$0NBPrisoner Transport ServicesCharges
03/28/2015 13:32DELAGARZATONYLAWRENCE9400159194001591 2034 N. WOOD LAKE CT APT 20, DULUTH GA 30096@ * THEFT BY DECEPTION$2950SBGwinnett County SheriffCharges
03/28/2015 13:1603/28/2015 18:45BAROILIAFEROZ9952342099523420 3028 CHAMBLEE TUCKER RD APT E9, CHAMBLEE GA 30341Failure to Appear$350CBNorcross PoliceCharges
03/28/2015 12:11WILSON-LEEEDNEISHA9952341999523419 4405 IVY FORK DR, LOGANVILLE GA 30052*GIVING FALSE NAME$356SBSnellville PoliceCharges
03/28/2015 12:11WILSON-LEEEDNEISHA9952341999523419 4405 IVY FORK DR, LOGANVILLE GA 30052HOLD FOR OTHER AGENCY$0NBSnellville PoliceCharges
03/28/2015 11:5203/28/2015 17:55FAGANLUKER9948964399489643 1900 GLENN CLUB DR APT 804, STONE MOUNTAIN GA 30087@ * BATTERY$2950CBGwinnett County PoliceCharges
03/28/2015 11:4303/28/2015 15:22LULEJOSEDAVID9934421999344294 6259 S NORCROSS TUCKER RD, TUCKER GA 30084SPEEDING / 1ST OFFENSE / 19-23 OVER$250CBLawrenceville PoliceCharges
03/28/2015 11:4303/28/2015 15:22LULEJOSEDAVID9934421999344294 6259 S NORCROSS TUCKER RD, TUCKER GA 30084NEW RESIDENT - 30 DAYS TO OBTAIN LICENSE$803CBLawrenceville PoliceCharges
03/28/2015 11:26DONALDSONBRANDONSHANE9948288099482880 4084 LONGVIEW DR, CHAMBLEE GA 30341@ * THEFT BY SHOPLIFTING$2400SBNorcross PoliceCharges
03/28/2015 11:26DONALDSONBRANDONSHANE9948288099482880 4084 LONGVIEW DR, CHAMBLEE GA 30341*VGCSA OF C/S$2950SBNorcross PoliceCharges
03/28/2015 11:26DONALDSONBRANDONSHANE9948288099482880 4084 LONGVIEW DR, CHAMBLEE GA 30341*VGCSA OF C/S$2950SBNorcross PoliceCharges
03/28/2015 10:46GUZMAN-CORDOBACAYETANO9922670499226704 6259 S NORCROSS TUCKER RD APT U9, TUCKER GA 30084* VIOLATION OF PROBATION$0NBGwinnett County SheriffCharges
03/28/2015 10:46GUZMAN-CORDOBACAYETANO9922670499226704 6259 S NORCROSS TUCKER RD APT U9, TUCKER GA 30084HOLD FOR IMMIGRATION$0NBGwinnett County SheriffCharges
03/28/2015 10:46TARVINDUSTINALLEN9914734599147345 201 GARNETT ST, BUFORD GA 30518@ * BATTERY$0NBGwinnett County SheriffCharges
03/28/2015 10:46TARVINDUSTINALLEN9914734599147345 201 GARNETT ST, BUFORD GA 30518HOLD FOR OTHER AGENCY$0NBGwinnett County SheriffCharges
03/28/2015 10:30BOYDSTEPHENJAMES9952341799523417 1017 HANK AARON DR SW, ATLANTA GA 30315FAILURE TO APPEAR$165CBGwinnett County SheriffCharges
03/28/2015 10:30BOYDSTEPHENJAMES9952341799523417 1017 HANK AARON DR SW, ATLANTA GA 30315* OBSTRUCTION LAW ENFORCEMENT OFFICER$5700SBGwinnett County SheriffCharges
03/28/2015 10:30BOYDSTEPHENJAMES9952341799523417 1017 HANK AARON DR SW, ATLANTA GA 30315* GIVING FALSE NAME OR INFORMATION$5700SBGwinnett County SheriffCharges
03/28/2015 10:29LOPEZTABITHAJEAN9905613499313467 2025 PEACHTREE RD, ATLANTA GA 30309*TRAFFICKING IN METHAMPHETAMINE$0NBGwinnett County SheriffCharges
03/28/2015 10:29LOPEZTABITHAJEAN9905613499313467 2025 PEACHTREE RD, ATLANTA GA 30309*VGCSA INTENT DISTRIBUTE C/S$0NBGwinnett County SheriffCharges
03/28/2015 10:29LOPEZTABITHAJEAN9905613499313467 2025 PEACHTREE RD, ATLANTA GA 30309*TRAFFICKING IN METHAMPHETAMINE$0NBGwinnett County SheriffCharges
03/28/2015 09:4903/28/2015 13:26LYONSERICDWAYNE9952341599523415 4618 STONE LANE, STONE MOUNTAIN GA 30083EXPIRED LICENSE$67CBGwinnett County PoliceCharges
03/28/2015 09:18KICKLIGHTERFREDRICKJAMES9949594699495946 175 EAST MEADOWS CT, ATLANTA GA 30005* VIOLATION OF PROBATION$0NBPrisoner Transport ServicesCharges
03/28/2015 06:5003/28/2015 15:27CHANDJOSHUAO'NEIL9952341499523414 4374 GROVE LAKE ST, LOGANVILLE GA 30052IMPROPER/ERRATIC LANE CHANGE$96SBGwinnett County PoliceCharges
03/28/2015 06:5003/28/2015 15:27CHANDJOSHUAO'NEIL9952341499523414 4374 GROVE LAKE ST, LOGANVILLE GA 30052POSSESSION OF LESS THAN OZ MARIJUANA$585SBGwinnett County PoliceCharges
03/28/2015 06:3503/28/2015 10:32DHANANIARSHILLTAJ9945555299455552 3678 SADDLEMAKER DR, BUFORD GA 30519*DUI - ALCOHOL$2006SBGwinnett County PoliceCharges
03/28/2015 06:21YTITYYTITYYIYI9952341399523413 2900 UNIVERSITY PARKWAY, LAWRENCEVILLE GA 30043*DISORDERLY CONDUCT$140SBGwinnett County PoliceCharges
03/28/2015 06:13SAMUELZACHARYALLEN9952341299523412 2005 CEDAR AVE, MACON GA 31204* DUI-ALCOHOL$2006SBGwinnett County PoliceCharges
03/28/2015 06:13SAMUELZACHARYALLEN9952341299523412 2005 CEDAR AVE, MACON GA 31204SPEEDING$285SBGwinnett County PoliceCharges
03/28/2015 06:13SAMUELZACHARYALLEN9952341299523412 2005 CEDAR AVE, MACON GA 31204RECKLESS DRIVING$425SBGwinnett County PoliceCharges
03/28/2015 06:13SAMUELZACHARYALLEN9952341299523412 2005 CEDAR AVE, MACON GA 31204IMPROPER/ERRATIC LANE CHANGE$68SBGwinnett County PoliceCharges
03/28/2015 06:13SAMUELZACHARYALLEN9952341299523412 2005 CEDAR AVE, MACON GA 31204OPEN CONTAINER LAW$299SBGwinnett County PoliceCharges
03/28/2015 06:13SAMUELZACHARYALLEN9952341299523412 2005 CEDAR AVE, MACON GA 31204IMPROPER/ERRATIC LANE CHANGE$68SBGwinnett County PoliceCharges
03/28/2015 05:5703/28/2015 16:26BAMIEHAHMADSALIN9946990799469907 939 DICKENS RD NW, LILBURN GA 30047*DUTY TO STOP WHEN INVOLVED IN ACCIDENT$715CBLilburn PoliceCharges
03/28/2015 05:5703/28/2015 16:26BAMIEHAHMADSALIN9946990799469907 939 DICKENS RD NW, LILBURN GA 30047*DUI--ALCOHOL$1266CBLilburn PoliceCharges
03/28/2015 05:4703/28/2015 17:26AVERYJAMESDOUGLAS9952341199523411 1907 ARBOR DR, DULUTH GA 30096* DUI-MORE THAN 0.10%BLOOD ALCOHOL$2006SBGwinnett County PoliceCharges
03/28/2015 04:5003/28/2015 09:22THROWERMARCUSLUCIEN9947511899475118 632 MAPEL WOOD DRIVE, LAWRENCEVILLE GA 30046* DUI-ALCOHOL$2006SBGwinnett County PoliceCharges
03/28/2015 04:5003/28/2015 09:22THROWERMARCUSLUCIEN9947511899475118 632 MAPEL WOOD DRIVE, LAWRENCEVILLE GA 30046OPEN CONTAINER LAW$299SBGwinnett County PoliceCharges
03/28/2015 04:40FAZIOSTEPHENJOSEPH9952341099523410 615 TUXWORTH CIR, DECATUR GA 30033* DUI-MORE THAN 0.10%BLOOD ALCOHOL$2006SBGwinnett County PoliceCharges
03/28/2015 04:3903/28/2015 08:20JIMENEZVANESSARENEE9952340999523409 3355 SWEETWATER RD APT 3005, LAWRENCEVILLE GA 30044* DUI-MORE THAN 0.10%BLOOD ALCOHOL$2006SBGwinnett County PoliceCharges
03/28/2015 04:31MITCHELLJEFFERSONSNIPES9952340899523408 2103 BEAVER SPRINGS LANE, NORCROSS GA 30071@ * BATTERY$0NBGwinnett County PoliceCharges
03/28/2015 03:44PINANELSONRODRIGUES9950949899509498 2525 LAKE CT, SNELLVILLE GA 30078*SUSPENDED/REVOKED LIC$816SBSnellville PoliceCharges
03/28/2015 03:44PINANELSONRODRIGUES9950949899509498 2525 LAKE CT, SNELLVILLE GA 30078DUI-LESS SAFE$969.5SBSnellville PoliceCharges
03/28/2015 03:44PINANELSONRODRIGUES9950949899509498 2525 LAKE CT, SNELLVILLE GA 30078FAILURE TO MAINTAIN LANE$117SBSnellville PoliceCharges
03/28/2015 03:31BRUECKMANROGERDONALD9949248899492488 3410 ASHTON DRIVE, SUWANEE GA 30024*MAUFACTUR/POSS/PURCH/DIST/SALE MARIJUAN$0NBGwinnett County PoliceCharges
03/28/2015 03:2803/28/2015 14:44KOPAUL9949398899493988 2951 SATELLITE BLVD APT 1328, DULUTH GA 30096* DUI-MORE THAN 0.10%BLOOD ALCOHOL$2006SBGwinnett County PoliceCharges
03/28/2015 03:2803/28/2015 14:44KOPAUL9949398899493988 2951 SATELLITE BLVD APT 1328, DULUTH GA 30096*VIOLATE LIMITED LICENSE CONDITIONS$152SBGwinnett County PoliceCharges
03/28/2015 03:2803/28/2015 14:44KOPAUL9949398899493988 2951 SATELLITE BLVD APT 1328, DULUTH GA 30096DL TO BE EXHIBITED ON DEMAND$19SBGwinnett County PoliceCharges
03/28/2015 03:2803/28/2015 14:44KOPAUL9949398899493988 2951 SATELLITE BLVD APT 1328, DULUTH GA 30096FAILURE TO EXERCISE DUE CARE$96SBGwinnett County PoliceCharges
03/28/2015 03:2303/28/2015 12:41SOSAKEVINBARBOSA9948245899482458 4225 SMOKECREEK PKWY APT 150A, SNELLVILLE GA 30039SPEEDING 11-15 OVER$116.5CBSnellville PoliceCharges
03/28/2015 03:2303/28/2015 12:41SOSAKEVINBARBOSA9948245899482458 4225 SMOKECREEK PKWY APT 150A, SNELLVILLE GA 30039Possession of Marijuana less 1oz$784CBSnellville PoliceCharges
03/28/2015 03:2303/28/2015 12:41SOSAKEVINBARBOSA9948245899482458 4225 SMOKECREEK PKWY APT 150A, SNELLVILLE GA 30039DRUG-RELATED ACTIVITIES$288.5CBSnellville PoliceCharges
03/28/2015 03:0503/28/2015 17:43TYLERJASMINELASHA9952340799523407 3285 SUNRISE VILLAGE LN APT H, NORCROSS GA 30093*VGCSA POSS OF MARIJUANA W/INTENT TO DIS$5700SBGwinnett County PoliceCharges
03/28/2015 02:5803/28/2015 08:53RAGEROWENGERALD9952340699523406 2560 MILLWATER XING, DACULA GA 30019@ * SIMPLE BATTERY$1300CBGwinnett County PoliceCharges
03/28/2015 02:4903/29/2015 18:32SCHROEDERPATRICKSCOTT9919384299193842 109 PEARL CHAMBERS DRIVE, DAWSONVILLE GA 30534* DUI-ALCOHOL$2006SBGwinnett County PoliceCharges
03/28/2015 02:4903/29/2015 18:32SCHROEDERPATRICKSCOTT9919384299193842 109 PEARL CHAMBERS DRIVE, DAWSONVILLE GA 30534* DRIVING WHILE LIC SUSP/REVOKED$705SBGwinnett County PoliceCharges
03/28/2015 02:4903/29/2015 18:32SCHROEDERPATRICKSCOTT9919384299193842 109 PEARL CHAMBERS DRIVE, DAWSONVILLE GA 30534AT LEAST ONE BRAKE LIGHT$68SBGwinnett County PoliceCharges
03/28/2015 02:0103/28/2015 04:34SMITHDARRYLWENDELL9952340299523402 3652 UTOY DR SW, ATLANTA GA 30331@ * BATTERY$1300SBLoganville PoliceCharges
03/28/2015 02:0103/28/2015 04:34SMITHDARRYLWENDELL9952340299523402 3652 UTOY DR SW, ATLANTA GA 30331* CRIMINAL TRESPASS$1300SBLoganville PoliceCharges
03/28/2015 02:0103/28/2015 04:34SMITHDARRYLWENDELL9952340299523402 3652 UTOY DR SW, ATLANTA GA 30331* CRIMINAL TRESPASS$1300SBLoganville PoliceCharges
03/28/2015 01:3703/28/2015 17:16BOWDENNATHANIEL9952340599523405 2250 PELICAN DRIVE APT 526, NORCROSS GA 30071@ * AGGRAVATED ASSAULT$5700SBGwinnett County PoliceCharges
03/28/2015 01:3703/28/2015 04:38SHUJA-WILLIAMSJAMALBIN9952340499523404 2542 ASHRIDGE CT, LAWRENCEVILLE GA 30043* DUI - DRUGS/ALCOHOL$2006SBGwinnett County PoliceCharges
03/28/2015 01:3703/28/2015 04:38SHUJA-WILLIAMSJAMALBIN9952340499523404 2542 ASHRIDGE CT, LAWRENCEVILLE GA 30043IMPROPER/ERRATIC LANE CHANGE$68SBGwinnett County PoliceCharges
03/28/2015 01:3003/28/2015 19:28GARCIAEDWINELIESER9936571099365725 1391 WALTON WAY, NORCROSS GA 30093@ * BATTERY$1300SBGwinnett County PoliceCharges
03/28/2015 01:2103/28/2015 04:48KIERTEKLESJOHNMICHAEL9930180799335346 4538 ARBOR CREST PL, SUWANEE GA 30024THEFT BY SHOPLIFTING$355SBSuwanee PoliceCharges
03/28/2015 00:55EVANS-BROCKCAROLYNMARIE9952340199523401 188 ERIC SIMPSON DR APT 34, ELLIJAY GA 30540* DRIVING WHILE LIC SUSP/REVOKED$705SBGwinnett County PoliceCharges
03/28/2015 00:55EVANS-BROCKCAROLYNMARIE9952340199523401 188 ERIC SIMPSON DR APT 34, ELLIJAY GA 30540M/V MUST HAVE 2 HEADLIGHTS$68SBGwinnett County PoliceCharges
03/28/2015 00:55EVANS-BROCKCAROLYNMARIE9952340199523401 188 ERIC SIMPSON DR APT 34, ELLIJAY GA 30540* OBSTRUCTION LAW ENFORCEMENT OFFICER$1300SBGwinnett County PoliceCharges
03/28/2015 00:55EVANS-BROCKCAROLYNMARIE9952340199523401 188 ERIC SIMPSON DR APT 34, ELLIJAY GA 30540*VGCSA OF C/S$0NBGwinnett County PoliceCharges
03/28/2015 00:55EVANS-BROCKCAROLYNMARIE9952340199523401 188 ERIC SIMPSON DR APT 34, ELLIJAY GA 30540*POSS AND USE OF DRUG RELATED$1300SBGwinnett County PoliceCharges
03/28/2015 00:50MCCLUREWILLIAMDAVID9952340099523400 114 COX CREEK RD, ELLIJAY GA 30540OPEN CONTAINER LAW$299SBGwinnett County PoliceCharges
03/28/2015 00:50MCCLUREWILLIAMDAVID9952340099523400 114 COX CREEK RD, ELLIJAY GA 30540*VGCSA OF C/S$5700SBGwinnett County PoliceCharges
03/28/2015 00:3603/28/2015 05:14STONEERICCLAYTON9921226699212266 714 WYNHOLLOW TRAL APT 1, NORCROSS GA 30071@ * THEFT BY SHOPLIFTING$1300SBGwinnett County PoliceCharges
03/28/2015 00:3603/28/2015 05:14STONEERICCLAYTON9921226699212266 714 WYNHOLLOW TRAL APT 1, NORCROSS GA 30071@ * THEFT BY SHOPLIFTING$1300SBGwinnett County PoliceCharges
03/28/2015 00:2703/28/2015 03:28CARADINEDANNY9952339999523399 172 BERNICE DR, LAWRENCEVILLE GA 30045DRIVING WITHOUT VALID LICENSE$803SBLawrenceville PoliceCharges
03/28/2015 00:2703/28/2015 03:28CARADINEDANNY9952339999523399 172 BERNICE DR, LAWRENCEVILLE GA 30045HEADLIGHT REQUIREMENTS$88SBLawrenceville PoliceCharges
03/28/2015 00:1803/29/2015 21:25BELTRANJUANCAMILO9951793199517931 4969 HIDDEN BRANCH DR, SUGAR HILL GA 30518IMPROPER LANE CHANGE$68ORGwinnett County PoliceCharges
03/28/2015 00:1803/29/2015 21:25BELTRANJUANCAMILO9951793199517931 4969 HIDDEN BRANCH DR, SUGAR HILL GA 30518* DUI-ALCOHOL$2006ORGwinnett County PoliceCharges
03/28/2015 00:1803/29/2015 21:25BELTRANJUANCAMILO9951793199517931 4969 HIDDEN BRANCH DR, SUGAR HILL GA 30518* PURCHASE/POSS ALCOHOL PERSON UNDER 21$135ORGwinnett County PoliceCharges
03/28/2015 00:1803/29/2015 21:25BELTRANJUANCAMILO9951793199517931 4969 HIDDEN BRANCH DR, SUGAR HILL GA 30518OPEN CONTAINER LAW$299ORGwinnett County PoliceCharges
03/28/2015 00:1203/28/2015 08:29CHAMPIONRASHONTYRICE9952339899523398 1403 KNIGHT CHASE DR, STOCKBRIDGE GA 30281*SUSPENDED/REVOKED LIC$816SBSnellville PoliceCharges
03/28/2015 00:0003/28/2015 19:10HOWARD-PRYORCASSANDRAMARIE9911948199367283 95 CELEBRATION DR, SUWANEE GA 30024*DRIVING WITH SUSPENDED TAG$731.25SBDuluth PoliceCharges
03/28/2015 00:0003/28/2015 19:10HOWARD-PRYORCASSANDRAMARIE9911948199367283 95 CELEBRATION DR, SUWANEE GA 30024NO INSURANCE$410.25SBDuluth PoliceCharges
03/28/2015 00:0003/28/2015 19:10HOWARD-PRYORCASSANDRAMARIE9911948199367283 95 CELEBRATION DR, SUWANEE GA 30024* ENDANGERING SECURITY INTEREST$1300SBDuluth PoliceCharges
03/27/2015 23:1903/28/2015 03:05PADILLA -QUINTANILLAJUANCARLOS9948788999487889 584 MARTIN FOREST LN, LAWRENCEVILLE GA 30045DRIVING WITHOUT VALID LICENSE$803SBLawrenceville PoliceCharges
03/27/2015 23:1903/28/2015 03:05PADILLA -QUINTANILLAJUANCARLOS9948788999487889 584 MARTIN FOREST LN, LAWRENCEVILLE GA 30045OBSCURRED OR MISSING LICENSE PLATES$113SBLawrenceville PoliceCharges
03/27/2015 23:18STIRGUSDAVID9933633699336336 2040 WELLS ROAD APT 9G, ORANGE PARK FL 32073* VIOLATION OF PROBATION$0NBPrisoner Transport ServicesCharges
03/27/2015 23:06RIVERAAMELIAGLORIA9952339799523397 813 CHERRY LAUREL DR APT 308, FAYETTEVILLE NC 28314@ * INTERFERENCE WITH CUSTODY$22200SBPrisoner Transport ServicesCharges
03/27/2015 22:5703/28/2015 04:56AJCALON-CUMATZERICKAYESSENIA9952339699523396 3367 CUMBERLAND DR APT B, ATLANTA GA 30341*LICENSE:DRIVING WHILE UNLIC. OR EXPIRED$731.25CBDuluth PoliceCharges
03/27/2015 22:4803/29/2015 22:15LONGZACHARYDAVID9921914799219147 455 HIMLOCK DR APT H6, PINE LAKE GA 30072*AGGRESSIVE DRIVING$718.5ORSnellville PoliceCharges
03/27/2015 22:4403/28/2015 10:30RAMIREZONECIMOREYES9952339599523395 1434 BROOKCREST ST, LAWRENCEVILLE GA 30044@ * PEEPING TOM$2950CBGwinnett County PoliceCharges
03/27/2015 21:34WHITEPIERCETYREE9952339399523393 4014 E 11TH ST, INDIANAPOLIS IN 46201@ * ROBBERY$0NBPrisoner Transport ServicesCharges
03/27/2015 21:2203/28/2015 05:51GOMEZMARLONALDABERTO9952339299523392 1620 SADDLE CREEK RD, AUBURN GA 30011POSSESSION OF LESS THAN OZ MARIJUANA$585SBGwinnett County PoliceCharges
03/27/2015 21:2203/28/2015 05:51GOMEZMARLONALDABERTO9952339299523392 1620 SADDLE CREEK RD, AUBURN GA 30011FAILURE TO APPEAR$60FIGwinnett County PoliceCharges
03/27/2015 20:5503/29/2015 21:21SCHUBLEALICIALYNN9500357999495847 1703 PINE TREE DR, BUFORD GA 30518Violation of Probation$0NBGwinnett County SheriffCharges
03/27/2015 20:4903/28/2015 02:32VELAJOSEMARTIN9700966297009662 506 MONTICELLO CT, WINDER GA 30680BRAKE LIGHT STANDARDS$60CBLawrenceville PoliceCharges
03/27/2015 20:4903/28/2015 02:32VELAJOSEMARTIN9700966297009662 506 MONTICELLO CT, WINDER GA 30680DRIVING WITHOUT VALID LICENSE$803CBLawrenceville PoliceCharges
03/27/2015 20:35HARTJAYDAVID9932078899320788APT B 4801 VALLEY DALE DR SW, LILBURN GA 30047@ * THEFT BY TAKING$4600SBGwinnett County SheriffCharges
03/27/2015 20:35HARTJAYDAVID9932078899320788APT B 4801 VALLEY DALE DR SW, LILBURN GA 30047@ * THEFT BY TAKING$4600SBGwinnett County SheriffCharges
03/27/2015 20:35HARTJAYDAVID9932078899320788APT B 4801 VALLEY DALE DR SW, LILBURN GA 30047@ * THEFT BY DECEPTION$4600SBGwinnett County SheriffCharges
03/27/2015 20:35HARTJAYDAVID9932078899320788APT B 4801 VALLEY DALE DR SW, LILBURN GA 30047@ * THEFT BY DECEPTION$4600SBGwinnett County SheriffCharges
03/27/2015 20:35HARTJAYDAVID9932078899320788APT B 4801 VALLEY DALE DR SW, LILBURN GA 30047@ * THEFT BY DECEPTION$4600SBGwinnett County SheriffCharges
03/27/2015 20:35HARTJAYDAVID9932078899320788APT B 4801 VALLEY DALE DR SW, LILBURN GA 30047@ * THEFT BY DECEPTION$4600SBGwinnett County SheriffCharges
03/27/2015 20:35HARTJAYDAVID9932078899320788APT B 4801 VALLEY DALE DR SW, LILBURN GA 30047@ * THEFT BY DECEPTION$4600SBGwinnett County SheriffCharges
03/27/2015 20:35HARTJAYDAVID9932078899320788APT B 4801 VALLEY DALE DR SW, LILBURN GA 30047@ * THEFT BY DECEPTION$4600SBGwinnett County SheriffCharges
03/27/2015 20:0903/08/2015 20:36GARNERKIMBERLYANNE9938308499383084 6264 CUMMING HWY, BUFORD GA 30518* DUI - DRUGS/ALCOHOL$0NBGwinnett County SheriffCharges
03/27/2015 20:0903/08/2015 20:36GARNERKIMBERLYANNE9938308499383084 6264 CUMMING HWY, BUFORD GA 30518* DUI - DRUGS/ALCOHOL$0NBGwinnett County SheriffCharges
03/27/2015 20:0903/15/2015 20:04GARNERKIMBERLYANNE9938308499383084 6264 CUMMING HWY, BUFORD GA 30518* DUI - DRUGS/ALCOHOL$0NBGwinnett County SheriffCharges
03/27/2015 20:0903/15/2015 20:04GARNERKIMBERLYANNE9938308499383084 6264 CUMMING HWY, BUFORD GA 30518* DUI - DRUGS/ALCOHOL$0NBGwinnett County SheriffCharges
03/27/2015 20:0903/29/2015 20:05GARNERKIMBERLYANNE9938308499383084 6264 CUMMING HWY, BUFORD GA 30518* DUI - DRUGS/ALCOHOL$0NBGwinnett County SheriffCharges
03/27/2015 20:0903/29/2015 20:05GARNERKIMBERLYANNE9938308499383084 6264 CUMMING HWY, BUFORD GA 30518* DUI - DRUGS/ALCOHOL$0NBGwinnett County SheriffCharges
03/27/2015 20:0903/22/2015 20:21GARNERKIMBERLYANNE9938308499383084 6264 CUMMING HWY, BUFORD GA 30518* DUI - DRUGS/ALCOHOL$0NBGwinnett County SheriffCharges
03/27/2015 20:0903/22/2015 20:21GARNERKIMBERLYANNE9938308499383084 6264 CUMMING HWY, BUFORD GA 30518* DUI - DRUGS/ALCOHOL$0NBGwinnett County SheriffCharges
03/27/2015 20:02HALLLE VAUGHNMARCEA9951621399516213 2569 TULLAMORE CIR, SNELLVILLE GA 30039@ * THEFT BY RECEIVING$5700SBGwinnett County PoliceCharges
03/27/2015 20:02HALLLE VAUGHNMARCEA9951621399516213 2569 TULLAMORE CIR, SNELLVILLE GA 30039*VGCSA LESS THAN 1 OZ.$1150.25SBGwinnett County PoliceCharges
03/27/2015 20:02HALLLE VAUGHNMARCEA9951621399516213 2569 TULLAMORE CIR, SNELLVILLE GA 30039SAFETY BELTS VIOLATON (ADULTS)$15SBGwinnett County PoliceCharges
03/27/2015 19:5803/28/2015 02:04COFFEYTIONNEKIMBERLY9952337899523378 1281 SPRINGMONT CT, LAWRENCEVILLE GA 30043@ * THEFT BY SHOPLIFTING$1300SBGwinnett County PoliceCharges
03/27/2015 19:5303/27/2015 23:45THOMASSHIRRELLELAINE9921649499216494 700 JOSH LANE, LAWRENCEVILLE GA 30045Violation of Probation$478FIGwinnett County PoliceCharges
03/27/2015 19:45JACKCARLTONCARLINSKI9951973499519734 2851 PARK CHASE DR, SNELLVILLE GA 30039@ * AGGRAVATED ASSAULT$0NBGwinnett County PoliceCharges
03/27/2015 19:4303/28/2015 17:29LEEDERRICKLAKEITH9914124299141242 1040 NIMBLEWOOD WAY, STONE MOUNTAIN GA 30088*VGCSA POSS OF MARIJUANA W/INTENT TO DIS$5700SBGwinnett County PoliceCharges
03/27/2015 19:4303/28/2015 17:29LEEDERRICKLAKEITH9914124299141242 1040 NIMBLEWOOD WAY, STONE MOUNTAIN GA 30088* CRIMINAL TRESPASS$1300SBGwinnett County PoliceCharges
03/27/2015 19:3702/06/2015 18:54BOOKERJAMESEDDIE9950329799503297 1099 ERIE CIRCLE, STONE MOUNTAIN GA 30087*VGCSA POSS OF MARIJUANA W/INTENT TO DIS$0NBGwinnett County SheriffCharges
03/27/2015 19:3702/08/2015 18:09BOOKERJAMESEDDIE9950329799503297 1099 ERIE CIRCLE, STONE MOUNTAIN GA 30087*VGCSA POSS OF MARIJUANA W/INTENT TO DIS$0NBGwinnett County SheriffCharges
03/27/2015 19:3702/15/2015 18:10BOOKERJAMESEDDIE9950329799503297 1099 ERIE CIRCLE, STONE MOUNTAIN GA 30087*VGCSA POSS OF MARIJUANA W/INTENT TO DIS$0NBGwinnett County SheriffCharges
03/27/2015 19:3703/01/2015 18:10BOOKERJAMESEDDIE9950329799503297 1099 ERIE CIRCLE, STONE MOUNTAIN GA 30087*VGCSA POSS OF MARIJUANA W/INTENT TO DIS$0NBGwinnett County SheriffCharges
03/27/2015 19:3703/15/2015 18:06BOOKERJAMESEDDIE9950329799503297 1099 ERIE CIRCLE, STONE MOUNTAIN GA 30087*VGCSA POSS OF MARIJUANA W/INTENT TO DIS$0NBGwinnett County SheriffCharges
03/27/2015 19:3703/13/2015 19:55BOOKERJAMESEDDIE9950329799503297 1099 ERIE CIRCLE, STONE MOUNTAIN GA 30087*VGCSA POSS OF MARIJUANA W/INTENT TO DIS$0NBGwinnett County SheriffCharges
03/27/2015 19:3703/08/2015 18:16BOOKERJAMESEDDIE9950329799503297 1099 ERIE CIRCLE, STONE MOUNTAIN GA 30087*VGCSA POSS OF MARIJUANA W/INTENT TO DIS$0NBGwinnett County SheriffCharges
03/27/2015 19:3702/22/2015 18:06BOOKERJAMESEDDIE9950329799503297 1099 ERIE CIRCLE, STONE MOUNTAIN GA 30087*VGCSA POSS OF MARIJUANA W/INTENT TO DIS$0NBGwinnett County SheriffCharges
03/27/2015 19:3703/22/2015 18:08BOOKERJAMESEDDIE9950329799503297 1099 ERIE CIRCLE, STONE MOUNTAIN GA 30087*VGCSA POSS OF MARIJUANA W/INTENT TO DIS$0NBGwinnett County SheriffCharges
03/27/2015 19:3703/29/2015 18:14BOOKERJAMESEDDIE9950329799503297 1099 ERIE CIRCLE, STONE MOUNTAIN GA 30087*VGCSA POSS OF MARIJUANA W/INTENT TO DIS$0NBGwinnett County SheriffCharges
03/27/2015 19:33GARCIAMARIONO9928478399284783 3400 CLUB DR, LAWRENCEVILLE GA 30044@ * PEEPING TOM$0NBGwinnett County SheriffCharges
03/27/2015 19:33GARCIAMARIONO9928478399284783 3400 CLUB DR, LAWRENCEVILLE GA 30044HOLD FOR IMMIGRATION$0NBGwinnett County SheriffCharges
03/27/2015 19:28ROBERTSBRITTANYKIERRA9952337799523377 700 JOSH LANE, LAWRENCEVILLE GA 30045@ * AGGRAVATED ASSAULT$0NBGwinnett County PoliceCharges
03/27/2015 19:28ROBERTSBRITTANYKIERRA9952337799523377 700 JOSH LANE, LAWRENCEVILLE GA 30045@ * BATTERY$0NBGwinnett County PoliceCharges
03/27/2015 19:28ROBERTSBRITTANYKIERRA9952337799523377 700 JOSH LANE, LAWRENCEVILLE GA 30045* CRIMINAL TRESPASS$1300SBGwinnett County PoliceCharges
03/27/2015 19:28ROBERTSBRITTANYKIERRA9952337799523377 700 JOSH LANE, LAWRENCEVILLE GA 30045CRUELTY TO CHILDREN-3RD DEGREE$1300SBGwinnett County PoliceCharges
03/27/2015 19:28ROBERTSBRITTANYKIERRA9952337799523377 700 JOSH LANE, LAWRENCEVILLE GA 30045CRUELTY TO CHILDREN-3RD DEGREE$1300SBGwinnett County PoliceCharges
03/27/2015 19:0103/28/2015 02:23ADOLPHEREGINALDFRANCOIS9952337599523375 713 BARTOW DR, DACULA GA 30019POSSESSION OF LESS 1 OZ. MARIJUANA$585SBGwinnett County PoliceCharges
03/27/2015 19:0003/28/2015 02:02MAYFIELDMARCEL9952337699523376 2353 VALLEY MILL CGT, BUFORD GA 30519@ * THEFT BY TAKING$2950SBGwinnett County PoliceCharges
03/27/2015 18:53BUSTOS-CABRERACLINTO9952199899521998 806 LIA HILLS DRIVE, NORCROSS GA 30071*CHILD MOLESTATION$22200SBNorcross PoliceCharges
03/27/2015 18:53BUSTOS-CABRERACLINTO9952199899521998 806 LIA HILLS DRIVE, NORCROSS GA 30071@*SEXUAL BATTERY$22200SBNorcross PoliceCharges
03/27/2015 18:4803/28/2015 03:46CHENXIAOCHUN9952337499523374 4161 ROGERS CREEK CT, DULUTH GA 30096@ * THEFT BY SHOPLIFTING$1300CBGwinnett County PoliceCharges
03/27/2015 18:4703/28/2015 03:39HUSSEYCAROLINETAYLOR9952337399523373 2910 ROXBURGH DR, ROSWELL GA 30076@ * THEFT BY SHOPLIFTING$650CBGwinnett County PoliceCharges
03/27/2015 18:3703/29/2015 20:00COOPERMALCOLMISAIAH9952241599522415 183 FOREST PL, LAWRENCEVILLE GA 30046DISORDERLY CONDUCT$439ORLawrenceville PoliceCharges
03/27/2015 18:3703/29/2015 12:07TELFAIRDWIGHTALLAN9927099499270994 1599 KENMORE ST, ATLANTA GA 30311FAILURE TO APPEAR$1850SBGwinnett County SheriffCharges
03/27/2015 18:31DAVIDSONARMANDLARON9952337299523372 315 AMADOR CIR, ATLANTA GA 30350DRIVING EMERG LANE/GORE/MEDIAN$210CBNorcross PoliceCharges
03/27/2015 18:31DAVIDSONARMANDLARON9952337299523372 315 AMADOR CIR, ATLANTA GA 30350HOLD FOR OTHER AGENCY$0NBNorcross PoliceCharges
03/27/2015 18:27GOODRICHMICHAELTERENCE9948917999489179 1100 HERITAGE VALLEY RD, NORCROSS GA 30093OTHER OFFENSE$0NBGwinnett County SheriffCharges
03/27/2015 18:2403/28/2015 00:03TATUMJIMMYLEE9952337199523371 1358 PLAZA AVE, ATLANTA GA 30310SOLICITATION WITHOUT A PERMIT$135CBGwinnett County PoliceCharges
03/27/2015 18:2403/28/2015 00:03TATUMJIMMYLEE9952337199523371 1358 PLAZA AVE, ATLANTA GA 30310AGGRESSIVE SOLICITATION PROHIBITED$140CBGwinnett County PoliceCharges
03/27/2015 18:19NEALDESTINEYBRYONNA9949645599496455 3835 ROCKETT TRAIL APT K, CLARKSTON GA 30021@ * AGGRAVATED ASSAULT$0NBGwinnett County SheriffCharges
03/27/2015 18:11UNDERWOODKATELYNMARIE9952337099523370 2120 FOSTER DR, CUMMING GA 30040@ * THEFT BY SHOPLIFTING$2400CBGwinnett County PoliceCharges
03/27/2015 18:1003/28/2015 16:59ABBETTSOPHIAENGLISH9952336999523369 7200 BENNETT RD, CUMMING GA 30041@ * THEFT BY SHOPLIFTING$2400CBGwinnett County PoliceCharges
03/27/2015 17:5803/28/2015 02:48TAYLORKARENCHARMAINE9952336899523368 101 STONEVIEW TRL, LILBURN GA 30047@ * THEFT BY SHOPLIFTING$1300SBGwinnett County PoliceCharges
03/27/2015 17:5503/28/2015 13:10HENDRIXALEXANDRIADANIELLE9952336699523366 7200 BENNETT RD, CUMMING GA 30041@ * THEFT BY SHOPLIFTING$2400CBGwinnett County PoliceCharges
03/27/2015 17:46MCNEILLMARIAHELIZE9949519899495198 5065 BURRUSS MILL RD, CUMMING GA 30041@ * THEFT BY SHOPLIFTING$2400CBGwinnett County PoliceCharges
03/27/2015 17:0203/28/2015 00:01QUEVEDO-PARRAWALTER9952336599523365 2720 N BERKLEY LANE, DULUTH GA 30097MUST MOVE OVER FOR EMERGENCY VEHICLES$731.25SBDuluth PoliceCharges
03/27/2015 17:0203/28/2015 00:01QUEVEDO-PARRAWALTER9952336599523365 2720 N BERKLEY LANE, DULUTH GA 30097*LICENSE:DRIVING WHILE UNLIC. OR EXPIRED$731.25SBDuluth PoliceCharges
03/27/2015 16:59HOODJAMESHOWARD9500371695003716 3940 BETHANY WOODS CT, SNELLVILLE GA 30039@ * THEFT BY SHOPLIFTING$1300SBGwinnett County PoliceCharges
03/27/2015 16:35GODWINEBONYTANAE9947481699474816 2255 SATELLITE BLVD APT 8108, DULUTH GA 30097HOLD FOR OTHER AGENCY$0NBGwinnett County PoliceCharges
03/27/2015 16:28AVILA CRUZSANTOSA9949695099496950 4635 CANDLE WYCK WAY, BUFORD GA 30518FAILURE TO MAINTAIN LANE$210SBNorcross PoliceCharges
03/27/2015 16:28AVILA CRUZSANTOSA9949695099496950 4635 CANDLE WYCK WAY, BUFORD GA 30518*NO VALID LICENSE$860SBNorcross PoliceCharges
03/27/2015 16:28AVILA CRUZSANTOSA9949695099496950 4635 CANDLE WYCK WAY, BUFORD GA 30518HOLD FOR IMMIGRATION$0NBNorcross PoliceCharges
03/27/2015 16:12RODRIGUEZJONATHAN9951981799519817 10 SWEETWATER WAY APT 229, LAWRENCEVILLE GA 30044@ * THEFT BY SHOPLIFTING$1300SBGwinnett County PoliceCharges
03/27/2015 16:12RODRIGUEZJONATHAN9951981799519817 10 SWEETWATER WAY APT 229, LAWRENCEVILLE GA 30044* GIVING FALSE NAME OR INFORMATION$1300SBGwinnett County PoliceCharges
03/27/2015 16:12RODRIGUEZJONATHAN9951981799519817 10 SWEETWATER WAY APT 229, LAWRENCEVILLE GA 30044HOLD FOR IMMIGRATION$0NBGwinnett County PoliceCharges
03/27/2015 16:12RODRIGUEZJONATHAN9951981799519817 10 SWEETWATER WAY APT 229, LAWRENCEVILLE GA 30044* VIOLATION OF PROBATION$0NBGwinnett County PoliceCharges
03/27/2015 16:0303/29/2015 16:51CANFIELDGREGORYMICHAEL9949811799498117 3429 PARTON CT, NORCROSS GA 30092*DISORDERLY CONDUCT$140ORGwinnett County PoliceCharges
03/27/2015 15:5303/27/2015 23:58WILSONDARONDAMON9923837199238371 1400 HERRINGTON RD APT 15303, LAWRENCEVILLE GA 30044OPEN CONTAINER VIOLATION$402.25SBDuluth PoliceCharges
03/27/2015 15:5303/27/2015 23:58WILSONDARONDAMON9923837199238371 1400 HERRINGTON RD APT 15303, LAWRENCEVILLE GA 30044*DRIVING WHILE LICENSE SUSP/REVOKED$971.75SBDuluth PoliceCharges
03/27/2015 15:4503/27/2015 22:47GAVRIELOVDANIEL9947987499479874 5913 RUE VILLA LANE, TUCKER GA 30084VIOLATION OF PROBATION$990FILilburn PoliceCharges
03/27/2015 15:23SPEARSSTEVENRICHARD9600858996008589 8407 GULF WAY, HUDSON FL 34667@ * TERRORISTIC THREATS & ACTS$0NBSuwanee PoliceCharges
03/27/2015 15:23SPEARSSTEVENRICHARD9600858996008589 8407 GULF WAY, HUDSON FL 34667* DISORDERLY CONDUCT$1300SBSuwanee PoliceCharges
03/27/2015 15:0703/27/2015 21:45VEGA-RENDONGENARORODRIGO9952336399523363 901 PARK COLONY DR, NORCROSS GA 30093*NO DRIVERS LICENSE$705CBGwinnett County PoliceCharges
03/27/2015 15:03FOXPAULLAMOND9947642799476427 3350 SWEETWATER RD APT 1101, LAWRENCEVILLE GA 30044HOLD FOR OTHER AGENCY$0NBDuluth PoliceCharges
03/27/2015 15:03FOXPAULLAMOND9947642799476427 3350 SWEETWATER RD APT 1101, LAWRENCEVILLE GA 30044Violation of Probation$0NBDuluth PoliceCharges
03/27/2015 15:03FOXPAULLAMOND9947642799476427 3350 SWEETWATER RD APT 1101, LAWRENCEVILLE GA 30044* GIVING FALSE NAME OR INFORMATION$1300SBDuluth PoliceCharges
03/27/2015 14:37HARDYRONNIETIJUAN9400501194005011 880 SIX OAKS CIR APT B, NORCROSS GA 30093* DUI-ALCOHOL$0NBGwinnett County SheriffCharges
03/27/2015 14:36STILLJUANLEE9600478396004783 327 CHASE COMMONS DR, NORCROSS GA 30071* DUI-ALCOHOL$0NBGwinnett County SheriffCharges
03/27/2015 14:21MURRYERIKALYNN9936846899368468 206 PLEASANT AVE, MICHIGAN CITY IN 46360* GIVING FALSE NAME OR INFORMATION$0NBGwinnett County SheriffCharges
03/27/2015 14:18MAUROSTACIIRENE9949430499494304 2451 TENNYSON TRAIL, GRAYSON GA 30017* VIOLATION OF PROBATION$0NBGwinnett County SheriffCharges
03/27/2015 14:18MAUROSTACIIRENE9949430499494304 2451 TENNYSON TRAIL, GRAYSON GA 30017* VIOLATION OF PROBATION$0NBGwinnett County SheriffCharges
03/27/2015 14:13MCCARLEYKATHERINEASHLEY9950085499500854APT 4103 1400 HERRINGTON RD, LAWRENCEVILLE GA 30044* VIOLATION OF PROBATION$0NBGwinnett County SheriffCharges
03/27/2015 14:0203/27/2015 21:42KINGJARRETTKRISTOPHER9952171399521713 1602 PARK CROSSING WAY NW, LILBURN GA 30047EXPIRED LICENSE$68CBGwinnett County SheriffCharges
03/27/2015 13:43TUCKERDREXELJEVON9920735199207351APT 4 96 MATHEWS ST, COLUMBUS GA 31903* VIOLATION OF PROBATION$0NBGwinnett County SheriffCharges
03/27/2015 13:42DALTONHENRYNATHANIEL9106093691060936 234 MEMORIAL DR APT 309, ATLANTA GA 30031* VIOLATION OF PROBATION$0NBGwinnett County SheriffCharges
03/27/2015 13:3703/27/2015 18:52DANIELSJOSEPHJOVAD9952336199523361 5311 GEORGE BUSBEE PKWY, KENNESAW GA 30144@ * CHILD ABANDONMENT$3500SBGwinnett County SheriffCharges
03/27/2015 13:3603/27/2015 21:09HOLMESRODERICKLEE9952336099523360 , $Gwinnett County SheriffCharges
03/27/2015 13:21GIBSONMAURICEDEVAR9952335999523359 4142 STONE MOUNTAIN HWY UNIT 144, LILBURN GA 30047HOLD FOR OTHER AGENCY$0NBGwinnett County PoliceCharges
03/27/2015 13:0103/27/2015 18:49TORRES-TABARESIDALBERTO9952335899523358 2638 W 70TH ST, HIALEAH FL 33016IMPROPER LANE CHANGE$96SBGwinnett County PoliceCharges
03/27/2015 13:0103/27/2015 18:49TORRES-TABARESIDALBERTO9952335899523358 2638 W 70TH ST, HIALEAH FL 33016* DUI-ALCOHOL$2006SBGwinnett County PoliceCharges
03/27/2015 12:5703/27/2015 18:54CORTEZHUMBERTO9904420099044200 2642 UNION CIRCLE, SUWANEE GA 30024IMPROPER BACKING$123CBSuwanee PoliceCharges
03/27/2015 12:5703/27/2015 18:54CORTEZHUMBERTO9904420099044200 2642 UNION CIRCLE, SUWANEE GA 30024*DRIVE EXP LIC/CANCELED/NEW RES 30 DAYS$191CBSuwanee PoliceCharges
03/27/2015 12:5703/27/2015 18:54CORTEZHUMBERTO9904420099044200 2642 UNION CIRCLE, SUWANEE GA 30024TINTED TAG COVERS$123CBSuwanee PoliceCharges
03/27/2015 12:07REEDERICBRADON9950046599500465 5448 CONCORD CIR, GAINESVILLE GA 30507* VIOLATION OF PROBATION$0NBGwinnett County SheriffCharges
03/27/2015 10:4803/27/2015 16:34MONTANEZRIGOBERTOGALINDO9939729799397297 4498 BUFORD HWY LOT 127, NORCROSS GA 30071IMPROPER RT/LFT TURN$123CBSuwanee PoliceCharges
03/27/2015 10:4803/27/2015 16:34MONTANEZRIGOBERTOGALINDO9939729799397297 4498 BUFORD HWY LOT 127, NORCROSS GA 30071*DRIVING WHILE UNLICENSED LICENSE$758.75CBSuwanee PoliceCharges
03/27/2015 10:42THOMASCORNELTEE9952335799523357 1615 CHURCH ST, AMBRIDGE PA 15003* OBSTRUCTION LAW ENFORCEMENT OFFICER$2950CBGwinnett County SheriffCharges
03/27/2015 10:39CUNNINGHAMDAKOTASLOAN9951268599512685 380 CROSS CREEK CT, AUBURN GA 30011Violation of Probation$378CBGwinnett County SheriffCharges
03/27/2015 10:2803/27/2015 16:30RAMIREZ-ESCALANTEELIZABETH9950933799523356 802 NOBLE FOREST PL, NORCROSS GA 30093* VGCSA-SCHEDULE II$2950SBSuwanee PoliceCharges
03/27/2015 10:2803/27/2015 16:30RAMIREZ-ESCALANTEELIZABETH9950933799523356 802 NOBLE FOREST PL, NORCROSS GA 30093EXPIRED OR NO LICENSE PLATE OR DECAL$152SBSuwanee PoliceCharges
03/27/2015 10:2803/27/2015 16:30RAMIREZ-ESCALANTEELIZABETH9950933799523356 802 NOBLE FOREST PL, NORCROSS GA 30093UNSAFE TIRES$56SBSuwanee PoliceCharges
03/27/2015 10:2803/27/2015 16:30RAMIREZ-ESCALANTEELIZABETH9950933799523356 802 NOBLE FOREST PL, NORCROSS GA 30093*NO DRIVERS LICENSE$705SBSuwanee PoliceCharges
03/27/2015 10:2803/27/2015 16:30RAMIREZ-ESCALANTEELIZABETH9950933799523356 802 NOBLE FOREST PL, NORCROSS GA 30093IMPROPER TRANSFERRED PLATES$152SBSuwanee PoliceCharges
03/27/2015 09:28ZAMBRANOELEAZAR9948333499483334 271 ALBRIGHTON CT, SUWANEE GA 30024* VIOLATION OF PROBATION$0NBProbationCharges
03/27/2015 09:1903/27/2015 14:42JAMESJONATHANSTANLEY9952335599523355 3144 ENGLISH IVY LN, BUFORD GA 30519FAILURE TO APPEAR$196CBGwinnett County PoliceCharges
03/27/2015 08:5003/29/2015 09:13HESLERWILLIAMMICHAEL9951428599514285 512 EMILY DR SW, LILBURN GA 30047* DUI-ALCOHOL$0NBGwinnett County SheriffCharges
03/27/2015 08:09MILLERMICHAELLINDSEY89482988948298 174 SWEET GUM LN, WINDER GA 30680* GIVING FALSE NAME OR INFORMATION$2400SBDuluth PoliceCharges
03/27/2015 08:09MILLERMICHAELLINDSEY89482988948298 174 SWEET GUM LN, WINDER GA 30680HOLD FOR OTHER AGENCY$0NBDuluth PoliceCharges
03/27/2015 07:0803/27/2015 18:55KIMDANIELHEESOENG9952335499523354 1737 BELMONT CREEK POINTE, SUWANEE GA 30024* DUI-DRUGS$2006CBGwinnett County PoliceCharges
03/27/2015 07:0803/27/2015 18:55KIMDANIELHEESOENG9952335499523354 1737 BELMONT CREEK POINTE, SUWANEE GA 30024IMPROPER LANE CHANGE$96CBGwinnett County PoliceCharges
03/27/2015 07:0803/27/2015 18:55KIMDANIELHEESOENG9952335499523354 1737 BELMONT CREEK POINTE, SUWANEE GA 30024* VGCSA-SCHEDULE II$5700CBGwinnett County PoliceCharges
03/27/2015 05:3903/27/2015 09:11CANACHENELSONLUIS9938763499387634 5762 PINE OAK DR, NORCROSS GA 30092SPEEDING 19-23 OVER$213.25CBDuluth PoliceCharges
03/27/2015 05:3903/27/2015 09:11CANACHENELSONLUIS9938763499387634 5762 PINE OAK DR, NORCROSS GA 30092*DRIVING WHILE LICENSE SUSP/REVOKED$971.75CBDuluth PoliceCharges
03/27/2015 04:5503/27/2015 09:42GILMORECEDRICKCORTNEY9952335399523353 3233 OAK VISTA WY, LAWRENCEVILLE GA 30044* VIOLATION OF EMPLOYMENT SECURITY LAW$5700SBDuluth PoliceCharges
03/27/2015 04:43FORBESAKPANENO-ABASIA9950342799503427APT B 11600 SPRINGS LN, NORCROSS GA 30093* VIOLATION OF PROBATION$0NBGwinnett County SheriffCharges
03/27/2015 04:4103/27/2015 15:08HOLTZDESIREENICOLE9946238199462381 2767 WILDING GREEN WAY, DACULA GA 30019OPEN CONTAINER LAW$299SBGwinnett County PoliceCharges
03/27/2015 04:4103/27/2015 15:08HOLTZDESIREENICOLE9946238199462381 2767 WILDING GREEN WAY, DACULA GA 30019* DUI-ALCOHOL$2006SBGwinnett County PoliceCharges
03/27/2015 04:3203/28/2015 14:06MANCAYO-RIVERAJULIANALBERTO9943799799438002 741 WILKES DR, LOGANVILLE GA 30052@ * BATTERY$1300SBGwinnett County PoliceCharges
03/27/2015 04:2903/27/2015 20:24DAVISDRAYKEVAN9952335299523352 5810 APRIL DR, BUFORD GA 30518IMPROPER LANE CHANGE$68SBGwinnett County PoliceCharges
03/27/2015 04:2903/27/2015 20:24DAVISDRAYKEVAN9952335299523352 5810 APRIL DR, BUFORD GA 30518* DUI-ALCOHOL$2006SBGwinnett County PoliceCharges
03/27/2015 04:0903/29/2015 03:58GAMBRELLTERRANCEHOWARD9905059699050596UNIT 113 801 OLD PEACHTREE RD NW, LAWRENCEVILLE GA 30043DISORDERLY CONDUCT RESIST/OBSTRUCT OFC$360ORNorcross PoliceCharges
03/27/2015 04:0903/29/2015 03:58GAMBRELLTERRANCEHOWARD9905059699050596UNIT 113 801 OLD PEACHTREE RD NW, LAWRENCEVILLE GA 30043DISORDERLY CONDUCT-PUBLIC INTOXICATION$360ORNorcross PoliceCharges
03/27/2015 04:0703/29/2015 02:51BOLARCONDALEEZZACHERNICE9952335199523351 8208 MAGNOLIA BLVD, DULUTH GA 30096*IMPROPER PASSING EMERGECY/TOWING/HWY VE$180ORGwinnett County PoliceCharges
03/27/2015 04:0703/29/2015 02:51BOLARCONDALEEZZACHERNICE9952335199523351 8208 MAGNOLIA BLVD, DULUTH GA 30096DRIVING WITHOUT HEADLIGHTS$68ORGwinnett County PoliceCharges
03/27/2015 04:0703/29/2015 02:51BOLARCONDALEEZZACHERNICE9952335199523351 8208 MAGNOLIA BLVD, DULUTH GA 30096* DUI-MORE THAN 0.10%BLOOD ALCOHOL$2006ORGwinnett County PoliceCharges
03/27/2015 03:07THORNTONTIMOTHYNATHANIEL99076544990765445302 158 PAPERMILL RD, LAWRENCEVILLE GA 30046* DRIVING WHILE LIC SUSP/REVOKED$705SBLawrenceville PoliceCharges
03/27/2015 03:07THORNTONTIMOTHYNATHANIEL99076544990765445302 158 PAPERMILL RD, LAWRENCEVILLE GA 30046IMPROPER LANE CHANGE$68SBLawrenceville PoliceCharges
03/27/2015 03:07THORNTONTIMOTHYNATHANIEL99076544990765445302 158 PAPERMILL RD, LAWRENCEVILLE GA 30046* DUI - DRUGS/ALCOHOL$2006SBLawrenceville PoliceCharges
03/27/2015 03:07THORNTONTIMOTHYNATHANIEL99076544990765445302 158 PAPERMILL RD, LAWRENCEVILLE GA 30046FAIL TO YIELD RIGHT OF WAY TO VEHICLE$68SBLawrenceville PoliceCharges
03/27/2015 03:07THORNTONTIMOTHYNATHANIEL99076544990765445302 158 PAPERMILL RD, LAWRENCEVILLE GA 30046OPEN CONTAINER LAW$299SBLawrenceville PoliceCharges
03/27/2015 03:07THORNTONTIMOTHYNATHANIEL99076544990765445302 158 PAPERMILL RD, LAWRENCEVILLE GA 30046RECKLESS DRIVING$425SBLawrenceville PoliceCharges
03/27/2015 03:07THORNTONTIMOTHYNATHANIEL99076544990765445302 158 PAPERMILL RD, LAWRENCEVILLE GA 30046* POSS OF C/S OR MARIJUANA$1300SBLawrenceville PoliceCharges
03/27/2015 03:07THORNTONTIMOTHYNATHANIEL99076544990765445302 158 PAPERMILL RD, LAWRENCEVILLE GA 30046* VGCSA-SCHEDULE II$0NBLawrenceville PoliceCharges
03/27/2015 03:07THORNTONTIMOTHYNATHANIEL99076544990765445302 158 PAPERMILL RD, LAWRENCEVILLE GA 30046HOLD FOR OTHER AGENCY$0NBLawrenceville PoliceCharges
03/27/2015 03:07THORNTONTIMOTHYNATHANIEL99076544990765445302 158 PAPERMILL RD, LAWRENCEVILLE GA 30046* FLEEING OR ATTEMPTING TO ELUDE$0NBLawrenceville PoliceCharges
03/27/2015 02:3703/27/2015 06:33MURPHJASONEARL9952334799523347 11 SILVER BEND CT, AUSTELL GA 30168DUI-ALCOHOL$969.5SBSnellville PoliceCharges
03/27/2015 02:3703/27/2015 06:33MURPHJASONEARL9952334799523347 11 SILVER BEND CT, AUSTELL GA 30168DUI-LESS SAFE$969.5SBSnellville PoliceCharges
03/27/2015 02:3703/27/2015 06:33MURPHJASONEARL9952334799523347 11 SILVER BEND CT, AUSTELL GA 30168*OPEN CONTAINER$259SBSnellville PoliceCharges
03/27/2015 02:3703/27/2015 06:33MURPHJASONEARL9952334799523347 11 SILVER BEND CT, AUSTELL GA 30168FAILURE TO MAINTAIN LANE$117SBSnellville PoliceCharges
03/27/2015 02:3703/27/2015 06:33MURPHJASONEARL9952334799523347 11 SILVER BEND CT, AUSTELL GA 30168Possession of Marijuana less 1oz$784SBSnellville PoliceCharges
03/27/2015 02:3203/27/2015 12:48MALIBRAN-VICENCIOMARIANALIZETH9950605199506051 5206 BEAVER CREEK RD, ALPHARETTA GA 30022* DUI-MORE THAN 0.10%BLOOD ALCOHOL$2006CBGwinnett County PoliceCharges
03/27/2015 02:3203/27/2015 12:48MALIBRAN-VICENCIOMARIANALIZETH9950605199506051 5206 BEAVER CREEK RD, ALPHARETTA GA 30022SPEEDING$180CBGwinnett County PoliceCharges
03/27/2015 02:3203/27/2015 12:48MALIBRAN-VICENCIOMARIANALIZETH9950605199506051 5206 BEAVER CREEK RD, ALPHARETTA GA 30022*NO DRIVERS LICENSE$705CBGwinnett County PoliceCharges
03/27/2015 02:3203/27/2015 12:48MALIBRAN-VICENCIOMARIANALIZETH9950605199506051 5206 BEAVER CREEK RD, ALPHARETTA GA 30022IMPROPER/ERRATIC LANE CHANGE$68CBGwinnett County PoliceCharges
03/27/2015 02:25LONGLAKETHIARENA9600499896004998 256 VILLAGE WAY, LAWRENCEVILLE GA 30046* POSS OF C/S OR MARIJUANA$1300SBLawrenceville PoliceCharges
03/27/2015 02:25LONGLAKETHIARENA9600499896004998 256 VILLAGE WAY, LAWRENCEVILLE GA 30046* VGCSA-SCHEDULE II$0NBLawrenceville PoliceCharges
03/27/2015 02:14BELLARIANJOHNATHAN9949750599497505 1435 BOGGS RD APTS 1310, DULUTH GA 30096FAILURE TO APPEAR$570CBGwinnett County PoliceCharges
03/27/2015 02:0803/27/2015 13:37KITCHENSLAQUISHANIKITA9941882299418822APT 232 805 PLEASANT HILL RD NW, LILBURN GA 30047VIOLATION OF PROBATION$0NBDuluth PoliceCharges
03/27/2015 01:5703/27/2015 09:56CHAUDHRYSHAHZAD9952334699523346 860 LEGACY WOODS DR, NORCROSS GA 30093@ * BATTERY$1300SBGwinnett County PoliceCharges
03/27/2015 01:5603/27/2015 12:17LUCASMAURICEEDWARD9937410899374108 1289 HERRINGTON RD, LAWRENCEVILLE GA 30044FAILURE TO APPEAR$165CBGwinnett County PoliceCharges
03/27/2015 01:5603/27/2015 12:17LUCASMAURICEEDWARD9937410899374108 1289 HERRINGTON RD, LAWRENCEVILLE GA 30044FAILURE TO APPEAR$160CBGwinnett County PoliceCharges
03/27/2015 01:5603/27/2015 12:17LUCASMAURICEEDWARD9937410899374108 1289 HERRINGTON RD, LAWRENCEVILLE GA 30044HOLD FOR OTHER AGENCY$0NBGwinnett County PoliceCharges
03/27/2015 01:4903/27/2015 10:09CHAUDHRYFASIALSHAHZAD9940967899409678 860 LEGACY WOODS DR, NORCROSS GA 30093* OBSTRUCTION LAW ENFORCEMENT OFFICER$1300SBGwinnett County PoliceCharges
03/27/2015 01:4306/20/2011 18:11CHAUDHRYFAISALSHAHZAD9940967899448563 , $Gwinnett County PoliceCharges
03/27/2015 01:4303/27/2015 01:38CHAUDHRYFAISALSHAHZAD9940967899448563 , $Gwinnett County PoliceCharges
03/27/2015 01:4303/27/2015 01:41CHAUDHRYFAISALSHAHZAD9940967899448563 , $Gwinnett County PoliceCharges
03/27/2015 01:4303/27/2015 01:48CHAUDHRYFAISALSHAHZAD9940967899448563 , $Gwinnett County PoliceCharges
03/27/2015 01:4203/27/2015 09:58CHAUDHRYNADIA9952334599523345 860 LEGACY WOODS DR, NORCROSS GA 30093* OBSTRUCTION LAW ENFORCEMENT OFFICER$2400SBGwinnett County PoliceCharges
03/27/2015 01:3906/20/2011 18:11CHAUDHRYFAISALSHAHZAD9940967899448563 , $Gwinnett County PoliceCharges
03/27/2015 01:3903/27/2015 01:38CHAUDHRYFAISALSHAHZAD9940967899448563 , $Gwinnett County PoliceCharges
03/27/2015 01:3903/27/2015 01:48CHAUDHRYFAISALSHAHZAD9940967899448563 , $Gwinnett County PoliceCharges
03/27/2015 01:3903/27/2015 01:41CHAUDHRYFAISALSHAHZAD9940967899448563 , $Gwinnett County PoliceCharges
03/27/2015 01:3306/20/2011 18:11CHAUDHRYFAISALSHAHZAD9940967899448563 , $Gwinnett County PoliceCharges
03/27/2015 01:3303/27/2015 01:38CHAUDHRYFAISALSHAHZAD9940967899448563 , $Gwinnett County PoliceCharges
03/27/2015 01:3303/27/2015 01:41CHAUDHRYFAISALSHAHZAD9940967899448563 , $Gwinnett County PoliceCharges
03/27/2015 01:3303/27/2015 01:48CHAUDHRYFAISALSHAHZAD9940967899448563 , $Gwinnett County PoliceCharges
03/27/2015 01:18BROWNKENNETHJUSTIN9952334499523344 140 PINE ST, SAVANNAH GA 30303BURNING OF WOODS/BRUSH/FIELD OTHER LANDS$6800SBSuwanee PoliceCharges
03/27/2015 01:1403/27/2015 04:12HARRISERIKBERNARD9952334399523343 604 SHADOW VALLEY CT, LITHONIA GA 30058* Computer Theft$11200SBGwinnett County SheriffCharges
03/27/2015 01:0003/27/2015 05:33ALLENCHASITYSHERAE9950771399507713 7802 PROVIDENCE POINT RD, LITHONIA GA 30058@ * SIMPLE BATTERY$1300SBGwinnett County PoliceCharges
03/27/2015 00:44KONJICDINO9941639999416399 654 FERNSTONE TRAIL, LAWRENCEVILLE GA 30046* VIOLATION OF PROBATION$0NBGwinnett County SheriffCharges
03/27/2015 00:40GAULTSYLVIAPEARL9952334299523342 105 CONCEPTS 21 DR, PEACHTREE CORNERS GA 30092HOLD FOR OTHER AGENCY$0NBGwinnett County PoliceCharges
03/27/2015 00:2403/27/2015 14:37MARTINLEKEESHANESHAY9952334199523341 2003 HUNTER RIDGE LN, PEACHTREE CORNERS GA 30092HOLD FOR OTHER AGENCY$0NBGwinnett County PoliceCharges
03/27/2015 00:0003/27/2015 04:13GAONAIRVING9952334099523340 1371 SHENTA OAK DR, NORCROSS GA 30093* DUI-MORE THAN 0.10%BLOOD ALCOHOL$2006SBGwinnett County PoliceCharges
03/27/2015 00:0003/27/2015 04:13GAONAIRVING9952334099523340 1371 SHENTA OAK DR, NORCROSS GA 30093IMPROPER LANE CHANGE$68SBGwinnett County PoliceCharges
03/26/2015 23:34LOAIZA-ALVAREZJULIOCESAR9938400699384006 1191 HARBINS RD, DACULA GA 30019*CHILD MOLESTATION$11200SBGwinnett County PoliceCharges
03/26/2015 23:34LOAIZA-ALVAREZJULIOCESAR9938400699384006 1191 HARBINS RD, DACULA GA 30019HOLD FOR IMMIGRATION$0NBGwinnett County PoliceCharges
03/26/2015 23:2803/27/2015 20:55JONESLLOYDDUANE9939036699390366UNIT 401 1955 INDIAN TRAIL LILBURN RD, NORCROSS GA 30071FAILURE TO APPEAR$330FIGwinnett County SheriffCharges
03/26/2015 23:23CANNAMOREWILBERTLELAND9931027699310276 1955 INDIAN TRAIL LILBURN RD UNIT 406, NORCROSS GA 30071* VIOLATION OF PROBATION$0NBGwinnett County SheriffCharges
03/26/2015 23:23CANNAMOREWILBERTLELAND9931027699310276 1955 INDIAN TRAIL LILBURN RD UNIT 406, NORCROSS GA 30071*FORGERY 4TH DEGREE$5700SBGwinnett County SheriffCharges
03/26/2015 22:26QUINTANILLAKEVINERNESTO9951275199512751 3688 CENTENNIAL TRL, DULUTH GA 30096* VIOLATION OF PROBATION$0NBGwinnett County SheriffCharges
03/26/2015 22:26QUINTANILLAKEVINERNESTO9951275199512751 3688 CENTENNIAL TRL, DULUTH GA 30096HOLD FOR OTHER AGENCY$0NBGwinnett County SheriffCharges
03/26/2015 22:17DE LA ROSAMIGUELANGEL9948600999486009 3305 POPLAR DR, LAWRENCEVILLE GA 30044*NO DRIVERS LICENSE$705SBGwinnett County SheriffCharges
03/26/2015 22:17DE LA ROSAMIGUELANGEL9948600999486009 3305 POPLAR DR, LAWRENCEVILLE GA 30044* DRIVING WHILE LIC SUSP/REVOKED$705SBGwinnett County SheriffCharges
03/26/2015 22:17DE LA ROSAMIGUELANGEL9948600999486009 3305 POPLAR DR, LAWRENCEVILLE GA 30044* VIOLATION OF PROBATION$0NBGwinnett County SheriffCharges
03/26/2015 22:17DE LA ROSAMIGUELANGEL9948600999486009 3305 POPLAR DR, LAWRENCEVILLE GA 30044FAILURE TO APPEAR$805CBGwinnett County SheriffCharges
03/26/2015 22:17DE LA ROSAMIGUELANGEL9948600999486009 3305 POPLAR DR, LAWRENCEVILLE GA 30044HOLD FOR OTHER AGENCY$0NBGwinnett County SheriffCharges
03/26/2015 22:0003/27/2015 13:46GREENTIMOTHYONTAVIES9952333999523339 4525 TRUMBLE TER, SNELLVILLE GA 30039HOLD FOR OTHER AGENCY$0NBGwinnett County SheriffCharges
03/26/2015 21:5703/27/2015 12:42STALLWORTHBYRONALGERNON9933271299332712 815 ASHLAND PARK WAY, LAWRENCEVILLE GA 30045FAILURE TO APPEAR$610CBDuluth PoliceCharges
03/26/2015 21:45ALLENCHRISTOPHERASHLY9938894399388943 741 GEORGETOWN CT, JONESBORO GA 30236* VIOLATION OF PROBATION$0NBGwinnett County SheriffCharges
03/26/2015 21:42HARTTAQUILLAVIQUAN9943228899432288 3018 HIGHLAND PARK LN, LITHONIA GA 30038* TRAFFICKING COCAINE, MARIJUANA, ETC.$0NBGwinnett County SheriffCharges
03/26/2015 21:32VAUGHNERICDALE9950564199505641 110 PERRY ST, LOGANVILLE GA 30052* VIOLATION OF PROBATION$0NBGwinnett County SheriffCharges
03/26/2015 21:3203/27/2015 20:55BRYANTJONATHANTHOMAS9952333899523338 4528 JACKYBELL TRL, DECATUR GA 30034@ * BATTERY$1300SBGwinnett County SheriffCharges
03/26/2015 21:2403/27/2015 00:56MERRITTMICHAELADAM9952333799523337 1331 LAKE VIEW DR, CONYERS GA 30012*SUSPENDED/REVOKED LIC$816SBSnellville PoliceCharges
03/26/2015 21:2403/27/2015 00:56MERRITTMICHAELADAM9952333799523337 1331 LAKE VIEW DR, CONYERS GA 30012*GA RES/ NO LIC AFT 30 DAYS$718SBSnellville PoliceCharges
03/26/2015 21:2003/28/2015 19:58LEWISLYNNETERESA9952333699523336 320 MARTINS TRL, ROSWELL GA 30076*DISORDERLY CONDUCT$140ORGwinnett County PoliceCharges
03/26/2015 21:1103/27/2015 22:49GRAYPERRY9952333599523335 155 DRIVERS LN, GEORGETOWN SC 29554@ * SIMPLE BATTERY$1300SBNorcross PoliceCharges
03/26/2015 21:1103/27/2015 22:49GRAYPERRY9952333599523335 155 DRIVERS LN, GEORGETOWN SC 29554* OBSTRUCTION LAW ENFORCEMENT OFFICER$1300SBNorcross PoliceCharges
03/26/2015 21:1103/27/2015 22:49GRAYPERRY9952333599523335 155 DRIVERS LN, GEORGETOWN SC 29554*LESS THAN AN OZ OF MARIJ.$1300SBNorcross PoliceCharges
03/26/2015 21:1103/27/2015 22:49GRAYPERRY9952333599523335 155 DRIVERS LN, GEORGETOWN SC 29554*POSS AND USE OF DRUG RELATED$1300SBNorcross PoliceCharges
03/26/2015 20:58RIESCHERMICHAELJOSEPH9951038699510386 602 WESLEY PLANTATION DR, DULUTH GA 30096* VIOLATION OF PROBATION$0NBGwinnett County SheriffCharges
03/26/2015 20:4603/27/2015 01:03PARRA-JIMENEZOBETNMN9922236299222369 607 HAMPTON SQUARE DR, LAWRENCEVILLE GA 30045DRIVING WITHOUT VALID LICENSE$803SBLawrenceville PoliceCharges
03/26/2015 20:3703/27/2015 00:42FIGUEROAJOHNNY9800774698007746 3496 BUFORD HWY, DULUTH GA 30096BRAKE LIGHT STANDARDS$60CBLawrenceville PoliceCharges
03/26/2015 20:3703/27/2015 00:42FIGUEROAJOHNNY9800774698007746 3496 BUFORD HWY, DULUTH GA 30096EXPIRED TAG$135CBLawrenceville PoliceCharges
03/26/2015 20:3703/27/2015 00:42FIGUEROAJOHNNY9800774698007746 3496 BUFORD HWY, DULUTH GA 30096*DRIVING WHILE LIC.SUSP/REVOKED$803CBLawrenceville PoliceCharges
03/26/2015 19:2603/26/2015 23:16VUUSHEENA9952333499523334 1203 MISS IRNE LN, LAWRENCEVILLE GA 30044*AGGRESSIVE DRIVING$860CBNorcross PoliceCharges
03/26/2015 19:2603/26/2015 23:16VUUSHEENA9952333499523334 1203 MISS IRNE LN, LAWRENCEVILLE GA 30044*RECKLESS DRIVING$760CBNorcross PoliceCharges
03/26/2015 19:2603/26/2015 23:16VUUSHEENA9952333499523334 1203 MISS IRNE LN, LAWRENCEVILLE GA 30044NO LICENSE ON PERSON$65CBNorcross PoliceCharges
03/26/2015 19:2603/26/2015 23:16VUUSHEENA9952333499523334 1203 MISS IRNE LN, LAWRENCEVILLE GA 30044FAILURE TO MAINTAIN LANE$280CBNorcross PoliceCharges
03/26/2015 19:2503/27/2015 00:17MILLWOODMAREKPHILLIP9935163099351630 2570 DEER ISLE COVE, LAWRENCEVILLE GA 30045@ * CRUELTY TO CHILDREN$2400SBLawrenceville PoliceCharges
03/26/2015 19:1903/27/2015 03:59MEEKINSJORELLLAMONT9920572499205724 1153 HAYNES RIDGE CV, GRAYSON GA 30017IMPROPER STOP ON ROADWAY$117SBSnellville PoliceCharges
03/26/2015 19:1903/27/2015 03:59MEEKINSJORELLLAMONT9920572499205724 1153 HAYNES RIDGE CV, GRAYSON GA 30017*DUI$970SBSnellville PoliceCharges
03/26/2015 19:1903/27/2015 03:59MEEKINSJORELLLAMONT9920572499205724 1153 HAYNES RIDGE CV, GRAYSON GA 30017LICENSE TO BE EXAMINED ON DEMAND$229SBSnellville PoliceCharges
03/26/2015 19:1903/27/2015 03:59MEEKINSJORELLLAMONT9920572499205724 1153 HAYNES RIDGE CV, GRAYSON GA 30017FAILURE TO APPEAR$270FISnellville PoliceCharges
03/26/2015 19:1903/27/2015 03:59MEEKINSJORELLLAMONT9920572499205724 1153 HAYNES RIDGE CV, GRAYSON GA 30017Possession of Marijuana less 1oz$784SBSnellville PoliceCharges
03/26/2015 18:3603/27/2015 09:14AJAVONANTHONYAYI9940428399404283 598 WINDER HWY APT B, LAWRENCEVILLE GA 30045OTHER OFFENSE$0NBGwinnett County SheriffCharges
03/26/2015 18:35PEREZDARLING9946611599466115 471 WEST PIKE STREET APT 232, LAWRENCEVILLE GA 30046OTHER OFFENSE$0NBGwinnett County SheriffCharges
03/26/2015 18:29MCGRAWWILLIAMPIERCE9947552599475525 2828 ROLLING DOWNS WAY, LOGANVILLE GA 30052@ * ENTICING CHILD FOR INDECENT PURPOSES$0NBGwinnett County SheriffCharges
03/26/2015 18:2603/28/2015 09:27FERRERCARLOSALBERTO9951562499515624APT 5K 1990 ELLIS AVE, BRONX NY 10472* DUI - DRUGS/ALCOHOL$0NBGwinnett County SheriffCharges
03/26/2015 18:19YOUNGSAHJIDSHABAZZ9952333399523333 838 ALLEN AVE, SAVANNAH GA 31414Violation of Probation$0NBLawrenceville PoliceCharges
03/26/2015 18:1303/27/2015 00:20LEON RAMIREZANTONIO9952333299523332 6302 E WINDSOR LANE, NORCROSS GA 30093*DRIVING W/O LICENSE-FAIL OBTAIN 30 DAYS$705CBGwinnett County PoliceCharges
03/26/2015 18:1303/27/2015 00:20LEON RAMIREZANTONIO9952333299523332 6302 E WINDSOR LANE, NORCROSS GA 30093FOLLOWING TOO CLOSELY$96CBGwinnett County PoliceCharges
03/26/2015 18:00LILESTAARONCHADWICK9945138799451387 664 TROTTER TRL, LAWRENCEVILLE GA 30046*BURGLARY 1ST DEGREE$0NBGwinnett County PoliceCharges
03/26/2015 17:3703/27/2015 20:13ROBINSONSAMANTHARENEE9952333199523331 664 TROTTER TRL, LAWRENCEVILLE GA 30046*BURGLARY 1ST DEGREE$22200SBGwinnett County PoliceCharges
03/26/2015 17:22GUNTERDYLANALEXANDER9952333099523330 101 SANTA PERA DT, CLEVELAND GA 30528HOLD FOR COURT$0NBGwinnett County SheriffCharges
03/26/2015 17:04COOPERSIMEONMARQUIS9945866499458664 3103 LAWRENCEVILLE-SUWANEE RD, SUWANEE GA 30024* VIOLATION OF PROBATION$0NBProbationCharges
03/26/2015 16:55GRIFFINJAMESADARIUS9950492899504928 1132 RIVERSIDE TERRACE, SUGAR HILL GA 30518*VGCSA INTENT DISTRIBUTE C/S$0NBProbationCharges
03/26/2015 16:55GRIFFINJAMESADARIUS9950492899504928 1132 RIVERSIDE TERRACE, SUGAR HILL GA 30518HOLD FOR OTHER AGENCY$0NBProbationCharges
03/26/2015 16:55GRIFFINJAMESADARIUS9950492899504928 1132 RIVERSIDE TERRACE, SUGAR HILL GA 30518* VGCSA-SCHEDULE II$0NBProbationCharges
03/26/2015 16:4903/27/2015 12:17DAVISALEXANDERWILLIAM9952332999523329 7990 ONO RD, FAIRBURN GA 30213HOLD FOR OTHER AGENCY$0NBDuluth PoliceCharges
03/26/2015 16:4903/27/2015 12:17DAVISALEXANDERWILLIAM9952332999523329 7990 ONO RD, FAIRBURN GA 30213HOLD FOR OTHER AGENCY$0NBDuluth PoliceCharges
03/26/2015 16:4603/26/2015 20:29MCINTOSHLISAMARIE9952332899523328 3000 MEADOW GATE WAY, LOGANVILLE GA 30052*SUSPENDED/REVOKED LIC$816CBSnellville PoliceCharges
03/26/2015 16:36RODRIGUEZJOTHAMANTOLIN BARKER9950854899508548 3278 TRINITY MILL CIRCLE, DACULA GA 30019*VGCSA POSS OF MARIJUANA W/INTENT TO DIS$0NBDuluth PoliceCharges
03/26/2015 16:36RODRIGUEZJOTHAMANTOLIN BARKER9950854899508548 3278 TRINITY MILL CIRCLE, DACULA GA 30019* POSS OF A WEAPON DURING A CRIME$0NBDuluth PoliceCharges
03/26/2015 16:3103/27/2015 17:27WADERYANBRADLEY9952332599523325 1953 CARRIAGE WAY, LAWRENCEVILLE GA 30043* DRIVING WHILE LIC SUSP/REVOKED$1300SBDuluth PoliceCharges
03/26/2015 16:3103/27/2015 17:27WADERYANBRADLEY9952332599523325 1953 CARRIAGE WAY, LAWRENCEVILLE GA 30043*VGCSA POSS OF MARIJUANA W/INTENT TO DIS$5700SBDuluth PoliceCharges
03/26/2015 16:3103/27/2015 17:27WADERYANBRADLEY9952332599523325 1953 CARRIAGE WAY, LAWRENCEVILLE GA 30043FAILURE TO OBEY SIGNS OR CONTROL DEVICES$1300SBDuluth PoliceCharges
03/26/2015 16:2103/27/2015 01:20KIMDONGWOO9952332499523324 1017 PACES COMMONS DR, DULUTH GA 30096*VGCSA POSS OF MARIJUANA W/INTENT TO DIS$5700SBDuluth PoliceCharges
03/26/2015 16:14WATTTIMOTHYJORGE9940078899424260 2882 CROSS CREEK DR, CUMMING GA 30004* VIOLATION OF PROBATION$0NBGwinnett County SheriffCharges
03/26/2015 16:08MASSEYAMANDAJEAN9907751499077514 1272 HARMONY GROVE CHURCH, AUBURN GA 30011@ * THEFT BY SHOPLIFTING$1300SBGwinnett County PoliceCharges
03/26/2015 15:3003/27/2015 18:51WILSONNAJEEHASAN9952332099523320APT J 4254 PLEASANT LAKE VILLAGE LN, DULUTH GA 30096* CRUELTY TO ANIMALS$11200SBGwinnett County PoliceCharges
03/26/2015 14:50CABECHARLOTTEORDWAY9952331999523319 2103 WINDER HWY, DACULA GA 30019HOLD FOR OTHER AGENCY$0NBLawrenceville PoliceCharges
03/26/2015 14:44PARSONTIYWANNAMEL9933755799337557APT A 6365 MCEACHERN WAY, PEACHTREE CORNERS GA 30092* DUI - DRUGS/ALCOHOL$0NBGwinnett County SheriffCharges
03/26/2015 14:44PARSONTIYWANNAMEL9933755799337557APT A 6365 MCEACHERN WAY, PEACHTREE CORNERS GA 30092@ * THEFT BY SHOPLIFTING$1300SBGwinnett County SheriffCharges
03/26/2015 14:4003/28/2015 00:36PALMERMARQUISDEVAL9949324999493249 3103 LAWRENCEVILLE SUWANEE RD, SUWANEE GA 30024*VGCSA POSS OF MARIJUANA W/INTENT TO DIS$6800SBSuwanee PoliceCharges
03/26/2015 14:4003/28/2015 00:36PALMERMARQUISDEVAL9949324999493249 3103 LAWRENCEVILLE SUWANEE RD, SUWANEE GA 30024*VGCSA OF C/S$6800SBSuwanee PoliceCharges
03/26/2015 14:25BLYDENVINCENTJOSHUA9951821299518212 102 KIRKHILL DR, LAWRENCEVILLE GA 30044* THEFT BY SHOPLIFTING$788ORGwinnett County PoliceCharges
03/26/2015 14:25BLYDENVINCENTJOSHUA9951821299518212 102 KIRKHILL DR, LAWRENCEVILLE GA 30044*LESS THAN AN OZ OF MARIJ.$1300SBGwinnett County PoliceCharges
03/26/2015 14:19ABARCAALVARODAVID9948344099483440 365 FIR DR, BUFORD GA 30518* VIOLATION OF PROBATION$0NBGwinnett County SheriffCharges
03/26/2015 14:19ABARCAALVARODAVID9948344099483440 365 FIR DR, BUFORD GA 30518HOLD FOR IMMIGRATION$0NBGwinnett County SheriffCharges
03/26/2015 14:0303/26/2015 20:34PEREZJOSEISABEL9952331799523317 3396 TIMBER CREEK DR, LAWRENCEVILLE GA 30044SPEEDING$285CBGwinnett County PoliceCharges
03/26/2015 14:0303/26/2015 20:34PEREZJOSEISABEL9952331799523317 3396 TIMBER CREEK DR, LAWRENCEVILLE GA 30044*NO DRIVERS LICENSE$705CBGwinnett County PoliceCharges
03/26/2015 14:03GLENNSHAWNAKIM9902174499021744 161 MAYWEATHER DR, BETHLEHEM GA 30620Failure to Appear$704CBAuburn PDCharges
03/26/2015 13:4403/26/2015 20:08RAHIMICHALID9941238799412387 1838 PROSPECT RD, LAWRENCEVILLE GA 30043@ * BATTERY$11200SBGwinnett County SheriffCharges
03/26/2015 13:31STEWARTBRANDONJERROLD9951599499515994 2615 EMBARCADERO PL, LITHONIA GA 30058Violation of Probation$0NBGwinnett County SheriffCharges
03/26/2015 13:31STEWARTBRANDONJERROLD9951599499515994 2615 EMBARCADERO PL, LITHONIA GA 30058* VGCSA-SCHEDULE II$0NBGwinnett County SheriffCharges
03/26/2015 13:31STEWARTBRANDONJERROLD9951599499515994 2615 EMBARCADERO PL, LITHONIA GA 30058HOLD FOR OTHER AGENCY$0NBGwinnett County SheriffCharges
03/26/2015 13:2903/29/2015 18:20ANDREWSSETHJOSHUA9949473999494739 911 PROVIDENCE WAY, LAWRENCEVILLE GA 30046* VIOLATION OF PROBATION$0NBGwinnett County SheriffCharges
03/26/2015 13:2503/26/2015 20:06TOLIVERDARRELLHENRY9952331599523315 760 ANTHONY CT, LAWRENCEVILLE GA 30044* DRIVING WHILE LIC SUSP/REVOKED$705SBGwinnett County PoliceCharges
03/26/2015 13:1103/26/2015 23:01PALMERSTEPHANIECOLLEEN9952331499523314 1964 FLINT HILL DR, LAWRENCEVILLE GA 30044*NO DRIVERS LICENSE$705SBGwinnett County PoliceCharges
03/26/2015 13:09CONKLINWALTERMONTANYA9947753899477538 1798 DE WINTON PLACE, LAWRENCEVILLE GA 30043* VIOLATION OF PROBATION$0NBProbationCharges
03/26/2015 13:01DOUYONLAUREL9952331299523312 188 ARBOUR WAY, SUWANEE GA 30024POSSESSION OF LESS 1 OZ. MARIJUANA$585SBGwinnett County PoliceCharges
03/26/2015 13:01DOUYONLAUREL9952331299523312 188 ARBOUR WAY, SUWANEE GA 30024@ * THEFT BY RECEIVING$5700SBGwinnett County PoliceCharges
03/26/2015 12:54HARTNICHOLASDYWYANE9946802899468028 618 HILLCREST ST, MONTICELLO AR 71655* VIOLATION OF PROBATION$0NBGwinnett County SheriffCharges
03/26/2015 12:54HARTNICHOLASDYWYANE9946802899468028 618 HILLCREST ST, MONTICELLO AR 71655* VIOLATION OF PROBATION$0NBGwinnett County SheriffCharges
03/26/2015 12:46GREENEDDIELEWIS9946200699462006 349 ADDINGTON ST, ATLANTA GA 30310HOLD FOR COURT$0NBGwinnett County SheriffCharges
03/26/2015 12:40PENDLEYDAVIDMORRIS9800797498007974 5670 MERCEDES DR, CUMMING GA 30041* VIOLATION OF PROBATION$0NBGwinnett County SheriffCharges
03/26/2015 12:40PENDLEYDAVIDMORRIS9800797498007974 5670 MERCEDES DR, CUMMING GA 30041@ * AGGRAVATED BATTERY$0NBGwinnett County SheriffCharges
03/26/2015 12:3003/26/2015 22:36MCKENZIEDYNNETRALAMARVA ODESSA9952331199523311 6510 HILLANDALE DR, PEACHTREE CORNERS GA 30092@ * BATTERY$1300SBGwinnett County SheriffCharges
03/26/2015 12:3003/26/2015 22:36MCKENZIEDYNNETRALAMARVA ODESSA9952331199523311 6510 HILLANDALE DR, PEACHTREE CORNERS GA 30092@ * BATTERY$1300SBGwinnett County SheriffCharges
03/26/2015 12:28SAVAGESABRINALYNN9200947892009478 2402 AUTUMN LEAF CT, LAWRENCEVILLE GA 30044* VIOLATION OF PROBATION$0NBGwinnett County PoliceCharges
03/26/2015 12:2503/26/2015 22:39MCKENZIEDELAYSHALASHONNE9948726999487269 6510 MHILLDALE DRIVE, NORCROSS GA 30092@ * BATTERY$1300SBGwinnett County SheriffCharges
03/26/2015 12:21THOMASLADAVIASCARTEZ9941857499418574 420 COURTLAND ST NE, ATLANTA GA 30308* VIOLATION OF PROBATION$0NBGwinnett County SheriffCharges
03/26/2015 12:11STEWARTKIBENDADANIEL9943430399434303 2279 SENIC DRIVE, SNELLVILLE GA 30078HOLD FOR COURT$0NBGwinnett County SheriffCharges
03/26/2015 12:09GOMEZFRANKLINMANUEL9905815399058153 508 RUTH CT, BUFORD GA 30518HOLD FOR COURT$0NBGwinnett County SheriffCharges
03/26/2015 12:07LOWEHOWARDJESSIE9939018299390182 2499 MELLVILLE AVE, DECATUR GA 30032HOLD FOR COURT$0NBGwinnett County SheriffCharges
03/26/2015 11:58BLACKMARCANTHONY9106014299038230 1 EAST KING ROAD, HAMPTON GA 30228HOLD FOR COURT$0NBGwinnett County SheriffCharges
03/26/2015 11:58TAYLOREDDIE9949672499496724 332 LAKE KNOLL DR NW, LILBURN GA 30047HOLD FOR COURT$0NBGwinnett County SheriffCharges
03/26/2015 11:4703/26/2015 14:29VASQUEZRIGOBERTO9952331099523310 3100 SWEETWATER RD APT 602, LAWRENCEVILLE GA 30044*NO DRIVERS LICENSE$0NBGwinnett County SheriffCharges
03/26/2015 11:36WAFFORDDARRELLLEGRAND9919796399197963 1127 KENTSHENT WAY, LAWRENCEVILLE GA 30043HOLD FOR COURT$0NBGwinnett County SheriffCharges
03/26/2015 11:30LUMPKINANTHONYBERNARD9946200899462008 6518 SNOWBIRD LN, DOUGLASVILLE GA 30134HOLD FOR COURT$0NBGwinnett County SheriffCharges
03/26/2015 11:17BLANCHARDTOMREYNOLD9946333999463339 2220 MEADOWVALE DR NE, ATLANTA GA 30345* VIOLATION OF PROBATION$0NBGwinnett County SheriffCharges
03/26/2015 11:12DAVISMARIOBERNARD9900738799007387 1730 EVANS DR SW, ATLANTA GA 30310* VIOLATION OF PROBATION$0NBGwinnett County SheriffCharges
03/26/2015 11:03OFFLEYLAPORCHIALASHEEMA9952330999523313 303 FRIENDLY HILLS DR, DECATUR GA 30035@ * BATTERY$1300SBGwinnett County SheriffCharges
03/26/2015 10:58PARKERJAQONNATKEYA9949671199507638 1422 PIEDMONT AVE NE APT C1, ATLANTA GA 30309* VIOLATION OF PROBATION$0NBGwinnett County SheriffCharges
03/26/2015 10:49REXHEPIDRITON9947739599477395 424 JOHNSON RD, LAWRENCEVILLE GA 30046@ * BURGLARY$0NBLawrenceville PoliceCharges
03/26/2015 10:49REXHEPIDRITON9947739599477395 424 JOHNSON RD, LAWRENCEVILLE GA 30046@ * THEFT BY TAKING$2950SBLawrenceville PoliceCharges
03/26/2015 10:49REXHEPIDRITON9947739599477395 424 JOHNSON RD, LAWRENCEVILLE GA 30046* VIOLATION OF PROBATION$0NBLawrenceville PoliceCharges
03/26/2015 10:4603/26/2015 14:27HOLMESBRENDANSCOTT9952225299522252 240 JOHNSON STREET, WILSONVILLE AL 35186* DRIVING WHILE LIC SUSP/REVOKED$0NBGwinnett County SheriffCharges
03/26/2015 10:3903/26/2015 13:28STARGELLDAKOTACLARKE9952330899523308 3844 LAURENS LN, SNELLVILLE GA 30039*DRIVING W/O LICENSE-FAIL OBTAIN 30 DAYS$0NBGwinnett County SheriffCharges
03/26/2015 10:3703/26/2015 14:28ORTEGA-CRUZMIGUELANGEL9952330799523307 465 HUNTINGTON DR, ALPHARETTA GA 30004*NO DRIVERS LICENSE$0NBGwinnett County SheriffCharges
03/26/2015 10:3303/26/2015 12:50ROSALES CALIXADELADEL CARMEN9952330699523306 1870 JERRY WAY APT 18, NORCROSS GA 30093*DRIVING W/O LICENSE-FAIL OBTAIN 30 DAYS$0NBGwinnett County SheriffCharges
03/26/2015 10:3203/26/2015 16:44DANIELSKERIAHKIANNA9952330599523305 1076 HAVENSTONE WALK, LAWRENCEVILLE GA 30045* CRIMINAL TRESPASS$1300SBGwinnett County SheriffCharges
03/26/2015 10:0803/26/2015 14:51HOFFMANJULIAHEATHER MAN9944433999444842 512 WEST CROGAN ROOM 413, LAWRENCEVILLE GA 30046*SHOPLIFTING LESS THAN 300.00$558.5CBSnellville PoliceCharges
03/26/2015 10:0703/26/2015 14:22ABRAHAMJAMESSTEPHEN9952330399523303 18 HARVEST LANE, BLOOMFIELD CT 06002NO PROFANITY IN PARK$140SBGwinnett County PoliceCharges
03/26/2015 10:0703/26/2015 14:22ABRAHAMJAMESSTEPHEN9952330399523303 18 HARVEST LANE, BLOOMFIELD CT 06002SWIM & BOAT REGULATIONS$140SBGwinnett County PoliceCharges
03/26/2015 10:0003/26/2015 21:27HAMRICKCHRISTOPHERWILLIAM9952330299523302 435 SPRING CIRCLE, LAWRENCEVILLE GA 30046SWIM & BOAT REGULATIONS$140CBGwinnett County PoliceCharges
03/26/2015 10:0003/26/2015 21:27HAMRICKCHRISTOPHERWILLIAM9952330299523302 435 SPRING CIRCLE, LAWRENCEVILLE GA 30046NO PROFANITY IN PARK$140CBGwinnett County PoliceCharges
03/26/2015 09:5303/27/2015 00:15SANDIFERROBERTCLAYTON9952330199523301 435 SPRING CIRCLE, LAWRENCEVILLE GA 30046NO PROFANITY IN PARK$140CBGwinnett County PoliceCharges
03/26/2015 09:5303/27/2015 00:15SANDIFERROBERTCLAYTON9952330199523301 435 SPRING CIRCLE, LAWRENCEVILLE GA 30046SWIM & BOAT REGULATIONS$140CBGwinnett County PoliceCharges
03/26/2015 09:5203/28/2015 10:02GREESONCLIFFORDDAVID89004698900469 32 SWEETGUM ROAD, LAWRENCEVILLE GA 30045CONTEMPT OF COURT (SUPERIOR)$0NBGwinnett County SheriffCharges
03/26/2015 09:2803/26/2015 10:59COOPERANDREMONTEZ9800627398006273 2955 EVERGREEN EVE XING, DACULA GA 30019*DRIVING W/O LICENSE-FAIL OBTAIN 30 DAYS$0NBGwinnett County SheriffCharges
03/26/2015 09:2403/26/2015 12:28ANTONEZ-DEGANTEISAAC9950801099508010 295 HAYMARKET LANE, LAWRENCEVILLE GA 30046EXPIRED OR NO LICENSE PLATE OR DECAL$152SBGA State PatrolCharges
03/26/2015 09:2403/26/2015 12:28ANTONEZ-DEGANTEISAAC9950801099508010 295 HAYMARKET LANE, LAWRENCEVILLE GA 30046*NO DRIVERS LICENSE$705SBGA State PatrolCharges
03/26/2015 09:0903/26/2015 12:03GRAVITTRICKYLAMAR9106910991069109 1431 SUGAR MAPLE WAY, LAWRENCEVILLE GA 30043*DRIVING WHILE LICENSE SUSP/REVOKED$971.75SBDuluth PoliceCharges
03/26/2015 08:5103/26/2015 11:10JIMENEZ-SANCHEZFERNANDO9937610699523304 6325 FOREST VALE DR APT A, NORCROSS GA 30093*NO DRIVERS LICENSE$705CBGwinnett County PoliceCharges
03/26/2015 08:3003/26/2015 12:46JONESKENANDEMERIUS9952329999523299 2916 HIGHLAND PARK DR, STONE MOUNTAIN GA 30087CENTRAL LANE VIOLATION$68CBGwinnett County PoliceCharges
03/26/2015 08:3003/26/2015 12:46JONESKENANDEMERIUS9952329999523299 2916 HIGHLAND PARK DR, STONE MOUNTAIN GA 30087* DRIVING WHILE LIC SUSP/REVOKED$705CBGwinnett County PoliceCharges
03/26/2015 08:2203/26/2015 12:35AGUILAR MENDEZEMYRYAMY9950462999504629 3920 CLUB DRIVE APT 321, DULUTH GA 30096FAIL TO SIGNAL W/CHANGE LN$210CBNorcross PoliceCharges
03/26/2015 08:2203/26/2015 12:35AGUILAR MENDEZEMYRYAMY9950462999504629 3920 CLUB DRIVE APT 321, DULUTH GA 30096*NO VALID LICENSE$860CBNorcross PoliceCharges
03/26/2015 07:3603/26/2015 13:15LOPEZ-GARCIAJOSELUIS9939932999399329 607 WINTERS CREEK DR, DORAVILLE GA 30360FAIL TO STOP FOR LOADING BUS$345SBNorcross PoliceCharges
03/26/2015 07:3603/26/2015 13:15LOPEZ-GARCIAJOSELUIS9939932999399329 607 WINTERS CREEK DR, DORAVILLE GA 30360*DRIVING ON A SUSPENDED LICENSE$860SBNorcross PoliceCharges
03/26/2015 06:01NICHOLSJOHNDEREK89361518936151 4798 SUNVIEW COURT, SUWANEE GA 30024FAILURE TO PAY/CHILD SUPPORT$5000CBGwinnett County PoliceCharges
03/26/2015 05:1703/26/2015 12:37SERAFIN-SALGADOCESAR9952329899523298 3540 BUFORD HWY, DULUTH GA 30096FAILED TO REGISTER WITHIN 30 DAYS$171.25CBDuluth PoliceCharges
03/26/2015 05:1703/26/2015 12:37SERAFIN-SALGADOCESAR9952329899523298 3540 BUFORD HWY, DULUTH GA 30096IMPROPER TRANSFER OF TAG$172CBDuluth PoliceCharges
03/26/2015 05:1703/26/2015 12:37SERAFIN-SALGADOCESAR9952329899523298 3540 BUFORD HWY, DULUTH GA 30096NO INSURANCE$410.25CBDuluth PoliceCharges
03/26/2015 05:1703/26/2015 12:37SERAFIN-SALGADOCESAR9952329899523298 3540 BUFORD HWY, DULUTH GA 30096*LICENSE:DRIVING WHILE UNLIC. OR EXPIRED$731.25CBDuluth PoliceCharges
03/26/2015 05:1703/26/2015 12:37SERAFIN-SALGADOCESAR9952329899523298 3540 BUFORD HWY, DULUTH GA 30096*DRIVING WITH SUSPENDED TAG$731.25CBDuluth PoliceCharges
03/26/2015 04:3903/28/2015 15:24SIMPSONANDREWDAVID9952329599523295APT 105 3427 DULUTH HWY 120, DULUTH GA 30096HOLD FOR OTHER AGENCY$0NBDuluth PoliceCharges
03/26/2015 04:3903/28/2015 15:24SIMPSONANDREWDAVID9952329599523295APT 105 3427 DULUTH HWY 120, DULUTH GA 30096IMPROPER STOPPING ON ROADWAY$129.25ORDuluth PoliceCharges
03/26/2015 04:3903/28/2015 15:24SIMPSONANDREWDAVID9952329599523295APT 105 3427 DULUTH HWY 120, DULUTH GA 30096DRIVING WITHIN A GORE OR MEDIAN$129.25ORDuluth PoliceCharges
03/26/2015 04:3903/28/2015 15:24SIMPSONANDREWDAVID9952329599523295APT 105 3427 DULUTH HWY 120, DULUTH GA 30096*DRIVING ON SUSP. LIC$971.75ORDuluth PoliceCharges
03/26/2015 04:3903/28/2015 15:24SIMPSONANDREWDAVID9952329599523295APT 105 3427 DULUTH HWY 120, DULUTH GA 30096*DUI$1623ORDuluth PoliceCharges
03/26/2015 04:2503/26/2015 19:54BRATHWAITETREVERDONNELL9952329499523294 3532 KITTERY DR, SNELLVILLE GA 30039* NO VEH W/FLASHING BLUE LIGHTS$112SBGwinnett County PoliceCharges
03/26/2015 04:2503/26/2015 19:54BRATHWAITETREVERDONNELL9952329499523294 3532 KITTERY DR, SNELLVILLE GA 30039DUI-UNDER THE AGE OF 21$2006SBGwinnett County PoliceCharges
03/26/2015 03:5903/27/2015 00:10SUMMERSDWANANDRE9952329399523293 7329 SKYLANE DR, RIVERDALE GA 30296* DRIVING WHILE LIC SUSP/REVOKED$705SBGwinnett County PoliceCharges
03/26/2015 03:5903/27/2015 00:10SUMMERSDWANANDRE9952329399523293 7329 SKYLANE DR, RIVERDALE GA 30296RECKLESS DRIVING$425SBGwinnett County PoliceCharges
03/26/2015 03:5903/27/2015 00:10SUMMERSDWANANDRE9952329399523293 7329 SKYLANE DR, RIVERDALE GA 30296FAILURE TO OBEY TRAFFIC DEVICE$56SBGwinnett County PoliceCharges
03/26/2015 03:5903/27/2015 00:10SUMMERSDWANANDRE9952329399523293 7329 SKYLANE DR, RIVERDALE GA 30296IMPROPER/ERRATIC LANE CHANGE$68SBGwinnett County PoliceCharges
03/26/2015 03:5903/27/2015 00:10SUMMERSDWANANDRE9952329399523293 7329 SKYLANE DR, RIVERDALE GA 30296* FLEEING OR ATTEMPTING TO ELUDE$705SBGwinnett County PoliceCharges
03/26/2015 03:5903/27/2015 00:10SUMMERSDWANANDRE9952329399523293 7329 SKYLANE DR, RIVERDALE GA 30296CROSS D-HWY/GORE/BAR/SHLD/ EM L$68SBGwinnett County PoliceCharges
03/26/2015 03:5903/27/2015 00:10SUMMERSDWANANDRE9952329399523293 7329 SKYLANE DR, RIVERDALE GA 30296IMPROPER LANE CHANGE$68SBGwinnett County PoliceCharges
03/26/2015 03:5903/27/2015 00:10SUMMERSDWANANDRE9952329399523293 7329 SKYLANE DR, RIVERDALE GA 30296DRIVING WITHOUT HEADLIGHTS$68SBGwinnett County PoliceCharges
03/26/2015 03:5903/27/2015 00:10SUMMERSDWANANDRE9952329399523293 7329 SKYLANE DR, RIVERDALE GA 30296SPEEDING$250SBGwinnett County PoliceCharges
03/26/2015 03:1903/26/2015 13:19RYANCHRISTOPHERALEXANDER9920845899208458 1902 FORREST RD, LAWRENCEVILLE GA 30043* DUI-ALCOHOL$2006SBGwinnett County PoliceCharges
03/26/2015 03:1903/26/2015 13:19RYANCHRISTOPHERALEXANDER9920845899208458 1902 FORREST RD, LAWRENCEVILLE GA 30043IMPROPER LANE CHANGE$68SBGwinnett County PoliceCharges
03/26/2015 03:1903/26/2015 13:19RYANCHRISTOPHERALEXANDER9920845899208458 1902 FORREST RD, LAWRENCEVILLE GA 30043OPEN CONTAINER LAW$299SBGwinnett County PoliceCharges
03/26/2015 03:11SMITHJOSHUAAARON9950519599505195 5171 BROOK HOLLOW PKWY, NORCROSS GA 30071@ * AGGRAVATED ASSAULT$0NBNorcross PoliceCharges
03/26/2015 03:0703/26/2015 08:17REECEYOLANDADION9915297999152979APT 251 6400 LONAS DR, KNOXVILLE TN 37909* DRIVING WHILE LIC SUSP/REVOKED$705SBGwinnett County PoliceCharges
03/26/2015 03:0703/26/2015 08:17REECEYOLANDADION9915297999152979APT 251 6400 LONAS DR, KNOXVILLE TN 37909* DUI-ALCOHOL$2006SBGwinnett County PoliceCharges
03/26/2015 03:0703/26/2015 08:17REECEYOLANDADION9915297999152979APT 251 6400 LONAS DR, KNOXVILLE TN 37909FAILURE TO OBEY TRAFFIC DEVICE$56SBGwinnett County PoliceCharges
03/26/2015 03:0203/26/2015 14:25CHESTMOSE9952329299523292 1262 OAK HAVEN WAY, LAWRENCEVILLE GA 30043*NO DRIVERS LICENSE$705SBGwinnett County PoliceCharges
03/26/2015 02:1503/26/2015 11:02PEARSONCURTISJAMES9936994399369943 585 CEDAR CT, DACULA GA 30019@ * SIMPLE BATTERY$1300SBGwinnett County PoliceCharges
03/26/2015 01:4203/26/2015 08:24BOWERSTIMOTHYTRIPP9952329199523291 995 RIVERSIDE RD, SUGAR HILL GA 30518* DUI-MORE THAN 0.10%BLOOD ALCOHOL$2006SBGwinnett County PoliceCharges
03/26/2015 01:4203/26/2015 08:24BOWERSTIMOTHYTRIPP9952329199523291 995 RIVERSIDE RD, SUGAR HILL GA 30518IMPROPER LANE CHANGE$68SBGwinnett County PoliceCharges
03/26/2015 01:4203/26/2015 08:24BOWERSTIMOTHYTRIPP9952329199523291 995 RIVERSIDE RD, SUGAR HILL GA 30518OPEN CONTAINER LAW$299SBGwinnett County PoliceCharges
03/26/2015 01:1303/26/2015 03:48GREENBRIANASHLEY9952329099523290 696 LAKE DR, SNELLVILLE GA 30039*VIOLATE LIMITED LICENSE CONDITIONS$152CBGwinnett County PoliceCharges
03/26/2015 01:0003/26/2015 16:55MASTERSDOUGLASCRAIG9952328999523289 4928 VIREO DR, FLOWERY BRANCH GA 30542IMPROPER LANE CHANGE$68SBGwinnett County PoliceCharges
03/26/2015 01:0003/26/2015 16:55MASTERSDOUGLASCRAIG9952328999523289 4928 VIREO DR, FLOWERY BRANCH GA 30542* DUI-ALCOHOL$2006SBGwinnett County PoliceCharges
03/26/2015 00:5703/27/2015 01:54HAJI DAHIRABDINASARALI9946343299463432 3090 RUSTICWOOD DR, SNELLVILLE GA 30078POSS OF < 1 OZ OF MARIJ.$585SBGwinnett County PoliceCharges
03/26/2015 00:5303/26/2015 03:58MINISHVICTORIACHRISTINE9947160599471605APT 1008 255 HONEYSUCKLE CIR, LAWRENCEVILLE GA 30046@ * SIMPLE BATTERY$1300SBLawrenceville PoliceCharges
03/26/2015 00:4803/26/2015 10:10SPERLIKNATHANEDWARD9935741199357411 2090 WATERS FERRY DRIVE, LAWRENCEVILLE GA 30043* CRIMINAL TRESPASS$1300SBLawrenceville PoliceCharges
03/26/2015 00:4203/26/2015 14:54LEESEUNGHEE9948311899483118 530 SILVERBERRY LN, SUGAR HILL GA 30518M/V WRONG SIDE OF ROAD$68SBGwinnett County PoliceCharges
03/26/2015 00:4203/26/2015 14:54LEESEUNGHEE9948311899483118 530 SILVERBERRY LN, SUGAR HILL GA 30518* DUI-ALCOHOL$2006SBGwinnett County PoliceCharges
03/26/2015 00:4203/26/2015 14:54LEESEUNGHEE9948311899483118 530 SILVERBERRY LN, SUGAR HILL GA 30518HOLD FOR IMMIGRATION$0NBGwinnett County PoliceCharges
03/26/2015 00:2203/26/2015 20:14BRAVOKIMBERLY9951391499513914 2519 PORTER DR, LAWRENCEVILLE GA 30044* DUI - DRUGS/ALCOHOL$2006CBGwinnett County PoliceCharges
03/26/2015 00:2203/26/2015 20:14BRAVOKIMBERLY9951391499513914 2519 PORTER DR, LAWRENCEVILLE GA 30044IMPROPER PARKING$68CBGwinnett County PoliceCharges
03/26/2015 00:17NELSONJENNIFERANN9951537899515378 2423 CHABLIS CT, LAWRENCEVILLE GA 30043FAILURE TO APPEAR$0NBGwinnett County SheriffCharges
03/26/2015 00:17NELSONJENNIFERANN9951537899515378 2423 CHABLIS CT, LAWRENCEVILLE GA 30043FAILURE TO APPEAR$240CBGwinnett County SheriffCharges
03/26/2015 00:17NELSONJENNIFERANN9951537899515378 2423 CHABLIS CT, LAWRENCEVILLE GA 30043HOLD FOR OTHER AGENCY$0NBGwinnett County SheriffCharges
03/26/2015 00:17NELSONJENNIFERANN9951537899515378 2423 CHABLIS CT, LAWRENCEVILLE GA 30043Violation of Probation$908CBGwinnett County SheriffCharges
03/26/2015 00:17NELSONJENNIFERANN9951537899515378 2423 CHABLIS CT, LAWRENCEVILLE GA 30043HOLD FOR OTHER AGENCY$0NBGwinnett County SheriffCharges
03/26/2015 00:1003/26/2015 03:48MOBLEYMAURICEANTOWAN9917980699179806 3342 OAK VISTA WAY, LAWRENCEVILLE GA 30044M/V MUST HAVE 2 HEADLIGHTS$68CBGwinnett County PoliceCharges
03/26/2015 00:1003/26/2015 03:48MOBLEYMAURICEANTOWAN9917980699179806 3342 OAK VISTA WAY, LAWRENCEVILLE GA 30044EXPIRED LICENSE$68CBGwinnett County PoliceCharges
03/25/2015 23:46BANDERASROBERETO9952328799523287 1375 CRIQUE WAY APT 2, ROSWELL GA 30076*TRAFFICKING IN METHAMPHETAMINE$0NBGwinnett County SheriffCharges
03/25/2015 23:46BANDERASROBERETO9952328799523287 1375 CRIQUE WAY APT 2, ROSWELL GA 30076* VGCSA-SCHEDULE I$0NBGwinnett County SheriffCharges
03/25/2015 23:46BANDERASROBERETO9952328799523287 1375 CRIQUE WAY APT 2, ROSWELL GA 30076* GIVING FALSE NAME OR INFORMATION$1300CBGwinnett County SheriffCharges
03/25/2015 23:46BANDERASROBERETO9952328799523287 1375 CRIQUE WAY APT 2, ROSWELL GA 30076HOLD FOR IMMIGRATION$0NBGwinnett County SheriffCharges
03/25/2015 23:46BANDERASROBERETO9952328799523287 1375 CRIQUE WAY APT 2, ROSWELL GA 30076*VGCSA OF C/S$0NBGwinnett County SheriffCharges
03/25/2015 23:23BIVINGSJASONMICHAEL9914030999140309 3734 HUNTING RIDGE DR SW, LILBURN GA 30047HOLD FOR COURT$0NBGwinnett County SheriffCharges
03/25/2015 23:01GRAYJOHNNYFRANKLIN89033238903323 6221 JOSEPHINE ROAD, DORAVILLE GA 30340* VIOLATION OF PROBATION$0NBDuluth PoliceCharges
03/25/2015 22:56CARTERROCHELLEGABRIEL9946194399461943 3205 NEW CASTLE WAY, SNELLVILLE GA 30039* FRAUD PRINT CHECKS, DRAFTS, ORDERS$0NBGwinnett County SheriffCharges
03/25/2015 22:2603/26/2015 19:52HENDERSONERICJORDAN9952328699523286 302 MAGNOLIA POINTE BLVD, DULUTH GA 30096* CRIMINAL TRESPASS$2950SBGwinnett County SheriffCharges
03/25/2015 22:16SAPPDEMPSEYROBERT9950274699502840 1858 LIBBY LN, LAWRENCEVILLE GA 30044* VIOLATION OF PROBATION$0NBGwinnett County SheriffCharges
03/25/2015 22:16SAPPDEMPSEYROBERT9950274699502840 1858 LIBBY LN, LAWRENCEVILLE GA 30044* VIOLATION OF PROBATION$0NBGwinnett County SheriffCharges
03/25/2015 21:5603/26/2015 02:16MAGARMINAD9952328599523285 969 REGENCY DRIVE, LAWRENCEVILLE GA 30044OPERATING VEH WITH SUSP/CANC/REV REGISTR$705CBGwinnett County SheriffCharges
03/25/2015 21:5603/26/2015 02:16MAGARMINAD9952328599523285 969 REGENCY DRIVE, LAWRENCEVILLE GA 30044FAILURE TO APPEAR$460CBGwinnett County SheriffCharges
03/25/2015 21:27MARTINTODDMICHAEL9913019799130197 3504 WEST ELMWOOD CIR, SNELLVILLE GA 30078 * ESCAPE$0NBGwinnett County SheriffCharges
03/25/2015 21:27MARTINTODDMICHAEL9913019799130197 3504 WEST ELMWOOD CIR, SNELLVILLE GA 30078* VIOLATION OF PROBATION$0NBGwinnett County SheriffCharges
03/25/2015 21:27MARTINTODDMICHAEL9913019799130197 3504 WEST ELMWOOD CIR, SNELLVILLE GA 30078* VIOLATION OF PROBATION$0NBGwinnett County SheriffCharges
03/25/2015 21:2603/26/2015 02:56WILMOTANDREWPATRICK9952328499523284 1450 COUNTRY LAKE DR SW, LILBURN GA 30047FAILURE TO APPEAR$305CBNorcross PoliceCharges
03/25/2015 21:22REYESISIDORODONALDO9934517699345176 1281 BROKETT RD, TUCKER GA 30021* VIOLATION OF PROBATION$0NBGwinnett County SheriffCharges
03/25/2015 21:2003/26/2015 01:25WILLIAMSKERRYBERNARD9944497399444973 1738 CAMPERDOWN CIR, DECATUR GA 30035@ * THEFT OF LOST/MISLAID PROPERTY$2400SBGwinnett County SheriffCharges
03/25/2015 21:1403/26/2015 01:02ROBERTSONNEVILLEMARVIN9952328399523283 186 HOLLINGSWORTH RD, COVINGTON GA 30016@ * CHILD ABANDONMENT$1300SBGwinnett County SheriffCharges
03/25/2015 21:13GERENATABITHASCOTT9946595199465951 4464 EMORY DRIVE, SUGAR HILL GA 30518HOLD FOR OTHER AGENCY$0NBGwinnett County PoliceCharges
03/25/2015 21:13GERENATABITHASCOTT9946595199465951 4464 EMORY DRIVE, SUGAR HILL GA 30518* VIOLATION OF PROBATION$0NBGwinnett County PoliceCharges
03/25/2015 21:0103/26/2015 03:56DURDENJASMINELA-SHA9952328199523281 4060 NA AH TEE TRAIL, SNELLVILLE GA 30039FOLLOWING TOO CLOSE$96SBGwinnett County PoliceCharges
03/25/2015 21:0103/26/2015 03:56DURDENJASMINELA-SHA9952328199523281 4060 NA AH TEE TRAIL, SNELLVILLE GA 30039*DRIVING W/O LICENSE-FAIL OBTAIN 30 DAYS$705SBGwinnett County PoliceCharges
03/25/2015 20:5603/26/2015 02:41MARQUEZDANAYS9952328099523280 746 DEER RUN DR, STONE MOUNTAIN GA 30087HOLD FOR OTHER AGENCY$0NBGwinnett County PoliceCharges
03/25/2015 20:52BECKMARJORIEJUNE9922057799220577 1805 STURGEON RD, BUFORD GA 30518* VIOLATION OF PROBATION$0NBGwinnett County SheriffCharges
03/25/2015 20:47SMITHJOSHUASIMON9927668099276680 4318 BRIT ROAD, TUCKER GA 30084HOLD FOR COURT$0NBGwinnett County SheriffCharges
03/25/2015 20:4603/26/2015 01:31MOOREAMYLYNN9902436299024362 1700 HOLLAND PL, LAWRENCEVILLE GA 30043@ * THEFT BY TAKING$1300CBGwinnett County SheriffCharges
03/25/2015 20:4603/26/2015 01:31MOOREAMYLYNN9902436299024362 1700 HOLLAND PL, LAWRENCEVILLE GA 30043* CREDIT CARD THEFT$2400CBGwinnett County SheriffCharges
03/25/2015 19:5803/25/2015 23:05GEORGEDAVIDMICHAEL9938469399384693 3331 SANANTONIO DRIVE, SNELLVILLE GA 30039* THEFT BY SHOPLIFTING$788CBLawrenceville PoliceCharges
03/25/2015 19:46FAIRFAXSERENAELEANOR9950737199507371 1075 N HAIRSON ROAD APT 22A, STONE MOUNTAIN GA 30083* VIOLATION OF PROBATION$0NBGwinnett County SheriffCharges
03/25/2015 19:2103/25/2015 21:30BELLLATANYAMICHELLE9952327699523276 3275 MIDWAY RD, DECATUR GA 30032@ * CHILD ABANDONMENT$0ORGwinnett County SheriffCharges
03/25/2015 19:1403/26/2015 17:45MCDONALDWILLIAMDESEAN9952327499523274 1933 WILSON MANOR CIR, LAWRENCEVILLE GA 30045* THEFT BY SHOPLIFTING$788SBLawrenceville PoliceCharges
03/25/2015 19:0503/26/2015 02:19MORALESCRYSTALANN9952327399523273 3659 TRADDSPRINGS WAY, SNELLVILLE GA 30039@ * THEFT BY SHOPLIFTING$1300SBGwinnett County PoliceCharges
03/25/2015 18:3103/26/2015 01:33LEEKYLAHYASMEEN9952327299523272 3061 FARMSTEAD CT, GRAYSON GA 30017@ * THEFT BY SHOPLIFTING$1300SBGwinnett County PoliceCharges
03/25/2015 18:3003/26/2015 00:50LOWENATEIAHMONIQUE9952327199523271 605 WELLBROOK CT, LOGANVILLE GA 30052@ * THEFT BY SHOPLIFTING$1300SBGwinnett County PoliceCharges
03/25/2015 18:05GANTCHRISTOPHERWAYNE9937620299376202 824 N CLAYTON ST, LAWRENCEVILLE GA 30046OTHER OFFENSE$0NBGwinnett County SheriffCharges
03/25/2015 18:03HARPERANDREJARED9932514899325148 1408 STONEVIEW TRL NW, LILBURN GA 30047* VIOLATION OF PROBATION$0NBGwinnett County PoliceCharges
03/25/2015 18:03HARPERANDREJARED9932514899325148 1408 STONEVIEW TRL NW, LILBURN GA 30047*VGCSA POSS OF MARIJUANA W/INTENT TO DIS$0NBGwinnett County PoliceCharges
03/25/2015 17:4903/28/2015 22:48IDEGIBSONEFERREE9948963599489635 1022 LEVEL CREEK ROAD APT 1202, SUGAR HILL GA 30518@ * ENTERING AN AUTO$5700SBGwinnett County PoliceCharges
03/25/2015 17:4903/28/2015 22:48IDEGIBSONEFERREE9948963599489635 1022 LEVEL CREEK ROAD APT 1202, SUGAR HILL GA 30518@ * ENTERING AN AUTO$5700SBGwinnett County PoliceCharges
03/25/2015 17:41REYNOLDSRECOCEPEDA9948963699489636 1920 HUNTCLIFF DR, LAWRENCEVILLE GA 30043@ * ENTERING AN AUTO$5700SBGwinnett County PoliceCharges
03/25/2015 17:41REYNOLDSRECOCEPEDA9948963699489636 1920 HUNTCLIFF DR, LAWRENCEVILLE GA 30043@ * ENTERING AN AUTO$5700SBGwinnett County PoliceCharges
03/25/2015 17:41REYNOLDSRECOCEPEDA9948963699489636 1920 HUNTCLIFF DR, LAWRENCEVILLE GA 30043@ * ENTERING AN AUTO$5700SBGwinnett County PoliceCharges
03/25/2015 17:41REYNOLDSRECOCEPEDA9948963699489636 1920 HUNTCLIFF DR, LAWRENCEVILLE GA 30043@ * ENTERING AN AUTO$5700SBGwinnett County PoliceCharges
03/25/2015 17:1903/25/2015 22:49MILNERBRIANATIJA9951891699518916APT 1215 2200 PARK LAKE DR APT 1215, ATLANTA GA 30345Failure to Appear$1060CBGA State PatrolCharges
03/25/2015 17:1203/25/2015 21:55MORALESFORTINA9943577299435772 2973 E HOWELL DR, LAWRENCEVILLE GA 30044*NO DRIVERS LICENSE$705CBGA State PatrolCharges
03/25/2015 17:1203/25/2015 21:55MORALESFORTINA9943577299435772 2973 E HOWELL DR, LAWRENCEVILLE GA 30044IMPROPER LANE CHANGE$96CBGA State PatrolCharges
03/25/2015 16:3703/26/2015 13:14HARDYJENNYMARIE9952326699523266 151 TROTTERS TRCE, JEFFERSON GA 30549HOLD FOR OTHER AGENCY$0NBDuluth PoliceCharges
03/25/2015 16:2203/25/2015 19:46COOPERPYRAJAY9927922099279220 2101 LILY VALLEY DRIVE, LAWRENCEVILLE GA 30045*DRIVING WHILE LIC.SUSP/REVOKED$803SBLawrenceville PoliceCharges
03/25/2015 16:0303/25/2015 21:43MURPHYJEANINEMARIE9945750199457501 649 CREEKVIEW DRIVE, LAWRENCEVILLE GA 30044@ * AGGRAVATED ASSAULT$11200SBGwinnett County SheriffCharges
03/25/2015 16:0303/25/2015 21:43MURPHYJEANINEMARIE9945750199457501 649 CREEKVIEW DRIVE, LAWRENCEVILLE GA 30044*HIT & RUN-FAILURE TO STOP & RENDER AID$5700SBGwinnett County SheriffCharges
03/25/2015 16:0303/25/2015 21:43MURPHYJEANINEMARIE9945750199457501 649 CREEKVIEW DRIVE, LAWRENCEVILLE GA 30044*HIT & RUN-FAILURE TO STOP & RENDER AID$5700SBGwinnett County SheriffCharges
03/25/2015 16:0303/25/2015 21:43MURPHYJEANINEMARIE9945750199457501 649 CREEKVIEW DRIVE, LAWRENCEVILLE GA 30044* DRIVING WHILE LIC SUSP/REVOKED$1300SBGwinnett County SheriffCharges
03/25/2015 16:0303/25/2015 21:43MURPHYJEANINEMARIE9945750199457501 649 CREEKVIEW DRIVE, LAWRENCEVILLE GA 30044RECKLESS DRIVING$5700SBGwinnett County SheriffCharges
03/25/2015 16:0303/25/2015 21:43MURPHYJEANINEMARIE9945750199457501 649 CREEKVIEW DRIVE, LAWRENCEVILLE GA 30044*HIT & RUN-FAILURE TO STOP & RENDER AID$5700SBGwinnett County SheriffCharges
03/25/2015 16:0303/25/2015 21:43MURPHYJEANINEMARIE9945750199457501 649 CREEKVIEW DRIVE, LAWRENCEVILLE GA 30044IMPROPER LANE CHANGE$650SBGwinnett County SheriffCharges
03/25/2015 16:0303/25/2015 21:43MURPHYJEANINEMARIE9945750199457501 649 CREEKVIEW DRIVE, LAWRENCEVILLE GA 30044PASSING IN NO PASSING ZONE$650SBGwinnett County SheriffCharges
03/25/2015 16:0303/25/2015 21:43MURPHYJEANINEMARIE9945750199457501 649 CREEKVIEW DRIVE, LAWRENCEVILLE GA 30044* DRIVING WHILE LIC SUSP/REVOKED$650SBGwinnett County SheriffCharges
03/25/2015 16:0303/25/2015 21:43MURPHYJEANINEMARIE9945750199457501 649 CREEKVIEW DRIVE, LAWRENCEVILLE GA 30044M/V WRONG SIDE OF ROAD$650SBGwinnett County SheriffCharges
03/25/2015 15:58DIGGSALBERT9951922399519223 2554 E WESLEY CHAPEL WAY, DECATUR GA 30035* VIOLATION OF PROBATION$0NBProbationCharges
03/25/2015 15:4703/25/2015 22:16WHEELINGTIFFANYNICHOLE9952326499523264 1319 BOBO ROAD, DALLAS GA 30132IMPROPER/ERRATIC LANE CHANGE$68SBGA State PatrolCharges
03/25/2015 15:4703/25/2015 22:16WHEELINGTIFFANYNICHOLE9952326499523264 1319 BOBO ROAD, DALLAS GA 30132* DUI-DRUGS$2006SBGA State PatrolCharges
03/25/2015 15:3003/25/2015 21:38JAIMES AGUIRREADAN9946741999467419 805 PACES CT, GAINESVILLE GA 30504* DRIVING WHILE LIC SUSP/REVOKED$705SBGA State PatrolCharges
03/25/2015 14:5303/25/2015 21:23WEBBBARRYANDREW9925852299258522 2049 ELMWOOD CIR, SNELLVILLE GA 30078@ * BATTERY$1300SBGwinnett County SheriffCharges
03/25/2015 14:5303/25/2015 21:23WEBBBARRYANDREW9925852299258522 2049 ELMWOOD CIR, SNELLVILLE GA 30078CRUELTY TO CHILDREN-3RD DEGREE$1300SBGwinnett County SheriffCharges
03/25/2015 14:5303/25/2015 21:23WEBBBARRYANDREW9925852299258522 2049 ELMWOOD CIR, SNELLVILLE GA 30078* OBSTRUCTION LAW ENFORCEMENT OFFICER$1300SBGwinnett County SheriffCharges
03/25/2015 14:4203/25/2015 20:12VALENTINODAISHAMERCEDES9951999199519991 60 FALLS CROSSING, COVINGTON GA 30016FAILURE TO APPEAR$305CBLilburn PoliceCharges
03/25/2015 14:3503/26/2015 23:07GUNTERMONICAFAYE9926041099260410 1721 HARBINS ROAD, DACULA GA 30019* THEFT BY SHOPLIFTING$788SBLawrenceville PoliceCharges
03/25/2015 14:26MARTINDERRICKDEWAYNE9945262099452620 3306 WINDCLIFF DR SE APT B, MARIETTA GA 30067* VIOLATION OF PROBATION$0NBGwinnett County SheriffCharges
03/25/2015 14:24WOODSSHERMAN9951825799518257 101 CABOOSE CT, LAWRENCEVILLE GA 30044* VIOLATION OF PROBATION$0NBGwinnett County SheriffCharges
03/25/2015 14:24WOODSSHERMAN9951825799518257 101 CABOOSE CT, LAWRENCEVILLE GA 30044@ * THEFT BY DECEPTION$2400SBGwinnett County SheriffCharges
03/25/2015 14:0903/27/2015 11:46DANIELSJEDONNLEE9944946199449461 485 CHARLESTON LN, LAWRENCEVILLE GA 30046HOLD FOR OTHER AGENCY$0NBLawrenceville PoliceCharges
03/25/2015 14:06JOHNSONCHRISTOPHERALLEN9949873699498736 2582 CAESAR CT, DULUTH GA 30097* VIOLATION OF PROBATION$0NBGwinnett County SheriffCharges
03/25/2015 14:06JOHNSONCHRISTOPHERALLEN9949873699498736 2582 CAESAR CT, DULUTH GA 30097* VIOLATION OF PROBATION$0NBGwinnett County SheriffCharges
03/25/2015 13:5803/27/2015 13:54WILLIAMSDERRICK9952216799522167APT 708 5355 SUGARLOAF PKWY, LAWRENCEVILLE GA 30043FAILURE TO OBEY STOP SIGN$133ORLawrenceville PoliceCharges
03/25/2015 13:5803/27/2015 13:54WILLIAMSDERRICK9952216799522167APT 708 5355 SUGARLOAF PKWY, LAWRENCEVILLE GA 30043DRIVING WITHOUT VALID LICENSE$803ORLawrenceville PoliceCharges
03/25/2015 13:54DAWKINSGARFIELDANTHONY9946881499468814 463 PENWOOD TRAIL, DACULA GA 30019* VIOLATION OF PROBATION$0NBGwinnett County SheriffCharges
03/25/2015 13:4603/26/2015 16:50DIXONEROMONDARIUS9951003299510032 5615 WYLAKE DRIVE, NORCROSS GA 30093FAILURE TO APPEAR$456CBGwinnett County PoliceCharges
03/25/2015 13:4603/26/2015 16:50DIXONEROMONDARIUS9951003299510032 5615 WYLAKE DRIVE, NORCROSS GA 30093FAILURE TO APPEAR$180CBGwinnett County PoliceCharges
03/25/2015 13:4603/26/2015 16:50DIXONEROMONDARIUS9951003299510032 5615 WYLAKE DRIVE, NORCROSS GA 30093FAILURE TO APPEAR$40CBGwinnett County PoliceCharges
03/25/2015 13:40SMITHBRANDONJAMAL9951109799511097 827 ARDSLEY PL, NORCROSS GA 30093@ * BATTERY$0NBGwinnett County SheriffCharges
03/25/2015 13:40SMITHBRANDONJAMAL9951109799511097 827 ARDSLEY PL, NORCROSS GA 30093CRUELTY TO CHILDREN-3RD DEGREE$2400SBGwinnett County SheriffCharges
03/25/2015 13:40SMITHBRANDONJAMAL9951109799511097 827 ARDSLEY PL, NORCROSS GA 30093HOLD FOR OTHER AGENCY$0NBGwinnett County SheriffCharges
03/25/2015 13:40SMITHBRANDONJAMAL9951109799511097 827 ARDSLEY PL, NORCROSS GA 30093@ * ARMED ROBBERY$0NBGwinnett County SheriffCharges
03/25/2015 13:40SMITHBRANDONJAMAL9951109799511097 827 ARDSLEY PL, NORCROSS GA 30093HOLD FOR OTHER AGENCY$0NBGwinnett County SheriffCharges
03/25/2015 13:35CULLENJOHNDAVID9903130899031308 2918 RAMSEY RD, COLUMBUS GA 31903HOLD FOR COURT$0NBGwinnett County SheriffCharges
03/25/2015 13:2703/26/2015 15:27EXUMCARLOSDEANDRE9916144099161440 6721 COLCHESTER PLACE, NORCROSS GA 30093FAILURE TO PAY/CHILD SUPPORT$18948.09CBGwinnett County SheriffCharges
03/25/2015 13:23TAYLORBRENDAGAIL9942100499421004 1407 CONCEPTS 21 DR, PEACHTREE CORNERS GA 30092* VIOLATION OF PROBATION$0NBGwinnett County SheriffCharges
03/25/2015 13:14COOPERMATTHEWPERRIN9937225299372252 2511 CHIMNEY TOP LANE, SNELLVILLE GA 30078*VGCSA OF C/S$0NBGwinnett County SheriffCharges
03/25/2015 13:06MARTINEZELIOBARDOJUAREZ9910382699456737 2665 ELDORADO PL, SNELLVILLE GA 30078@ * CHILD MOLESTATION/AGG CHILD MOLES$0NBSnellville PoliceCharges
03/25/2015 13:06MARTINEZELIOBARDOJUAREZ9910382699456737 2665 ELDORADO PL, SNELLVILLE GA 30078@ * CHILD MOLESTATION/AGG CHILD MOLES$0NBSnellville PoliceCharges
03/25/2015 13:06MARTINEZELIOBARDOJUAREZ9910382699456737 2665 ELDORADO PL, SNELLVILLE GA 30078HOLD FOR IMMIGRATION$0NBSnellville PoliceCharges
03/25/2015 13:06MARTINEZELIOBARDOJUAREZ9910382699456737 2665 ELDORADO PL, SNELLVILLE GA 30078FAILURE TO APPEAR$300CBSnellville PoliceCharges
03/25/2015 13:0003/25/2015 18:52LEWISLORINWAYNE9928867999288679 2064 WINDSOR MILL CT, GRAYSON GA 30017@ * BATTERY$1300SBGwinnett County PoliceCharges
03/25/2015 12:55FOSTERMARKANTHONY9945191699451916 1651 METROPOLITAN PKWY SW, ATLANTA GA 30310* VIOLATION OF PROBATION$0NBGwinnett County SheriffCharges
03/25/2015 12:5203/27/2015 17:24WRIGHTKISHAMARIA9949452499494524 1962 BINNIES WAY, BUFORD GA 30519FAILURE TO APPEAR$0NBGwinnett County SheriffCharges
03/25/2015 12:2603/25/2015 17:41ROBINSONANDRESCOTT9951369799513697 3410 TREE SUMMIT PKWY, DULUTH GA 30096WINDOWS PROH W/<32%LIGHT/>20%REFLECTION$94.25SBDuluth PoliceCharges
03/25/2015 12:2603/25/2015 17:41ROBINSONANDRESCOTT9951369799513697 3410 TREE SUMMIT PKWY, DULUTH GA 30096TAGS: OPERATING W/OUT PROPER TAG/DECAL$66.25SBDuluth PoliceCharges
03/25/2015 12:2603/25/2015 17:41ROBINSONANDRESCOTT9951369799513697 3410 TREE SUMMIT PKWY, DULUTH GA 30096*DRIVING WHILE LICENSE SUSP/REVOKED$971.75SBDuluth PoliceCharges
03/25/2015 12:2503/25/2015 23:08WHORTONDARRELLDEMETRUS9952326199523261 7895 BLUEFIN TRL, UNION CITY GA 30291*DRIVING ON SUSP. LIC$971.75SBDuluth PoliceCharges
03/25/2015 12:2503/25/2015 23:08WHORTONDARRELLDEMETRUS9952326199523261 7895 BLUEFIN TRL, UNION CITY GA 30291FAILURE TO APPEAR$315CBDuluth PoliceCharges
03/25/2015 12:0703/25/2015 23:07JONESVICTORMAURICE9952326099523260 6209 GREENS MILL RDG, LOGANVILLE GA 30052FAILURE TO APPEAR$450CBLawrenceville PoliceCharges
03/25/2015 11:14ARNOLDDERRICKANTONIO9936998199369981 2954 JENKINS DRIVE, SNELLVILLE GA 30078* VIOLATION OF PROBATION$0NBProbationCharges
03/25/2015 10:56PURIFOYECHRISTOPHERSONTE9947082899470828 2176 PEBBLE BEACH DR, LAWRENCEVILLE GA 30043* VIOLATION OF PROBATION$0NBGwinnett County SheriffCharges
03/25/2015 10:5203/27/2015 09:07CUNNINGHAMDAKOTASLOAN9951268599512685 380 CROSS CREEK CT, AUBURN GA 30011Violation of Probation$378CBAuburn PDCharges
03/25/2015 10:3403/25/2015 16:39YOUNGJASMINE9952325899523258 1406 ARBOR DR, DULUTH GA 30096* DRIVING WHILE LIC SUSP/REVOKED$705SBGwinnett County PoliceCharges
03/25/2015 10:3403/25/2015 16:39YOUNGJASMINE9952325899523258 1406 ARBOR DR, DULUTH GA 30096POSS OS SUSP/REVK/FICT/FRAUD D/L$152SBGwinnett County PoliceCharges
03/25/2015 10:3403/25/2015 16:39YOUNGJASMINE9952325899523258 1406 ARBOR DR, DULUTH GA 30096FAILURE TO MAINTAIN INSURANCE$299SBGwinnett County PoliceCharges
03/25/2015 10:0403/27/2015 20:57WAGNERTERRELLLOUIS9949238599492385 553 MCKENZIE AVE, STOCKBRIDGE GA 30281Failure to Appear$1380.1CBSuwanee PoliceCharges
03/25/2015 09:5603/26/2015 16:52PETTISKEVINMITCHELL9952325799523257 869 GATE POST LN, LAWRENCEVILLE GA 30044* DUI-ALCOHOL$2006SBGwinnett County PoliceCharges
03/25/2015 09:5603/26/2015 16:52PETTISKEVINMITCHELL9952325799523257 869 GATE POST LN, LAWRENCEVILLE GA 30044POSS OF < 1 OZ OF MARIJ.$585SBGwinnett County PoliceCharges
03/25/2015 09:5603/26/2015 16:52PETTISKEVINMITCHELL9952325799523257 869 GATE POST LN, LAWRENCEVILLE GA 30044OPEN CONTAINER LAW$299SBGwinnett County PoliceCharges
03/25/2015 09:5603/26/2015 16:52PETTISKEVINMITCHELL9952325799523257 869 GATE POST LN, LAWRENCEVILLE GA 30044FAILURE TO HAVE LICENSE ON PERSON$19SBGwinnett County PoliceCharges
03/25/2015 09:5503/25/2015 11:41LYLESKEITHMONTIEL9917092099170920 2912 SAM CALVIN DRIVE, DACULA GA 30019* DRIVING WHILE LICENSE WITHDRAWN$0NBGwinnett County SheriffCharges
03/25/2015 09:0103/25/2015 09:49AMBRIZIBEYDEZULEMA9952325699523256 1471 DERBY DOWNS DR, LAWRENCEVILLE GA 30043@ * THEFT BY SHOPLIFTING$0NBGwinnett County SheriffCharges
03/25/2015 08:5003/25/2015 09:06BLOOMLISAWILLIAMS9952325599523255 2530 HAMILTON PARC LN, BUFORD GA 30519@ * THEFT BY SHOPLIFTING$0NBGwinnett County SheriffCharges
03/25/2015 08:39KAHIGAMUYAMUNDIA9925125799251257 1855 SKIDMORE CIR, LAWRENCEVILLE GA 30044@ * BATTERY$0NBGwinnett County SheriffCharges
03/25/2015 08:39KAHIGAMUYAMUNDIA9925125799251257 1855 SKIDMORE CIR, LAWRENCEVILLE GA 30044CRUELTY TO CHILDREN-3RD DEGREE$0NBGwinnett County SheriffCharges
03/25/2015 08:2003/25/2015 15:02RODRIGUEZANDRESAPOLINAR9952325499523254 5537 RAILS WAY, NORCROSS GA 30071OPER W/OUT LEARN PERMIT$355CBNorcross PoliceCharges
03/25/2015 08:2003/25/2015 15:02RODRIGUEZANDRESAPOLINAR9952325499523254 5537 RAILS WAY, NORCROSS GA 30071*DRIVING ON A SUSPENDED LICENSE$860CBNorcross PoliceCharges
03/25/2015 08:2003/25/2015 15:02RODRIGUEZANDRESAPOLINAR9952325499523254 5537 RAILS WAY, NORCROSS GA 30071FOLLOWING TOO CLOSELY$100CBNorcross PoliceCharges
03/25/2015 07:5603/25/2015 23:02PEREZ-DIAZRODOLFOARTURO9938387299383872APT R5 6259 S NORCROSS TUCKER RD, TUCKER GA 30084*DRIVING W/O LICENSE-FAIL OBTAIN 30 DAYS$705CBGwinnett County SheriffCharges
03/25/2015 07:5603/25/2015 23:02PEREZ-DIAZRODOLFOARTURO9938387299383872APT R5 6259 S NORCROSS TUCKER RD, TUCKER GA 30084FAILURE TO APPEAR$247FIGwinnett County SheriffCharges
03/25/2015 07:4703/25/2015 11:41TAYLORBRANDONDAVIS9952325299523252 4285 LEEHAVEN CIRCLE, TUCKER GA 30078FAILURE TO APPEAR$330CBGwinnett County SheriffCharges
03/25/2015 05:2903/25/2015 10:07NDUREPAMODOU9934621999346219 3450 BRECKINRIDGE BLVD, DULUTH GA 30096* DUI - DRUGS/ALCOHOL$2006SBGwinnett County PoliceCharges
03/25/2015 05:2903/25/2015 10:07NDUREPAMODOU9934621999346219 3450 BRECKINRIDGE BLVD, DULUTH GA 30096IMPROPER/ERRATIC LANE CHANGE$68SBGwinnett County PoliceCharges
03/25/2015 05:1203/26/2015 22:54RYANJAMIELEE9952325099523250 1077 NICKEL PLATE CT, LAWRENCEVILLE GA 30043TAG LIGHT VISIBLE 50 FT.$68SBGwinnett County PoliceCharges
03/25/2015 05:1203/26/2015 22:54RYANJAMIELEE9952325099523250 1077 NICKEL PLATE CT, LAWRENCEVILLE GA 30043MATERIALS ON WINDSHIELD/LIGHT$68SBGwinnett County PoliceCharges
03/25/2015 05:1203/26/2015 22:54RYANJAMIELEE9952325099523250 1077 NICKEL PLATE CT, LAWRENCEVILLE GA 30043FAILURE TO APPEAR$245CBGwinnett County PoliceCharges
03/25/2015 05:1203/26/2015 22:54RYANJAMIELEE9952325099523250 1077 NICKEL PLATE CT, LAWRENCEVILLE GA 30043HOLD FOR OTHER AGENCY$0NBGwinnett County PoliceCharges
03/25/2015 05:03LEONARDIDOMINIQUEANGELINO9951574899515748APT 7101 6000 OAKBEND ST, ORLANDO FL 32835*LESS THAN AN OZ OF MARIJ.$1300SBGwinnett County PoliceCharges
03/25/2015 05:03LEONARDIDOMINIQUEANGELINO9951574899515748APT 7101 6000 OAKBEND ST, ORLANDO FL 32835*POSS AND USE OF DRUG RELATED$1300SBGwinnett County PoliceCharges
03/25/2015 05:03LEONARDIDOMINIQUEANGELINO9951574899515748APT 7101 6000 OAKBEND ST, ORLANDO FL 32835HOLD FOR OTHER AGENCY$0NBGwinnett County PoliceCharges
03/25/2015 04:2203/25/2015 12:03LIUTEHLI9952324999523249 3862GROVEMONT PLACE, DULUTH GA 30096* DUI-MORE THAN 0.10%BLOOD ALCOHOL$2006CBGwinnett County PoliceCharges
03/25/2015 04:2203/25/2015 12:03LIUTEHLI9952324999523249 3862GROVEMONT PLACE, DULUTH GA 30096IMPROPER LANE CHANGE$68CBGwinnett County PoliceCharges
03/25/2015 04:2203/25/2015 12:03LIUTEHLI9952324999523249 3862GROVEMONT PLACE, DULUTH GA 30096FAILURE TO YIELD FOR EMERGENCY$68CBGwinnett County PoliceCharges
03/25/2015 04:2203/25/2015 12:03LIUTEHLI9952324999523249 3862GROVEMONT PLACE, DULUTH GA 30096NO PARKING CNTRL'D ACCESS HWY$56CBGwinnett County PoliceCharges
03/25/2015 04:0403/25/2015 08:33DAVISSHANICEMONEE9952324899523248 2401 WINDY HILL POINT NW, LAWRENCEVILLE GA 30046NO PROOF INS$439SBSnellville PoliceCharges
03/25/2015 04:0403/25/2015 08:33DAVISSHANICEMONEE9952324899523248 2401 WINDY HILL POINT NW, LAWRENCEVILLE GA 30046SUSP REGISTRATION$719SBSnellville PoliceCharges
03/25/2015 04:0403/25/2015 08:33DAVISSHANICEMONEE9952324899523248 2401 WINDY HILL POINT NW, LAWRENCEVILLE GA 30046*GIVING FALSE NAME$356SBSnellville PoliceCharges
03/25/2015 04:0403/25/2015 08:33DAVISSHANICEMONEE9952324899523248 2401 WINDY HILL POINT NW, LAWRENCEVILLE GA 30046DRIVING WITHOUT LICENSE ON PERSON$33SBSnellville PoliceCharges
03/25/2015 03:52MCGHEEWALLANCECORINTHIAS9950180999501809 370 NORTH AVE, HAPEVILLE GA 30354VIOLATION OF PROBATION$0NBDuluth PoliceCharges
03/25/2015 03:52MCGHEEWALLANCECORINTHIAS9950180999501809 370 NORTH AVE, HAPEVILLE GA 30354* VIOLATION OF PROBATION$0NBDuluth PoliceCharges
03/25/2015 03:3703/25/2015 06:02MCDONALDPAMELA9952324799523247 1045 DOMINION CT, LAWRENCEVILLE GA 30044* DUI-MORE THAN 0.10%BLOOD ALCOHOL$2006SBGwinnett County PoliceCharges
03/25/2015 03:3703/25/2015 06:02MCDONALDPAMELA9952324799523247 1045 DOMINION CT, LAWRENCEVILLE GA 30044IMPROPER LANE CHANGE$68SBGwinnett County PoliceCharges
03/25/2015 03:1003/25/2015 12:43WRIEDT-AVILACARLOSANTONIO9951661199516611 2301 ATTEWOOD DR, BUFORD GA 30519*LESS THAN AN OZ OF MARIJ.$1300CBGwinnett County PoliceCharges
03/25/2015 03:1003/25/2015 12:43WRIEDT-AVILACARLOSANTONIO9951661199516611 2301 ATTEWOOD DR, BUFORD GA 30519M/V WRONG SIDE OF ROAD$68CBGwinnett County PoliceCharges
03/25/2015 03:0603/25/2015 13:18LEEDOUGLASMICHAEL9918524899185248 4071 PINE VALLEY RD, TUCKER GA 30084TAG LIGHT VISIBLE 50 FT.$68SBGwinnett County PoliceCharges
03/25/2015 03:0603/25/2015 13:18LEEDOUGLASMICHAEL9918524899185248 4071 PINE VALLEY RD, TUCKER GA 30084SPEEDING$145SBGwinnett County PoliceCharges
03/25/2015 03:0603/25/2015 13:18LEEDOUGLASMICHAEL9918524899185248 4071 PINE VALLEY RD, TUCKER GA 30084* DRIVING WHILE LICENSE WITHDRAWN$705SBGwinnett County PoliceCharges
03/25/2015 02:5803/25/2015 11:23BELTRAN MORQUECHOROBERTOHELADIO9952324599523245 7351 BERRY HILL DR, GAINESVILLE GA 30507*DRIVING WHILE LIC.SUSP/REVOKED$803CBLawrenceville PoliceCharges
03/25/2015 02:5303/25/2015 07:11BROWNDERRICKDEANTHONY9940823699408236 2318 LESLIE BROOK DR, DECATUR GA 30035*LESS THAN AN OZ OF MARIJ.$1300SBGwinnett County PoliceCharges
03/25/2015 02:5303/25/2015 07:11BROWNDERRICKDEANTHONY9940823699408236 2318 LESLIE BROOK DR, DECATUR GA 30035TAG LIGHT VISIBLE 50 FT.$68SBGwinnett County PoliceCharges
03/25/2015 02:3803/27/2015 02:16DUETTTHOMAS9907769199077691 151 HONEYSUCKLE CIR, LAWRENCEVILLE GA 30045PUBLIC DRUNK$213ORLawrenceville PoliceCharges
03/25/2015 02:1103/25/2015 05:12LENONBARRYFITZGERALD9952324499523246 734 WOOD CLIFF DR, LILBURN GA 30047* DUI-MORE THAN 0.10%BLOOD ALCOHOL$2006SBGwinnett County PoliceCharges
03/25/2015 02:1103/25/2015 05:12LENONBARRYFITZGERALD9952324499523246 734 WOOD CLIFF DR, LILBURN GA 30047IMPROPER/ERRATIC LANE CHANGE$68SBGwinnett County PoliceCharges
03/25/2015 01:2503/25/2015 08:40HARRISONAUSTINJEROME9946852499468524 1868 STONEBROOK WAY, LAWRENCEVILLE GA 30043FAILURE TO OBEY YIELD SIGN$0ORGwinnett County Public Schools PoliceCharges
03/25/2015 01:2503/25/2015 08:40HARRISONAUSTINJEROME9946852499468524 1868 STONEBROOK WAY, LAWRENCEVILLE GA 30043*MAUFACTUR/POSS/PURCH/DIST/SALE MARIJUAN$2950SBGwinnett County Public Schools PoliceCharges
03/25/2015 01:05BURTONAARONJAMES9948430399484303 849 NATCHEZ VALLEY TRCE, GRAYSON GA 30017* VIOLATION OF PROBATION$0NBGwinnett County PoliceCharges
03/25/2015 00:5803/25/2015 08:37HIPPJUSTINA9952324399523243 911 ST MARLOWE DR, LAWRENCEVILLE GA 30044*LESS THAN AN OZ OF MARIJ.$1300SBGwinnett County PoliceCharges
03/25/2015 00:4803/25/2015 12:36MIRANDAROBERTNICHOLAS9950366099503660 1455 SAGE BROOK CT, LAWRENCEVILLE GA 30043*LESS THAN AN OZ OF MARIJ.$1300SBGwinnett County PoliceCharges
03/25/2015 00:28TOWNSENDDERELLDESMOINE9948178199481781APT 1121 2300 GLOBAL FORUM BLVD, ATLANTA GA 30340* VIOLATION OF PROBATION$0NBGwinnett County SheriffCharges
03/25/2015 00:2603/25/2015 04:52TOWNSENDTANGELIASECAY9952324299523242APT 1121 2300 GLOBAL FORUM BLVD, ATLANTA GA 30340* OBSTRUCTION LAW ENFORCEMENT OFFICER$2950SBGwinnett County SheriffCharges
03/25/2015 00:1103/25/2015 11:53BROWNSHANTRIARENEE9952324199523241 4729 CENTURIAN WAY, SNELLVILLE GA 30039HEADLIGHTS$0ORGwinnett County PoliceCharges
03/25/2015 00:1103/25/2015 11:53BROWNSHANTRIARENEE9952324199523241 4729 CENTURIAN WAY, SNELLVILLE GA 30039* OBSTRUCTION LAW ENFORCEMENT OFFICER$5700SBGwinnett County PoliceCharges
03/25/2015 00:1103/25/2015 11:53BROWNSHANTRIARENEE9952324199523241 4729 CENTURIAN WAY, SNELLVILLE GA 30039* DRIVING WHILE LIC SUSP/REVOKED$2400SBGwinnett County PoliceCharges
03/25/2015 00:1103/25/2015 11:53BROWNSHANTRIARENEE9952324199523241 4729 CENTURIAN WAY, SNELLVILLE GA 30039*LESS THAN AN OZ OF MARIJ.$2400SBGwinnett County PoliceCharges
03/24/2015 23:5703/25/2015 07:55PEREZ-DIAZRODOLFOARTURO9952324099523240APT R5 6259 S NORCROSS TUCKER RD, TUCKER 30084$Gwinnett County SheriffCharges
03/24/2015 23:3803/25/2015 20:39SALDANA-PEREZMARCOANTONIO9911313599412272 1510 SOMERSET VALE CT, LAWRENCEVILLE GA 30044*DRIVING WHILE LIC.SUSP/REVOKED$803SBLawrenceville PoliceCharges
03/24/2015 23:3803/25/2015 20:39SALDANA-PEREZMARCOANTONIO9911313599412272 1510 SOMERSET VALE CT, LAWRENCEVILLE GA 30044NOISE ORDINANCE VIOLATION$200SBLawrenceville PoliceCharges
03/24/2015 23:3203/25/2015 10:11REDMONDROBERTCOLE9950833199508331 2850 CHANNING WAY, CUMMING GA 30040Violation of Probation$1095.85FISuwanee PoliceCharges
03/24/2015 23:2703/25/2015 02:19FRIELBLAKEMCKINLEY9952323999523239 1406 REDLAND CT, LAWRENCEVILLE GA 30046FAILURE TO STOP FOR STOP SIGN$105CBLawrenceville PoliceCharges
03/24/2015 23:2703/25/2015 02:19FRIELBLAKEMCKINLEY9952323999523239 1406 REDLAND CT, LAWRENCEVILLE GA 30046*DRIVING WHILE LIC.SUSP/REVOKED$803CBLawrenceville PoliceCharges
03/24/2015 23:1903/25/2015 11:28NUNLEYJORDANJERRAD9952323899523238 7822 ADAMSON RD, JONESBORO GA 30236* VGCSA-SCHEDULE IV$5700SBGwinnett County SheriffCharges
03/24/2015 23:1603/25/2015 11:42CAMPBELLJONATHANCASIUS9952323799523237 460 CHANDLER BLUFF CT, GRAYSON GA 30017*VGCSA POSS OF MARIJUANA W/INTENT TO DIS$5700SBGeorgia Gwinnett College PDCharges
03/24/2015 23:0503/25/2015 12:34LANPHARCLINTONJAMES9600608896006088 2750 TROTTER PT DR, SNELLVILLE GA 30039* FALSE REPORT OF A CRIME$1300SBGwinnett County SheriffCharges
03/24/2015 23:0103/25/2015 02:01CARTERTERRELL9952323699523236 105 HERITAGE CLUB TRL, DALLAS GA 30132FAILURE TO APPEAR$1166CBGwinnett County SheriffCharges
03/24/2015 22:5103/26/2015 17:36MOOREALFREDAEUGENIA9948090799480907 4066 BEAVER OAKS DR, DULUTH GA 30096Violation of Probation$0NBGwinnett County SheriffCharges
03/24/2015 22:2303/25/2015 09:39PALMERTONYLAMAAR9948530399485303APT 61 2340 BEAVER RUIN RD, NORCROSS GA 30071HOLD FOR OTHER AGENCY$0NBGwinnett County SheriffCharges
03/24/2015 22:17ARRINGTONERINKIMBERLY9948755399487553 3207 HENDERSON MILL RD, ATLANTA GA 30341Violation of Probation$0NBGwinnett County SheriffCharges
03/24/2015 22:17ARRINGTONERINKIMBERLY9948755399487553 3207 HENDERSON MILL RD, ATLANTA GA 30341* VIOLATION OF PROBATION$0NBGwinnett County SheriffCharges
03/24/2015 21:3503/25/2015 03:00COLEEDWARDLEWIS9952323499523234 4342 CARTERSVILLE HWY, DALLAS GA 30132* CRIMINAL DAMAGE TO PROPERTY-2ND DEGREE$2950SBGwinnett County SheriffCharges
03/24/2015 21:0803/25/2015 02:14RAYCARMYDARODRIGUEZ9952323399523233APT C104 2255 SATELLITE BLVD, DULUTH GA 30097@ * THEFT BY TAKING$0ORGwinnett County PoliceCharges
03/24/2015 21:0703/25/2015 01:58BENTONJAMESHENRY9952323299523232 2255 SATELLITE BLVD APT C104, DULUTH GA 30097@ * THEFT BY TAKING$2400SBGwinnett County PoliceCharges
03/24/2015 20:58WATSONRANDYEARL9919571799195717APT 713 2705 MALL OF GA BLVD, BUFORD GA 30519*AGGRAVATED STALKING$0NBGwinnett County SheriffCharges
03/24/2015 20:4803/25/2015 19:06KINGMATRILLAMATRICE9952323199523231 910 ASHLEY LAKES DR, PEACHTREE CORNERS GA 30092* VIOLATION OF EMPLOYMENT SECURITY LAW$5700SBGwinnett County SheriffCharges
03/24/2015 20:3603/25/2015 00:19BOWMANPEGGYIRWIN9952323099523230 2994 RAVENWOLFE WAY, SNELLVILLE GA 30039HOLD FOR OTHER AGENCY$0NBGwinnett County SheriffCharges
03/24/2015 20:04WILLAMSASIA9952029799523228 9428 COLBY AVENUE, FORT WORTH TX 70129@ * THEFT BY SHOPLIFTING$2400SBGwinnett County PoliceCharges
03/24/2015 19:46MIAHJONASMIKE9949760999497609 1435 BOGGS RD #1911, DULUTH GA 30096* VIOLATION OF PROBATION$0NBGwinnett County SheriffCharges
03/24/2015 19:4503/25/2015 11:26GUNNJEREMYLAVONTE9952322699523226 6570 DESHON BEND CIR, LITHONIA GA 30058@ * THEFT BY TAKING$1300SBGeorgia Gwinnett College PDCharges
03/24/2015 19:40HOBBSDARWINVERNELL9914487299144872 1219 GLADE HILL DRIVE, KNOXVILLE TN 37923@ * CHILD ABANDONMENT$0NBGwinnett County SheriffCharges
03/24/2015 19:3203/25/2015 00:34WALDROPCHARLESALAN9951874199518742 6014 LAKE LANIER HEIGHTS RD, BUFORD GA 30518HOLD FOR OTHER AGENCY$0NBLilburn PoliceCharges
03/24/2015 19:2703/24/2015 22:56STRACKBEINSHAWNMICHAEL9106689491066894 2051 FLOWERING DRIVE, GRAYSON GA 30017@ * BATTERY$1300SBGwinnett County PoliceCharges
03/24/2015 19:02WATTSTEKEYSHIATIERREA9942662299426622 425 WINDSOR BROOK LN, LAWRENCEVILLE GA 30045* DUI - DRUGS/ALCOHOL$0NBGwinnett County SheriffCharges
03/24/2015 18:5203/25/2015 11:17SMITHARRONJOSEPH9952322599523225 5395 PEACHTREE INDUSTRIAL BLVD, PEACHTREE CORNERS GA 30092HOLD FOR OTHER AGENCY$0NBNorcross PoliceCharges
03/24/2015 18:4403/25/2015 01:22COLLADOCARLOSGABRIEL9952322499523224 120 HOWELL BRIDGE RD, DULUTH GA 30097*VGCSA LESS THAN 1 OZ.$1150.25SBDuluth PoliceCharges
03/24/2015 18:1003/24/2015 22:54DUNCANJOHNRUBIN9952322399523223 1210 N MAIN ST, hattiesburg MS 39401* DRIVING WHILE LIC SUSP/REVOKED$705SBGwinnett County PoliceCharges
03/24/2015 17:4103/24/2015 22:02CHAUCA-VELEZCINDYGABRIELA9952322199523235 2696 BEECHWOOD AVE, DORAVILLE GA 30340*NO DRIVERS LICENSE$705CBGwinnett County PoliceCharges
03/24/2015 17:4103/24/2015 22:02CHAUCA-VELEZCINDYGABRIELA9952322199523235 2696 BEECHWOOD AVE, DORAVILLE GA 30340FOLLOWING TOO CLOSELY$96CBGwinnett County PoliceCharges
03/24/2015 17:2903/24/2015 22:44HERNANDEZ-HERNANDEZSALVADOR9950015899500158 2660 WINDSOR WOODS LN APT D, NORCROSS GA 30071Failure to Appear$2085CBNorcross PoliceCharges
03/24/2015 17:06THAITUNGKIM9948130099520288 266 SANDRA DR NW, LILBURN GA 30047* DRIVING WHILE LIC SUSP/REVOKED$0NBGwinnett County SheriffCharges
03/24/2015 16:57GEIGERHAROLDCHRISTOPHER9951619599516195 536 CHARLESTON LN, LAWRENCEVILLE GA 30046* VIOLATION OF PROBATION$0NBGwinnett County SheriffCharges
03/24/2015 16:5103/24/2015 20:36WILLIAMSARTHURJOE9952322099523220 4412 BRIDLE BLUFF, STONE MOUNTAIN GA 30083* DRIVING WHILE LIC SUSP/REVOKED$705SBGwinnett County PoliceCharges
03/24/2015 16:4703/26/2015 11:02SIHACHACKTACOMANMN9915307899153078 562 LEAFLET IVES DRIVE, LAWRENCEVILLE GA 30045SAFETY BELTS REQUIRED$15SBGwinnett County PoliceCharges
03/24/2015 16:4703/26/2015 11:02SIHACHACKTACOMANMN9915307899153078 562 LEAFLET IVES DRIVE, LAWRENCEVILLE GA 30045*VGCSA POSS OF MARIJUANA W/INTENT TO DIS$2950SBGwinnett County PoliceCharges
03/24/2015 16:4703/26/2015 11:02SIHACHACKTACOMANMN9915307899153078 562 LEAFLET IVES DRIVE, LAWRENCEVILLE GA 30045*POSS AND USE OF DRUG RELATED$0ORGwinnett County PoliceCharges
03/24/2015 16:3303/24/2015 21:59LOFTUSSARAHMARGUERITE9952321999523219 651 WINDING VALLEY DR SW, LILBURN GA 30047*THEFT X SHOPLIFTING$420CBLilburn PoliceCharges
03/24/2015 16:31GARRETTSYVARIUSEMANUEL9949416599494165 725 THE FALLS PKWY APT B, DULUTH GA 30096@ * ARMED ROBBERY$0NBGwinnett County SheriffCharges
03/24/2015 16:0803/26/2015 15:30TESSIERCHENGTAYLOR9944647699446476 6103 SANDY BEACH TERRACE, RIVIERA BEACH GA 33407*DRIVING WHILE LICENSE SUSP/REVOKED$971.75ORDuluth PoliceCharges
03/24/2015 16:0803/26/2015 15:30TESSIERCHENGTAYLOR9944647699446476 6103 SANDY BEACH TERRACE, RIVIERA BEACH GA 33407*LIGHT REDUCING MATL. AFFIXED TO WINDOWS$94.25ORDuluth PoliceCharges
03/24/2015 15:4503/29/2015 05:08VASQUEZ DUARTEDENIS9951539999515399 5265 MALTDIE CT, SUGAR HILL GA 30518* VIOLATION OF PROBATION$0NBGwinnett County SheriffCharges
03/24/2015 15:2803/24/2015 23:52UZOHOSONOA9952220199522201 1022 LEVEL CREEK RD APT 1005, SUGAR HILL GA 30518* CRIMINAL TRESPASS$2400SBSuwanee PoliceCharges
03/24/2015 14:4103/25/2015 19:40TORRES-TORRESERNESTO9951838999518389 1915 WESLEY PLANTATION DR, DULUTH GA 30096*FORGERY 4TH DEGREE$2400SBDuluth PoliceCharges
03/24/2015 14:4103/25/2015 19:40TORRES-TORRESERNESTO9951838999518389 1915 WESLEY PLANTATION DR, DULUTH GA 30096* GIVING FALSE NAME OR INFORMATION$2400SBDuluth PoliceCharges
03/24/2015 14:4103/25/2015 19:40TORRES-TORRESERNESTO9951838999518389 1915 WESLEY PLANTATION DR, DULUTH GA 30096*FORGERY 4TH DEGREE$5700SBDuluth PoliceCharges
03/24/2015 14:4103/25/2015 19:40TORRES-TORRESERNESTO9951838999518389 1915 WESLEY PLANTATION DR, DULUTH GA 30096@ * THEFT BY DECEPTION$5700SBDuluth PoliceCharges
03/24/2015 14:4103/25/2015 19:40TORRES-TORRESERNESTO9951838999518389 1915 WESLEY PLANTATION DR, DULUTH GA 30096@ * THEFT BY DECEPTION$5700SBDuluth PoliceCharges
03/24/2015 14:4103/25/2015 19:40TORRES-TORRESERNESTO9951838999518389 1915 WESLEY PLANTATION DR, DULUTH GA 30096*FORGERY 4TH DEGREE$5700SBDuluth PoliceCharges
03/24/2015 14:28DEMERITTETERRELLTRENT9929889099298890 4033 NORTHRIDGE WAY APT 2, NORCROSS GA 30093* VIOLATION OF PROBATION$0NBProbationCharges
03/24/2015 14:25RODRIGUEZALFRED9952321699523216 732 VAN BRIGGLE PATH, BUFORD GA 30518@ * CHILD MOLESTATION/AGG CHILD MOLES$0NBGwinnett County PoliceCharges
03/24/2015 14:10WILLIAMSDEREKDESHAWN9952321499523214 5242 STATION CIR, NORCROSS GA 30071@*SEXUAL BATTERY$0NBNorcross PoliceCharges
03/24/2015 14:10SULLIVANROOSEVELT9928803699288036 3400 PALISADES LAKE DR, DULUTH GA 30096* USE OF LICENSE PLATE TO CONCEAL I.D.$705SBGwinnett County PoliceCharges
03/24/2015 14:10SULLIVANROOSEVELT9928803699288036 3400 PALISADES LAKE DR, DULUTH GA 30096* VIOLATION OF PROBATION$0NBGwinnett County PoliceCharges
03/24/2015 14:10SULLIVANROOSEVELT9928803699288036 3400 PALISADES LAKE DR, DULUTH GA 30096NO PROOF OF INSURANCE$560SBGwinnett County PoliceCharges
03/24/2015 14:10SULLIVANROOSEVELT9928803699288036 3400 PALISADES LAKE DR, DULUTH GA 30096OPERATING WITHOUT HEADLIGHTS$110SBGwinnett County PoliceCharges
03/24/2015 14:10SULLIVANROOSEVELT9928803699288036 3400 PALISADES LAKE DR, DULUTH GA 30096*DRIVING ON A SUSPENDED LICENSE$860SBGwinnett County PoliceCharges
03/24/2015 14:10SULLIVANROOSEVELT9928803699288036 3400 PALISADES LAKE DR, DULUTH GA 30096EXPIRED TAG/OPER W/OUT PROPER TAG/DECAL$150SBGwinnett County PoliceCharges
03/24/2015 14:0503/25/2015 02:49PAULDEANDRELASHON9952321399523213 919 PRESTON LAKE DR, TUCKER GA 30084Violation of Probation$0NBNorcross PoliceCharges
03/24/2015 14:0503/25/2015 02:49PAULDEANDRELASHON9952321399523213 919 PRESTON LAKE DR, TUCKER GA 30084FAILURE TO APPEAR$125CBNorcross PoliceCharges
03/24/2015 13:4603/24/2015 20:17GHOLSTONCHANDREAANTANETTE9952321199523211 1200 HOLLY CIR, LAWRENCEVILLE GA 30044* CRIMINAL TRESPASS$2950SBGwinnett County PoliceCharges
03/24/2015 13:31HICKSBRYONSHIMON9947666099476660 2095 CHAMPIONS PKWY, LAWRENCEVILLE GA 30044* VIOLATION OF PROBATION$0NBGwinnett County SheriffCharges
03/24/2015 13:2703/24/2015 14:08EVANSJARED9947947199479471 3228 QUAILS LAKE VILLAGE LN, NORCROSS GA 30093@ * THEFT BY SHOPLIFTING$0NBGwinnett County SheriffCharges
03/24/2015 13:2703/27/2015 09:39SCOTTALBERTLESTERJACOB9600846796008467 996 WALNUT DR, LAWRENCEVILLE GA 30044* VIOLATION OF PROBATION$0NBGwinnett County SheriffCharges
03/24/2015 13:18SHORTERDUKESALEXANDER9915945399159453 4274 CEDAR CREEK DRIVE, LILBURN GA 30047Violation of Probation$0NBGwinnett County SheriffCharges
03/24/2015 13:12FANNINGJAMESHOWARD9907314999073149 2998 OLDE TABBY DR, DOUGLASVILLE GA 30135* VIOLATION OF PROBATION$0NBGwinnett County SheriffCharges
03/24/2015 13:0803/26/2015 17:13WOODSMOHAMMEDJABAN9946476199464761 2803 TREEHOUSE PKWY, NORCROSS GA 30093Violation of Probation$0NBGwinnett County SheriffCharges
03/24/2015 13:0003/24/2015 21:47SIEGRISTCHELSEADANA9952321099523210# 3113 1435 BOGGS RD, DULUTH GA 30096FAILURE TO APPEAR$805CBSuwanee PoliceCharges
03/24/2015 12:59DOWERRAUSHEEN9947804199478041#C 511 CANDLER RD, DECATUR GA 30032FAILURE TO APPEAR$696CBGwinnett County Correctional InstituteCharges
03/24/2015 12:2003/25/2015 02:21CAOGUANGYAO9952320999523209 1665 RIVERVIEW CV, LAWRENCEVILLE GA 30046FAILURE TO APPEAR$399CBNorcross PoliceCharges
03/24/2015 12:2003/25/2015 02:21CAOGUANGYAO9952320999523209 1665 RIVERVIEW CV, LAWRENCEVILLE GA 30046*DRIVING ON A SUSPENDED LICENSE$860SBNorcross PoliceCharges
03/24/2015 12:0603/24/2015 22:01EDWARDSEBONYZENECHIA9935885399358904 3048 DESTIN CIRCLE, SNELLVILLE GA 30078@ * BATTERY$1850SBGwinnett County SheriffCharges
03/24/2015 12:0403/24/2015 18:27COATESROBERTDEWAYN9951899399518993 721 WALLINGTON CT NW, LILBURN GA 30047*CRUELTY CHILDREN 2ND.$11200SBGwinnett County SheriffCharges
03/24/2015 12:0003/24/2015 18:30ZHENGYUNYU9952320899523208 3701 SPRING CREEK CIRCLE, SNELLVILLE GA 30039NO BRAKE LIGHTS OR WORKING TURN SIGNALS$117CBSnellville PoliceCharges
03/24/2015 12:0003/24/2015 18:30ZHENGYUNYU9952320899523208 3701 SPRING CREEK CIRCLE, SNELLVILLE GA 30039*NO DRIVERS LICENSE$719CBSnellville PoliceCharges
03/24/2015 11:59MCKENNONJOHNLYNORRIS9400296994002969 1461 STONEWOOD DR, NORCROSS GA 30093Failure to Appear$560CBGwinnett County PoliceCharges
03/24/2015 11:5003/24/2015 22:24MEHMETAJDEMIS9940892899408928 3000 ANSLEY FOREST CT, SNELLVILLE GA 30078* CRIMINAL TRESPASS$4600SBGwinnett County SheriffCharges
03/24/2015 11:5003/24/2015 22:24MEHMETAJDEMIS9940892899408928 3000 ANSLEY FOREST CT, SNELLVILLE GA 30078* POINTING GUN OR PISTOL AT ANOTHER$4600SBGwinnett County SheriffCharges
03/24/2015 11:4903/24/2015 18:33PAYNEBRADLEYPAUL9952320799523207 2300 SUTTON ST SE, ATLANTA GA 30317*DRIVING WHILE LICENSE SUSP/REVOKED$971.75CBDuluth PoliceCharges
03/24/2015 11:4903/24/2015 18:33PAYNEBRADLEYPAUL9952320799523207 2300 SUTTON ST SE, ATLANTA GA 30317SPEEDING 19-23 OVER$213.25CBDuluth PoliceCharges
03/24/2015 11:4403/27/2015 13:45GEORGEPRINCEALEXANDER9951662999516629 2115 PIEDMONT ROAD APT 4312, ATLANTA GA 30315Violation of Probation$0NBGwinnett County SheriffCharges
03/24/2015 11:4403/27/2015 13:45GEORGEPRINCEALEXANDER9951662999516629 2115 PIEDMONT ROAD APT 4312, ATLANTA GA 30315HOLD FOR OTHER AGENCY$0NBGwinnett County SheriffCharges
03/24/2015 11:4203/24/2015 14:57BRITTBASHERLAMARR9949923299499232 2502 PARK COLONY DR, NORCROSS GA 30093* ENDANGERING SECURITY INTEREST$1300SBGwinnett County SheriffCharges
03/24/2015 11:38JOHNSONJERMAINEOMAR9945124899451248 1660 STANTON ROAD APT F5, ATLANTA GA 30310* VIOLATION OF PROBATION$0NBGwinnett County SheriffCharges
03/24/2015 11:2403/25/2015 19:08BRITTTACHANYLOREN9952320599523206 4459 SEVILLE LN, EAST POINT GA 30344* ENDANGERING SECURITY INTEREST$1300SBGwinnett County SheriffCharges
03/24/2015 11:2203/24/2015 15:54MCMILLIANPAMELAMESHELL9939793099406902 514 S COTTON ST, ANDALUSIA AL 36420FAILURE TO APPEAR$150CBGwinnett County SheriffCharges
03/24/2015 11:0703/24/2015 21:05BAILEYKENNETHNATHANIEL9952320499523204 6343 EDENFIELD DR, LITHONIA GA 30058* POSS OF A WEAPON DURING A CRIME$5700SBGwinnett County SheriffCharges
03/24/2015 11:0703/24/2015 21:05BAILEYKENNETHNATHANIEL9952320499523204 6343 EDENFIELD DR, LITHONIA GA 30058*VGCSA OF C/S$5700SBGwinnett County SheriffCharges
03/24/2015 11:0703/24/2015 21:05BAILEYKENNETHNATHANIEL9952320499523204 6343 EDENFIELD DR, LITHONIA GA 30058*LESS THAN AN OZ OF MARIJ.$2950SBGwinnett County SheriffCharges
03/24/2015 11:01JACKSONTYRALLMIKAL9941501499415014 10107 HOLLAND PLACE, LAWRENCEVILLE GA 30046* GIVING FALSE NAME OR INFORMATION$1300SBLawrenceville PoliceCharges
03/24/2015 11:01JACKSONTYRALLMIKAL9941501499415014 10107 HOLLAND PLACE, LAWRENCEVILLE GA 30046*LESS THAN AN OZ OF MARIJ.$1300SBLawrenceville PoliceCharges
03/24/2015 10:4503/24/2015 14:08HARRISJONATHANDEMARI9952320399523203 4303 FLAT STONE LANE, SNELLVILLE GA 30039* OBSTRUCTION LAW ENFORCEMENT OFFICER$1300SBGwinnett County Public Schools PoliceCharges
03/24/2015 10:4203/24/2015 15:33SAENZ-REYESJESUSEDUARDO9952320299523202 1538 LYMAN ST, GAINESVILLE GA 30501IMPEDING THE FLOW OF TRAFFIC$200SBNorcross PoliceCharges
03/24/2015 10:4203/24/2015 15:33SAENZ-REYESJESUSEDUARDO9952320299523202 1538 LYMAN ST, GAINESVILLE GA 30501*NO VALID LICENSE$860SBNorcross PoliceCharges
03/24/2015 10:37GOSSROMELOANTONIO9952320199523201 6069 RADFORD DRIVE, RIVERDALE GA 30296* FORGERY-1ST DEGREE$1300SBGwinnett County SheriffCharges
03/24/2015 10:35WHITEWILLIAMTHOMAS9907826399078345 1476 THOMPSON PL, DECATUR GA 30032* VIOLATION OF PROBATION$0NBGwinnett County SheriffCharges
03/24/2015 10:32RANKINSDERRICKJAMAL9949938299499382 5936 SHERWOOD PL, ELLENWOOD GA 30294HOLD FOR COURT$0NBGwinnett County SheriffCharges
03/24/2015 10:1703/27/2015 15:38CAMPBELLTHEONGHAVANTE9947637699476376 2591 BERWICK WALK, SNELLVILLE GA 30078FAILURE TO APPEAR$705CBLawrenceville PoliceCharges
03/24/2015 10:1703/27/2015 15:38CAMPBELLTHEONGHAVANTE9947637699476376 2591 BERWICK WALK, SNELLVILLE GA 30078DISORDERLY CONDUCT$439ORLawrenceville PoliceCharges
03/24/2015 10:1703/27/2015 15:38CAMPBELLTHEONGHAVANTE9947637699476376 2591 BERWICK WALK, SNELLVILLE GA 30078Failure to Appear$2632CBLawrenceville PoliceCharges
03/24/2015 10:1703/27/2015 15:38CAMPBELLTHEONGHAVANTE9947637699476376 2591 BERWICK WALK, SNELLVILLE GA 30078POSSESSION OF MARIJUANA <1 OZ.$654ORLawrenceville PoliceCharges
03/24/2015 10:1703/24/2015 11:48RUIZ PALMEROSLUISFERNANDO9952320099523200 4143 LAUREL BEND CT, SNELLVILLE GA 30039*DRIVING W/O LICENSE-FAIL OBTAIN 30 DAYS$0NBGwinnett County SheriffCharges
03/24/2015 09:5003/24/2015 10:01SPENCEDENISEYVONNE9940744399407443 2705 STILL FARMS CT, LAWRENCEVILLE GA 30043$Suwanee PoliceCharges
03/24/2015 09:1303/24/2015 12:54MULLINSAGZIAJERIKAH MIKELL9952319999523199 247 BLANCHARD AVE, PINE MOUNTAIN GA 31822SPEEDING$215CBGwinnett County PoliceCharges
03/24/2015 09:1303/24/2015 12:54MULLINSAGZIAJERIKAH MIKELL9952319999523199 247 BLANCHARD AVE, PINE MOUNTAIN GA 31822MATERIALS ON WINDSHIELD/LIGHT$68CBGwinnett County PoliceCharges
03/24/2015 09:1303/24/2015 12:54MULLINSAGZIAJERIKAH MIKELL9952319999523199 247 BLANCHARD AVE, PINE MOUNTAIN GA 31822POSSESSION OF LESS 1 OZ. MARIJUANA$585CBGwinnett County PoliceCharges
03/24/2015 07:5103/24/2015 14:55ANDERSONSHANNONBRENITA9946365599463655#A 3335 COUNTY CLUB VILLIAGE, PEACHTREE CORNERS GA 30092*DRIVING WHILE LICENSE SUSP/REVOKED$971.75SBDuluth PoliceCharges
03/24/2015 06:5803/24/2015 19:59BINNSCAMERONDEMARLON9952319599523195 206 STAYMAN DR, RIVERDALE GA 30274POSSESSION OF MARIJUANA <1 OZ.$654CBLawrenceville PoliceCharges
03/24/2015 06:1703/24/2015 11:08BRIGGSJALISSIALINNIQUE9934353799373675 743 LOST CREEK CIR, STONE MOUNTAIN GA 30088HOLD FOR OTHER AGENCY$0NBGwinnett County PoliceCharges
03/24/2015 05:4703/27/2015 15:41CASTEANEDA-YANCORLUISJACOB9952319499523194 4155 SATELLITE BLVD, DULUTH GA 30096* DUI-ALCOHOL$2006CBGwinnett County PoliceCharges
03/24/2015 05:4703/27/2015 15:41CASTEANEDA-YANCORLUISJACOB9952319499523194 4155 SATELLITE BLVD, DULUTH GA 30096*NO DRIVERS LICENSE$705CBGwinnett County PoliceCharges
03/24/2015 05:4703/27/2015 15:41CASTEANEDA-YANCORLUISJACOB9952319499523194 4155 SATELLITE BLVD, DULUTH GA 30096IMPROPER/ERRATIC LANE CHANGE$68CBGwinnett County PoliceCharges
03/24/2015 05:3203/24/2015 12:14THOMPSONMUNIYRAHAMIYDA9952319399523193 3208 HOLLAND PLACE, LAWRENCEVILLE GA 30043* DUI - DRUGS/ALCOHOL$2006SBGwinnett County PoliceCharges
03/24/2015 05:3203/24/2015 12:14THOMPSONMUNIYRAHAMIYDA9952319399523193 3208 HOLLAND PLACE, LAWRENCEVILLE GA 30043IMPROPER/ERRATIC LANE CHANGE$68SBGwinnett County PoliceCharges
03/24/2015 05:3203/24/2015 12:14THOMPSONMUNIYRAHAMIYDA9952319399523193 3208 HOLLAND PLACE, LAWRENCEVILLE GA 30043EXPIRED LICENSE$68SBGwinnett County PoliceCharges
03/24/2015 04:5903/24/2015 08:43BOYDSTONDEVONEEMARIE9952319299523192 3700 PRESCOTT RIDGE, CLARKSTON GA 30017IMPROPER LANE CHANGE$68SBGwinnett County PoliceCharges
03/24/2015 04:5903/24/2015 08:43BOYDSTONDEVONEEMARIE9952319299523192 3700 PRESCOTT RIDGE, CLARKSTON GA 30017* DUI-ALCOHOL$2950SBGwinnett County PoliceCharges
03/24/2015 02:31JORDANJEREMYJAMAL9951622199516221 517 STONEWOOD DR, STONE MOUNTAIN GA 30087Failure to Appear$895CBNorcross PoliceCharges
03/24/2015 02:0403/29/2015 16:25BADOEEMMANUELFOBI9908494499085018 1101 TREE CORNERS PARKWAY, NORFOLK GA 30093FAILURE TO APPEAR$705CBGwinnett County PoliceCharges
03/24/2015 02:0403/29/2015 16:25BADOEEMMANUELFOBI9908494499085018 1101 TREE CORNERS PARKWAY, NORFOLK GA 30093*NO DRIVERS LICENSE$1300SBGwinnett County PoliceCharges
03/24/2015 02:0403/29/2015 16:25BADOEEMMANUELFOBI9908494499085018 1101 TREE CORNERS PARKWAY, NORFOLK GA 30093* GIVING FALSE NAME OR INFORMATION$1300SBGwinnett County PoliceCharges
03/24/2015 02:0403/29/2015 16:25BADOEEMMANUELFOBI9908494499085018 1101 TREE CORNERS PARKWAY, NORFOLK GA 30093* DUI-MORE THAN 0.10%BLOOD ALCOHOL$1300SBGwinnett County PoliceCharges
03/24/2015 02:0403/29/2015 16:25BADOEEMMANUELFOBI9908494499085018 1101 TREE CORNERS PARKWAY, NORFOLK GA 30093IMPROPER/ERRATIC LANE CHANGE$1300SBGwinnett County PoliceCharges
03/24/2015 01:5703/25/2015 17:08DRAKECLARENCEEDWARD9952319199523191 377 WESTCHESTER BLVD NW, ATLANTA GA 30314* DUI - DRUGS/ALCOHOL$2006SBGwinnett County PoliceCharges
03/24/2015 01:5703/25/2015 17:08DRAKECLARENCEEDWARD9952319199523191 377 WESTCHESTER BLVD NW, ATLANTA GA 30314FAILURE TO OBEY TRAFFIC DEVICE$56SBGwinnett County PoliceCharges
03/24/2015 01:5203/24/2015 05:26BRAMWELLMERVINAUGUSTUS9942927799429277 3051 FARMSTEAD CT, GRAYSON GA 30017@ * THEFT BY SHOPLIFTING$2400SBGwinnett County SheriffCharges
03/24/2015 01:35VANOLIVERNGUYEN9925300999253009 372 BERCKMAN DR, LILBURN GA 30047HOLD FOR OTHER AGENCY$0NBLilburn PoliceCharges
03/24/2015 01:35VANOLIVERNGUYEN9925300999253009 372 BERCKMAN DR, LILBURN GA 30047* VIOLATION OF PROBATION$0NBLilburn PoliceCharges
03/24/2015 00:23GRIFFINROBERTWAYNE9929561599295615 135 HONEYSUCKLE CIR, LAWRENCEVILLE GA 30046* VIOLATION OF PROBATION$0NBGwinnett County SheriffCharges
03/24/2015 00:23GRIFFINROBERTWAYNE9929561599295615 135 HONEYSUCKLE CIR, LAWRENCEVILLE GA 30046FAILURE TO PAY/CHILD SUPPORT$9709.83CBGwinnett County SheriffCharges
03/24/2015 00:23GRIFFINROBERTWAYNE9929561599295615 135 HONEYSUCKLE CIR, LAWRENCEVILLE GA 30046DISCHARGE FIREARM WHILE UNDER$1300SBGwinnett County SheriffCharges
03/24/2015 00:23GRIFFINROBERTWAYNE9929561599295615 135 HONEYSUCKLE CIR, LAWRENCEVILLE GA 30046@ * RECKLESS CONDUCT$1300SBGwinnett County SheriffCharges
03/24/2015 00:23GRIFFINROBERTWAYNE9929561599295615 135 HONEYSUCKLE CIR, LAWRENCEVILLE GA 30046* DISCHARGE OF GUN NEAR STREET$1300SBGwinnett County SheriffCharges
03/24/2015 00:06DERREBERRYSHANEANTHONY9948616899486168 373 E JACKSON ST, BUFORD GA 30518@ * BATTERY$0NBGwinnett County PoliceCharges
03/24/2015 00:0403/25/2015 02:14TINSLEYKIMBERLYNICOLE9700108297001082 343C E JACKSON ST, BUFORD GA 30518@ * AGGRAVATED ASSAULT$5700SBGwinnett County PoliceCharges
03/24/2015 00:0403/25/2015 02:14TINSLEYKIMBERLYNICOLE9700108297001082 343C E JACKSON ST, BUFORD GA 30518* OBSTRUCTION LAW ENFORCEMENT OFFICER$1300SBGwinnett County PoliceCharges
03/23/2015 23:5903/24/2015 04:03COULTERJONATHANKEITH9949261699492616 1300 TIMBERVALLEY CT, LAWRENCEVILLE GA 30045POSSESSION OF MARIJUANA <1 OZ.$654SBLawrenceville PoliceCharges
03/23/2015 23:5303/24/2015 20:32GURUNGJITB9952318899523188 3626 MONTREAL CREEK CIR #7, CLARKSTON GA 30021* DUI - DRUGS/ALCOHOL$2006CBGwinnett County PoliceCharges
03/23/2015 23:5303/24/2015 20:32GURUNGJITB9952318899523188 3626 MONTREAL CREEK CIR #7, CLARKSTON GA 30021IMPROPER/ERRATIC LANE CHANGE$68CBGwinnett County PoliceCharges
03/23/2015 23:3103/24/2015 06:39SMITHBRYANALAN9952318799523187 1330 VILLAGE OAKS LANE, LAWRENCEVILLE GA 30043CONTEMPT OF COURT$300CBGwinnett County SheriffCharges
03/23/2015 23:2803/24/2015 04:06BUSHDWAYNEDWIGHT9947819899478198 2093 CHEYENNE LANE, LAWRENCEVILLE GA 30044FAILURE TO APPEAR$215CBGwinnett County SheriffCharges
03/23/2015 23:18JOHNSONMEGANASHTON9949546499495464 1240 ASHBROOK DRIVE, LAWRENCEVILLE GA 30043* VIOLATION OF PROBATION$0NBGwinnett County SheriffCharges
03/23/2015 23:0903/25/2015 17:32WILLIAMSHOLLISREESE9929524299295242 6080 GEORGETOWN PARK DR, NORCROSS GA 30071Violation of Probation$0NBGwinnett County SheriffCharges
03/23/2015 22:5503/26/2015 22:20SIMMONSSANYATHERESE9950405899523190 2935 ROSEBUD ROAD APT 423, LOGANVILLE GA 30052FAILURE TO APPEAR$0NBGwinnett County SheriffCharges
03/23/2015 22:47SEVILLA-RAMIREZNOE9938915899389158 111 AMBER DR APT 206, NORCROSS GA 30071FAILURE TO APPEAR$0NBGwinnett County SheriffCharges
03/23/2015 22:47SEVILLA-RAMIREZNOE9938915899389158 111 AMBER DR APT 206, NORCROSS GA 30071@ * SIMPLE BATTERY$1300SBGwinnett County SheriffCharges
03/23/2015 22:47SEVILLA-RAMIREZNOE9938915899389158 111 AMBER DR APT 206, NORCROSS GA 30071HOLD FOR IMMIGRATION$0NBGwinnett County SheriffCharges
03/23/2015 22:43ANDERSONTYSHONDAVID9952318699523186 1323 LYON ST, COLUMBIA SC 29204*FUGITIVE FROM JUSTICE$0NBGwinnett County SheriffCharges
03/23/2015 22:33PERRYDARRENDEMETRIUS9947322699473226 2214 COUNTRY WALK, SNELLVILLE GA 30039FAILURE TO APPEAR$0NBGwinnett County SheriffCharges
03/23/2015 22:33PERRYDARRENDEMETRIUS9947322699473226 2214 COUNTRY WALK, SNELLVILLE GA 30039FAILURE TO APPEAR$196CBGwinnett County SheriffCharges
03/23/2015 22:33PERRYDARRENDEMETRIUS9947322699473226 2214 COUNTRY WALK, SNELLVILLE GA 30039* BAIL JUMPING$0NBGwinnett County SheriffCharges
03/23/2015 22:2703/24/2015 15:38AREVALO-ZUNIGARIGOBERTO9952318599523185 573 BALTIMORE AVE, LILBURN GA 30047*NO DRIVERS LICENSE$705CBGwinnett County PoliceCharges
03/23/2015 22:2303/24/2015 03:40HERNANDEZ-CAMPOSJUANANTONIO9952318499523184 4061 SINGLE TREE PL, NORCROSS GA 30093*NO DRIVERS LICENSE$705CBGwinnett County PoliceCharges
03/23/2015 22:1503/24/2015 01:44LANDA-ZAVALETAMARBELLA9948188699481886 961 DAVID DR, LAWRENCEVILLE GA 30046FOLLOWING TOO CLOSELY$96CBGwinnett County PoliceCharges
03/23/2015 22:1503/24/2015 01:44LANDA-ZAVALETAMARBELLA9948188699481886 961 DAVID DR, LAWRENCEVILLE GA 30046*NO DRIVERS LICENSE$705CBGwinnett County PoliceCharges
03/23/2015 22:0803/24/2015 17:45CASTREJON-ESPINOELEAZAR9939069999390699 1479 RAINTREE DR, NORCROSS GA 30078FAILURE TO OBEY SIGNS OR CONTROL DEVICES$68CBGwinnett County PoliceCharges
03/23/2015 22:0803/24/2015 17:45CASTREJON-ESPINOELEAZAR9939069999390699 1479 RAINTREE DR, NORCROSS GA 30078*NO DRIVERS LICENSE$705CBGwinnett County PoliceCharges
03/23/2015 22:0803/24/2015 17:45CASTREJON-ESPINOELEAZAR9939069999390699 1479 RAINTREE DR, NORCROSS GA 30078* DUI-ALCOHOL$2006CBGwinnett County PoliceCharges
03/23/2015 22:0303/24/2015 03:38LOZANO-MONTOYAOSCARHUMBERTO9952318399523183 705 HARBINS COVE DR, LILBURN GA 30047EXPIRED LICENSE$67CBGwinnett County PoliceCharges
03/23/2015 21:5303/24/2015 01:24FERNANDEZ-SANCHEZURIEL9952318299523182 5100 MOUNTAIN STREET APT Y104, STONE MOUNTAIN GA 30083*NO DRIVERS LICENSE$705CBGwinnett County PoliceCharges
03/23/2015 21:4203/24/2015 12:37ALDRICHDINALESLIE9952318199523181 564 BUFFORD DR, LAWRENCEVILLE GA 30046DRINKING IN PUBLIC$213SBLawrenceville PoliceCharges
03/23/2015 21:4203/24/2015 12:37ALDRICHDINALESLIE9952318199523181 564 BUFFORD DR, LAWRENCEVILLE GA 30046PUBLIC DRUNK$213SBLawrenceville PoliceCharges
03/23/2015 21:4203/24/2015 12:37ALDRICHDINALESLIE9952318199523181 564 BUFFORD DR, LAWRENCEVILLE GA 30046PED.MUST YIELD IF NOT AT CROSSWALK$213SBLawrenceville PoliceCharges
03/23/2015 21:31WEHSTODDNMN9915231199233702 5542 STATION CIR, NORCROSS GA 30071* VIOLATION OF PROBATION$0NBGwinnett County SheriffCharges
03/23/2015 21:2503/24/2015 02:04FULLERCOLINGORDON9905965499059654 295 LAMDEN CT, LAWRENCEVILLE GA 30046* DUI ALCOHOL$1230SBLawrenceville PoliceCharges
03/23/2015 21:2503/24/2015 02:04FULLERCOLINGORDON9905965499059654 295 LAMDEN CT, LAWRENCEVILLE GA 30046FOLLOWING TOO CLOSELY$148SBLawrenceville PoliceCharges
03/23/2015 21:2203/25/2015 17:34HOLBOROUGHCHRISPATRICK9951948399519483 1024 FOX ST SE, CONYERS GA 30013Violation of Probation$0NBGwinnett County SheriffCharges
03/23/2015 21:15FOXKADARRIOUSMARION9951679399516793 400 CASTOR DR APT N4, NORCROSS GA 30071* VIOLATION OF PROBATION$0NBGwinnett County SheriffCharges
03/23/2015 21:1203/24/2015 08:20NORTONMARCUSRAY9951527699515276 820 ALEXANDER CROSSING, LOGANVILLE GA 30052FAILURE TO APPEAR$705FIGwinnett County SheriffCharges
03/23/2015 20:52ZOHBEAMIRAIYMAN9937151699371516 2665 LOGAN WAY, LAWRENCEVILLE GA 30043* VIOLATION OF PROBATION$0NBGwinnett County SheriffCharges
03/23/2015 20:34CROUCHTYLERSTEVEN9952318099523180 871 KNIGHTSBRIDGE RD, FORT MILL SC 29708*VGCSA OF C/S$5700SBGwinnett County PoliceCharges
03/23/2015 20:34CROUCHTYLERSTEVEN9952318099523180 871 KNIGHTSBRIDGE RD, FORT MILL SC 29708* DUI-ALCOHOL$2006SBGwinnett County PoliceCharges
03/23/2015 20:2303/24/2015 00:46CORNEJOJUANMANUEL9910549899105498 749 SUNFIELD DR, LILBURN GA 30047BRAKE LIGHTS NOT WORKING$123CBSuwanee PoliceCharges
03/23/2015 20:2303/24/2015 00:46CORNEJOJUANMANUEL9910549899105498 749 SUNFIELD DR, LILBURN GA 30047PASSING ON SHOULDER OF ROAD$123CBSuwanee PoliceCharges
03/23/2015 20:2303/24/2015 00:46CORNEJOJUANMANUEL9910549899105498 749 SUNFIELD DR, LILBURN GA 30047DIVIDED HIGHWAY VIOL$123CBSuwanee PoliceCharges
03/23/2015 20:2303/24/2015 00:46CORNEJOJUANMANUEL9910549899105498 749 SUNFIELD DR, LILBURN GA 30047*DRIVING WHILE UNLICENSED LICENSE$758.75CBSuwanee PoliceCharges
03/23/2015 20:11DUNCANBRANDONKAILE9940024099400240 3423 TRESERVE RUN TRAIL, LOGANVILLE GA 30052* CRUELTY TO ANIMALS$0NBGwinnett County SheriffCharges
03/23/2015 19:3203/25/2015 21:29PETERSONAYANNA9952317999523179 215 W MATSON AVE, SYRACUSE NY 13205CONSUMPTION IN PUBLIC PLACE$395ORNorcross PoliceCharges
03/23/2015 19:3203/25/2015 21:29PETERSONAYANNA9952317999523179 215 W MATSON AVE, SYRACUSE NY 13205OPEN CONTAINER IN VEHICLE$395ORNorcross PoliceCharges
03/23/2015 19:3003/24/2015 01:27JUAREZMARVINULISES9952317899523178 5537 RAILS WAY, NORCROSS GA 30071@ * THEFT BY SHOPLIFTING$1850SBGwinnett County SheriffCharges
03/23/2015 19:2303/28/2015 22:12SAWYERSTANLEYEUGENE9952317799523177 2561 BENJAMIN E MAYS DR, ATLANTA GA 30011*VGCSA OF C/S$4050SBNorcross PoliceCharges
03/23/2015 19:2303/28/2015 22:12SAWYERSTANLEYEUGENE9952317799523177 2561 BENJAMIN E MAYS DR, ATLANTA GA 30011*POSS AND USE OF DRUG RELATED$1300SBNorcross PoliceCharges
03/23/2015 19:0503/23/2015 22:07BRENNERCORYWILLIAM9952317699523176 749 OLD CUMMING RD, SUGAR HILL GA 30518* POSS OF C/S OR MARIJUANA$11200SBGwinnett County SheriffCharges
03/23/2015 19:0503/23/2015 22:08BRENNERCORYWILLIAM9952317699523176 749 OLD CUMMING RD, SUGAR HILL GA 30518* POSS OF C/S OR MARIJUANA$11200SBGwinnett County SheriffCharges
03/23/2015 19:0103/26/2015 09:46SCHARBROUGHPHILIPCLYDE9952317599523175 231 DEER RUN, WINDER GA 30680*DRIVING WHILE LIC. SUSP/REVOKED$707ORAuburn PDCharges
03/23/2015 19:0103/26/2015 09:46SCHARBROUGHPHILIPCLYDE9952317599523175 231 DEER RUN, WINDER GA 30680NO INSURANCE$437ORAuburn PDCharges
03/23/2015 19:0103/26/2015 09:46SCHARBROUGHPHILIPCLYDE9952317599523175 231 DEER RUN, WINDER GA 30680HOLD FOR OTHER AGENCY$0NBAuburn PDCharges
03/23/2015 19:0103/26/2015 09:46SCHARBROUGHPHILIPCLYDE9952317599523175 231 DEER RUN, WINDER GA 30680HOLD FOR OTHER AGENCY$0NBAuburn PDCharges
03/23/2015 18:5603/24/2015 01:42STUBBS-NICHOLSONDENISHA9952225099522250 2603 TREE SUMMIT PKWY, DULUTH GA 30096EXPIRED LICENSE$67SBGwinnett County PoliceCharges
03/23/2015 18:5603/24/2015 01:42STUBBS-NICHOLSONDENISHA9952225099522250 2603 TREE SUMMIT PKWY, DULUTH GA 30096* DRIVING WHILE LIC SUSP/REVOKED$705SBGwinnett County PoliceCharges
03/23/2015 18:5303/23/2015 22:05BRENNERKEVINJOSEPH9911718299117182 749 OLD CUMMING RD, SUGAR HILL GA 30518*VGCSA INTENT DISTRIBUTE C/S$11200SBGwinnett County SheriffCharges
03/23/2015 18:5303/23/2015 22:05BRENNERKEVINJOSEPH9911718299117182 749 OLD CUMMING RD, SUGAR HILL GA 30518*VGCSA OF C/S$11200SBGwinnett County SheriffCharges
03/23/2015 18:3103/23/2015 23:26CEASARAHROSE9929428999362969 2215 SARAH CT APT H84, NORCROSS GA 30093ALLOWING UNLICENSED TO DRIVE$96CBGA State PatrolCharges
03/23/2015 18:3103/23/2015 23:26CEASARAHROSE9929428999362969 2215 SARAH CT APT H84, NORCROSS GA 30093SAFETY BELTS REQUIRED$15CBGA State PatrolCharges
03/23/2015 18:3103/23/2015 23:26CEASARAHROSE9929428999362969 2215 SARAH CT APT H84, NORCROSS GA 30093FAILURE TO APPEAR$901CBGA State PatrolCharges
03/23/2015 18:3003/24/2015 01:34GARCIAVICTORHUGO9945783699457836 5568 CHARMAINE BEND, NORCROSS GA 30071*NO DRIVERS LICENSE$705CBGA State PatrolCharges
03/23/2015 18:3003/24/2015 01:34GARCIAVICTORHUGO9945783699457836 5568 CHARMAINE BEND, NORCROSS GA 30071SAFETY BELTS REQUIRED$15CBGA State PatrolCharges
03/23/2015 18:25WHITLEYRHONDAGERRIE9911694399116943 2968 CRUSE RD, LAWRENCEVILLE GA 30044OTHER OFFENSE$0NBGwinnett County SheriffCharges
03/23/2015 18:1503/24/2015 01:41WATSONRANDYEARL9919571799195717 2705 MALL OF GA BLVD, BUFORD GA 30519HOLD FOR OTHER AGENCY$0NBGwinnett County PoliceCharges
03/23/2015 18:0303/24/2015 12:13HOBBINSTIFFANY9945190899451908 3723 CLUB PLACE APT 3723, DULUTH GA 30096@ * THEFT BY SHOPLIFTING$1300SBGwinnett County PoliceCharges
03/23/2015 17:5803/26/2015 11:18DAVISJABINKESHUN9952317499523174 603 CONCEPTS 21 DRIVE, Norcross GA 30093-4765 GA 30092SPEEDING 15-18 OVER$178.25ORDuluth PoliceCharges
03/23/2015 17:5803/26/2015 11:18DAVISJABINKESHUN9952317499523174 603 CONCEPTS 21 DRIVE, Norcross GA 30093-4765 GA 30092*LICENSE:DRIVING WHILE UNLIC. OR EXPIRED$731.25ORDuluth PoliceCharges
03/23/2015 17:5803/26/2015 11:18DAVISJABINKESHUN9952317499523174 603 CONCEPTS 21 DRIVE, Norcross GA 30093-4765 GA 30092HOLD FOR OTHER AGENCY$0NBDuluth PoliceCharges
03/23/2015 17:5003/24/2015 01:30THOMASMICHAELLAMAR9952317299523172 1825 NORTHWOOD LAKE COURT, DULUTH GA 30096*VGCSA LESS THAN 1 OZ.$1150.25SBDuluth PoliceCharges
03/23/2015 17:45BAUTISTAEDGARMATA9929728799297287 337 BIRCHMORE WALK, LAWRENCEVILLE GA 30044Violation of Probation$0NBGwinnett County PoliceCharges
03/23/2015 17:45BAUTISTAEDGARMATA9929728799297287 337 BIRCHMORE WALK, LAWRENCEVILLE GA 30044* VIOLATION OF PROBATION$0NBGwinnett County PoliceCharges
03/23/2015 17:36THOMPSONWAYNEASCOTT9929888899298888 1255 MARTINS CHAPEL LN, LAWRENCEVILLE GA 30045* PAROLE VIOLATION$0NBProbationCharges
03/23/2015 17:2503/25/2015 18:03KIMHYONSUN9300452799509279 577 WOODLAND PARK TER, LAWRENCEVILLE GA 30043Violation of Probation$0NBGwinnett County SheriffCharges
03/23/2015 17:19HAYESCATHYGAIL9938858599388585 1490 RICHMOND WAY, LAWRENCEVILLE GA 30043* DUI - DRUGS/ALCOHOL$0NBGwinnett County SheriffCharges
03/23/2015 17:08CRUZ-DOMINGUEZJORGE9952308999523089 5122 EDINBURGH CT NW, LILBURN GA 30047@ * AGGRAVATED ASSAULT$0NBGwinnett County PoliceCharges
03/23/2015 17:08CRUZ-DOMINGUEZJORGE9952308999523089 5122 EDINBURGH CT NW, LILBURN GA 30047@ * AGGRAVATED ASSAULT$0NBGwinnett County PoliceCharges
03/23/2015 17:08CRUZ-DOMINGUEZJORGE9952308999523089 5122 EDINBURGH CT NW, LILBURN GA 30047* FLEEING OR ATTEMPTING TO ELUDE$0NBGwinnett County PoliceCharges
03/23/2015 17:08CRUZ-DOMINGUEZJORGE9952308999523089 5122 EDINBURGH CT NW, LILBURN GA 30047SPEEDING$1300CBGwinnett County PoliceCharges
03/23/2015 17:08CRUZ-DOMINGUEZJORGE9952308999523089 5122 EDINBURGH CT NW, LILBURN GA 30047*DRIVING W/O LICENSE-FAIL OBTAIN 30 DAYS$2950CBGwinnett County PoliceCharges
03/23/2015 17:08CRUZ-DOMINGUEZJORGE9952308999523089 5122 EDINBURGH CT NW, LILBURN GA 30047RECKLESS DRIVING$2950CBGwinnett County PoliceCharges
03/23/2015 17:08CRUZ-DOMINGUEZJORGE9952308999523089 5122 EDINBURGH CT NW, LILBURN GA 30047M/V WRONG SIDE OF ROAD$1300CBGwinnett County PoliceCharges
03/23/2015 17:08CRUZ-DOMINGUEZJORGE9952308999523089 5122 EDINBURGH CT NW, LILBURN GA 30047MATERIALS ON WINDSHIELD/LIGHT$68SBGwinnett County PoliceCharges
03/23/2015 17:08CRUZ-DOMINGUEZJORGE9952308999523089 5122 EDINBURGH CT NW, LILBURN GA 30047IMPROPER LANE CHANGE$0NBGwinnett County PoliceCharges
03/23/2015 16:3203/24/2015 00:44HALLLE VAUGHNMARCEA9951621399516213 2569 TULLAMORE CIR, SNELLVILLE GA 30039SAFETY BELTS VIOLATON (ADULTS)$15SBDuluth PoliceCharges
03/23/2015 16:3203/24/2015 00:44HALLLE VAUGHNMARCEA9951621399516213 2569 TULLAMORE CIR, SNELLVILLE GA 30039*VGCSA LESS THAN 1 OZ.$1150.25SBDuluth PoliceCharges
03/23/2015 16:2303/23/2015 20:50KIMYOUNGHO9600516096005160 1520 RIDGEMILL TER, DACULA GA 30019@ * BATTERY$1300SBGwinnett County SheriffCharges
03/23/2015 16:2303/23/2015 20:50KIMYOUNGHO9600516096005160 1520 RIDGEMILL TER, DACULA GA 30019* INTERFER. WITH CALL FOR EMER. ASSIST.$1300SBGwinnett County SheriffCharges
03/23/2015 16:10GRANTNICHOLASJERROD9952317099523170 121 SPRING ST, CORDELE GA 31015@ * SIMPLE BATTERY$1300SBGwinnett County SheriffCharges
03/23/2015 15:3403/23/2015 22:11DEROSEMICHAELLEWIS9400404194004041 1141 HIGHWAY 124, HOSCHTON GA 30548FAILURE TO APPEAR$100FIGwinnett County SheriffCharges
03/23/2015 15:22PEREZROBERT9929731799297317APT I 3777 ELMSIDE VILLAGE LN, NORCROSS GA 30093* VIOLATION OF PROBATION$0NBGwinnett County PoliceCharges
03/23/2015 15:22PEREZROBERT9929731799297317APT I 3777 ELMSIDE VILLAGE LN, NORCROSS GA 30093* VIOLATION OF PROBATION$0NBGwinnett County PoliceCharges
03/23/2015 15:1003/23/2015 17:24GARYYOLONDASHAREE9952316699523166APT 1608 3100 SWEETWATER RD, LAWRENCEVILLE GA 30044*NO DRIVERS LICENSE$0NBGwinnett County SheriffCharges
03/23/2015 14:5603/23/2015 18:14BROOKSPATRICKAARON9952316599523165 3158 SAG HARBOR CT, BUFORD GA 30519* DRIVING WHILE LIC SUSP/REVOKED$705CBGwinnett County PoliceCharges
03/23/2015 14:5103/24/2015 02:09WILSONJESSIELEE9952316499523164 3216 FRIENDSHIP RD, BUFORD GA 30519NO LICENSE PLATE$152SBSuwanee PoliceCharges
03/23/2015 14:5103/24/2015 02:09WILSONJESSIELEE9952316499523164 3216 FRIENDSHIP RD, BUFORD GA 30519* GIVING FALSE NAME OR INFORMATION$1300SBSuwanee PoliceCharges
03/23/2015 14:5103/24/2015 02:09WILSONJESSIELEE9952316499523164 3216 FRIENDSHIP RD, BUFORD GA 30519FAILURE TO APPEAR$196CBSuwanee PoliceCharges
03/23/2015 14:36FIELDSJAMESCHRISTOPHER9944959299449592 290 LAWRENCEVILLE ST, NORCROSS GA 30071Failure to Appear$560CBNorcross PoliceCharges
03/23/2015 14:33SMALLSANTHONYDESHAWN9936084799360847APT 6104 4725 WALTON XING SW, ATLANTA GA 30331HOLD FOR COURT$0NBGwinnett County SheriffCharges
03/23/2015 14:2603/23/2015 22:22FULLERMONIAVEABBYGALE9952316399523163 127 GAINESBOROUGH WAY, LAWRENCEVILLE GA 30044* THEFT BY SHOPLIFTING$788SBLawrenceville PoliceCharges
03/23/2015 14:1903/24/2015 01:46VALCINASHLEYMARIE9952316299523162 4295 WILLOW SPRINGS DR, LOGANVILLE GA 30052* THEFT BY SHOPLIFTING$788SBLawrenceville PoliceCharges
03/23/2015 14:0303/26/2015 01:36HOWARDMORONDATAMIKA9949625999496259 1219 PRESTON PARK DRIVE, DULUTH GA 30096* INSURANCE FRAUD$5700SBGwinnett County SheriffCharges
03/23/2015 14:0303/26/2015 01:36HOWARDMORONDATAMIKA9949625999496259 1219 PRESTON PARK DRIVE, DULUTH GA 30096* INSURANCE FRAUD$5700SBGwinnett County SheriffCharges
03/23/2015 14:0303/26/2015 01:36HOWARDMORONDATAMIKA9949625999496259 1219 PRESTON PARK DRIVE, DULUTH GA 30096* FINANCIAL IDENTITY FRAUD$5700SBGwinnett County SheriffCharges
03/23/2015 14:0303/26/2015 01:36HOWARDMORONDATAMIKA9949625999496259 1219 PRESTON PARK DRIVE, DULUTH GA 30096* INSURANCE FRAUD$5700SBGwinnett County SheriffCharges
03/23/2015 14:0303/26/2015 01:36HOWARDMORONDATAMIKA9949625999496259 1219 PRESTON PARK DRIVE, DULUTH GA 30096* INSURANCE FRAUD$5700SBGwinnett County SheriffCharges
03/23/2015 14:0303/26/2015 01:36HOWARDMORONDATAMIKA9949625999496259 1219 PRESTON PARK DRIVE, DULUTH GA 30096* INSURANCE FRAUD$2950SBGwinnett County SheriffCharges
03/23/2015 14:0303/26/2015 01:36HOWARDMORONDATAMIKA9949625999496259 1219 PRESTON PARK DRIVE, DULUTH GA 30096* FINANCIAL IDENTITY FRAUD$5700SBGwinnett County SheriffCharges
03/23/2015 14:0303/26/2015 01:36HOWARDMORONDATAMIKA9949625999496259 1219 PRESTON PARK DRIVE, DULUTH GA 30096* INSURANCE FRAUD$2950SBGwinnett County SheriffCharges
03/23/2015 14:0303/26/2015 01:36HOWARDMORONDATAMIKA9949625999496259 1219 PRESTON PARK DRIVE, DULUTH GA 30096* FINANCIAL IDENTITY FRAUD$2950SBGwinnett County SheriffCharges
03/23/2015 14:0303/26/2015 01:36HOWARDMORONDATAMIKA9949625999496259 1219 PRESTON PARK DRIVE, DULUTH GA 30096* INSURANCE FRAUD$5700SBGwinnett County SheriffCharges
03/23/2015 14:0303/26/2015 01:36HOWARDMORONDATAMIKA9949625999496259 1219 PRESTON PARK DRIVE, DULUTH GA 30096* FINANCIAL IDENTITY FRAUD$2950SBGwinnett County SheriffCharges
03/23/2015 14:0303/26/2015 01:36HOWARDMORONDATAMIKA9949625999496259 1219 PRESTON PARK DRIVE, DULUTH GA 30096* INSURANCE FRAUD$5700SBGwinnett County SheriffCharges
03/23/2015 13:5703/23/2015 20:11NAVARRETE-GOMEZSALVADOR9952316099523160 750 SIX FLAGS ROAD LOT 269, AUSTELL GA 30168*NO VALID LICENSE$860CBNorcross PoliceCharges
03/23/2015 13:5703/23/2015 20:11NAVARRETE-GOMEZSALVADOR9952316099523160 750 SIX FLAGS ROAD LOT 269, AUSTELL GA 30168FAILURE TO MAINTAIN LANE$210CBNorcross PoliceCharges
03/23/2015 13:5503/25/2015 17:07RAMSEYDARRYL9600770396007703 128 GLADSTONE COURT, ROCK HILL SC 29730Violation of Probation$0NBGwinnett County SheriffCharges
03/23/2015 13:44RICHARDSONALUANNA NICOLE-TATRIUANA9946190999461909 2276 SWAN LAKE CT, GRAYSON GA 30017* VIOLATION OF PROBATION$0NBProbationCharges
03/23/2015 13:2803/23/2015 17:28SEGURA - PORTUGALANAMARIA9952315799523157 225 SHADETREE LN, LAWRENCEVILLE GA 30044*DRIVING W/O LICENSE-FAIL OBTAIN 30 DAYS$0NBGwinnett County SheriffCharges
03/23/2015 13:1003/24/2015 01:11DOUGLAS-HUSHARMANDJAMES9927699999277015 2880 DOMINION WALK LN, SNELLVILLE GA 30078* GIVING FALSE NAME OR INFORMATION$1300SBDuluth PoliceCharges
03/23/2015 13:1003/24/2015 01:11DOUGLAS-HUSHARMANDJAMES9927699999277015 2880 DOMINION WALK LN, SNELLVILLE GA 30078HOLD FOR OTHER AGENCY$0NBDuluth PoliceCharges
03/23/2015 12:5703/24/2015 02:15LOCUSTYLERBRITANY9952315599523155 1050 LENOX PARK BLVD, ATLANTA GA 30324@ * THEFT BY SHOPLIFTING$1300SBGwinnett County PoliceCharges
03/23/2015 12:54ALEXANDERJULIUSVON9949832999498329 4777 CREEKSIDE PL, DECATUR GA 30035@ * ARMED ROBBERY$0NBGwinnett County PoliceCharges
03/23/2015 12:4903/25/2015 16:17JONESREGINALDDEANTHONY9951784599517845APT 41 2980 JONESBORO RD SE, ATLANTA GA 30354FAILURE TO APPEAR$371CBSnellville PoliceCharges
03/23/2015 12:3203/23/2015 16:56KOZICATARIK9952315499523154 1330 HIGHWAY DAVIS RD, LAWRENCEVILLE GA 30045*LESS THAN AN OZ OF MARIJ.$0ORGwinnett County Public Schools PoliceCharges
03/23/2015 12:28HARTFORDSHAUNADIANE9950126899501268 4971 OLD ORR RD, FLOWERY BRANCH GA 30542* VIOLATION OF PROBATION$0NBGwinnett County SheriffCharges
03/23/2015 12:2303/26/2015 11:06BOWLESCATHERINEMARIE9950862799508627 5715 SINGLETON RD APT B, NORCROSS GA 30093* POSS OF C/S OR MARIJUANA$0NBGwinnett County SheriffCharges
03/23/2015 12:22MERRIWETHERMADISONPENN9949478299494782 2733 THE FALLS PKWY, DULUTH GA 30096* VIOLATION OF PROBATION$0NBGwinnett County SheriffCharges
03/23/2015 12:18WALDRIPSTEPHENMINOR89171628917162 334 PINECREST ROAD, AUBURN GA 30011* VIOLATION OF PROBATION$0NBGwinnett County SheriffCharges
03/23/2015 12:16VENZENTYRONEEMMANUEL9950580999505809 5464 SINGLETON RD, NORCROSS GA 30093* VIOLATION OF PROBATION$0NBGwinnett County SheriffCharges
03/23/2015 12:1103/23/2015 23:17LOPEZHAROLDELGADO9952315399523153 5536 RAILS WAY, NORCROSS GA 30071*NO DRIVERS LICENSE$0NBGwinnett County SheriffCharges
03/23/2015 12:0403/23/2015 13:30GOMEZADAMJAMES9923020799230207 23260 COUNTY ROAD 77, CALHAN CO 80808* DRIVING WHILE LIC SUSP/REVOKED$0NBGwinnett County SheriffCharges
03/23/2015 11:57PHOUKPHANHANOUSONE9943298999432989 2855 MAPLE VISTA LANE, LAWRENCEVILLE GA 30044* PAROLE VIOLATION$0NBGA Pardons and ParolesCharges
03/23/2015 11:56RAYFORDDOMINICLEE9950373899503738 3710 TREEHILLS APT 3710, STONE MOUNTAIN GA 30088VIOLATION OF PROBATION$0NBSnellville PoliceCharges
03/23/2015 11:5003/24/2015 14:17FRANCISCOGIANFRANCO9934799899347998 398 LEE MILLER DR, SUWANEE GA 30024Violation of Probation$0NBGwinnett County SheriffCharges
03/23/2015 11:20WILLIAMSMARQUELAWRENCE9948734099487340 279 TRIBOROUGH HOLW, LAWRENCEVILLE GA 30044Violation of Probation$0NBDOCCharges
03/23/2015 11:12FOREMANSHAUNDRAQUINE9942123299421232 501 GREENRIDGE CIR, STONE MOUNTAIN GA 30083Violation of Probation$0NBDOCCharges
03/23/2015 11:12FOREMANSHAUNDRAQUINE9942123299421232 501 GREENRIDGE CIR, STONE MOUNTAIN GA 30083* PAROLE VIOLATION$0NBDOCCharges
03/23/2015 11:12FOREMANSHAUNDRAQUINE9942123299421232 501 GREENRIDGE CIR, STONE MOUNTAIN GA 30083* VIOLATION OF PROBATION$0NBDOCCharges
03/23/2015 11:1103/24/2015 16:02PINEDA-PINTOEDGARADONAY9952315099523150 6662 E WINDSOR LN, NORCROSS GA 30093*DRIVING W/O LICENSE-FAIL OBTAIN 30 DAYS$805CBGwinnett County SheriffCharges
03/23/2015 11:1103/24/2015 16:02PINEDA-PINTOEDGARADONAY9952315099523150 6662 E WINDSOR LN, NORCROSS GA 30093HOLD FOR IMMIGRATION$0NBGwinnett County SheriffCharges
03/23/2015 11:07ARNOLDASHLEYBROOKE9942516499425164 217 ANGIE WAY, BETHLEHEM GA 30620HOLD FOR COURT$0NBGwinnett County SheriffCharges
03/23/2015 11:02DAVISWENDYMICHELLE9947279999472799 1081 FISHBACK WAY, SUGAR HILL GA 30518HOLD FOR COURT$0NBGwinnett County SheriffCharges
03/23/2015 10:5603/23/2015 17:01HOLLOWAYSHONDERICKO9943814999438149 2954 ROSEBUD RD, LOGANVILLE GA 30052* DRIVING WHILE LICENSE WITHDRAWN$0NBGwinnett County SheriffCharges
03/23/2015 10:5603/23/2015 17:01HOLLOWAYSHONDERICKO9943814999438149 2954 ROSEBUD RD, LOGANVILLE GA 30052FAILURE TO COMPLY W/ADD RESTRAINT REQUIR$451CBGwinnett County SheriffCharges
03/23/2015 09:57DEMBYSTEPHENRILEY9919443699194436 6804 BLACKSTONE PLACE, MABLETON GA 30126* DUI-ALCOHOL$0NBGwinnett County SheriffCharges
03/23/2015 09:5303/23/2015 12:46SUAZO-GARCIALILIAN9948081599480815 242 MATEO WALK, LAWRENCEVILLE GA 30046FAILURE TO YIELD RIGHT OF WAY TO VEHICLE$68CBGwinnett County PoliceCharges
03/23/2015 09:5303/23/2015 12:46SUAZO-GARCIALILIAN9948081599480815 242 MATEO WALK, LAWRENCEVILLE GA 30046CLASS D LIC PROVISION VIOL$147CBGwinnett County PoliceCharges
03/23/2015 09:4403/24/2015 06:38MAJORJAMESFREDDY9901213299012132 2968 CRUSE RD, LAWRENCEVILLE GA 30044HOLD FOR OTHER AGENCY$0NBProbationCharges
03/23/2015 08:5803/23/2015 09:56MCCRAYPATRICIABRADLEY9952314999523149 1001 SUMMIT CREEK DR, STONE MOUNTAIN GA 30083* DRIVING WHILE LIC SUSP/REVOKED$0NBGwinnett County SheriffCharges
03/23/2015 08:44MILLERJULIEANN9952314899523148 1765 OAK HAVEN DR, MARIETTA GA 30008@ * ENTERING AN AUTO$3500SBGwinnett County PoliceCharges
03/23/2015 08:44MILLERJULIEANN9952314899523148 1765 OAK HAVEN DR, MARIETTA GA 30008@ * ENTERING AN AUTO$3500SBGwinnett County PoliceCharges
03/23/2015 08:44MILLERJULIEANN9952314899523148 1765 OAK HAVEN DR, MARIETTA GA 30008* CRIMINAL TRESPASS$650SBGwinnett County PoliceCharges
03/23/2015 08:44MILLERJULIEANN9952314899523148 1765 OAK HAVEN DR, MARIETTA GA 30008HOLD FOR OTHER AGENCY$0NBGwinnett County PoliceCharges
03/23/2015 08:44MILLERJULIEANN9952314899523148 1765 OAK HAVEN DR, MARIETTA GA 30008* POSS TOOL FOR COMMISION OF A CRIME$1850SBGwinnett County PoliceCharges
03/23/2015 08:29CHONGEDWARD9933769999337699 211 NORTH AVE APT 1434, ATHENS GA 30601FOLLOWING TOO CLOSELY$0NBGwinnett County SheriffCharges
03/23/2015 08:26MILLERBRANDONSCOTT9952314799523147 1765 OAK HAVEN DR SW, MARIETTA GA 30008REMOVED PLATE W. INTENT TO CON$152SBGwinnett County SheriffCharges
03/23/2015 08:26MILLERBRANDONSCOTT9952314799523147 1765 OAK HAVEN DR SW, MARIETTA GA 30008@ * ENTERING AN AUTO$3500SBGwinnett County SheriffCharges
03/23/2015 08:26MILLERBRANDONSCOTT9952314799523147 1765 OAK HAVEN DR SW, MARIETTA GA 30008@ * ENTERING AN AUTO$3500SBGwinnett County SheriffCharges
03/23/2015 08:26MILLERBRANDONSCOTT9952314799523147 1765 OAK HAVEN DR SW, MARIETTA GA 30008* OBSTRUCTION LAW ENFORCEMENT OFFICER$1300SBGwinnett County SheriffCharges
03/23/2015 08:26MILLERBRANDONSCOTT9952314799523147 1765 OAK HAVEN DR SW, MARIETTA GA 30008* POSS TOOL FOR COMMISION OF A CRIME$1300SBGwinnett County SheriffCharges
03/23/2015 08:26MILLERBRANDONSCOTT9952314799523147 1765 OAK HAVEN DR SW, MARIETTA GA 30008* CRIMINAL TRESPASS$650SBGwinnett County SheriffCharges
03/23/2015 08:26MILLERBRANDONSCOTT9952314799523147 1765 OAK HAVEN DR SW, MARIETTA GA 30008* FLEEING OR ATTEMPTING TO ELUDE$1850SBGwinnett County SheriffCharges
03/23/2015 08:26MILLERBRANDONSCOTT9952314799523147 1765 OAK HAVEN DR SW, MARIETTA GA 30008HOLD FOR OTHER AGENCY$0NBGwinnett County SheriffCharges
03/23/2015 08:26MILLERBRANDONSCOTT9952314799523147 1765 OAK HAVEN DR SW, MARIETTA GA 30008RECKLESS DRIVING$1850SBGwinnett County SheriffCharges
03/23/2015 07:32BAILEYDERRICKBERNARD9935031199350311 1407 CONCEPT 21 DR, PEACHTREE CORNERS GA 30092@ * BATTERY$2950SBGwinnett County PoliceCharges
03/23/2015 07:1803/24/2015 11:23WATERSJOHN9951446499514464 3177 BAYMOUNT WAY, LAWRENCEVILLE GA 30043* DUI-ALCOHOL$0NBGwinnett County SheriffCharges
03/23/2015 05:3403/23/2015 09:40ROCKWOODJENNIFERASHLEY9952314699523146 842 MILL COVE DR, LAWRENCEVILLE GA 30045*OPEN CONTAINER$259SBSnellville PoliceCharges
03/23/2015 05:3403/23/2015 09:40ROCKWOODJENNIFERASHLEY9952314699523146 842 MILL COVE DR, LAWRENCEVILLE GA 30045IMPROPER STOP ON ROADWAY$117SBSnellville PoliceCharges
03/23/2015 05:3403/23/2015 09:40ROCKWOODJENNIFERASHLEY9952314699523146 842 MILL COVE DR, LAWRENCEVILLE GA 30045*DUI$970SBSnellville PoliceCharges
03/23/2015 05:0803/23/2015 11:54MARTINEZ-GONZALESRUSSELLABRAHAM9912973099254377APT 601 3550 PLEASANT HILL ROAD, DULUTH GA 30096DISORDERLY CONDUCT$314.75CBDuluth PoliceCharges
03/23/2015 03:48RODRIGUEZFORTINO9952314599523145 1611 NOBLE FORREST DR, NORCROSS GA 30093@ * SIMPLE BATTERY$1850SBGwinnett County PoliceCharges
03/23/2015 03:48RODRIGUEZFORTINO9952314599523145 1611 NOBLE FORREST DR, NORCROSS GA 30093HOLD FOR IMMIGRATION$0NBGwinnett County PoliceCharges
03/23/2015 03:3003/23/2015 08:33CORRALESNORBEYANDRES9952314399523143 2985 SHADY WOODS CIR, LAWRENCEVILLE GA 30044@ * SIMPLE BATTERY$2950SBGwinnett County PoliceCharges
03/23/2015 03:3003/23/2015 08:33CORRALESNORBEYANDRES9952314399523143 2985 SHADY WOODS CIR, LAWRENCEVILLE GA 30044* INTERFER. WITH CALL FOR EMER. ASSIST.$1850SBGwinnett County PoliceCharges
03/23/2015 03:24HOODANTHONYLAMAR9952314299523142 4860 MEDLOCK TRL, SNELLVILLE GA 30039@ * BATTERY$2950SBGwinnett County PoliceCharges
03/23/2015 03:24HOODANTHONYLAMAR9952314299523142 4860 MEDLOCK TRL, SNELLVILLE GA 30039* OBSTRUCTION LAW ENFORCEMENT OFFICER$1850SBGwinnett County PoliceCharges
03/23/2015 03:0903/23/2015 17:54BOSTONDEREKWAYNE9952314199523141 12 BELMONTE CT SW, ATLANTA GA 30311Failure to Appear$895CBNorcross PoliceCharges
03/23/2015 02:5403/23/2015 13:49JONESDWAYNEANTHONY9952314099523140 1147 CLEAR STREAM RDG, AUBURN GA 30011SPEEDING / 1ST OFFENSE / 19-23 OVER$250SBLawrenceville PoliceCharges
03/23/2015 02:5403/23/2015 13:49JONESDWAYNEANTHONY9952314099523140 1147 CLEAR STREAM RDG, AUBURN GA 30011*DRIVING WHILE LIC.SUSP/REVOKED$803SBLawrenceville PoliceCharges
03/23/2015 02:0903/23/2015 04:48CASTILLO-ALARCONMAYNOR9942832099428320APT X2 1120 FOREST VALE LN, NORCROSS GA 30093HOLD FOR OTHER AGENCY$0NBGwinnett County PoliceCharges
03/23/2015 01:3403/24/2015 00:15GIBSONDARNELLJAMES9952313999523139 3628 WOODLARK DR NE, ROSWELL GA 30075LOITERING OR PROWLING$1850SBGwinnett County SheriffCharges
03/23/2015 01:2703/23/2015 11:15CHEFFERCHRISTOPHERLEE9952313899523138 66 E WRIGHT ST, WINDER GA 30680HOLD FOR OTHER AGENCY$0NBSnellville PoliceCharges
03/23/2015 01:1803/29/2015 11:27PORTERCHASEJOHNSON9952313799523137 660 RALPH MCGILL BLVD NE, ATLANTA GA 30312FOLLOWING TOO CLOSELY$650SBGwinnett County PoliceCharges
03/23/2015 01:1803/29/2015 11:27PORTERCHASEJOHNSON9952313799523137 660 RALPH MCGILL BLVD NE, ATLANTA GA 30312FAILURE TO HAVE LICENSE ON PERSON$650SBGwinnett County PoliceCharges
03/23/2015 01:1803/29/2015 11:27PORTERCHASEJOHNSON9952313799523137 660 RALPH MCGILL BLVD NE, ATLANTA GA 30312IMPROPER/ERRATIC LANE CHANGE$650SBGwinnett County PoliceCharges
03/23/2015 01:1803/29/2015 11:27PORTERCHASEJOHNSON9952313799523137 660 RALPH MCGILL BLVD NE, ATLANTA GA 30312TOO FAST FOR CONDITIONS/PRIMA FACIE SPEE$650SBGwinnett County PoliceCharges
03/23/2015 01:1803/29/2015 11:27PORTERCHASEJOHNSON9952313799523137 660 RALPH MCGILL BLVD NE, ATLANTA GA 30312RECKLESS DRIVING$650SBGwinnett County PoliceCharges
03/23/2015 01:1803/29/2015 11:27PORTERCHASEJOHNSON9952313799523137 660 RALPH MCGILL BLVD NE, ATLANTA GA 30312* BRIBERY$1850SBGwinnett County PoliceCharges
03/23/2015 01:1803/29/2015 11:27PORTERCHASEJOHNSON9952313799523137 660 RALPH MCGILL BLVD NE, ATLANTA GA 30312* DUI-ALCOHOL$1300SBGwinnett County PoliceCharges
03/23/2015 01:1003/25/2015 23:49HERNANDEZDANIEL9952313699523136 5515 AMBER COVE WAY, FLOWERY BRANCH GA 30542* VGCSA-SCHEDULE IV$5700SBGwinnett County PoliceCharges
03/23/2015 01:1003/25/2015 23:49HERNANDEZDANIEL9952313699523136 5515 AMBER COVE WAY, FLOWERY BRANCH GA 30542* VGCSA-SCHEDULE IV$5700SBGwinnett County PoliceCharges
03/23/2015 01:1003/25/2015 23:49HERNANDEZDANIEL9952313699523136 5515 AMBER COVE WAY, FLOWERY BRANCH GA 30542*LESS THAN AN OZ OF MARIJ.$1300SBGwinnett County PoliceCharges
03/23/2015 01:1003/25/2015 23:49HERNANDEZDANIEL9952313699523136 5515 AMBER COVE WAY, FLOWERY BRANCH GA 30542*POSS AND USE OF DRUG RELATED$650SBGwinnett County PoliceCharges
03/23/2015 01:1003/25/2015 23:49HERNANDEZDANIEL9952313699523136 5515 AMBER COVE WAY, FLOWERY BRANCH GA 30542*LESS THAN AN OZ OF MARIJ.$1300SBGwinnett County PoliceCharges
03/23/2015 00:52MAYLEANDREWJAMES9952313599523135 4924 SUNNY RIDGE CT, FLOWERY BRANCH GA 30542*VGCSA OF C/S$5700SBGwinnett County PoliceCharges
03/23/2015 00:52MAYLEANDREWJAMES9952313599523135 4924 SUNNY RIDGE CT, FLOWERY BRANCH GA 30542*LESS THAN AN OZ OF MARIJ.$1300SBGwinnett County PoliceCharges
03/23/2015 00:52MAYLEANDREWJAMES9952313599523135 4924 SUNNY RIDGE CT, FLOWERY BRANCH GA 30542*VGCSA OF C/S$5700SBGwinnett County PoliceCharges
03/23/2015 00:52MAYLEANDREWJAMES9952313599523135 4924 SUNNY RIDGE CT, FLOWERY BRANCH GA 30542*LESS THAN AN OZ OF MARIJ.$1300SBGwinnett County PoliceCharges
03/23/2015 00:52MAYLEANDREWJAMES9952313599523135 4924 SUNNY RIDGE CT, FLOWERY BRANCH GA 30542*POSS AND USE OF DRUG RELATED$650SBGwinnett County PoliceCharges
03/23/2015 00:5003/23/2015 13:43ARTHURSMATTHEWCLAYTON9952313499523134 4804 ROSE HEIGHTS DRIVE, FLOWERY BRANCH GA 30542*VGCSA OF C/S$5700CBGwinnett County PoliceCharges
03/23/2015 00:5003/23/2015 13:43ARTHURSMATTHEWCLAYTON9952313499523134 4804 ROSE HEIGHTS DRIVE, FLOWERY BRANCH GA 30542*LESS THAN AN OZ OF MARIJ.$1300CBGwinnett County PoliceCharges
03/23/2015 00:5003/23/2015 13:43ARTHURSMATTHEWCLAYTON9952313499523134 4804 ROSE HEIGHTS DRIVE, FLOWERY BRANCH GA 30542*LESS THAN AN OZ OF MARIJ.$1300CBGwinnett County PoliceCharges
03/23/2015 00:5003/23/2015 13:43ARTHURSMATTHEWCLAYTON9952313499523134 4804 ROSE HEIGHTS DRIVE, FLOWERY BRANCH GA 30542*POSS AND USE OF DRUG RELATED$650CBGwinnett County PoliceCharges
03/23/2015 00:2603/23/2015 04:00WORKSDEXTERLUMAR9952313399523133 3304 FLINTLOCK DR, COLUMBUS GA 31907* DRIVING WHILE LIC SUSP/REVOKED$705CBGwinnett County PoliceCharges
03/22/2015 23:2503/23/2015 04:13PELAEZADRIANNAANNA9947385199473851 211 RIVER CHASE TRL, DULUTH GA 30096*DUI$1623CBDuluth PoliceCharges
03/22/2015 23:2503/23/2015 04:13PELAEZADRIANNAANNA9947385199473851 211 RIVER CHASE TRL, DULUTH GA 30096DRIVING WITHIN A GORE OR MEDIAN$129.25CBDuluth PoliceCharges
03/22/2015 23:2503/23/2015 04:13PELAEZADRIANNAANNA9947385199473851 211 RIVER CHASE TRL, DULUTH GA 30096NO VAILD DECAL$67CBDuluth PoliceCharges
03/22/2015 23:0103/23/2015 20:54NGUYENMARKTAN-MAI9952313199523131 3021 MEADOWVIEW LN, LAWRENCEVILLE GA 30044*MAUFACTUR/POSS/PURCH/DIST/SALE MARIJUAN$5700SBGwinnett County PoliceCharges
03/22/2015 22:5203/25/2015 23:53CRUZFRANKLYN9952313099523130 2944 ARENDEL DR, LAWRENCEVILLE GA 30044*VGCSA POSS OF MARIJUANA W/INTENT TO DIS$5700SBGwinnett County PoliceCharges
03/22/2015 22:3403/23/2015 13:01CLARKTYLERJAMES9952312999523129 2855 AVALON MEADOWS LN, LAWRENCEVILLE GA 30044@ * AGGRAVATED ASSAULT$16700SBGwinnett County PoliceCharges
03/22/2015 22:3403/23/2015 13:01CLARKTYLERJAMES9952312999523129 2855 AVALON MEADOWS LN, LAWRENCEVILLE GA 30044@ * BATTERY$2950SBGwinnett County PoliceCharges
03/22/2015 22:25WHITEQUINTAVISMARQUIS9952312799523127 763 CASCADE AVE SW APT 51, ATLANTA GA 30310@ * THEFT BY SHOPLIFTING$2400SBGwinnett County PoliceCharges
03/22/2015 22:25WHITEQUINTAVISMARQUIS9952312799523127 763 CASCADE AVE SW APT 51, ATLANTA GA 30310HOLD FOR OTHER AGENCY$0NBGwinnett County PoliceCharges
03/22/2015 22:2503/23/2015 04:03LEONIDES-SANCHEZMARCELINO9952312699523126 4853 BURNS RD NW APT 135, LILBURN GA 30047@ * THEFT BY SHOPLIFTING$1300CBGwinnett County PoliceCharges
03/22/2015 21:2703/23/2015 02:51COTTLESHOMARI9952312599523125 2811 RIDGE BROOK TRL, DULUTH GA 30096FAILURE TO APPEAR$200CBGwinnett County PoliceCharges
03/22/2015 21:2703/23/2015 02:51COTTLESHOMARI9952312599523125 2811 RIDGE BROOK TRL, DULUTH GA 30096FAILURE TO APPEAR$225FIGwinnett County PoliceCharges
03/22/2015 21:1703/23/2015 02:48PHILLIPSCRAIGALLEN9106391091063910 3571 OAKMONT AVE, ATLANTA GA 30340@ * SIMPLE BATTERY$2950SBGwinnett County PoliceCharges
03/22/2015 21:1303/23/2015 00:07GUMBSADANA9952312499523124 907 MONTROSE PKWY, NORCROSS GA 30092Failure to Appear$580CBGwinnett County SheriffCharges
03/22/2015 21:0003/23/2015 00:01TREJOKCJUNE IVY9952312399523123 329 CAMPBELL STREET, LAWRENCEVILLE GA 30046* THEFT BY SHOPLIFTING$788SBLawrenceville PoliceCharges
03/22/2015 20:27WARREN-FRANKLINJUSTICELEMAR9949900099512249 5666 CRESTWOOD DR, STONE MOUNTAIN GA 30087@ * BATTERY$0NBGwinnett County PoliceCharges
03/22/2015 20:27WARREN-FRANKLINJUSTICELEMAR9949900099512249 5666 CRESTWOOD DR, STONE MOUNTAIN GA 30087VIOLATION OF PROBATION$0NBGwinnett County PoliceCharges
03/22/2015 20:27WARREN-FRANKLINJUSTICELEMAR9949900099512249 5666 CRESTWOOD DR, STONE MOUNTAIN GA 30087* VIOLATION OF PROBATION$0NBGwinnett County PoliceCharges
03/22/2015 20:0803/23/2015 01:50PEREZARIEL9952312099523120 1092 BALVAIRD DR, LAWRENCEVILLE GA 30045POSSESSION OF LESS THAN OZ MARIJUANA$585CBGwinnett County PoliceCharges
03/22/2015 19:5903/23/2015 01:46EVANSKELLYRENEE9944911699449116 270 YELLOW CREEK RD, BALL GROUND GA 30107TAIL LIGHTS$68SBGwinnett County PoliceCharges
03/22/2015 19:5903/23/2015 01:46EVANSKELLYRENEE9944911699449116 270 YELLOW CREEK RD, BALL GROUND GA 30107* DRIVING WHILE LIC SUSP/REVOKED$705SBGwinnett County PoliceCharges
03/22/2015 19:3403/23/2015 01:59WOODENDONNIELATRONE9952311999523119 1540 ACADEMIC CT, LAWRENCEVILLE GA 30044* VIOLATION OF EMPLOYMENT SECURITY LAW$5700SBGwinnett County SheriffCharges
03/22/2015 18:4103/23/2015 14:52RODRIGUEZ-HERNANDEZFERMIN9932368699323686 915 PRESTON LAKE DR, TUCKER GA 30084@ * BATTERY$2950SBGwinnett County PoliceCharges
03/22/2015 18:4103/23/2015 14:52RODRIGUEZ-HERNANDEZFERMIN9932368699323686 915 PRESTON LAKE DR, TUCKER GA 30084CRUELTY TO CHILDREN-3RD DEGREE$2950SBGwinnett County PoliceCharges
03/22/2015 18:3103/24/2015 21:08KILLENSMARCUS9952294899523117 5159 WEST MOUNTAIN ST APT 10, STONE MOUNTAIN GA 30083FAILURE TO OBEY TRAFFIC DEVICE$56ORGwinnett County PoliceCharges
03/22/2015 18:3103/24/2015 21:08KILLENSMARCUS9952294899523117 5159 WEST MOUNTAIN ST APT 10, STONE MOUNTAIN GA 30083*DRIVING W/O LICENSE-FAIL OBTAIN 30 DAYS$705ORGwinnett County PoliceCharges
03/22/2015 18:1603/22/2015 23:30GRAYJEFFERYALAN9952311499523114 200 LAWRENCEVILLE STREET RM 354, NORCROSS GA 30071SUSP TAG$810SBNorcross PoliceCharges
03/22/2015 18:1603/22/2015 23:30GRAYJEFFERYALAN9952311499523114 200 LAWRENCEVILLE STREET RM 354, NORCROSS GA 30071*DRIVING ON A SUSPENDED LICENSE$860SBNorcross PoliceCharges
03/22/2015 17:31WARMACKJEREMIAH9952311299523115 9691 EPHESUS CHURCH RD, VILLA RICA GA 30180@ * KIDNAPPING$0NBGwinnett County PoliceCharges
03/22/2015 17:2603/22/2015 21:13DAVEBRUCECHRISTOPHER9952311199523111 1184 IVEY CHASE PL, DACULA GA 30019POSSESSION OF LESS 1 OZ. MARIJUANA$585SBGwinnett County PoliceCharges
03/22/2015 17:0403/23/2015 00:03BLACKKIMBERLYNICOLE9952311099523110 1470 BOGGS ROAD APT 501, DULUTH GA 30096* THEFT BY SHOPLIFTING$788SBLawrenceville PoliceCharges
03/22/2015 17:0203/23/2015 00:09WARETEAFRANCENA SIMONE9952310999523109 1470 BOGGS ROAD, DULUTH GA 30096* THEFT BY SHOPLIFTING$788SBLawrenceville PoliceCharges
03/22/2015 16:5003/22/2015 19:22DEVOREWESLEYJAMES9952310899523108 136 MEARS STREET, WINDER GA 30680Failure to Appear$557.25CBDuluth PoliceCharges
03/22/2015 15:3203/22/2015 21:21LAWSONCARROLLCLIFFORD9944100699441006 498 BRADFORD PLACE LN, LOGANVILLE GA 30052FAILURE TO APPEAR$252CBGwinnett County PoliceCharges
03/22/2015 15:2203/22/2015 21:14WATTSCARLANTONIO89432088943208 4290 BELLS FERRY ROAD APT 106, KENNESAW GA 30144@ * CHILD ABANDONMENT$2400SBGwinnett County SheriffCharges
03/22/2015 14:4103/23/2015 01:44THORPELLYASRAHMAJIK9952310799523107APT 3234 287 E CROGAN ST, LAWRENCEVILLE GA 30046@ * THEFT BY SHOPLIFTING$1300SBGwinnett County PoliceCharges
03/22/2015 14:2903/23/2015 19:01AUSTINVICTORIALASHAWN9952310699523106 2419 TIFFANY CIR, DECATUR GA 30035@ * THEFT BY TAKING$22200SBGwinnett County SheriffCharges
03/22/2015 14:2103/24/2015 15:31NIXONNATHANISAAC9950008299500082 4783 FENBROOK DR, STONE MOUNTAIN GA 30088Violation of Probation$0NBGwinnett County SheriffCharges
03/22/2015 14:2003/22/2015 18:14AGUILARMARIO9952310599523105 2835 BELSHIRE TRL, DACULA GA 30019*DRIVING W/O LICENSE-FAIL OBTAIN 30 DAYS$705CBGwinnett County PoliceCharges
03/22/2015 14:0003/22/2015 21:15NAVARRODAVIS9952310499523104 4176 SEMINOLE CIRCLE, AUSTELL GA 30106*LESS THAN AN OZ OF MARIJ.$2950SBGwinnett County PoliceCharges
03/22/2015 14:0003/22/2015 21:15NAVARRODAVIS9952310499523104 4176 SEMINOLE CIRCLE, AUSTELL GA 30106SPEEDING$125SBGwinnett County PoliceCharges
03/22/2015 14:0003/22/2015 21:15NAVARRODAVIS9952310499523104 4176 SEMINOLE CIRCLE, AUSTELL GA 30106RECKLESS DRIVING$420SBGwinnett County PoliceCharges
03/22/2015 14:0003/22/2015 21:15NAVARRODAVIS9952310499523104 4176 SEMINOLE CIRCLE, AUSTELL GA 30106IMPROPER/ERRATIC LANE CHANGE$68SBGwinnett County PoliceCharges
03/22/2015 14:0003/22/2015 21:15NAVARRODAVIS9952310499523104 4176 SEMINOLE CIRCLE, AUSTELL GA 30106GIVING WRONG SIGNAL$68SBGwinnett County PoliceCharges
03/22/2015 14:0003/22/2015 21:15NAVARRODAVIS9952310499523104 4176 SEMINOLE CIRCLE, AUSTELL GA 30106FOLLOWING TOO CLOSE$68SBGwinnett County PoliceCharges
03/22/2015 12:4603/23/2015 07:08HYLTONJAMESOSCAR9952310299523102 122 TIMBER MIST LANE, LAWRENCEVILLE GA 30045* FALSE REPORT OF A CRIME$1300SBGwinnett County PoliceCharges
03/22/2015 12:4603/23/2015 07:08HYLTONJAMESOSCAR9952310299523102 122 TIMBER MIST LANE, LAWRENCEVILLE GA 30045*LESS THAN AN OZ OF MARIJ.$1300SBGwinnett County PoliceCharges
03/22/2015 11:34BARNESANTHONYM9947395399473953 436 HOLLOW RIDGE DR, ATHENS GA 30607* VIOLATION OF PROBATION$0NBGwinnett County SheriffCharges
03/22/2015 11:22BROCKANDREACOLLEEN9943518899435188 1610 BENTRIDGE DR, LAWRENCEVILLE GA 30043* THEFT BY SHOPLIFTING$788ORLawrenceville PoliceCharges
03/22/2015 11:22BROCKANDREACOLLEEN9943518899435188 1610 BENTRIDGE DR, LAWRENCEVILLE GA 30043VIOLATION OF PROBATION$0NBLawrenceville PoliceCharges
03/22/2015 11:07CANTYBRAVIONSHERROD9946152499461524 8970 TEAL TRAIL, JONESBORO GA 30236* VIOLATION OF PROBATION$0NBGwinnett County SheriffCharges
03/22/2015 11:07CANTYBRAVIONSHERROD9946152499461524 8970 TEAL TRAIL, JONESBORO GA 30236HOLD FOR OTHER AGENCY$0NBGwinnett County SheriffCharges
03/22/2015 10:4803/22/2015 15:04ESTRADA-MARTINEZJESUS9935464499354644 4295 PLEASANT LAKE VILLAGE LN APT H, DULUTH GA 30096OPERATING WITHOUT HEADLIGHTS$110CBNorcross PoliceCharges
03/22/2015 10:4803/22/2015 15:04ESTRADA-MARTINEZJESUS9935464499354644 4295 PLEASANT LAKE VILLAGE LN APT H, DULUTH GA 30096*NO VALID LICENSE$860CBNorcross PoliceCharges
03/22/2015 10:1903/22/2015 16:49WALLACEKENDRALASHAUN9936860499368604 6512 STORY CIR, NORCROSS GA 30093OPER MV W/WIRELESS > 18$150SBNorcross PoliceCharges
03/22/2015 10:1903/22/2015 16:49WALLACEKENDRALASHAUN9936860499368604 6512 STORY CIR, NORCROSS GA 30093POSS MARIJUANA<1OZ$665SBNorcross PoliceCharges
03/22/2015 09:3203/28/2015 19:54LAWHORNEDEREKSTEVEN9952309999523099 2535 VALLEY RIDGE DR, CUMMING GA 30040@ * BATTERY$1300SBGwinnett County SheriffCharges
03/22/2015 09:3003/27/2015 04:58VALDEZ-GUZMANRICARDOMARTIN9935549199355491 2818 PRUITT RD, CUMMING GA 30041FAILURE TO APPEAR$0NBGwinnett County SheriffCharges
03/22/2015 09:3003/27/2015 04:58VALDEZ-GUZMANRICARDOMARTIN9935549199355491 2818 PRUITT RD, CUMMING GA 30041FAILURE TO APPEAR$0NBGwinnett County SheriffCharges
03/22/2015 09:2003/16/2015 09:08WEXELLAURELELIZABETH9950472599504725 3719 WENTWORTH LN, LILBURN GA 30047* DUI - DRUGS/ALCOHOL$0NBGwinnett County SheriffCharges
03/22/2015 09:2003/23/2015 09:29WEXELLAURELELIZABETH9950472599504725 3719 WENTWORTH LN, LILBURN GA 30047* DUI - DRUGS/ALCOHOL$0NBGwinnett County SheriffCharges
03/22/2015 09:0703/22/2015 21:21LINDSEYTERRYLEE9952309899523098 701 DOWNSBY LN, WOODSTOCK GA 30189@ * THEFT BY RECEIVING$650SBNorcross PoliceCharges
03/22/2015 09:0703/22/2015 21:21LINDSEYTERRYLEE9952309899523098 701 DOWNSBY LN, WOODSTOCK GA 30189* DRIVING WHILE LIC SUSP/REVOKED$650SBNorcross PoliceCharges
03/22/2015 09:0703/22/2015 21:21LINDSEYTERRYLEE9952309899523098 701 DOWNSBY LN, WOODSTOCK GA 30189NO LICENSE PLATE$650SBNorcross PoliceCharges
03/22/2015 09:0703/22/2015 21:21LINDSEYTERRYLEE9952309899523098 701 DOWNSBY LN, WOODSTOCK GA 30189M/V MUST HAVE 2 HEADLIGHTS$650SBNorcross PoliceCharges
03/22/2015 09:0703/22/2015 21:21LINDSEYTERRYLEE9952309899523098 701 DOWNSBY LN, WOODSTOCK GA 30189FAILURE TO MAINTAIN INSURANCE$650SBNorcross PoliceCharges
03/22/2015 08:5303/23/2015 11:23ACKERMANAARONWILLIAM9951102599511025 105 NORTHDALE RD, LAWRENCEVILLE GA 30046DISORDERLY CONDUCT$439SBGwinnett County PoliceCharges
03/22/2015 08:2503/23/2015 05:51RODGERSALEXISLYNEA9952309699523096 1554 CALIFORNIA AVENUE, CONLEY GA 30288FAIL TO STOP AT STOP SIGN$117CBSnellville PoliceCharges
03/22/2015 08:2503/23/2015 05:51RODGERSALEXISLYNEA9952309699523096 1554 CALIFORNIA AVENUE, CONLEY GA 30288HOLD FOR OTHER AGENCY$0NBSnellville PoliceCharges
03/22/2015 08:0903/22/2015 18:08RUIZJESUSALONSO9952309499523094 236 ARDSLEY PL, NORCROSS GA 30093*DUI--ALCOHOL$1266SBLilburn PoliceCharges
03/22/2015 08:0903/22/2015 18:08RUIZJESUSALONSO9952309499523094 236 ARDSLEY PL, NORCROSS GA 30093OPER. UNSAFE VEHICLE$155SBLilburn PoliceCharges
03/22/2015 08:05RODRIGUEZ-TREJOMARTIN9952309399523093 413 INGLEWOOD DR, SAVANNAH GA 31406FAILURE TO OBEY TRAFFIC DEVICE$56SBGwinnett County PoliceCharges
03/22/2015 08:05RODRIGUEZ-TREJOMARTIN9952309399523093 413 INGLEWOOD DR, SAVANNAH GA 31406* DUI-MORE THAN 0.10%BLOOD ALCOHOL$2006SBGwinnett County PoliceCharges
03/22/2015 08:05RODRIGUEZ-TREJOMARTIN9952309399523093 413 INGLEWOOD DR, SAVANNAH GA 31406HOLD FOR IMMIGRATION$0NBGwinnett County PoliceCharges
03/22/2015 08:05RODRIGUEZ-TREJOMARTIN9952309399523093 413 INGLEWOOD DR, SAVANNAH GA 31406EXPIRED LICENSE$68SBGwinnett County PoliceCharges
03/22/2015 08:05RODRIGUEZ-TREJOMARTIN9952309399523093 413 INGLEWOOD DR, SAVANNAH GA 31406* DUI-ALCOHOL$0NBGwinnett County PoliceCharges
03/22/2015 07:56AHMEDHASANMOHOMED9952101099521010 945 NORTH COLLEGE ST, CHARLOTTE NC 28206* CRIMINAL TRESPASS$1300SBGwinnett County PoliceCharges
03/22/2015 07:56AHMEDHASANMOHOMED9952101099521010 945 NORTH COLLEGE ST, CHARLOTTE NC 28206HOLD FOR IMMIGRATION$0NBGwinnett County PoliceCharges
03/22/2015 07:3303/22/2015 11:27ALVARADOJOHNANTHONY9952309299523092 2875 HARPER FERRY DR, LAWRENCEVILLE GA 3\0044* CRIMINAL TRESPASS$1300SBGwinnett County PoliceCharges
03/22/2015 06:3703/22/2015 19:16LEBRONERNESTOIII9939768899397688 2769 RIDGE RD, HARTWELL GA 30643@ * SIMPLE BATTERY$1300SBGwinnett County PoliceCharges
03/22/2015 06:3703/22/2015 19:16LEBRONERNESTOIII9939768899397688 2769 RIDGE RD, HARTWELL GA 30643@ * FALSE IMPRISONMENT$5700SBGwinnett County PoliceCharges
03/22/2015 06:3703/22/2015 19:16LEBRONERNESTOIII9939768899397688 2769 RIDGE RD, HARTWELL GA 30643CRUELTY TO CHILDREN-3RD DEGREE$1300SBGwinnett County PoliceCharges
03/22/2015 06:3703/22/2015 19:16LEBRONERNESTOIII9939768899397688 2769 RIDGE RD, HARTWELL GA 30643* CRIMINAL TRESPASS$1300SBGwinnett County PoliceCharges
03/22/2015 06:3703/22/2015 19:16LEBRONERNESTOIII9939768899397688 2769 RIDGE RD, HARTWELL GA 30643*LESS THAN AN OZ OF MARIJ.$1300SBGwinnett County PoliceCharges
03/22/2015 06:1403/23/2015 08:52FELDERLETEISHASUMMER9952309199523091 35 LAKE CHARLES XING, COVINGTON GA 30016HOLD FOR OTHER AGENCY$0NBGwinnett County PoliceCharges
03/22/2015 06:1203/23/2015 17:26ALDANASAMANTHAKLAUDIA9952309099523090 4134 BERWICK FARM DR, DULUTH GA 30096VIOLATION OF PROBATION$0NBDuluth PoliceCharges
03/22/2015 06:0603/22/2015 14:50CRUZ-DOMINGUEZJORGE9952308999523089 5122 EDINBURGH CT NW, LILBURN GA 30047*LESS THAN AN OZ OF MARIJ.$1300CBGwinnett County PoliceCharges
03/22/2015 06:0603/22/2015 14:50CRUZ-DOMINGUEZJORGE9952308999523089 5122 EDINBURGH CT NW, LILBURN GA 30047*VGCSA OF C/S$3500CBGwinnett County PoliceCharges
03/22/2015 05:4403/22/2015 11:35FLORES-SANCHEZROGELIO9952308899523088 6345 FOREST VALE DR APT B, NORCROSS GA 30093IMPROPER LANE CHANGE$68CBGwinnett County PoliceCharges
03/22/2015 05:4403/22/2015 11:35FLORES-SANCHEZROGELIO9952308899523088 6345 FOREST VALE DR APT B, NORCROSS GA 30093*DRIVING W/O LICENSE-FAIL OBTAIN 30 DAYS$705CBGwinnett County PoliceCharges
03/22/2015 05:3803/22/2015 10:24TURNERCARLYJEANNE9952308799523087 132 JOHNS BLF, AUBURN GA 30011PUBLIC DRUNK$181CBAuburn PDCharges
03/22/2015 05:1903/22/2015 22:15LETHANHPHAT9916165199161651 3660 BOB HANNAH DRIVE, LAWRENCEVILLE GA 30044*VGCSA OF C/S$5700SBGwinnett County PoliceCharges
03/22/2015 05:1903/22/2015 22:15LETHANHPHAT9916165199161651 3660 BOB HANNAH DRIVE, LAWRENCEVILLE GA 30044* DUI-ALCOHOL$2006SBGwinnett County PoliceCharges
03/22/2015 05:1903/22/2015 22:15LETHANHPHAT9916165199161651 3660 BOB HANNAH DRIVE, LAWRENCEVILLE GA 30044FAIL TO RPT STRIKING FIXED OBJECT$96SBGwinnett County PoliceCharges
03/22/2015 05:1703/22/2015 11:47CARTERKAYLINDEJANTE9952308699523086 4960 ROXTON LN, DOUGLASVILLE GA 30135* DUI-ALCOHOL$2006SBGwinnett County PoliceCharges
03/22/2015 05:1703/22/2015 11:47CARTERKAYLINDEJANTE9952308699523086 4960 ROXTON LN, DOUGLASVILLE GA 30135IMPROPER LANE USAGE$96SBGwinnett County PoliceCharges
03/22/2015 05:1703/22/2015 11:47CARTERKAYLINDEJANTE9952308699523086 4960 ROXTON LN, DOUGLASVILLE GA 30135IMPROPER LANE CHANGE$68SBGwinnett County PoliceCharges
03/22/2015 05:1103/22/2015 12:17SHEPPARDNATASHAAN9952308599523085 1284 BRAMLETT SHOALS RD, LAWRENCEVILLE GA 30045* DUI-MORE THAN 0.10%BLOOD ALCOHOL$2006SBGwinnett County PoliceCharges
03/22/2015 04:5803/22/2015 14:32TIERRA-BLANCAJOSELUIS9926042499260424 3325 HOLCOMB BRIDGE RD, NORCROSS GA 30092* DUI-MORE THAN 0.10%BLOOD ALCOHOL$2006CBGwinnett County PoliceCharges
03/22/2015 04:5803/22/2015 14:32TIERRA-BLANCAJOSELUIS9926042499260424 3325 HOLCOMB BRIDGE RD, NORCROSS GA 30092*DRIVING W/O LICENSE-FAIL OBTAIN 30 DAYS$705CBGwinnett County PoliceCharges
03/22/2015 04:5803/22/2015 14:32TIERRA-BLANCAJOSELUIS9926042499260424 3325 HOLCOMB BRIDGE RD, NORCROSS GA 30092IMPROPER LANE CHANGE$68CBGwinnett County PoliceCharges
03/22/2015 04:3203/22/2015 13:52ROMEROEMMANUELADALID9938642599386425 2219 CLAIRMONT CIR, SNELLVILLE GA 30078DUI-ALCOHOL$969.5SBSnellville PoliceCharges
03/22/2015 04:3203/22/2015 13:52ROMEROEMMANUELADALID9938642599386425 2219 CLAIRMONT CIR, SNELLVILLE GA 30078DUI-LESS SAFE$969.5SBSnellville PoliceCharges
03/22/2015 03:4403/22/2015 21:19ANTONIO GUERRAMIGUEL9952306099523060 3524 WENNINGTON TRCE, ALPHARETTA GA 30004SPEEDING 24-33 OVER$381SBGwinnett County SheriffCharges
03/22/2015 03:4403/22/2015 21:19ANTONIO GUERRAMIGUEL9952306099523060 3524 WENNINGTON TRCE, ALPHARETTA GA 30004RECKLESS DRIVING$1001SBGwinnett County SheriffCharges
03/22/2015 03:4403/22/2015 21:19ANTONIO GUERRAMIGUEL9952306099523060 3524 WENNINGTON TRCE, ALPHARETTA GA 30004LICENSE: DRIVING WHILE LIC. SUSP/REVOKED$994SBGwinnett County SheriffCharges
03/22/2015 03:4203/23/2015 00:43DELEONJEMSON9930833499308334 2205 RANCH TRL, NORCROSS GA 30071@ * BATTERY$2400SBNorcross PoliceCharges
03/22/2015 03:2803/22/2015 21:17SIRMANSJULIUSD9952196599521965 1135 BRITAIN DR, LAWRENCEVILLE GA 30044* DRIVING WHILE LIC SUSP/REVOKED$705SBGwinnett County PoliceCharges
03/22/2015 03:2803/22/2015 21:17SIRMANSJULIUSD9952196599521965 1135 BRITAIN DR, LAWRENCEVILLE GA 30044STRIKING UNATTENDED VEHICLE$152SBGwinnett County PoliceCharges
03/22/2015 03:2803/22/2015 21:17SIRMANSJULIUSD9952196599521965 1135 BRITAIN DR, LAWRENCEVILLE GA 30044DUTY TO REPORT ACC/W/INJ/PROP DAMAGE$299SBGwinnett County PoliceCharges
03/22/2015 03:23SALAZAR-GONZALEZULISES9950750099507500 5522 ROMAN POINT CT, NORCROSS GA 30093IMPEDING THE FLOW OF TRAFFIC$200ORNorcross PoliceCharges
03/22/2015 03:23SALAZAR-GONZALEZULISES9950750099507500 5522 ROMAN POINT CT, NORCROSS GA 30093*NO VALID LICENSE$860ORNorcross PoliceCharges
03/22/2015 03:23SALAZAR-GONZALEZULISES9950750099507500 5522 ROMAN POINT CT, NORCROSS GA 30093*DUI$1580ORNorcross PoliceCharges
03/22/2015 03:23SALAZAR-GONZALEZULISES9950750099507500 5522 ROMAN POINT CT, NORCROSS GA 30093FAILURE TO APPEAR$0NBNorcross PoliceCharges
03/22/2015 03:23SALAZAR-GONZALEZULISES9950750099507500 5522 ROMAN POINT CT, NORCROSS GA 30093* DUI-ALCOHOL$0NBNorcross PoliceCharges
03/22/2015 03:23SALAZAR-GONZALEZULISES9950750099507500 5522 ROMAN POINT CT, NORCROSS GA 30093HOLD FOR IMMIGRATION$0NBNorcross PoliceCharges
03/22/2015 03:23SALAZAR-GONZALEZULISES9950750099507500 5522 ROMAN POINT CT, NORCROSS GA 30093FAILURE TO APPEAR$0NBNorcross PoliceCharges
03/22/2015 03:1303/22/2015 22:10CEDENOFRANCISJ9952307999523079 1196 PENINSULA TRCE, LAWRENCEVILLE GA 30044FAILURE TO APPEAR$1004FIGwinnett County PoliceCharges
03/22/2015 02:5903/22/2015 14:52HOODSHAWNROBERT9934865999348659B 67 ATLANTA AVE, WINDER GA 30680* OBSTRUCTION LAW ENFORCEMENT OFFICER$2400SBGwinnett County PoliceCharges
03/22/2015 02:5903/22/2015 14:52HOODSHAWNROBERT9934865999348659B 67 ATLANTA AVE, WINDER GA 30680*DISORDERLY CONDUCT$140SBGwinnett County PoliceCharges
03/22/2015 02:5803/22/2015 06:10OSIERJACOBDANIEL9910655999106559 67 ATLANTA AVE APT B, WINDER GA 30680*DISORDERLY CONDUCT$140CBGwinnett County PoliceCharges
03/22/2015 02:5303/22/2015 09:51JACKSONTERRENCEJOVAN9952307899523078APT I1 3901 CAMPBELLTON RD SW, ATLANTA GA 30331*DISORDERLY CONDUCT$140CBGwinnett County PoliceCharges
03/22/2015 02:4903/22/2015 19:19ESCOBARGEOVANNIE9952307799523077 41 BETHESDA CHURCH RD, LAWRENCEVILLE GA 30044TO BE IN PARK AFTER HOURS$135SBGwinnett County PoliceCharges
03/22/2015 02:4903/22/2015 19:19ESCOBARGEOVANNIE9952307799523077 41 BETHESDA CHURCH RD, LAWRENCEVILLE GA 30044POSSESSION OF LESS 1 OZ. MARIJUANA$585SBGwinnett County PoliceCharges
03/22/2015 02:3803/24/2015 00:19GARCIAISAIJONATHAN9952307699523076 6414 WEDGEWOOD TRCE, TUCKER GA 30084* DUI-UNDER THE AGE OF 21$2006ORGwinnett County PoliceCharges
03/22/2015 02:3803/24/2015 00:19GARCIAISAIJONATHAN9952307699523076 6414 WEDGEWOOD TRCE, TUCKER GA 30084*NO DRIVERS LICENSE$705ORGwinnett County PoliceCharges
03/22/2015 02:3803/24/2015 00:19GARCIAISAIJONATHAN9952307699523076 6414 WEDGEWOOD TRCE, TUCKER GA 30084M/V MUST HAVE 2 HEADLIGHTS$68ORGwinnett County PoliceCharges
03/22/2015 02:2903/22/2015 16:55MYERSDONALD9936863699368636 427 REYNOLDS RD, LAWRENCEVILLE GA 30043* DUI ALCOHOL$1230SBLawrenceville PoliceCharges
03/22/2015 02:2903/22/2015 16:55MYERSDONALD9936863699368636 427 REYNOLDS RD, LAWRENCEVILLE GA 30043FOLLOWING TOO CLOSELY$133SBLawrenceville PoliceCharges
03/22/2015 02:1903/22/2015 09:22TUCKERCHRISTOPHERSCOTT9927380499273804 1396 HIGH SIERRA CT, LAWRENCEVILLE GA 30043HOLD FOR OTHER AGENCY$0NBLawrenceville PoliceCharges
03/22/2015 02:1303/22/2015 13:50BURTONTONYJOSEPH9952307599523075 1842 COUNTY RD, CHICKASHA GA 73018* DUI-ALCOHOL$2006SBGwinnett County PoliceCharges
03/22/2015 01:59DAUGHERTYJORDONRYAN9948789499487894 800 LEVEL CREEK RD, SUGAR HILL GA 30518@ * THEFT BY SHOPLIFTING$1300SBGwinnett County PoliceCharges
03/22/2015 01:59DAUGHERTYJORDONRYAN9948789499487894 800 LEVEL CREEK RD, SUGAR HILL GA 30518FAILURE TO PAY/CHILD SUPPORT$5000CBGwinnett County PoliceCharges
03/22/2015 01:59DAUGHERTYJORDONRYAN9948789499487894 800 LEVEL CREEK RD, SUGAR HILL GA 30518@ * THEFT BY TAKING$1300SBGwinnett County PoliceCharges
03/22/2015 01:4103/22/2015 06:23MURPHYROBERTNORMAN9922618399226183 4605 VINTAGE LN, BUFORD GA 30518@ * BATTERY$1300SBGwinnett County PoliceCharges
03/22/2015 01:3703/22/2015 05:41MCMILLIAND'BRIANNEBRIELLE9952307399523073 2815 MISTY WATERS DR, DECATUR GA 30032POSS MARIJUANA<1OZ$665SBNorcross PoliceCharges
03/22/2015 01:3703/22/2015 05:41MCMILLIAND'BRIANNEBRIELLE9952307399523073 2815 MISTY WATERS DR, DECATUR GA 30032NO LICENSE ON PERSON$65SBNorcross PoliceCharges
03/22/2015 01:2303/22/2015 07:00MURPHYKARENANN9952307299523072 4605 VINTAGE LN, BUFORD GA 30518@ * SIMPLE BATTERY$1300SBGwinnett County PoliceCharges
03/22/2015 01:2103/22/2015 08:54IBRICICALMA9952307199523071 7107 LEALAND PLACE, LAWRENCEVILLE GA 30044POSS MARIJUANA<1OZ$665SBNorcross PoliceCharges
03/22/2015 00:52WILLIAMSMAURICEEUGENE9951101599511015 614 S GREENWOOD ST, LAGRANGE GA 30240* VIOLATION OF PROBATION$0NBGwinnett County PoliceCharges
03/22/2015 00:52WILLIAMSMAURICEEUGENE9951101599511015 614 S GREENWOOD ST, LAGRANGE GA 30240HOLD FOR OTHER AGENCY$0NBGwinnett County PoliceCharges
03/22/2015 00:4303/22/2015 12:45BARSONPAUL9952307099523070 6045 OAKBROOK PKWY ROOM#214, NORCROSS GA 30093*CRUELTY CHILDREN 2ND.$5700SBGwinnett County PoliceCharges
03/22/2015 00:30AUTENSTEPHANIEMCPHERSON9952306999523069 2295 COPER TRAIL LN, BUFORD GA 30579@ * SIMPLE BATTERY$0NBGwinnett County PoliceCharges
03/22/2015 00:2803/22/2015 02:52MELENCIANO-LOPEZCARLOSALBERTO9921245399299866 1448 CHRISTANA DR, LAWRENCEVILLE GA 30043*SUSPENDED/REVOKED LIC$816SBSnellville PoliceCharges
03/22/2015 00:1603/22/2015 07:44WRIGHTSINCLAIRAGUSTAS9952306899523068 4380 ANTELOPE LN, SNELLVILLE GA 30039* DUI-ALCOHOL$2006CBGwinnett County PoliceCharges
03/22/2015 00:1603/22/2015 07:44WRIGHTSINCLAIRAGUSTAS9952306899523068 4380 ANTELOPE LN, SNELLVILLE GA 30039M/V WRONG SIDE OF ROAD$96CBGwinnett County PoliceCharges
03/22/2015 00:1103/22/2015 16:51BRIGGSNATHANGARRETT9952306799523067 1422 BOULDERCREST RD SE APT G3, ATLANTA GA 30316POSSESSION OF LESS THAN OZ MARIJUANA$585SBGwinnett County PoliceCharges
03/22/2015 00:0103/26/2015 17:53LOPEZ-GUZMANABELNECTALY9939805399398053 1526 LANCASHIRE PL, NORCROSS GA 30093* GIVING FALSE NAME OR INFORMATION$650CBGwinnett County PoliceCharges
03/22/2015 00:0103/26/2015 17:53LOPEZ-GUZMANABELNECTALY9939805399398053 1526 LANCASHIRE PL, NORCROSS GA 30093LOITERING OR PROWLING$650CBGwinnett County PoliceCharges
03/21/2015 23:4103/22/2015 02:47OVIEDOELEUTERIO9931167399311673 1409 SHADY PINE TER, ELLENWOOD GA 30294RUNNING RED LIGHT$133CBLawrenceville PoliceCharges
03/21/2015 23:4103/22/2015 02:47OVIEDOELEUTERIO9931167399311673 1409 SHADY PINE TER, ELLENWOOD GA 30294*DRIVING WHILE LIC.SUSP/REVOKED$803CBLawrenceville PoliceCharges
03/21/2015 23:1403/22/2015 02:50DVORAKTRENTONTHOMAS9952306699523066 80 AIKEN WAY, COVINGTON GA 30016*DRIVING WHILE LICENSE SUSP/REVOKED$971.75CBDuluth PoliceCharges
03/21/2015 23:0803/22/2015 03:10KNIGHTJAVONTETRISTAIN9952306599523065 2384 CLARE CT SW, MARIETTA GA 30008*DISORDERLY CONDUCT$140CBGeorgia Gwinnett College PDCharges
03/21/2015 23:0303/23/2015 22:46PREWITTJEFFERY9924004799240047APT 1301 3350 SWEETWATER RD, LAWRENCEVILLE GA 30044* DUI-MORE THAN 0.10%BLOOD ALCOHOL$2006ORGwinnett County PoliceCharges
03/21/2015 22:5503/22/2015 04:35DUCKWORTHCALLIEMICHELLE9932976299329762 1141 JENNY LYN DR, NORCROSS GA 30093FAILURE TO APPEAR$254CBSnellville PoliceCharges
03/21/2015 22:5003/23/2015 22:44GUTIERREZJOSELUIS9952306499523064 5533 STANFORD VILLAGE LN, NORCROSS GA 30071SUSP TAG$810ORNorcross PoliceCharges
03/21/2015 22:5003/23/2015 22:44GUTIERREZJOSELUIS9952306499523064 5533 STANFORD VILLAGE LN, NORCROSS GA 30071*NO VALID LICENSE$860ORNorcross PoliceCharges
03/21/2015 22:4103/24/2015 10:25BARNETTBRANDONLEE9952306399523063 1221 MAGNOLIA RDG, MONROE GA 30655HOLD FOR OTHER AGENCY$0NBSnellville PoliceCharges
03/21/2015 22:4103/24/2015 10:25BARNETTBRANDONLEE9952306399523063 1221 MAGNOLIA RDG, MONROE GA 30655*GIVING FALSE NAME$356ORSnellville PoliceCharges
03/21/2015 22:31BROWNKEONLAQUAN9936354499363544 1615B SHAW RD, FAYETTEVILLE NC 28311* VIOLATION OF PROBATION$0NBPrisoner Transport ServicesCharges
03/21/2015 22:09DUKESEDWARD9952306299523062 789 SUMMERSET PL, MONROE GA 30656OPEN CONTAINER VIOL(DRIVER ONLY)$333ORLawrenceville PoliceCharges
03/21/2015 22:09DUKESEDWARD9952306299523062 789 SUMMERSET PL, MONROE GA 30656*DRIVING WHILE LIC.SUSP/REVOKED$803ORLawrenceville PoliceCharges
03/21/2015 22:09DUKESEDWARD9952306299523062 789 SUMMERSET PL, MONROE GA 30656DRIVING WITH SUSPENDED TAG$803ORLawrenceville PoliceCharges
03/21/2015 22:09DUKESEDWARD9952306299523062 789 SUMMERSET PL, MONROE GA 30656*DUI ALCOHOL$1230ORLawrenceville PoliceCharges
03/21/2015 22:09DUKESEDWARD9952306299523062 789 SUMMERSET PL, MONROE GA 30656* PAROLE VIOLATION$0NBLawrenceville PoliceCharges
03/21/2015 22:09DUKESEDWARD9952306299523062 789 SUMMERSET PL, MONROE GA 30656FAIL MAINTAIN LANE$133ORLawrenceville PoliceCharges
03/21/2015 22:09DUKESEDWARD9952306299523062 789 SUMMERSET PL, MONROE GA 30656RUNNING RED LIGHT$133ORLawrenceville PoliceCharges
03/21/2015 21:56BARNESJEANILEE9952306199523061APT 4 265 PINE ST NW, LILBURN GA 30047@ * AGGRAVATED ASSAULT$0NBLilburn PoliceCharges
03/21/2015 20:3803/22/2015 01:24DITMOREJESSIEMAE9905302799053027 215 PAPER MILL ROAD APT 8E, LAWRENCEVILLE GA 30046* THEFT BY SHOPLIFTING$788CBLawrenceville PoliceCharges
03/21/2015 20:23SIMMONSBARBARAANN9945731399457313 259 STONE MOUNTAIN ST APT # 2, LAWRENCEVILLE GA 30046@ * SIMPLE BATTERY$0NBLawrenceville PoliceCharges
03/21/2015 20:17GRANVILLEBRENTMICHAEL9937946199379461 6986 BRECKEN CIRCLE, LITHONIA GA 30058@ * BATTERY$0NBGwinnett County PoliceCharges
03/21/2015 20:17GRANVILLEBRENTMICHAEL9937946199379461 6986 BRECKEN CIRCLE, LITHONIA GA 30058* CRIMINAL TRESPASS$2400SBGwinnett County PoliceCharges
03/21/2015 20:0503/22/2015 01:53ANTONIO GUERRAMIGUEL9952306099523060 3524 WENNINGTON TRCE, ALPHARETTA GA 30004RECKLESS DRIVING$1001SBBraselton PDCharges
03/21/2015 20:0503/22/2015 01:53ANTONIO GUERRAMIGUEL9952306099523060 3524 WENNINGTON TRCE, ALPHARETTA GA 30004SPEEDING 24-33 OVER$381SBBraselton PDCharges
03/21/2015 20:0503/22/2015 01:53ANTONIO GUERRAMIGUEL9952306099523060 3524 WENNINGTON TRCE, ALPHARETTA GA 30004LICENSE: DRIVING WHILE LIC. SUSP/REVOKED$994SBBraselton PDCharges
03/21/2015 19:5203/22/2015 01:23FULWIDERLINDSEYMARIE9935314599353145 265 MERRYMOUNT CT, SUWANEE GA 30024@ * THEFT BY SHOPLIFTING$1300CBGwinnett County PoliceCharges
03/21/2015 19:4203/21/2015 23:12SANDOVAL-HERNANDEZCARLOS9952305999523059 1890 CHATTAHOOCHEE DR, DULUTH GA 30097*DRIVING WHILE LICENSE SUSP/REVOKED$971.75CBDuluth PoliceCharges
03/21/2015 19:0903/23/2015 01:42HOLIDAY-CRAWFORDTODDRIACHRISTINA9952305899523058 2325 E HILL WAY, NORCROSS GA 30071@ * THEFT BY SHOPLIFTING$1300SBGwinnett County PoliceCharges
03/21/2015 18:25ROSENWILLIAMALLAN9952305799523057 5230 GRANT ROAD, GAINESVILLE GA 30506@ * THEFT BY DECEPTION$1850SBGwinnett County PoliceCharges
03/21/2015 18:25ROSENWILLIAMALLAN9952305799523057 5230 GRANT ROAD, GAINESVILLE GA 30506* POSS TOOL FOR COMMISION OF A CRIME$1850SBGwinnett County PoliceCharges
03/21/2015 18:1603/21/2015 21:10KRANTZMICHAELALAN9951256399512563 5887 MARCELLE LANE, NORCROSS GA 30093* DRIVING WHILE LIC SUSP/REVOKED$705SBGwinnett County PoliceCharges
03/21/2015 17:5503/22/2015 04:34CARTERFRANKYEUGENE9952305699523056 190 BAXTER STREET APT 316, ATHENS GA 30606HOLD FOR OTHER AGENCY$0NBLawrenceville PoliceCharges
03/21/2015 17:24BALDWINAMYCOURTNEY9952305599523055 1421 DERBY DOWNS DRIVE, LAWRENCEVILLE GA 30043HOLD FOR OTHER AGENCY$0NBGwinnett County SheriffCharges
03/21/2015 17:24BALDWINAMYCOURTNEY9952305599523055 1421 DERBY DOWNS DRIVE, LAWRENCEVILLE GA 30043*FUGITIVE FROM JUSTICE$0NBGwinnett County SheriffCharges
03/21/2015 17:1603/21/2015 21:04HERMANALISONMAE9945462699523054 3520 PRAIRIE DRIVE, SNELLVILLE GA 30039*SHOPLIFTING LESS THAN 300.00$558.5SBSnellville PoliceCharges
03/21/2015 16:5803/24/2015 19:09PARKERLORENMAURICE9946666999466669APT 5101 3355 SWEETWATER RD, LAWRENCEVILLE GA 30044@ * THEFT BY SHOPLIFTING$1300SBGwinnett County PoliceCharges
03/21/2015 16:4003/21/2015 21:32ROMERO-SANCHEZJULIAN9942736399427363 2909 LANGFORD RD SUITE 1700, NORCROSS GA 30071TAIL LIGHT LENS CRACKED$54CBNorcross PoliceCharges
03/21/2015 16:4003/21/2015 21:32ROMERO-SANCHEZJULIAN9942736399427363 2909 LANGFORD RD SUITE 1700, NORCROSS GA 30071BROKEN WINDSHIELD$80CBNorcross PoliceCharges
03/21/2015 16:4003/21/2015 21:32ROMERO-SANCHEZJULIAN9942736399427363 2909 LANGFORD RD SUITE 1700, NORCROSS GA 30071*NO VALID LICENSE$860CBNorcross PoliceCharges
03/21/2015 16:38MCNALLYPAULFREDERICK9500495199176677 1572 KINLING WAY, SNELLVILLE GA 30078LOITERING OR PROWLING$1300SBGwinnett County PoliceCharges
03/21/2015 16:38MCNALLYPAULFREDERICK9500495199176677 1572 KINLING WAY, SNELLVILLE GA 30078* OBSTRUCTION LAW ENFORCEMENT OFFICER$1300SBGwinnett County PoliceCharges
03/21/2015 16:38MCNALLYPAULFREDERICK9500495199176677 1572 KINLING WAY, SNELLVILLE GA 30078HOLD FOR OTHER AGENCY$0NBGwinnett County PoliceCharges
03/21/2015 16:38MCNALLYPAULFREDERICK9500495199176677 1572 KINLING WAY, SNELLVILLE GA 30078* OBSTRUCTION LAW ENFORCEMENT OFFICER$1300SBGwinnett County PoliceCharges
03/21/2015 16:3103/21/2015 22:37BRICENO-MENDEZJORGEADALIDES9952305299523052 1343 W PINE RD, NORCROSS GA 30096*NOT LICENSED TO DRIVE$715CBLilburn PoliceCharges
03/21/2015 16:3103/21/2015 22:37BRICENO-MENDEZJORGEADALIDES9952305299523052 1343 W PINE RD, NORCROSS GA 30096NO PROOF INS$575CBLilburn PoliceCharges
03/21/2015 16:3103/21/2015 22:37BRICENO-MENDEZJORGEADALIDES9952305299523052 1343 W PINE RD, NORCROSS GA 30096SUSPENDED REGISTRATION$715CBLilburn PoliceCharges
03/21/2015 16:2903/21/2015 21:12ANDERSONPATRICK9952262899522628 5135 HILLCREST GLENN DR, SUGAR HILL GA 30518FAILURE TO REGISTER AS A SEX OFFENDER$11200SBGwinnett County SheriffCharges
03/21/2015 16:1103/21/2015 21:06MARESJESSICALYNN9952305199523051 500 LILBURN SCHOOL ROAD APT F1, LILBURN 30047* DRIVING WHILE LIC SUSP/REVOKED$705SBGwinnett County PoliceCharges
03/21/2015 16:1103/21/2015 21:06MARESJESSICALYNN9952305199523051 500 LILBURN SCHOOL ROAD APT F1, LILBURN 30047FAILURE TO MAINTAIN INSURANCE$299SBGwinnett County PoliceCharges
03/21/2015 15:58PATERSONDAVIDGEORGE9902231799022317 1061 OCEAN DRIVE, PALM BEACH FL 30517@ * AGGRAVATED ASSAULT$0NBGwinnett County PoliceCharges
03/21/2015 15:58PATERSONDAVIDGEORGE9902231799022317 1061 OCEAN DRIVE, PALM BEACH FL 30517*VGCSA OF C/S$0NBGwinnett County PoliceCharges
03/21/2015 15:3103/22/2015 01:50SANTANDERJOSELUIS9928654999286549 3469 FERNVIEW DR, LAWRENCEVILLE GA 30044*VGCSA OF C/S$5700CBGwinnett County PoliceCharges
03/21/2015 14:0803/21/2015 22:53RUFFJOSHUALAMAR9952304999523049 335 WOOD TERRACE WAY, DORAVILLE GA 30340* DISORDERLY CONDUCT$1300SBGwinnett County PoliceCharges
03/21/2015 14:0803/21/2015 22:53RUFFJOSHUALAMAR9952304999523049 335 WOOD TERRACE WAY, DORAVILLE GA 30340* OBSTRUCTION LAW ENFORCEMENT OFFICER$1300SBGwinnett County PoliceCharges
03/21/2015 13:5303/21/2015 22:51RUFFJARVISPACELLI9947799599523050 335 WOOD TERRACE WAY, DORAVILLE GA 30340* GIVING FALSE NAME OR INFORMATION$1300SBGwinnett County PoliceCharges
03/21/2015 13:3103/21/2015 20:26ASHTONMATTHEWMICHAEL9951768599517692 9302 DUNLEAF ARC WAY, NORCROSS GA 30093* DRIVING WHILE LIC SUSP/REVOKED$705SBGwinnett County PoliceCharges
03/21/2015 13:3103/21/2015 20:26ASHTONMATTHEWMICHAEL9951768599517692 9302 DUNLEAF ARC WAY, NORCROSS GA 30093NO FRONT BUMPER$68SBGwinnett County PoliceCharges
03/21/2015 13:3103/22/2015 00:38ASHTONMATTHEWMICHAEL9951768599517692 9302 DUNLEAF ARC WAY, NORCROSS GA 30093NO FRONT BUMPER$68SBGwinnett County PoliceCharges
03/21/2015 13:3103/22/2015 00:38ASHTONMATTHEWMICHAEL9951768599517692 9302 DUNLEAF ARC WAY, NORCROSS GA 30093* DRIVING WHILE LIC SUSP/REVOKED$705SBGwinnett County PoliceCharges
03/21/2015 13:27GRESHAMHALEYNICOLE9951006899510068 152 PARK DR, JEFFERSON GA 30549* VIOLATION OF PROBATION$0NBGwinnett County SheriffCharges
03/21/2015 13:21JONESKEVINGLEN9950425599504255 1671 LIPSCOMB LAKE RD, PENDERGRASS GA 30567* VIOLATION OF PROBATION$0NBGwinnett County SheriffCharges
03/21/2015 13:1803/27/2015 22:17FINNEYJOSEPHTHOMAS ONEAL9909030299090302 233 TIMBERLINE DR, DEMOREST GA 30535HOLD FOR COURT$0NBGwinnett County SheriffCharges
03/21/2015 13:1103/23/2015 00:04SAVANNAHMARYRENEE9952304799523047 3302 EVERSON ROAD, SNELLVILLE GA 30078@ * THEFT BY SHOPLIFTING$1300SBGwinnett County PoliceCharges
03/21/2015 12:3603/21/2015 17:42SMITHWENDYPAIGE9952304699523046 3765 HIGHWAY 155 N, STOCKBRIDGE GA 30281* GIVING FALSE NAME OR INFORMATION$1300SBGwinnett County SheriffCharges
03/21/2015 12:31WHITERYANANTHONY9934400299344002 3353 SWEETWATER RD APT 1223, LAWRENCEVILLE GA 30044* VIOLATION OF PROBATION$0NBGwinnett County SheriffCharges
03/21/2015 12:31WHITERYANANTHONY9934400299344002 3353 SWEETWATER RD APT 1223, LAWRENCEVILLE GA 30044 * ESCAPE$0NBGwinnett County SheriffCharges
03/21/2015 12:25LUNSFORDSTEVENMICHAEL9926644999266449 117 CANTON ST, ALPHARETTA GA 30009* VIOLATION OF PROBATION$0NBGwinnett County SheriffCharges
03/21/2015 12:2403/24/2015 19:07VENABLEBRANDONALLEN9909723399097233 265 HELICAN SPRINGS, ATHENS GA 30601FAILURE TO APPEAR$0NBGwinnett County SheriffCharges
03/21/2015 12:05SHURLEYBENJAMINWAYNE9200108192001081 622 HUNTINGTON TRCE, WINDER GA 30680* POSS OF FIREARM BY CONVICTED FELON$0NBGwinnett County PoliceCharges
03/21/2015 12:05SHURLEYBENJAMINWAYNE9200108192001081 622 HUNTINGTON TRCE, WINDER GA 30680@ * SIMPLE ASSAULT$0NBGwinnett County PoliceCharges
03/21/2015 11:1603/21/2015 13:47HARTDEANDREARENEE9952304599523045 186 NORTHWIND CT SW, LILBURN GA 30047 DISRUPTION OF A PUBLIC SCHOOL$1300SBGwinnett County SheriffCharges
03/21/2015 10:23HERNANDEZALFRED9900101699001016 895 INDIAN TRAIL LILBURN RD, NORCROSS GA 30093* CRIMINAL TRESPASS$1300SBGwinnett County PoliceCharges
03/21/2015 10:23HERNANDEZALFRED9900101699001016 895 INDIAN TRAIL LILBURN RD, NORCROSS GA 30093* VIOLATION OF PROBATION$0NBGwinnett County PoliceCharges
03/21/2015 10:04EDWARDSBRANDYMICHELLE9943814399438143 256 PINE VALLEY WAY, LAWRENCEVILLE GA 30046FAILURE TO APPEAR$985CBGwinnett County SheriffCharges
03/21/2015 10:04EDWARDSBRANDYMICHELLE9943814399438143 256 PINE VALLEY WAY, LAWRENCEVILLE GA 30046FAILURE TO APPEAR$0NBGwinnett County SheriffCharges
03/21/2015 10:04EDWARDSBRANDYMICHELLE9943814399438143 256 PINE VALLEY WAY, LAWRENCEVILLE GA 30046FAILURE TO APPEAR$0NBGwinnett County SheriffCharges
03/21/2015 09:3003/21/2015 13:51ARROYO-PRIGADAACARLOSHEBERT9939441299485625 1073 SINGLTON VALLEY CIR, NORCROSS GA 30093WINDSHIELD/WINDOW/WIPER REQUIREMENTS$110CBNorcross PoliceCharges
03/21/2015 09:3003/21/2015 13:51ARROYO-PRIGADAACARLOSHEBERT9939441299485625 1073 SINGLTON VALLEY CIR, NORCROSS GA 30093*NO VALID LICENSE$860CBNorcross PoliceCharges
03/21/2015 09:0803/21/2015 14:09HERNANDEZJORGEH9938651799386517 6810 MAGNOLIA PARK LN, NORCROSS GA 30093@ * BATTERY$1300CBGwinnett County PoliceCharges
03/21/2015 08:1503/21/2015 16:46MCEARCHERNJOSEPHSCOTT9952304099523040APT B3 220 PICCADILLY SQ, ATHENS GA 30605*FORGERY 4TH DEGREE$1300SBGwinnett County SheriffCharges
03/21/2015 08:1503/26/2015 08:41RAPOSOLUCASAMSLER9950999399509993 2655 PEACHTREE WALK, DULUTH GA 30096HOLD FOR COURT$0NBGwinnett County SheriffCharges
03/21/2015 07:5803/21/2015 14:42CABRERA GUZMANLUISALBERTO9952303999523039 3235 BOWLING GREEN WAY, ATLANTA GA 30340SPEEDING / 1ST OFFENSE / 19-23 OVER$250CBLawrenceville PoliceCharges
03/21/2015 07:5803/21/2015 14:42CABRERA GUZMANLUISALBERTO9952303999523039 3235 BOWLING GREEN WAY, ATLANTA GA 30340NEW RESIDENT - 30 DAYS TO OBTAIN LICENSE$803CBLawrenceville PoliceCharges
03/21/2015 07:4603/25/2015 10:14HALLERICA9952125799521257 1570 BRICK HOUSE RD, GREENSBORO GA 30642HOLD FOR COURT$0NBGwinnett County SheriffCharges
03/21/2015 07:3003/21/2015 09:19MACHACAJORGEGERMAN9915060799150641 1397 ROMAN POINT DR, NORCROSS GA 30093$Gwinnett County PoliceCharges
03/21/2015 07:2703/21/2015 12:34SANDERSJASONBRYAN9903457699034576 1268 MONTFORT RD, LAWRENCEVILLE GA 30046* CRIMINAL TRESPASS$2400SBGwinnett County PoliceCharges
03/21/2015 07:0603/23/2015 13:06ALLENRHIANNONPATRICE9952303899523043 1290 LOCH LOMOND TRL SW, ATLANTA GA 30331HOLD FOR OTHER AGENCY$0NBGwinnett County PoliceCharges
03/21/2015 07:0303/23/2015 10:36GROVERKOAGARLANDA9948462799484627 155 GLENLEIGH WALK, FAYETTEVILLE GA 30214HOLD FOR OTHER AGENCY$0NBGwinnett County PoliceCharges
03/21/2015 05:5903/23/2015 06:57VARGASJESSICA9952303799523037L4# 2345 COBB PKWY, SMYRNA GA 30080IMPROPER LANE CHANGE$68ORGwinnett County PoliceCharges
03/21/2015 05:5903/23/2015 06:57VARGASJESSICA9952303799523037L4# 2345 COBB PKWY, SMYRNA GA 30080* DRIVING WHILE LIC SUSP/REVOKED$705ORGwinnett County PoliceCharges
03/21/2015 05:1703/21/2015 11:19BALLARDDARRENMICHAEL9952303699523036 1110 RUARK RD, BOSTWICK GA 30623SPEEDING$215SBGwinnett County PoliceCharges
03/21/2015 05:1703/21/2015 11:19BALLARDDARRENMICHAEL9952303699523036 1110 RUARK RD, BOSTWICK GA 30623POSSESSION OF LESS 1 OZ. MARIJUANA$585SBGwinnett County PoliceCharges
03/21/2015 04:5903/21/2015 15:01REYESPEDRO9952125199521251 826 CLUB PL, DULUTH GA 30096* GIVING FALSE NAME OR INFORMATION$1300CBGwinnett County PoliceCharges
03/21/2015 04:5503/21/2015 11:15RUSSELLMEGANCAROLINE9952303599523035 6612 MEADOW RUE DR, PEACHTREE CORNERS GA 30092SPEEDING 15-18 OVER$310SBNorcross PoliceCharges
03/21/2015 04:5503/21/2015 11:15RUSSELLMEGANCAROLINE9952303599523035 6612 MEADOW RUE DR, PEACHTREE CORNERS GA 30092*DUI$1580SBNorcross PoliceCharges
03/21/2015 04:2603/23/2015 03:58SHARPCOREYBANKS9952303499523034 2404 WINDY HILL PT, LAWRENCEVILLE GA 30046* DUI ALCOHOL$1230ORLawrenceville PoliceCharges
03/21/2015 04:2603/23/2015 03:58SHARPCOREYBANKS9952303499523034 2404 WINDY HILL PT, LAWRENCEVILLE GA 30046FAIL MAINTAIN LANE$133ORLawrenceville PoliceCharges
03/21/2015 04:2603/23/2015 03:58SHARPCOREYBANKS9952303499523034 2404 WINDY HILL PT, LAWRENCEVILLE GA 30046*DRIVING WHILE LIC.SUSP/REVOKED$803ORLawrenceville PoliceCharges
03/21/2015 03:5103/21/2015 08:45ROYALCASEYMARSHALL9951442899514428 1278 SUMMIT CHASE DR, SNELLVILLE GA 30078@ * SIMPLE BATTERY$1300SBSnellville PoliceCharges
03/21/2015 03:5103/21/2015 08:45ROYALCASEYMARSHALL9951442899514428 1278 SUMMIT CHASE DR, SNELLVILLE GA 30078* INTERFER. WITH CALL FOR EMER. ASSIST.$1300SBSnellville PoliceCharges
03/21/2015 03:5003/22/2015 00:58BUSBYBRANDONDEON9952303399523033APT 1502 4350 JIMMY CARTER BLVD, NORCROSS GA 30093HOLD FOR OTHER AGENCY$0NBNorcross PoliceCharges
03/21/2015 03:5003/22/2015 00:58BUSBYBRANDONDEON9952303399523033APT 1502 4350 JIMMY CARTER BLVD, NORCROSS GA 30093SUSP TAG$810SBNorcross PoliceCharges
03/21/2015 03:5003/22/2015 00:58BUSBYBRANDONDEON9952303399523033APT 1502 4350 JIMMY CARTER BLVD, NORCROSS GA 30093*DRIVING ON A SUSPENDED LICENSE$860SBNorcross PoliceCharges
03/21/2015 03:5003/22/2015 00:58BUSBYBRANDONDEON9952303399523033APT 1502 4350 JIMMY CARTER BLVD, NORCROSS GA 30093NO PROOF OF INSURANCE$560SBNorcross PoliceCharges
03/21/2015 03:3803/21/2015 08:52JAMESTERRILASHAY9937603099376030 3974 ANNISTOWN RD STE 916, SNELLVILLE GA 30039SPEEDING$180SBGwinnett County PoliceCharges
03/21/2015 03:3803/21/2015 08:52JAMESTERRILASHAY9937603099376030 3974 ANNISTOWN RD STE 916, SNELLVILLE GA 30039* DRIVING WHILE LIC SUSP/REVOKED$705SBGwinnett County PoliceCharges
03/21/2015 03:3503/21/2015 22:33PASHNYAKANDREYSTANISLAV9932599099325990 212 LYNN RD, BETHLEHEM GA 30620* DUI-MORE THAN 0.10 % BLOOD/ALCOHOL$2006CBGwinnett County PoliceCharges
03/21/2015 03:3503/21/2015 22:33PASHNYAKANDREYSTANISLAV9932599099325990 212 LYNN RD, BETHLEHEM GA 30620IMPROPER LANE CHANGE$68CBGwinnett County PoliceCharges
03/21/2015 03:3203/21/2015 10:06HARDYALEISHACHERIE9952303299523032 2735 CAROLINA DR, BETHLEHEM GA 30620SPEEDING 15-18 OVER$180SBBraselton PDCharges
03/21/2015 03:3203/21/2015 10:06HARDYALEISHACHERIE9952303299523032 2735 CAROLINA DR, BETHLEHEM GA 30620DUI$1529SBBraselton PDCharges
03/21/2015 03:3003/23/2015 04:44GUINNLEEGARDENER9916870599168705 1224 VICTRON LN, HOSCHTON GA 30548OTHER OFFENSE$0NBGwinnett County SheriffCharges
03/21/2015 03:2403/21/2015 13:07EDWARDSMARTAVIUSKATREAL9952303199523031 3821 STONEY CREEK DR, FLOWERY BRANCH GA 30542SPEEDING$285SBGwinnett County PoliceCharges
03/21/2015 03:2403/21/2015 13:07EDWARDSMARTAVIUSKATREAL9952303199523031 3821 STONEY CREEK DR, FLOWERY BRANCH GA 30542RECKLESS DRIVING$420SBGwinnett County PoliceCharges
03/21/2015 03:1303/21/2015 08:47RAMIREZBRIANJAMES9952303099523030 2567 SUMMIT COVE DR, DULUTH GA 30097*DRIVING ON SUSP. LIC$971.75SBDuluth PoliceCharges
03/21/2015 03:0603/21/2015 09:59JOHNSCHANCECHRISTIAN9952302999523029 3923 ELMSIDE VILLAGE LN APT A, NORCROSS GA 30092*DRIVING ON A SUSPENDED LICENSE$860SBNorcross PoliceCharges
03/21/2015 03:0603/21/2015 09:59JOHNSCHANCECHRISTIAN9952302999523029 3923 ELMSIDE VILLAGE LN APT A, NORCROSS GA 30092TAG LIGHT REQUIREMENT$110SBNorcross PoliceCharges
03/21/2015 03:0503/21/2015 17:35EGOLUMLAWRENCECHIDUDEM9935970999359709 3587 BOULDER CIR, ELLENWOOD GA 30294TAG LIGHT VISIBLE 50 FT.$68SBGwinnett County PoliceCharges
03/21/2015 03:0503/21/2015 17:35EGOLUMLAWRENCECHIDUDEM9935970999359709 3587 BOULDER CIR, ELLENWOOD GA 30294*POSS AND USE OF DRUG RELATED$1300SBGwinnett County PoliceCharges
03/21/2015 02:5803/21/2015 16:34LEONETTIEDWARDMAVRAMORN9952302899523028 474 W PIKE ST RM 279, LAWRENCEVILLE GA 30046PUBLIC DRUNKENNESS$213CBLawrenceville PoliceCharges
03/21/2015 02:5403/21/2015 10:42KIMKYUNGHUN9952302799523027 3204 WANSTEAD PARK DR APT 1108, SUWANEE GA 30024FOLLOWING TOO CLOSELY$96SBGwinnett County PoliceCharges
03/21/2015 02:5403/21/2015 10:42KIMKYUNGHUN9952302799523027 3204 WANSTEAD PARK DR APT 1108, SUWANEE GA 30024* DUI - DRUGS/ALCOHOL$2006SBGwinnett County PoliceCharges
03/21/2015 02:4003/21/2015 11:24BAKERLYDIA9952302699523026 316 CARTER RD LOT 118, AUBURN GA 30011*DISORDERLY CONDUCT$181CBAuburn PDCharges
03/21/2015 02:1403/21/2015 14:56CARTERSHANIECEMONIQUE9952302599523025 5955 IDLEWOOD PLACE, LITHONIA GA 30038OPERATING VEH WITH SUSP/CANC/REV REGISTR$705SBGwinnett County PoliceCharges
03/21/2015 02:1403/21/2015 14:56CARTERSHANIECEMONIQUE9952302599523025 5955 IDLEWOOD PLACE, LITHONIA GA 30038POSSESSION OF LESS 1 OZ. MARIJUANA$585SBGwinnett County PoliceCharges
03/21/2015 01:5603/21/2015 12:41ACOFFMICHAELDWAYNE9951800299518004 565 BRIARHURST CT, LAWRENCEVILLE GA 30046* DUI-ALCOHOL$2006SBGwinnett County PoliceCharges
03/21/2015 01:5603/21/2015 12:41ACOFFMICHAELDWAYNE9951800299518004 565 BRIARHURST CT, LAWRENCEVILLE GA 30046*NO DRIVERS LICENSE$705SBGwinnett County PoliceCharges
03/21/2015 01:5603/21/2015 12:41ACOFFMICHAELDWAYNE9951800299518004 565 BRIARHURST CT, LAWRENCEVILLE GA 30046IMPROPER LANE CHANGE$68SBGwinnett County PoliceCharges
03/21/2015 01:5603/21/2015 12:41ACOFFMICHAELDWAYNE9951800299518004 565 BRIARHURST CT, LAWRENCEVILLE GA 30046NO BRAKE LIGHTS$56SBGwinnett County PoliceCharges
03/21/2015 01:5603/21/2015 12:41ACOFFMICHAELDWAYNE9951800299518004 565 BRIARHURST CT, LAWRENCEVILLE GA 30046HEADLIGHTS$68SBGwinnett County PoliceCharges
03/21/2015 01:5303/23/2015 00:41BRANCHDARRIUSLEE9952302499523024 6301 OLD BARN CT, INDIANAPOLIS IN 46268Possession of Marijuana less 1oz$784ORSnellville PoliceCharges
03/21/2015 01:5303/23/2015 00:41BRANCHDARRIUSLEE9952302499523024 6301 OLD BARN CT, INDIANAPOLIS IN 46268DRUG-RELATED ACTIVITIES$288.5ORSnellville PoliceCharges
03/21/2015 01:5103/23/2015 00:45LONGDEVONTAE9951932899519328 352 WILLOWWIND DRIVE, LOGANVILLE GA 30052SPEEDING 21-25 OVER$214.5ORSnellville PoliceCharges
03/21/2015 01:5103/23/2015 00:45LONGDEVONTAE9951932899519328 352 WILLOWWIND DRIVE, LOGANVILLE GA 30052DRIVING WITHOUT LICENSE ON PERSON$33ORSnellville PoliceCharges
03/21/2015 01:5103/23/2015 00:45LONGDEVONTAE9951932899519328 352 WILLOWWIND DRIVE, LOGANVILLE GA 30052Possession of Marijuana less 1oz$784ORSnellville PoliceCharges
03/21/2015 01:5103/23/2015 00:45LONGDEVONTAE9951932899519328 352 WILLOWWIND DRIVE, LOGANVILLE GA 30052DRUG-RELATED ACTIVITIES$288.5ORSnellville PoliceCharges
03/21/2015 01:4103/21/2015 03:50PHILLIPSALESSANDRAL9952302399523023 5400 MEMORIAL DRIVE, STONE MOUNTAIN GA 30083Possession of Marijuana less 1oz$784SBSnellville PoliceCharges
03/21/2015 01:4103/21/2015 03:50PHILLIPSALESSANDRAL9952302399523023 5400 MEMORIAL DRIVE, STONE MOUNTAIN GA 30083DRUG-RELATED ACTIVITIES$288.5SBSnellville PoliceCharges
03/21/2015 01:3703/21/2015 18:36BARNHARTCHAUNCEYJAMMAL9952302299523022 3860 KINGS BRIDGE DR, DOUGLASVILLE GA 30135* OBSTRUCTION LAW ENFORCEMENT OFFICER$1300SBGwinnett County PoliceCharges
03/21/2015 01:2703/21/2015 05:40SCOGGINSDANAONRONDALE9952302199523021 2328 RIVENDELL LN, CHATTANOOGA TN 37421IMPROPER/ERRATIC LANE CHANGE$68SBGwinnett County PoliceCharges
03/21/2015 01:2703/21/2015 05:40SCOGGINSDANAONRONDALE9952302199523021 2328 RIVENDELL LN, CHATTANOOGA TN 37421* DUI-MORE THAN 0.10%BLOOD ALCOHOL$2006SBGwinnett County PoliceCharges
03/21/2015 01:1903/23/2015 01:04WHITEBENJAMIN9952302099523020 27 BOSSIS DR, CHARLESTON SC 29407PED UNDER INFLUENCE ON R/WAY$152ORGwinnett County PoliceCharges
03/21/2015 01:1803/21/2015 04:55SMITHWILLIAMDEE9946407099464070 1227 DALE DR, MONROE GA 30656SPEEDING IN CONSTRUCTION SITE 24-30 OVER$620SBGwinnett County PoliceCharges
03/21/2015 01:1803/21/2015 04:55SMITHWILLIAMDEE9946407099464070 1227 DALE DR, MONROE GA 30656*DRIVING WHILE LIC.SUSP/REVOKED$803SBGwinnett County PoliceCharges
03/21/2015 01:0803/21/2015 13:42LAWROBERTEDWARD9940124199401241 3430 SILVER LAKE CT, CUMMING GA 30041*DISORDERLY CONDUCT$140SBGwinnett County PoliceCharges
03/21/2015 01:0503/21/2015 05:16SANTIAGOLOLEINAKALOLA9952301999523019 6250 WHIRLWAY DRIVE, CUMMING GA 30040@ * THEFT BY SHOPLIFTING$2950SBGwinnett County SheriffCharges
03/21/2015 01:0503/21/2015 05:16SANTIAGOLOLEINAKALOLA9952301999523019 6250 WHIRLWAY DRIVE, CUMMING GA 30040* OBSTRUCTION LAW ENFORCEMENT OFFICER$2950SBGwinnett County SheriffCharges
03/21/2015 00:59DEAZAPENAANGELEMELIO9951300699513006 793 OMAHA DR, NORCROSS GA 30093* GIVING FALSE NAME OR INFORMATION$1300SBGwinnett County PoliceCharges
03/21/2015 00:59DEAZAPENAANGELEMELIO9951300699513006 793 OMAHA DR, NORCROSS GA 30093* CONSPIRACY TO COMMIT A CRIME$0NBGwinnett County PoliceCharges
03/21/2015 00:2903/21/2015 09:35BENSONSEBASTIANTAWEN9800474598004745 1500 LINK AVE, ORANGE TX 77630* DRIVING WHILE LICENSE WITHDRAWN$705SBGwinnett County PoliceCharges
03/21/2015 00:2903/21/2015 09:35BENSONSEBASTIANTAWEN9800474598004745 1500 LINK AVE, ORANGE TX 77630M/V WRONG SIDE OF ROAD$68SBGwinnett County PoliceCharges
03/21/2015 00:13ZAGUILAR MATEOSFIDEL9936422299379381 1400 HAMILTON RD, LAWRENCEVILLE GA 30044@ * THEFT BY TAKING$5700SBGwinnett County PoliceCharges
03/21/2015 00:13ZAGUILAR MATEOSFIDEL9936422299379381 1400 HAMILTON RD, LAWRENCEVILLE GA 30044HOLD FOR IMMIGRATION$0NBGwinnett County PoliceCharges
03/21/2015 00:1103/21/2015 04:57BURDEXOSHANOMAR JABBAR9952301899523018 4213 SHEPPARD XING WAY, STONE MOUNTAIN GA 30083MATERIALS ON WINDSHIELD/LIGHT$68SBDuluth PoliceCharges
03/21/2015 00:1103/21/2015 04:57BURDEXOSHANOMAR JABBAR9952301899523018 4213 SHEPPARD XING WAY, STONE MOUNTAIN GA 30083*MAUFACTUR/POSS/PURCH/DIST/SALE MARIJUAN$5700SBDuluth PoliceCharges
03/21/2015 00:1003/21/2015 19:59ADAMSRALPH9927007499270074 700 SUNFIELD DRIVE, LILBURN GA 30047@ * AGGRAVATED ASSAULT$2950SBLilburn PoliceCharges
03/21/2015 00:1003/21/2015 19:59ADAMSRALPH9927007499270074 700 SUNFIELD DRIVE, LILBURN GA 30047PUBLIC DRUNKENNESS$1300SBLilburn PoliceCharges
03/21/2015 00:1003/21/2015 19:59ADAMSRALPH9927007499270074 700 SUNFIELD DRIVE, LILBURN GA 30047* OBSTRUCTION LAW ENFORCEMENT OFFICER$1300SBLilburn PoliceCharges
03/20/2015 23:52LOPEZ-MARTINEZELIHU9941690599416905 3677 RAINBOW CIR, SNELLVILLE GA 30039@ * AGGRAVATED ASSAULT$0NBGwinnett County PoliceCharges
03/20/2015 23:52LOPEZ-MARTINEZELIHU9941690599416905 3677 RAINBOW CIR, SNELLVILLE GA 30039@ * BATTERY$1000CBGwinnett County PoliceCharges
03/20/2015 23:1203/27/2015 15:20JAQUEZMIGUELINAALTAGRACIA9911177599453403 801 MOUNTAIN BROOKE CIR, STONE MOUNTAIN GA 30087@ * SIMPLE BATTERY$650ORGwinnett County PoliceCharges
03/20/2015 22:2503/22/2015 21:45HAMMATTHEWK9952301799523017 3240 BROWN THRASHERS TRACE, CUMMING GA 30041* DRIVING WHILE LICENSE WITHDRAWN$705ORGwinnett County PoliceCharges
03/20/2015 22:2503/22/2015 21:45HAMMATTHEWK9952301799523017 3240 BROWN THRASHERS TRACE, CUMMING GA 30041* DUI-ALCOHOL$2006ORGwinnett County PoliceCharges
03/20/2015 22:2503/22/2015 21:45HAMMATTHEWK9952301799523017 3240 BROWN THRASHERS TRACE, CUMMING GA 30041FOLLOWING TOO CLOSE$68ORGwinnett County PoliceCharges
03/20/2015 22:0403/21/2015 09:40ASHTONMATTHEWMICHAEL9951768599517692 9302 DUNLEAF ARC WAY, NORCROSS GA 30093FOLLOWING TOO CLOSE$123SBSuwanee PoliceCharges
03/20/2015 22:0403/21/2015 09:40ASHTONMATTHEWMICHAEL9951768599517692 9302 DUNLEAF ARC WAY, NORCROSS GA 30093*DRIVING WHILE LICENSE SUSPENDED$1207SBSuwanee PoliceCharges
03/20/2015 22:03TURNERROBERTDARELL9931559199315591230 200 LAWRANCEVILLE ST, NORCROSS GA 30071* VIOLATION OF PROBATION$0NBNorcross PoliceCharges
03/20/2015 21:4203/21/2015 14:07SPRADLINSTEVENLANIER9950671999506719 4741 PORTAL TRAIL DRIVE, SUWANEE GA 30024*DRIVING UNDER INFLUENCE DRUGS/ALCOHOL$1623SBDuluth PoliceCharges
03/20/2015 21:4203/21/2015 14:07SPRADLINSTEVENLANIER9950671999506719 4741 PORTAL TRAIL DRIVE, SUWANEE GA 30024*AGGRESSIVE DRIVING$835.25SBDuluth PoliceCharges
03/20/2015 21:4203/21/2015 14:07SPRADLINSTEVENLANIER9950671999506719 4741 PORTAL TRAIL DRIVE, SUWANEE GA 30024FOLLOWING TOO CLOSELY$129.25SBDuluth PoliceCharges
03/20/2015 21:4203/21/2015 14:07SPRADLINSTEVENLANIER9950671999506719 4741 PORTAL TRAIL DRIVE, SUWANEE GA 30024FAILURE TO MAINTAIN LANE$129.25SBDuluth PoliceCharges
03/20/2015 21:4203/21/2015 14:07SPRADLINSTEVENLANIER9950671999506719 4741 PORTAL TRAIL DRIVE, SUWANEE GA 30024SPEEDING 24-33 OVER$423.25SBDuluth PoliceCharges
03/20/2015 21:4203/21/2015 14:07SPRADLINSTEVENLANIER9950671999506719 4741 PORTAL TRAIL DRIVE, SUWANEE GA 30024HOLD FOR OTHER AGENCY$0NBDuluth PoliceCharges
03/20/2015 21:2803/21/2015 01:43JEAN-LOUISSAKIANICOLE9952301599523015 1965 EASTLAND COURTH, SNELLVILLE GA 30078*SHOPLIFTING LESS THAN 300.00$558.5SBSnellville PoliceCharges
03/20/2015 21:2803/21/2015 01:46BOOTHTASHIARASHEKIA9952301499523016 1965 EASTLAND COURT, SNELLVILLE GA 30078*SHOPLIFTING LESS THAN 300.00$558.5SBSnellville PoliceCharges
03/20/2015 21:0803/21/2015 01:35STARVICTORMANUEL9936317999363179 430 MARTIN GLEN WAY, LAWRENCEVILLE GA 30045DEFECTIVE TIRES$133CBLawrenceville PoliceCharges
03/20/2015 21:0803/21/2015 01:35STARVICTORMANUEL9936317999363179 430 MARTIN GLEN WAY, LAWRENCEVILLE GA 30045*DRIVING WHILE LIC.SUSP/REVOKED$803CBLawrenceville PoliceCharges
03/20/2015 20:5803/21/2015 02:16MARTINEZ-ZAMARRONJOSEEMANUEL9952301399523013APT 22E 3379 AZTEC RD, DORAVILLE GA 30341FAILURE TO MAINTAIN LANE$210CBNorcross PoliceCharges
03/20/2015 20:5803/21/2015 02:16MARTINEZ-ZAMARRONJOSEEMANUEL9952301399523013APT 22E 3379 AZTEC RD, DORAVILLE GA 30341FAILURE TO STOP/YIELD AT STOP SIGN$210CBNorcross PoliceCharges
03/20/2015 20:5803/21/2015 02:16MARTINEZ-ZAMARRONJOSEEMANUEL9952301399523013APT 22E 3379 AZTEC RD, DORAVILLE GA 30341*NO VALID LICENSE$860CBNorcross PoliceCharges
03/20/2015 20:55KNIGHTDARRENLENELL9951049999510499 3280 POND RIDGE TRAIL, SNELLVILLE GA 30078* VIOLATION OF PROBATION$0NBGwinnett County SheriffCharges
03/20/2015 20:4503/20/2015 20:54KNIGHTDARRELLENELL9952301299523012 , $Gwinnett County SheriffCharges
03/20/2015 20:3303/21/2015 00:37SAMSAMBERNICHOLE9952301199523011 6279 SUSAN LN, DORAVILLE GA 30340AGGRESSIVE DRIVING$425CBGwinnett County PoliceCharges
03/20/2015 20:27THAILONGHOANG UYEN9950687799506877 2519 FEATHERTREE LN, LAWRENCEVILLE GA 30044@ * THEFT BY RECEIVING$0NBGwinnett County PoliceCharges
03/20/2015 20:11STEFANOVICHDANIELALEXANDER9942839999428399 65 JAYDE PL, TALKING ROCK GA 30175* VIOLATION OF PROBATION$0NBGwinnett County SheriffCharges
03/20/2015 20:0603/08/2015 20:36GARNERKIMBERLYANNE9938308499383084 6264 CUMMING HWY, BUFORD GA 30518* DUI - DRUGS/ALCOHOL$0NBGwinnett County SheriffCharges
03/20/2015 20:0603/08/2015 20:36GARNERKIMBERLYANNE9938308499383084 6264 CUMMING HWY, BUFORD GA 30518* DUI - DRUGS/ALCOHOL$0NBGwinnett County SheriffCharges
03/20/2015 20:0603/15/2015 20:04GARNERKIMBERLYANNE9938308499383084 6264 CUMMING HWY, BUFORD GA 30518* DUI - DRUGS/ALCOHOL$0NBGwinnett County SheriffCharges
03/20/2015 20:0603/22/2015 20:21GARNERKIMBERLYANNE9938308499383084 6264 CUMMING HWY, BUFORD GA 30518* DUI - DRUGS/ALCOHOL$0NBGwinnett County SheriffCharges
03/20/2015 20:0603/29/2015 20:05GARNERKIMBERLYANNE9938308499383084 6264 CUMMING HWY, BUFORD GA 30518* DUI - DRUGS/ALCOHOL$0NBGwinnett County SheriffCharges
03/20/2015 20:0603/29/2015 20:05GARNERKIMBERLYANNE9938308499383084 6264 CUMMING HWY, BUFORD GA 30518* DUI - DRUGS/ALCOHOL$0NBGwinnett County SheriffCharges
03/20/2015 20:0603/22/2015 20:21GARNERKIMBERLYANNE9938308499383084 6264 CUMMING HWY, BUFORD GA 30518* DUI - DRUGS/ALCOHOL$0NBGwinnett County SheriffCharges
03/20/2015 20:0603/15/2015 20:04GARNERKIMBERLYANNE9938308499383084 6264 CUMMING HWY, BUFORD GA 30518* DUI - DRUGS/ALCOHOL$0NBGwinnett County SheriffCharges
03/20/2015 20:01SCOTTALEXISRENEE9951256699512566 422 BEECH ST APT B, POTTSTOWN PA 19464* VIOLATION OF PROBATION$0NBNorcross PoliceCharges
03/20/2015 19:3703/21/2015 00:30GUEVARAOMAR9942234799422347 727 ARBOUR WAY, SUWANEE GA 30024*DRIVING W/O LICENSE-FAIL OBTAIN 30 DAYS$705CBGwinnett County PoliceCharges
03/20/2015 19:31BATESNICHOLASASHTON9952301099523010 4046 HIGHWAY 155, STOCKBRIDGE GA 30281@ * BATTERY$0NBGwinnett County PoliceCharges
03/20/2015 19:25JEFFERIESRENALDODEAN9952300999523009 2504 LINDA LN, ATLANTA GA 30315HOLD FOR OTHER AGENCY$0NBGwinnett County PoliceCharges
03/20/2015 19:1802/06/2015 18:54BOOKERJAMESEDDIE9950329799503297 1099 ERIE CIRCLE, STONE MOUNTAIN GA 30087*VGCSA POSS OF MARIJUANA W/INTENT TO DIS$0NBGwinnett County SheriffCharges
03/20/2015 19:1802/08/2015 18:09BOOKERJAMESEDDIE9950329799503297 1099 ERIE CIRCLE, STONE MOUNTAIN GA 30087*VGCSA POSS OF MARIJUANA W/INTENT TO DIS$0NBGwinnett County SheriffCharges
03/20/2015 19:1802/22/2015 18:06BOOKERJAMESEDDIE9950329799503297 1099 ERIE CIRCLE, STONE MOUNTAIN GA 30087*VGCSA POSS OF MARIJUANA W/INTENT TO DIS$0NBGwinnett County SheriffCharges
03/20/2015 19:1802/15/2015 18:10BOOKERJAMESEDDIE9950329799503297 1099 ERIE CIRCLE, STONE MOUNTAIN GA 30087*VGCSA POSS OF MARIJUANA W/INTENT TO DIS$0NBGwinnett County SheriffCharges
03/20/2015 19:1803/13/2015 19:55BOOKERJAMESEDDIE9950329799503297 1099 ERIE CIRCLE, STONE MOUNTAIN GA 30087*VGCSA POSS OF MARIJUANA W/INTENT TO DIS$0NBGwinnett County SheriffCharges
03/20/2015 19:1803/22/2015 18:08BOOKERJAMESEDDIE9950329799503297 1099 ERIE CIRCLE, STONE MOUNTAIN GA 30087*VGCSA POSS OF MARIJUANA W/INTENT TO DIS$0NBGwinnett County SheriffCharges
03/20/2015 19:1803/29/2015 18:14BOOKERJAMESEDDIE9950329799503297 1099 ERIE CIRCLE, STONE MOUNTAIN GA 30087*VGCSA POSS OF MARIJUANA W/INTENT TO DIS$0NBGwinnett County SheriffCharges
03/20/2015 19:1803/15/2015 18:06BOOKERJAMESEDDIE9950329799503297 1099 ERIE CIRCLE, STONE MOUNTAIN GA 30087*VGCSA POSS OF MARIJUANA W/INTENT TO DIS$0NBGwinnett County SheriffCharges
03/20/2015 19:1803/08/2015 18:16BOOKERJAMESEDDIE9950329799503297 1099 ERIE CIRCLE, STONE MOUNTAIN GA 30087*VGCSA POSS OF MARIJUANA W/INTENT TO DIS$0NBGwinnett County SheriffCharges
03/20/2015 19:1803/01/2015 18:10BOOKERJAMESEDDIE9950329799503297 1099 ERIE CIRCLE, STONE MOUNTAIN GA 30087*VGCSA POSS OF MARIJUANA W/INTENT TO DIS$0NBGwinnett County SheriffCharges
03/20/2015 19:1103/21/2015 01:21OWAMAGBEJOANNA9946358199463581 1317 BURNT WOOD CT, LAWRENCEVILLE GA 30044*FORGERY 4TH DEGREE$2950SBGwinnett County PoliceCharges
03/20/2015 18:4603/22/2015 18:11JOHNSONRICKYANTONIO9900063699000636 351 CANNONBALL CT, LAWRENCEVILLE GA 30044* THEFT BY SHOPLIFTING$788ORLawrenceville PoliceCharges
03/20/2015 18:3403/23/2015 16:17JENNINGSCLARIDETHM9952300599523005 4723 PETER BURROUGH PLACE, DULUTH GA 30096FAILURE TO PAY/CHILD SUPPORT$700CBGwinnett County SheriffCharges
03/20/2015 18:3103/21/2015 16:35BUITRAGOJHON9952300499523004APT 5103 10371 SW 150TH PL, MIAMI FL 33196FAILURE TO PAY/CHILD SUPPORT$895.3FIGwinnett County SheriffCharges
03/20/2015 18:1503/21/2015 01:06EWINGALEXIS9952300399523003 505 FLOWERING TRL, GRAYSON GA 30017* DISORDERLY CONDUCT$650SBGwinnett County PoliceCharges
03/20/2015 18:1503/21/2015 01:06EWINGALEXIS9952300399523003 505 FLOWERING TRL, GRAYSON GA 30017* CRIMINAL TRESPASS$650SBGwinnett County PoliceCharges
03/20/2015 17:4503/21/2015 00:59WILLIAMSTIMOTHYLAWAYNE9952300199523001 3193 DESH0NG DR, STONE MOUNTAIN GA 30087FAILURE TO MAINTAIN INSURANCE$299SBGwinnett County PoliceCharges
03/20/2015 17:4503/21/2015 00:59WILLIAMSTIMOTHYLAWAYNE9952300199523001 3193 DESH0NG DR, STONE MOUNTAIN GA 30087*NO DRIVERS LICENSE$705SBGwinnett County PoliceCharges
03/20/2015 17:3603/21/2015 17:26SOLIS-DURANALUARO9952300099523000 6359 LIGHT CIR, NORCROSS GA 30071NO PROOF OF INSURANCE$560CBNorcross PoliceCharges
03/20/2015 17:3603/21/2015 17:26SOLIS-DURANALUARO9952300099523000 6359 LIGHT CIR, NORCROSS GA 30071*NO VALID LICENSE$860CBNorcross PoliceCharges
03/20/2015 17:23BOOTERBAUGHTRAVISAUGUSTINE9950879699508796 1684 PINEFIELD WAY, MARIETTA GA 30066* VIOLATION OF PROBATION$0NBGwinnett County PoliceCharges
03/20/2015 16:5603/20/2015 23:08NAMKYONGCHA9952299999522999 3429 CHASELTON CT, BERKELEY LAKE GA 30096*FAIL TO STOP @ACCIDENT W/INJURY, DAMAGE$893.75CBDuluth PoliceCharges
03/20/2015 16:5603/20/2015 23:08NAMKYONGCHA9952299999522999 3429 CHASELTON CT, BERKELEY LAKE GA 30096FAILURE TO MAINTAIN LANE$228.5CBDuluth PoliceCharges
03/20/2015 16:2603/20/2015 19:36EDWARDSATISHANYALA9952299699522996 3391 BORDER DR, STONE MOUNTAIN GA 30087*OBSTRUCTION OF OFFICER$1300CBGwinnett County SheriffCharges
03/20/2015 16:1703/20/2015 19:45EDWARDSTORY9952299599522995 3391 BORDER DR, STONE MOUNTAIN GA 30087*HIT AND RUN$1300CBGwinnett County SheriffCharges
03/20/2015 16:11JOHNSONISAIAH9949005399490053 1347 LARKVIEW DR SW, LILBURN GA 30047@ * BATTERY$0NBGwinnett County PoliceCharges
03/20/2015 15:5803/24/2015 21:46BLAKELAURENMONIQUE9944792299447922 14669 CAMBRIDGE CIR, LAUREL MD 20707Violation of Probation$0NBGwinnett County SheriffCharges
03/20/2015 15:35STINSONWILLIAMHOWARD9949225699492256 3581 SPRING CREEK CIR, SNELLVILLE GA 30039* VIOLATION OF PROBATION$0NBGwinnett County SheriffCharges
03/20/2015 15:29CLEMENTSMICHAELSAMUEL9912753499127534 597 BRIAR RUN CT, LOGANVILLE GA 30052*VGCSA OF C/S$0NBSnellville PoliceCharges
03/20/2015 15:2303/22/2015 15:13COOKSKYLERROBINSON9952299399522993 597 BRIAR RUN COURT, LOGANVILLE GA 30052*SHOPLIFTING LESS THAN 300.00$558.5ORSnellville PoliceCharges
03/20/2015 14:5503/20/2015 23:17BITTNERMARKDANIEL9952299299522992 13660 COGBURN RD, ALPHARETTA GA 30004*VGCSA OF C/S$1300SBDuluth PoliceCharges
03/20/2015 14:40PERSONFREEMANABDUL-SABUR9948520499485204 311D MEADOW WOOD COURT, LAWRENCEVILLE GA 30044* VIOLATION OF PROBATION$0NBGwinnett County SheriffCharges
03/20/2015 14:2103/21/2015 02:46ADAMSEDDIEBERNARD9951821799518217 499 NORTHSIDE CIR NW APT 203, ATLANTA GA 30309FAILURE TO APPEAR$957CBGwinnett County SheriffCharges
03/20/2015 14:1603/22/2015 21:08RODRIGUESTAUREANWAR9952298999522989 6000 HUNTER HALL CT, NORCROSS GA 30071*NO VALID LICENSE$860ORNorcross PoliceCharges
03/20/2015 14:1603/22/2015 21:08RODRIGUESTAUREANWAR9952298999522989 6000 HUNTER HALL CT, NORCROSS GA 30071SUSP TAG$810ORNorcross PoliceCharges
03/20/2015 14:1603/22/2015 21:08RODRIGUESTAUREANWAR9952298999522989 6000 HUNTER HALL CT, NORCROSS GA 30071POSS MARIJUANA<1OZ$665ORNorcross PoliceCharges
03/20/2015 14:1603/22/2015 21:08RODRIGUESTAUREANWAR9952298999522989 6000 HUNTER HALL CT, NORCROSS GA 30071HOLD FOR OTHER AGENCY$0NBNorcross PoliceCharges
03/20/2015 14:0103/23/2015 12:05FRAZIERJAMESBARNES9906786799067867 4216 LEE RD, SNELLVILLE GA 30039Violation of Probation$0NBGwinnett County SheriffCharges
03/20/2015 13:5103/25/2015 20:21MENDEZLEIGHANN9948905499489054 1886 PATTERSON CIR, LAWRENCEVILLE GA 30044THEFT BY SHOPLIFTING$355ORSuwanee PoliceCharges
03/20/2015 13:5103/25/2015 20:21MENDEZLEIGHANN9948905499489054 1886 PATTERSON CIR, LAWRENCEVILLE GA 30044@ * THEFT BY SHOPLIFTING$11200SBSuwanee PoliceCharges
03/20/2015 13:4903/20/2015 21:03LEWINLAURENELIZABETH9932509699325096 1033 PARK FOREST CT, LILBURN GA 30047* DRIVING WHILE LIC SUSP/REVOKED$705SBGwinnett County PoliceCharges
03/20/2015 13:4203/20/2015 22:03PEREZ SAJCHEJORGEADOLFO9952298899522988APT A-2 3554 SHALLOWFORD ROAD, ATLANTA GA 30341*NO VALID LICENSE$860CBNorcross PoliceCharges
03/20/2015 13:4203/20/2015 22:03PEREZ SAJCHEJORGEADOLFO9952298899522988APT A-2 3554 SHALLOWFORD ROAD, ATLANTA GA 30341FAILURE TO USE CHILD RESTRANIT$50CBNorcross PoliceCharges
03/20/2015 13:3903/26/2015 13:34PINEDAMARCELLUSMATTHEW9942628899426288 3136 PARTAIN RD NW, MONROE GA 30656POSSESSION OF LESS THAT 1 OZ$0NBGwinnett County SheriffCharges
03/20/2015 13:31WRIGHTJOSEPHPATRICK9952016399520163 2868 BOLD SPRINGS RD, DACULA GA 30019@ * THEFT BY RECEIVING$5700SBGwinnett County SheriffCharges
03/20/2015 13:31WRIGHTJOSEPHPATRICK9952016399520163 2868 BOLD SPRINGS RD, DACULA GA 30019OWNING OR OPERATING A CHOP SHOP$5700SBGwinnett County SheriffCharges
03/20/2015 13:31WRIGHTJOSEPHPATRICK9952016399520163 2868 BOLD SPRINGS RD, DACULA GA 30019@ * THEFT BY RECEIVING$3500SBGwinnett County SheriffCharges
03/20/2015 13:31WRIGHTJOSEPHPATRICK9952016399520163 2868 BOLD SPRINGS RD, DACULA GA 30019@ * THEFT BY RECEIVING$5700SBGwinnett County SheriffCharges
03/20/2015 13:31WRIGHTJOSEPHPATRICK9952016399520163 2868 BOLD SPRINGS RD, DACULA GA 30019@ * SIMPLE BATTERY$1300SBGwinnett County SheriffCharges
03/20/2015 13:23CARRERA-TOLENTINOLUISF9952280199522801 1008 LIA HILLS DR, NORCROSS GA 30071@ * BURGLARY$5700SBNorcross PoliceCharges
03/20/2015 13:23CARRERA-TOLENTINOLUISF9952280199522801 1008 LIA HILLS DR, NORCROSS GA 30071@ * BURGLARY$9000SBNorcross PoliceCharges
03/20/2015 13:2303/22/2015 10:51COGERSAMUEL BERNARD9947374599473745 1304 EDDIE CRAIG CT, MCDONOUGH GA 30252OTHER OFFENSE$0NBGwinnett County SheriffCharges
03/20/2015 13:2103/23/2015 14:13JONESMICHAELTAYLOR9951363499513634 5501 AUTUMN PLAIN DRIVE, BRASELTON GA 30517DUI$0NBGwinnett County SheriffCharges
03/20/2015 13:0303/20/2015 20:17KINSELLALILLIANLEONOR9800429398004293 2674 SHAYWEN CIR, SNELLVILLE GA 30078@ * BATTERY$2400SBSnellville PoliceCharges
03/20/2015 13:0303/20/2015 20:17KINSELLALILLIANLEONOR9800429398004293 2674 SHAYWEN CIR, SNELLVILLE GA 30078@ * BATTERY$1300SBSnellville PoliceCharges
03/20/2015 13:02COBBZENTAVIUSDAMANTE'9946242099462420 593 SAVANNAH ROSE WAY, LAWRENCEVILLE GA 30045Violation of Probation$0NBGwinnett County SheriffCharges
03/20/2015 13:02COBBZENTAVIUSDAMANTE'9946242099462420 593 SAVANNAH ROSE WAY, LAWRENCEVILLE GA 30045* VIOLATION OF PROBATION$0NBGwinnett County SheriffCharges
03/20/2015 12:4703/21/2015 00:26HUMPHREYJESSIEJAMES9952298599522985 3134 NORTHWOODS LAKE CT, DULUTH GA 30096FAILURE TO APPEAR$180FIDuluth PoliceCharges
03/20/2015 12:4603/23/2015 17:58SAMPLERJOSHUAISAIAH9952298499522984 5794 HENRY BAILEY RD, SUGAR HILL GA 30518HOLD FOR OTHER AGENCY$0NBGwinnett County SheriffCharges
03/20/2015 12:4603/23/2015 17:58SAMPLERJOSHUAISAIAH9952298499522984 5794 HENRY BAILEY RD, SUGAR HILL GA 30518FOLLOWING TOO CLOSELY$96ORGwinnett County SheriffCharges
03/20/2015 12:4603/23/2015 17:58SAMPLERJOSHUAISAIAH9952298499522984 5794 HENRY BAILEY RD, SUGAR HILL GA 30518FAILURE TO MAINTAIN INSURANCE$299ORGwinnett County SheriffCharges
03/20/2015 12:4603/23/2015 17:58SAMPLERJOSHUAISAIAH9952298499522984 5794 HENRY BAILEY RD, SUGAR HILL GA 30518*NO DRIVERS LICENSE$705ORGwinnett County SheriffCharges
03/20/2015 11:4103/20/2015 18:45BRISCOEKENTONEUGENE9952298399522983 592 WEBB GIN HOUSE RD, LAWRENCEVILLE GA 30045@ * BATTERY$1300CBGwinnett County PoliceCharges
03/20/2015 11:2803/20/2015 17:42DAVISROASIAARMANI9952298299522982 3601 SUNBRIDGE DR, SNELLVILLE GA 30039* GIVING FALSE NAME OR INFORMATION$1300SBGwinnett County PoliceCharges
03/20/2015 11:2803/20/2015 17:42DAVISROASIAARMANI9952298299522982 3601 SUNBRIDGE DR, SNELLVILLE GA 30039@ * THEFT BY SHOPLIFTING$650SBGwinnett County PoliceCharges
03/20/2015 11:13REIDDARNELL9945566099455660 1135 JEFFERSON ST, ATLANTA GA 30318* VIOLATION OF PROBATION$0NBGwinnett County SheriffCharges
03/20/2015 11:07TERRELLTRAVISDEWAYNE9950214399502143 2894 LEM EDWARDS RD, COLBERT GA 30628* VIOLATION OF PROBATION$0NBGwinnett County SheriffCharges
03/20/2015 11:0403/23/2015 10:07RHYEJAMIEDANIEL9952298199522981 4145 RIDGEFAIR DR, CUMMING GA 30040EXPIRED OR NO LICENSE PLATE OR DECAL$152ORGA State PatrolCharges
03/20/2015 11:0403/23/2015 10:07RHYEJAMIEDANIEL9952298199522981 4145 RIDGEFAIR DR, CUMMING GA 30040IMPROPER NAME AND ADDRESS$40ORGA State PatrolCharges
03/20/2015 11:0403/23/2015 10:07RHYEJAMIEDANIEL9952298199522981 4145 RIDGEFAIR DR, CUMMING GA 30040HOLD FOR OTHER AGENCY$0NBGA State PatrolCharges
03/20/2015 11:0403/23/2015 10:07RHYEJAMIEDANIEL9952298199522981 4145 RIDGEFAIR DR, CUMMING GA 30040HOLD FOR OTHER AGENCY$0NBGA State PatrolCharges
03/20/2015 10:5103/20/2015 22:21WINFREYSANTRICECHANELLE9952298099522980 2411 BEECHER RD SW, ATLANTA GA 30311@ * THEFT BY RECEIVING$1300SBGwinnett County SheriffCharges
03/20/2015 10:5103/20/2015 22:21WINFREYSANTRICECHANELLE9952298099522980 2411 BEECHER RD SW, ATLANTA GA 30311@ * THEFT BY DECEPTION$1300SBGwinnett County SheriffCharges
03/20/2015 10:4503/25/2015 10:44TAYLORDAISHAWNRAMARE9951601699516016 5711 TUNBRIDGE WELLS RD, LITHONIA GA 30058Failure to Appear$1623.25CBDuluth PoliceCharges
03/20/2015 10:4003/20/2015 17:53GONZALEZ-CONTRERASGAMALIEL99392484993924843 3325 CHAMBLEE TUCKER DR, TUCKER GA 30341*DRIVING W/O LICENSE-FAIL OBTAIN 30 DAYS$705CBGwinnett County PoliceCharges
03/20/2015 10:4003/20/2015 17:53GONZALEZ-CONTRERASGAMALIEL99392484993924843 3325 CHAMBLEE TUCKER DR, TUCKER GA 30341MIRROR REQUIRED IF VISION OBST$68CBGwinnett County PoliceCharges
03/20/2015 10:4003/20/2015 17:53GONZALEZ-CONTRERASGAMALIEL99392484993924843 3325 CHAMBLEE TUCKER DR, TUCKER GA 30341NO BRAKE LIGHTS$56CBGwinnett County PoliceCharges
03/20/2015 10:4003/20/2015 17:53GONZALEZ-CONTRERASGAMALIEL99392484993924843 3325 CHAMBLEE TUCKER DR, TUCKER GA 30341BRAKE LIGHTS REQUIRED$68CBGwinnett County PoliceCharges
03/20/2015 10:18BROWNTOMMYJAMES9952297999522979 708 BEECH ST, SOCIAL CIRCLE GA 30025@ * CHILD MOLESTATION/AGG CHILD MOLES$0NBGwinnett County SheriffCharges
03/20/2015 10:0203/20/2015 13:37NGUYENDUNGTHI9952297899522978 6035 SINGLETON RD, NORCROSS GA 30093* AFFRAY$1850CBGwinnett County PoliceCharges
03/20/2015 10:0203/20/2015 13:37NGUYENDUNGTHI9952297899522978 6035 SINGLETON RD, NORCROSS GA 30093@ * BATTERY$1850CBGwinnett County PoliceCharges
03/20/2015 10:0103/20/2015 16:54LEVIETHUNG9952297799522977 1175 GRACE DR, FOREST PARK GA 30297* AFFRAY$1850CBGwinnett County PoliceCharges
03/20/2015 10:0103/20/2015 16:54LEVIETHUNG9952297799522977 1175 GRACE DR, FOREST PARK GA 30297@ * SIMPLE BATTERY$1850CBGwinnett County PoliceCharges
03/20/2015 09:4003/20/2015 12:56HALECHRISTOPHERGEORGE9952297599522975 3175 POND RIDGE TRAIL, SNELLVILLE GA 30078@ * THEFT BY TAKING$27700SBGwinnett County SheriffCharges
03/20/2015 09:34HALEPATTILOU9952297499522974 3175 POND RIDGE TRAIL, SNELLVILLE GA 30078@ * THEFT BY TAKING$27700CBGwinnett County SheriffCharges
03/20/2015 09:2403/20/2015 13:41CHAVIS-DUNCANDONNALASCONA9952297399522973 3841 MOUNTAIN COVE RD, SNELLVILLE GA 30039SPEEDING$215SBGwinnett County SheriffCharges
03/20/2015 09:2403/20/2015 13:41CHAVIS-DUNCANDONNALASCONA9952297399522973 3841 MOUNTAIN COVE RD, SNELLVILLE GA 30039* DRIVING WHILE LICENSE WITHDRAWN$705SBGwinnett County SheriffCharges
03/20/2015 08:36NOLASCO-GOMEZWHITNEYMICHELLE9947277399472773 68 W MOCKINGBIRD LANE, LAWRENCEVILLE GA 30044*VGCSA INTENT DISTRIBUTE C/S$0NBGwinnett County SheriffCharges
03/20/2015 08:3003/20/2015 12:24LOVETTRICKEYLEE9952297299522972B 5084 BEVERLY GLENN LANE, NORCROSS GA 30092FAIL TO SIGNAL W/CHANGE LN$210CBNorcross PoliceCharges
03/20/2015 08:3003/20/2015 12:24LOVETTRICKEYLEE9952297299522972B 5084 BEVERLY GLENN LANE, NORCROSS GA 30092POSS MARIJUANA<1OZ$665CBNorcross PoliceCharges
03/20/2015 08:08SMITHMARQUISANTWAN9950558999505589 613 KILKENNY CIR, LITHONIA GA 30058FAILURE TO APPEAR$0NBGwinnett County SheriffCharges
03/20/2015 07:57DILLINDERKYLEJACOB9952297199522971 1590 HASTINGS TERRACE, ALPHARETTA GA 30005* DUI - DRUGS/ALCOHOL$2006SBGwinnett County PoliceCharges
03/20/2015 07:57DILLINDERKYLEJACOB9952297199522971 1590 HASTINGS TERRACE, ALPHARETTA GA 30005FOLLOWING TOO CLOSE$96SBGwinnett County PoliceCharges
03/20/2015 07:57DILLINDERKYLEJACOB9952297199522971 1590 HASTINGS TERRACE, ALPHARETTA GA 30005*VGCSA OF C/S$4600SBGwinnett County PoliceCharges
03/20/2015 07:02BIRDSONGDAVIDLAMONT9936862699368626 521 LOWNDES HILL RD, GREENVILLE SC 29607* VIOLATION OF PROBATION$0NBPrisoner Transport ServicesCharges
03/20/2015 07:02BIRDSONGDAVIDLAMONT9936862699368626 521 LOWNDES HILL RD, GREENVILLE SC 29607HOLD FOR OTHER AGENCY$0NBPrisoner Transport ServicesCharges
03/20/2015 07:02BIRDSONGDAVIDLAMONT9936862699368626 521 LOWNDES HILL RD, GREENVILLE SC 29607HOLD FOR OTHER AGENCY$0NBPrisoner Transport ServicesCharges
03/20/2015 06:5103/20/2015 12:54RODRIGUEZELIJAHNATHANIEL9949813599498135 3217 LAVENTURE DR, ATLANTA GA 30341RECKLESS DRIVING$425SBGwinnett County PoliceCharges
03/20/2015 06:5103/20/2015 12:54RODRIGUEZELIJAHNATHANIEL9949813599498135 3217 LAVENTURE DR, ATLANTA GA 30341POSSESSION OF LESS THAT 1 OZ$585SBGwinnett County PoliceCharges
03/20/2015 06:1603/20/2015 10:46SMITHSTANLEY9952297099522970 2100 UNIWATTEE TRL, DACULA 30019SPEEDING$215SBGwinnett County PoliceCharges
03/20/2015 06:1603/20/2015 10:46SMITHSTANLEY9952297099522970 2100 UNIWATTEE TRL, DACULA 30019*NO DRIVERS LICENSE$705SBGwinnett County PoliceCharges
03/20/2015 06:15SUDERKYLESTEPHEN9940047399400473 3040 COUNTRY FARMS DR, SNELLVILLE GA 30039@ * AGGRAVATED ASSAULT$0NBGwinnett County SheriffCharges
03/20/2015 06:15SUDERKYLESTEPHEN9940047399400473 3040 COUNTRY FARMS DR, SNELLVILLE GA 30039@ * BATTERY$1300CBGwinnett County SheriffCharges
03/20/2015 04:28STRICKLANDSTEPHAN9952296999522969 3517 GREENWOOD AVE, LOUISVILLE KY 40211* GIVING FALSE NAME OR INFORMATION$1300SBGwinnett County PoliceCharges
03/20/2015 03:0403/20/2015 05:32GRAYBEALBRIANDOUGLAS9700718497007184 1041 STONEKIRK TR, LAWRENCEVILLE GA 30043* DUI-ALCOHOL$2006SBGwinnett County SheriffCharges
03/20/2015 02:4803/20/2015 04:47KIMSAEMI9952296899522968 2319 WHITE ALDER DR, BUFORD GA 30519*DUI ALCOHOL$1230SBLawrenceville PoliceCharges
03/20/2015 02:4803/20/2015 04:47KIMSAEMI9952296899522968 2319 WHITE ALDER DR, BUFORD GA 30519NO LIC ON PERSON$297SBLawrenceville PoliceCharges
03/20/2015 02:4803/20/2015 04:47KIMSAEMI9952296899522968 2319 WHITE ALDER DR, BUFORD GA 30519DRIVING UNSAFE/IMPROPERLY RQUIPPED VEH.$133SBLawrenceville PoliceCharges
03/20/2015 02:4803/20/2015 04:47KIMSAEMI9952296899522968 2319 WHITE ALDER DR, BUFORD GA 30519FAIL MAINTAIN LANE$133SBLawrenceville PoliceCharges
03/20/2015 01:5703/20/2015 05:28SCHMIDTTHOMASLEIGHTON9946026199460261 3650 BRUSHY WOOD DR, LOGANVILLE GA 30052* DUI ALCOHOL$1230SBLawrenceville PoliceCharges
03/20/2015 01:5703/20/2015 05:28SCHMIDTTHOMASLEIGHTON9946026199460261 3650 BRUSHY WOOD DR, LOGANVILLE GA 30052LIGHTED HEADLIGHTS/OTHER LIGHTS REQ$88SBLawrenceville PoliceCharges
03/20/2015 01:5703/20/2015 05:28SCHMIDTTHOMASLEIGHTON9946026199460261 3650 BRUSHY WOOD DR, LOGANVILLE GA 30052NO LICENSE ON PERSON$133SBLawrenceville PoliceCharges
03/20/2015 01:5703/20/2015 05:28SCHMIDTTHOMASLEIGHTON9946026199460261 3650 BRUSHY WOOD DR, LOGANVILLE GA 30052RECKLESS DRIVING$633SBLawrenceville PoliceCharges
03/20/2015 01:4803/20/2015 04:59TRANCONGQUY9945326699453266 2790 RUSTICWOOD DR, SNELLVILLE GA 30078* DUI-DRUGS$2006SBGwinnett County PoliceCharges
03/20/2015 01:4803/20/2015 04:59TRANCONGQUY9945326699453266 2790 RUSTICWOOD DR, SNELLVILLE GA 30078POSSESSION OF LESS THAN OZ MARIJUANA$585SBGwinnett County PoliceCharges
03/20/2015 01:4803/20/2015 04:59TRANCONGQUY9945326699453266 2790 RUSTICWOOD DR, SNELLVILLE GA 30078IMPROPER/ERRATIC LANE CHANGE$68SBGwinnett County PoliceCharges
03/20/2015 01:4803/20/2015 04:59TRANCONGQUY9945326699453266 2790 RUSTICWOOD DR, SNELLVILLE GA 30078TAG LIGHT VISIBLE 50 FT.$68SBGwinnett County PoliceCharges
03/20/2015 01:1903/20/2015 04:58RIDGEWAYDANIELCURTIS9910463199104631 5372 ROCKY BLUFF WAY, LULA GA 30554* VGCSA-SCHEDULE II$5700SBSuwanee PoliceCharges
03/20/2015 01:1903/20/2015 04:58RIDGEWAYDANIELCURTIS9910463199104631 5372 ROCKY BLUFF WAY, LULA GA 30554DRIVING WITHOUT HEADLIGHTS$68SBSuwanee PoliceCharges
03/20/2015 01:1403/20/2015 04:38HENDERSONLINDSAYMARIE9919049699190496 2910 BUFORD DR APT 1122, BUFORD GA 30519*VGCSA OF C/S$5700SBSuwanee PoliceCharges
03/20/2015 00:2703/21/2015 12:14RODRIGUEZGLENDALISSTEE9951231799512317 5856 HILLSIDE DR, ATLANTA GA 30340Failure to Appear$1240CBGwinnett County PoliceCharges
03/20/2015 00:1803/20/2015 02:38GRAYBEALBRIANDOUGLAS9700718497007184 1041 STONEKIRK TR, LAWRENCEVILLE GA 30043* DUI-ALCOHOL$2006SBGwinnett County PoliceCharges
03/19/2015 23:3103/25/2015 18:03BOONEKENDALLELON9951043699510436 3242 PAGODN TRC, LAWRENCEVILLE GA 30043FAILURE TO APPEAR$0NBGwinnett County SheriffCharges
03/19/2015 23:3003/20/2015 13:16HAZENSARAEVELYN9952296799522967 6420 WINDSOR PLACE DR, NORCROSS GA 30092HOLD FOR OTHER AGENCY$0NBGwinnett County SheriffCharges
03/19/2015 23:1503/20/2015 20:52TRONRUDMADELINEANN9941666899416668 3440 KATES WAY, DULUTH GA 30097HOLD FOR OTHER AGENCY$0NBDuluth PoliceCharges
03/19/2015 23:00ATWOODGREGORYAARON9945238799452387 3484 CACTUS CT, AUGUSTA GA 30096* VIOLATION OF PROBATION$0NBGwinnett County SheriffCharges
03/19/2015 22:35BAXTERDELVYN9937375699373756 428 N CHESTNUT ST, LAWRENCEVILLE GA 30046* POSS OF FIREARM BY CONVICTED FELON$11200SBGwinnett County SheriffCharges
03/19/2015 22:35BAXTERDELVYN9937375699373756 428 N CHESTNUT ST, LAWRENCEVILLE GA 30046HOLD FOR OTHER AGENCY$0NBGwinnett County SheriffCharges
03/19/2015 22:2203/20/2015 20:07MOYD-STEELESHERICKAMONIQUE9902646599203201 894 WHITEHALL DR, LAWRENCEVILLE GA 30043HOLD FOR OTHER AGENCY$0NBGwinnett County SheriffCharges
03/19/2015 22:2203/20/2015 20:07MOYD-STEELESHERICKAMONIQUE9902646599203201 894 WHITEHALL DR, LAWRENCEVILLE GA 30043FAILURE TO APPEAR$305CBGwinnett County SheriffCharges
03/19/2015 22:1303/20/2015 02:40BETANCESARIELNMN9951787999517879 240 SASNETT DR, LAWRENCEVILLE GA 30046FAILURE TO APPEAR$319CBGwinnett County SheriffCharges
03/19/2015 22:03FOREMANXAVIERDAWANTE9945858699458586 1738 CAMPERDOWN CIR, DECATUR GA 30345Violation of Probation$0NBGwinnett County SheriffCharges
03/19/2015 22:03FOREMANXAVIERDAWANTE9945858699458586 1738 CAMPERDOWN CIR, DECATUR GA 30345* VIOLATION OF PROBATION$0NBGwinnett County SheriffCharges
03/19/2015 22:0003/27/2015 22:05LAINGJEAN PAULPHILLIP9952296599522965 3967 YELLOW PINE DR SW, LILBURN GA 30047@ * BATTERY$1300SBGwinnett County SheriffCharges
03/19/2015 22:0003/27/2015 22:05LAINGJEAN PAULPHILLIP9952296599522965 3967 YELLOW PINE DR SW, LILBURN GA 30047CRUELTY TO CHILDREN-3RD DEGREE$1300SBGwinnett County SheriffCharges
03/19/2015 22:0003/27/2015 22:05LAINGJEAN PAULPHILLIP9952296599522965 3967 YELLOW PINE DR SW, LILBURN GA 30047Failure to Appear$350CBGwinnett County SheriffCharges
03/19/2015 21:5603/26/2015 22:01HUNTERKENNETHMAURICE9935889099358890 3164 YACHET CT, SNELLVILLE GA 30039FAILURE TO APPEAR$0NBGwinnett County SheriffCharges
03/19/2015 21:5603/26/2015 22:01HUNTERKENNETHMAURICE9935889099358890 3164 YACHET CT, SNELLVILLE GA 30039FAILURE TO APPEAR$783.5CBGwinnett County SheriffCharges
03/19/2015 21:4203/20/2015 01:36PARRISHDEBORAHLYNETTE9952296399522963 2250 PELICAN DR RD 327, NORCROSS GA 30071MAKING IMPROPER U-TURN$2950SBGwinnett County SheriffCharges
03/19/2015 21:4203/20/2015 01:36PARRISHDEBORAHLYNETTE9952296399522963 2250 PELICAN DR RD 327, NORCROSS GA 30071* DRIVING WHILE LIC SUSP/REVOKED$2950SBGwinnett County SheriffCharges
03/19/2015 21:2903/27/2015 13:33GIUFFRIDACASEYWALTER9400683094006830 1916 ROBERTS LANE, LAWRENCEVILLE GA 30043@ * BATTERY$1300SBGwinnett County PoliceCharges
03/19/2015 21:2903/27/2015 13:33GIUFFRIDACASEYWALTER9400683094006830 1916 ROBERTS LANE, LAWRENCEVILLE GA 30043FAILURE TO APPEAR$215CBGwinnett County PoliceCharges
03/19/2015 21:0503/20/2015 01:05ANDRADE-MARTINEZRICARDO9952296199522964 83 FOREST PL, LAWRENCEVILLE GA 30046SPEEDING / 1ST OFFENSE / 19-23 OVER$250SBLawrenceville PoliceCharges
03/19/2015 21:0503/20/2015 01:05ANDRADE-MARTINEZRICARDO9952296199522964 83 FOREST PL, LAWRENCEVILLE GA 30046DRIVING WITHOUT VALID LICENSE$803SBLawrenceville PoliceCharges
03/19/2015 20:4303/26/2015 21:55WHITFIELDJACKOAKLEY9925988799259887 1800 NORTH RD, SNELLVILLE GA 30078FAILURE TO MAINTAIN INSURANCE$299SBGwinnett County PoliceCharges
03/19/2015 20:4303/26/2015 21:55WHITFIELDJACKOAKLEY9925988799259887 1800 NORTH RD, SNELLVILLE GA 30078OPERATING VEH WITH SUSP/CANC/REV REGISTR$705SBGwinnett County PoliceCharges
03/19/2015 20:4303/26/2015 21:55WHITFIELDJACKOAKLEY9925988799259887 1800 NORTH RD, SNELLVILLE GA 30078DUI-ALCOHOL & DRUGS COMBINED$2006SBGwinnett County PoliceCharges
03/19/2015 20:4303/26/2015 21:55WHITFIELDJACKOAKLEY9925988799259887 1800 NORTH RD, SNELLVILLE GA 30078* OBSTRUCTION LAW ENFORCEMENT OFFICER$1300SBGwinnett County PoliceCharges
03/19/2015 20:4303/26/2015 21:55WHITFIELDJACKOAKLEY9925988799259887 1800 NORTH RD, SNELLVILLE GA 30078*HIT AND RUN$420SBGwinnett County PoliceCharges
03/19/2015 20:1403/19/2015 23:48CUMBERBATCHMARGARET9952296099522960 326 CHASE COMMON DR, NORCROSS GA 30071HOLD FOR OTHER AGENCY$0NBGwinnett County SheriffCharges
03/19/2015 19:5103/20/2015 04:36SMITHKARENCEMONE9952295999522959 4160 JACKIE DR, DOUGLASVILLE GA 30135*MAUFACTUR/POSS/PURCH/DIST/SALE MARIJUAN$5700SBGwinnett County PoliceCharges
03/19/2015 19:5103/20/2015 04:36SMITHKARENCEMONE9952295999522959 4160 JACKIE DR, DOUGLASVILLE GA 30135*LESS THAN AN OZ OF MARIJ.$1300SBGwinnett County PoliceCharges
03/19/2015 18:5903/20/2015 00:43GEVARGHESESAMUEL9952295799522957 2240 CHARLESTON OAKS CIR, LAWRENCEVILLE GA 30043* CRIMINAL TRESPASS$1300SBGwinnett County PoliceCharges
03/19/2015 18:5903/20/2015 00:43GEVARGHESESAMUEL9952295799522957 2240 CHARLESTON OAKS CIR, LAWRENCEVILLE GA 30043* CRIMINAL TRESPASS$1300SBGwinnett County PoliceCharges
03/19/2015 18:50CARRERAARTUROALVARDO9950178099501780 4513 BRUCW STREET, ATLANTA GA 30340*BURGLARY 1ST DEGREE$0NBNorcross PoliceCharges
03/19/2015 18:5003/25/2015 13:47MOJICAJUSTINJUVENCO9950806399508063 4498 BUFORD HWY, NORCROSS GA 30071Failure to Appear$730CBNorcross PoliceCharges
03/19/2015 18:3703/19/2015 22:16SUAZO-DIAZARACELYNOLVIA9939741299397412 188 STADLER RUN, LAWRENCEVILLE GA 30044*NO DRIVERS LICENSE$705CBGwinnett County PoliceCharges
03/19/2015 18:2403/21/2015 17:29DELVAEUGENEL9950770599507705 204 WESLEY WAY, DECATUR GA 30034*DRIVING ON A SUSPENDED LICENSE$860ORNorcross PoliceCharges
03/19/2015 18:2403/21/2015 17:29DELVAEUGENEL9950770599507705 204 WESLEY WAY, DECATUR GA 30034FAILURE TO OBEY TRAFFIC CONTROL DEVICE$210ORNorcross PoliceCharges
03/19/2015 18:1203/24/2015 05:41SYKESSABIRLIREN ALLAH9950300999503009 5212 SAINT CLAIR DR NE, ATLANTA GA 30329* DUI - DRUGS/ALCOHOL$0NBGwinnett County SheriffCharges
03/19/2015 18:0403/29/2015 16:36PINEDAAUSENCIO9801118598011185 1018 LEGACY LN, LAWRENCEVILLE GA 30044OTHER OFFENSE$0NBGwinnett County SheriffCharges
03/19/2015 17:1903/20/2015 17:01PARTINJORDANANDREW9925886299258862 862 BRIGHTON DRIVE, LAWRENCEVILLE GA 30043* DUI-DRUGS$2400SBGwinnett County PoliceCharges
03/19/2015 17:1903/20/2015 17:01PARTINJORDANANDREW9925886299258862 862 BRIGHTON DRIVE, LAWRENCEVILLE GA 30043* POSS OF A WEAPON DURING A CRIME$2950SBGwinnett County PoliceCharges
03/19/2015 17:1903/20/2015 17:01PARTINJORDANANDREW9925886299258862 862 BRIGHTON DRIVE, LAWRENCEVILLE GA 30043* POSS OF A WEAPON DURING A CRIME$2950SBGwinnett County PoliceCharges
03/19/2015 17:1903/20/2015 17:01PARTINJORDANANDREW9925886299258862 862 BRIGHTON DRIVE, LAWRENCEVILLE GA 30043*POSS AND USE OF DRUG RELATED$1300SBGwinnett County PoliceCharges
03/19/2015 17:1903/20/2015 17:01PARTINJORDANANDREW9925886299258862 862 BRIGHTON DRIVE, LAWRENCEVILLE GA 30043*VGCSA OF C/S$4050SBGwinnett County PoliceCharges
03/19/2015 17:1603/20/2015 16:17RAMOSDANIEL9951323499513234 420 HILLCREST RD NW APT 213, LILBURN GA 30047Violation of Probation$0ORGwinnett County SheriffCharges
03/19/2015 16:5703/20/2015 01:20GUEVARAJULIANALFONSO9943699899436998 2401 WHITE BLUFF WAY, BUFORD GA 30519@ * THEFT BY SHOPLIFTING$1300SBGwinnett County PoliceCharges
03/19/2015 16:5703/20/2015 10:44DYERDYLANANDREW9952295399522953 1105 WINDY HILL PT, LAWRENCEVILLE GA 30046* THEFT BY SHOPLIFTING$788SBLawrenceville PoliceCharges
03/19/2015 16:3703/19/2015 23:02MORALES-PAXTORJOSE9952295299522952 1709 PARK CROSSING WAY, LILBURN GA 30047OPERATING VEH WITH SUSP/CANC/REV REGISTR$705CBGwinnett County SheriffCharges
03/19/2015 16:3703/19/2015 23:02MORALES-PAXTORJOSE9952295299522952 1709 PARK CROSSING WAY, LILBURN GA 30047*DRIVING W/O LICENSE-FAIL OBTAIN 30 DAYS$705CBGwinnett County SheriffCharges
03/19/2015 16:2903/19/2015 22:14SMITHMARIANNEELIZABETH9947530199475301 2416 JADE DR, LAWRENCEVILLE GA 30044@ * THEFT BY DECEPTION$1300SBGwinnett County SheriffCharges
03/19/2015 16:2903/19/2015 22:14SMITHMARIANNEELIZABETH9947530199475301 2416 JADE DR, LAWRENCEVILLE GA 30044@ * THEFT BY RECEIVING$5700SBGwinnett County SheriffCharges
03/19/2015 16:2003/19/2015 22:05DICARLOJOSEPHTHOMAS9952295199522951 1470 LEISURE LAKE DR, LAWRENCEVILLE GA 30044@ * BURGLARY$5700SBGwinnett County SheriffCharges
03/19/2015 16:1003/24/2015 15:43BUKERWILLIAMTHOMAS9901550199015501 2990 PASS DRIVE, BUFORD GA 30518@ * THEFT BY SHOPLIFTING$2400SBGwinnett County PoliceCharges
03/19/2015 16:0003/19/2015 20:11BENNETTTIMOTHYDARRYL9927477699274776 3009 THOMPSON MILL RD, BUFORD GA 30519EXPIRED OR NO TAG$172SBAuburn PDCharges
03/19/2015 16:0003/19/2015 20:11BENNETTTIMOTHYDARRYL9927477699274776 3009 THOMPSON MILL RD, BUFORD GA 30519*DRIVING WHILE LIC. SUSP/REVOKED$707SBAuburn PDCharges
03/19/2015 16:0003/19/2015 20:11BENNETTTIMOTHYDARRYL9927477699274776 3009 THOMPSON MILL RD, BUFORD GA 30519IMPROPER DISPLAY OF LICENSE PLATE$117SBAuburn PDCharges
03/19/2015 15:54MAYFIELDMICHAELDAVID9600189496001894 969 CREEK COVE WAY, LOGANVILLE GA 30052Violation of Probation$0NBGwinnett County PoliceCharges
03/19/2015 15:54MAYFIELDMICHAELDAVID9600189496001894 969 CREEK COVE WAY, LOGANVILLE GA 30052FAILURE TO APPEAR$933CBGwinnett County PoliceCharges
03/19/2015 15:54MAYFIELDMICHAELDAVID9600189496001894 969 CREEK COVE WAY, LOGANVILLE GA 30052* VIOLATION OF PROBATION$0NBGwinnett County PoliceCharges
03/19/2015 15:4703/21/2015 15:15ANDREWSBRANDONMAURICE9948921799489217APT F-4 373 STONE MOUNTAIN ST, LAWRENCEVILLE GA 30046POSSESSION OF MARIJUANA <1 OZ.$654ORLawrenceville PoliceCharges
03/19/2015 15:4703/21/2015 15:15ANDREWSBRANDONMAURICE9948921799489217APT F-4 373 STONE MOUNTAIN ST, LAWRENCEVILLE GA 30046DISORDERLY CONDUCT$439ORLawrenceville PoliceCharges
03/19/2015 15:32GRIFFINSTEPHENLARRY WAYNE9945094699450946 733 BARTOW DR, DACULA GA 30019* VIOLATION OF PROBATION$0NBGwinnett County SheriffCharges
03/19/2015 15:2403/19/2015 20:30WATSONDENEENOELLE9952295099522950 6046 TRAIL HIKES DR, SUGAR HILL GA 30518@ * BATTERY$2400SBGwinnett County SheriffCharges
03/19/2015 15:1403/21/2015 14:38PARKERWALTERDEON9952294999522949 429 LAKE KNOLL DR, LILBURN GA 30047*VGCSA LESS THAN 1 OZ.$1150.25ORDuluth PoliceCharges
03/19/2015 15:0703/21/2015 02:31KILLERSMARCUS9952294899522948 5159 W MOUNTAIN ST, STONE MOUNTAIN GA 30083SPEEDING$155ORLilburn PoliceCharges
03/19/2015 15:0703/21/2015 02:31KILLERSMARCUS9952294899522948 5159 W MOUNTAIN ST, STONE MOUNTAIN GA 30083*DRIVING WHILE LIC SUSP/REV$715ORLilburn PoliceCharges
03/19/2015 15:0703/21/2015 02:31KILLERSMARCUS9952294899522948 5159 W MOUNTAIN ST, STONE MOUNTAIN GA 30083FAILURE TO CHANGE ADDRESS ON D/L$35ORLilburn PoliceCharges
03/19/2015 14:55PERRYTRACYLEE9949999299499992 3612 JOHN CARROL DRIVE, DECATUR GA 30034Violation of Probation$0NBGwinnett County SheriffCharges
03/19/2015 14:55PERRYTRACYLEE9949999299499992 3612 JOHN CARROL DRIVE, DECATUR GA 30034* VIOLATION OF PROBATION$0NBGwinnett County SheriffCharges
03/19/2015 14:4303/19/2015 23:03WILLIAM-RICEROBERTL9952294799522947 4142 STONE MOUNTAIN HWY, LILBURN GA 30047FAILURE TO APPEAR$315CBGwinnett County PoliceCharges
03/19/2015 14:18CHILDSWESLEYRAY9937003799370037 4435 ROSS ESTATES CT, SNELLVILLE GA 30039* VIOLATION OF PROBATION$0NBProbationCharges
03/19/2015 14:16ROGERSCURTISLEE9951420499514204 1016 6TH PLACE SOUTH, PHENIOX CITY AL 36867HOLD FOR COURT$0NBGwinnett County SheriffCharges
03/19/2015 14:0903/19/2015 15:07CHOEMICHAEL9952294499522944 3555 RIVERS END PLACE, BUFORD GA 30519@ * THEFT BY SHOPLIFTING$0NBGwinnett County SheriffCharges
03/19/2015 14:0003/20/2015 20:47GAMBLEANDREWMCCOY9949280099492800 1287 PLYMOUTH DR SW, LILBURN GA 30047@ * THEFT BY RECEIVING$5700SBGwinnett County SheriffCharges
03/19/2015 13:5901/12/2015 10:53ROGERSCURTISLEE9951420499514204 1016 6TH PLACE SOUTH, PHENIOX CITY AL 36867* FORGERY-1ST DEGREE$0NBGwinnett County SheriffCharges
03/19/2015 13:5901/12/2015 10:53ROGERSCURTISLEE9951420499514204 1016 6TH PLACE SOUTH, PHENIOX CITY AL 36867* FORGERY-1ST DEGREE$0NBGwinnett County SheriffCharges
03/19/2015 13:5901/12/2015 10:53ROGERSCURTISLEE9951420499514204 1016 6TH PLACE SOUTH, PHENIOX CITY AL 36867*FORGERY 3RD DEGREE$0NBGwinnett County SheriffCharges
03/19/2015 13:5901/12/2015 10:53ROGERSCURTISLEE9951420499514204 1016 6TH PLACE SOUTH, PHENIOX CITY AL 36867* FORGERY-1ST DEGREE$0NBGwinnett County SheriffCharges
03/19/2015 13:5901/12/2015 10:53ROGERSCURTISLEE9951420499514204 1016 6TH PLACE SOUTH, PHENIOX CITY AL 36867* PAROLE VIOLATION$0NBGwinnett County SheriffCharges
03/19/2015 13:5903/19/2015 14:07ROGERSCURTISLEE9951420499514204 1016 6TH PLACE SOUTH, PHENIOX CITY AL 36867* FORGERY-1ST DEGREE$0NBGwinnett County SheriffCharges
03/19/2015 13:5903/19/2015 14:07ROGERSCURTISLEE9951420499514204 1016 6TH PLACE SOUTH, PHENIOX CITY AL 36867* FORGERY-1ST DEGREE$0NBGwinnett County SheriffCharges
03/19/2015 13:5903/19/2015 14:07ROGERSCURTISLEE9951420499514204 1016 6TH PLACE SOUTH, PHENIOX CITY AL 36867* PAROLE VIOLATION$0NBGwinnett County SheriffCharges
03/19/2015 13:5903/19/2015 14:07ROGERSCURTISLEE9951420499514204 1016 6TH PLACE SOUTH, PHENIOX CITY AL 36867HOLD FOR OTHER AGENCY$0NBGwinnett County SheriffCharges
03/19/2015 13:5903/19/2015 14:07ROGERSCURTISLEE9951420499514204 1016 6TH PLACE SOUTH, PHENIOX CITY AL 36867*FORGERY 3RD DEGREE$0NBGwinnett County SheriffCharges
03/19/2015 13:5903/19/2015 14:07ROGERSCURTISLEE9951420499514204 1016 6TH PLACE SOUTH, PHENIOX CITY AL 36867* FORGERY-1ST DEGREE$0NBGwinnett County SheriffCharges
03/19/2015 13:5901/12/2015 10:53ROGERSCURTISLEE9951420499514204 1016 6TH PLACE SOUTH, PHENIOX CITY AL 36867HOLD FOR OTHER AGENCY$0NBGwinnett County SheriffCharges
03/19/2015 13:52MURRAYDOMINIQUEJERMAINE9925680399256803 3176 CHRISTOPHERS BND, ELLENWOOD GA 30294* VIOLATION OF PROBATION$0NBGwinnett County SheriffCharges
03/19/2015 13:5003/29/2015 05:11LEEDARRIUSEDWARD ALEXANDER9950499699504996 130 CARRIAGE STATION DR, LAWRENCEVILLE GA 30046* VIOLATION OF PROBATION$0NBGwinnett County SheriffCharges
03/19/2015 13:4403/24/2015 05:42OROZCOMARIOOMAR9943752299437522 1362 HICKORY HILLS DR, BUFORD GA 30518* DRIVING WHILE LIC SUSP/REVOKED$0NBGwinnett County SheriffCharges
03/19/2015 13:33COLEJOSHUADUVALL9947246399472463 4402 MOON ST, ACWORTH GA 30101HOLD FOR COURT$0NBGwinnett County SheriffCharges
03/19/2015 13:2103/25/2015 18:24LOVEJAMESDAVID9918497999184979 742 ONETA DRIVE, NORCROSS GA 30093Violation of Probation$0NBProbationCharges
03/19/2015 13:19ALUSMAMITCHUMPINDER9950098099500980 503 BENTLEY CIR, BETHLEHEM GA 30620* VIOLATION OF PROBATION$0NBGwinnett County Correctional InstituteCharges
03/19/2015 13:1803/20/2015 17:45SHIELDSBROOKEELISE9935410699354106 957 ABBEY PARK WAY, LAWRENCEVILLE GA 30044VIOLATION OF PROBATION$0NBGA State PatrolCharges
03/19/2015 13:1103/20/2015 20:16HUBBERTBRITTANYNIKIA9951363599513635 1501 ASHBROOKE TRCE, STONE MOUNTAIN GA 30083* DUI - DRUGS/ALCOHOL$0NBGwinnett County SheriffCharges
03/19/2015 13:0903/24/2015 05:19HENAOLAURAMARIA9948882599488825 2103 PARKLAKE LN, NORCROSS GA 30092* VIOLATION OF PROBATION$0NBGwinnett County SheriffCharges
03/19/2015 12:54YOUNGBLOODLANDISVAUGHNRICE9939678199396781 132 SCANDIA CIRCLE, ATHENS GA 30605* VIOLATION OF PROBATION$0NBGwinnett County SheriffCharges
03/19/2015 12:4803/20/2015 16:50TRIGGERTIMOTHY9949121999491219 2272 ASHLEY FALLS LN, SUWANEE GA 30024FOLLOWING TOO CLOSE$96SBGwinnett County PoliceCharges
03/19/2015 12:4803/20/2015 16:50TRIGGERTIMOTHY9949121999491219 2272 ASHLEY FALLS LN, SUWANEE GA 30024NO LICENSE PLATE$152SBGwinnett County PoliceCharges
03/19/2015 12:4803/20/2015 16:50TRIGGERTIMOTHY9949121999491219 2272 ASHLEY FALLS LN, SUWANEE GA 30024* DRIVING WHILE LIC SUSP/REVOKED$705SBGwinnett County PoliceCharges
03/19/2015 12:38THRASHERRANDYLEE II9900498499004984 4348 BUCKINGHAM PL, DULUTH GA 30096HOLD FOR COURT$0NBGwinnett County SheriffCharges
03/19/2015 12:35WASHINGTONDORIANANDRE9948420399484203 3169 TERRACE CT APT J, NORCROSS GA 30092HOLD FOR COURT$0NBGwinnett County SheriffCharges
03/19/2015 12:28WRIGHTCLEUSTERREL9932933999329339 3540 SOUTHGATE WAY SE APT B, CONYERS GA 30013HOLD FOR COURT$0NBGwinnett County SheriffCharges
03/19/2015 12:22LONGJAMYRATHA9942696299426962 695 MEADOW WALK AVE, LAWRENCEVILLE GA 30044HOLD FOR COURT$0NBGwinnett County SheriffCharges
03/19/2015 12:12EJIGUMULUGETAYIHUN9946754599467545 605 SUNNYSIDE DR, LAWRENCEVILLE GA 30044HOLD FOR COURT$0NBGwinnett County SheriffCharges
03/19/2015 12:06BANKSANTHONY9951778999517789 366 DIXIE CT, LAWRENCEVILLE GA 30046HOLD FOR COURT$0NBGwinnett County SheriffCharges
03/19/2015 12:06BANKSANTHONY9951778999517789 366 DIXIE CT, LAWRENCEVILLE GA 30046@ * MURDER$0NBGwinnett County SheriffCharges
03/19/2015 12:06BANKSANTHONY9951778999517789 366 DIXIE CT, LAWRENCEVILLE GA 30046* POSS OF A WEAPON DURING A CRIME$0NBGwinnett County SheriffCharges
03/19/2015 12:06BANKSANTHONY9951778999517789 366 DIXIE CT, LAWRENCEVILLE GA 30046@ * AGGRAVATED ASSAULT$0NBGwinnett County SheriffCharges
03/19/2015 12:06BANKSANTHONY9951778999517789 366 DIXIE CT, LAWRENCEVILLE GA 30046* POSS OF FIREARM BY CONVICTED FELON$0NBGwinnett County SheriffCharges
03/19/2015 12:01WILLSBENJAMIN9934727399347273 240 ATLANTA STREET APT H1, GAINESVILLE GA 30501* VIOLATION OF PROBATION$0NBProbationCharges
03/19/2015 11:54FELTONDEMARIUSKENTRAY9949919499499194 1790 HICKORY STATION CIR, SNELLVILLE GA 30078VIOLATION OF PROBATION$0NBSnellville PoliceCharges
03/19/2015 11:54FELTONDEMARIUSKENTRAY9949919499499194 1790 HICKORY STATION CIR, SNELLVILLE GA 30078Violation of Probation$2851.5CBSnellville PoliceCharges
03/19/2015 11:3703/19/2015 13:35AREVALO-FUENTESJAISONJOSE9952133099521330 2964 CLIPPER CT, LAWRENCEVILLE GA 30044*DRIVING W/O LICENSE-FAIL OBTAIN 30 DAYS$0NBGwinnett County SheriffCharges
03/19/2015 11:30MOSLEYKEVINLEE9500049095000490 1150 W. Shadburn Ave, BUFORD GA 30518* VIOLATION OF PROBATION$0NBGwinnett County PoliceCharges
03/19/2015 11:27BORNETAMMYB9935557799355620 4670 GOLD CREEK TRAIL, SUGAR HILL GA 30518* DRIVING WHILE LIC SUSP/REVOKED$705SBGwinnett County PoliceCharges
03/19/2015 11:27BORNETAMMYB9935557799355620 4670 GOLD CREEK TRAIL, SUGAR HILL GA 30518*VGCSA INTENT DISTRIBUTE C/S$16700SBGwinnett County PoliceCharges
03/19/2015 11:27BORNETAMMYB9935557799355620 4670 GOLD CREEK TRAIL, SUGAR HILL GA 30518*VGCSA OF C/S$5700SBGwinnett County PoliceCharges
03/19/2015 11:2103/19/2015 16:53GODINEZ DE LEONHORACIOBARTOLOME9944429299444292 860 HILLCREST RD NW, LILBURN GA 30047NO LICENSE PLATE$155CBLilburn PoliceCharges
03/19/2015 11:2103/19/2015 16:53GODINEZ DE LEONHORACIOBARTOLOME9944429299444292 860 HILLCREST RD NW, LILBURN GA 30047*NOT LICENSED TO DRIVE$715CBLilburn PoliceCharges
03/19/2015 11:2103/19/2015 16:53GODINEZ DE LEONHORACIOBARTOLOME9944429299444292 860 HILLCREST RD NW, LILBURN GA 30047SPEEDING$169CBLilburn PoliceCharges
03/19/2015 11:2103/19/2015 16:53GODINEZ DE LEONHORACIOBARTOLOME9944429299444292 860 HILLCREST RD NW, LILBURN GA 30047IMPROPER USE OF DEALER TAG$99CBLilburn PoliceCharges
03/19/2015 10:2703/19/2015 13:33SANCHEZ-GARDUNOADALBERTO9936750899367508 3942 SINGLETREE PL, NORCROSS GA 30093-3054*NO DRIVERS LICENSE$0NBGwinnett County SheriffCharges
03/19/2015 10:1803/20/2015 11:25DUNHAMCHRISTOPHERKEITH9912791599127915 287 GRACIE GARDENS, NEWNAN GA 30263HOLD FOR OTHER AGENCY$0NBGwinnett County PoliceCharges
03/19/2015 10:1203/19/2015 13:36PADGETTCARL9952294199522941 5812 LIGHTS FERRY RD, FLOWERY BRANCH GA 30542*DRIVING W/O LICENSE-FAIL OBTAIN 30 DAYS$0NBGwinnett County SheriffCharges
03/19/2015 08:4003/19/2015 15:01TORRES-TORRESANTONIO9945062999450629 5500 SPRINGS LN APT E, NORCROSS GA 30092SPEEDING 15-18 OVER$178.25CBDuluth PoliceCharges
03/19/2015 08:4003/19/2015 15:01TORRES-TORRESANTONIO9945062999450629 5500 SPRINGS LN APT E, NORCROSS GA 30092*LICENSE:DRIVING WHILE UNLIC. OR EXPIRED$731.25CBDuluth PoliceCharges
03/19/2015 08:3503/24/2015 05:42BERNALRICARDO9932441199324411 4280 SOUTH LEE ST APT D11, BUFORD GA 30518* DUI - DRUGS/ALCOHOL$0NBGwinnett County SheriffCharges
03/19/2015 05:3403/19/2015 17:20EVANSSHANNONMONIQUE9952293799522937 315 LEE MILLER CT, SUWANEE GA 30024*LESS THAN AN OZ OF MARIJ.$1300SBGwinnett County PoliceCharges
03/19/2015 03:2403/19/2015 20:36CHESTNUTSHAYLANATE9951334999513349 3931 OAK FIELD DR, LOGANVILLE GA 30052FAILURE TO APPEAR$84FILawrenceville PoliceCharges
03/19/2015 03:2403/19/2015 20:36CHESTNUTSHAYLANATE9951334999513349 3931 OAK FIELD DR, LOGANVILLE GA 30052*DUI > .08 GRAM$1230SBLawrenceville PoliceCharges
03/19/2015 03:2403/19/2015 20:36CHESTNUTSHAYLANATE9951334999513349 3931 OAK FIELD DR, LOGANVILLE GA 30052DRIVING WITHOUT VALID LICENSE$803SBLawrenceville PoliceCharges
03/19/2015 03:2403/19/2015 20:36CHESTNUTSHAYLANATE9951334999513349 3931 OAK FIELD DR, LOGANVILLE GA 30052*DUI ALCOHOL$1230SBLawrenceville PoliceCharges
03/19/2015 03:2403/19/2015 20:36CHESTNUTSHAYLANATE9951334999513349 3931 OAK FIELD DR, LOGANVILLE GA 30052OPERATING W/O PROPER TAG/DECAL$163SBLawrenceville PoliceCharges
03/19/2015 03:2403/19/2015 20:36CHESTNUTSHAYLANATE9951334999513349 3931 OAK FIELD DR, LOGANVILLE GA 30052FAIL MAINTAIN LANE$133SBLawrenceville PoliceCharges
03/19/2015 03:1303/19/2015 08:45BROOKSDEBORAHDAVIS9952293699522936 3980 FREDRICKSBERG CT, LOGANVILLE GA 30052* DUI - DRUGS/ALCOHOL$2006SBGwinnett County PoliceCharges
03/19/2015 03:1303/19/2015 08:45BROOKSDEBORAHDAVIS9952293699522936 3980 FREDRICKSBERG CT, LOGANVILLE GA 30052IMPROPER DISPLAY OF TAG/OBSCURED$28SBGwinnett County PoliceCharges
03/19/2015 02:0103/19/2015 12:49MANZMANDEEPSINGH9948128199481281 3159 ASPEN CIR, SNELLVILLE GA 30078DUI-LESS SAFE$969.5SBSnellville PoliceCharges
03/19/2015 02:0103/19/2015 12:49MANZMANDEEPSINGH9948128199481281 3159 ASPEN CIR, SNELLVILLE GA 30078SPEEDING 36-40 OVER$368.5SBSnellville PoliceCharges
03/19/2015 01:0103/23/2015 10:03SILVAPABLOBALDERAS9935820999358209 460 CHARTER CT, LAWRENCEVILLE GA 30046BRAKE LIGHT STANDARDS$60ORLawrenceville PoliceCharges
03/19/2015 01:0103/23/2015 10:03SILVAPABLOBALDERAS9935820999358209 460 CHARTER CT, LAWRENCEVILLE GA 30046DRIVING WITHOUT VALID LICENSE$803ORLawrenceville PoliceCharges
03/19/2015 01:0103/23/2015 10:03SILVAPABLOBALDERAS9935820999358209 460 CHARTER CT, LAWRENCEVILLE GA 30046HOLD FOR IMMIGRATION$0NBLawrenceville PoliceCharges
03/19/2015 00:42MEDLEYDWAINSTEPHEN9300060093000600 569 JACKSON ST, BUFORD GA 30518HOLD FOR OTHER AGENCY$0NBGwinnett County PoliceCharges
03/19/2015 00:42MEDLEYDWAINSTEPHEN9300060093000600 569 JACKSON ST, BUFORD GA 30518* VGCSA-SCHEDULE II$0NBGwinnett County PoliceCharges
03/19/2015 00:40MEDLEYHEATHERMICHELLE9700457599132067 3089 N BOGAN RD, BUFORD GA 30519* PAROLE VIOLATION$0NBGA Pardons and ParolesCharges
03/19/2015 00:40MEDLEYHEATHERMICHELLE9700457599132067 3089 N BOGAN RD, BUFORD GA 30519* VGCSA-SCHEDULE IV$0NBGA Pardons and ParolesCharges
03/19/2015 00:40MEDLEYHEATHERMICHELLE9700457599132067 3089 N BOGAN RD, BUFORD GA 30519*VGCSA POSS OF MARIJUANA W/INTENT TO DIS$1300SBGA Pardons and ParolesCharges
03/19/2015 00:3703/19/2015 11:48JACKSONFATIMAMALIKA9952293599522935APT 20 1442 BOULDERCREST RD SE, ATLANTA GA 30316Failure to Appear$529.25CBSuwanee PoliceCharges
03/19/2015 00:3703/19/2015 11:48JACKSONFATIMAMALIKA9952293599522935APT 20 1442 BOULDERCREST RD SE, ATLANTA GA 30316FAILURE TO APPEAR$252CBSuwanee PoliceCharges
03/19/2015 00:2803/20/2015 00:16PORTILLOBERTHAALICIA9952293499522934APT E 516 N FAIRGROUND ST NE, MARIETTA GA 30060* PROSTITUTION$1300SBGwinnett County PoliceCharges
03/19/2015 00:2803/20/2015 00:16PORTILLOBERTHAALICIA9952293499522934APT E 516 N FAIRGROUND ST NE, MARIETTA GA 30060* KEEPING A PLACE OF PROSTITUTION$1300SBGwinnett County PoliceCharges
03/19/2015 00:1403/27/2015 13:47PHARRTAKITAMARIE9952293399522933 5885 OAKBROOK PKWY, NORCROSS GA 30093* PROSTITUTION$1300SBGwinnett County PoliceCharges
03/19/2015 00:1403/27/2015 13:47PHARRTAKITAMARIE9952293399522933 5885 OAKBROOK PKWY, NORCROSS GA 30093* KEEPING A PLACE OF PROSTITUTION$1300SBGwinnett County PoliceCharges
03/19/2015 00:1403/27/2015 13:47PHARRTAKITAMARIE9952293399522933 5885 OAKBROOK PKWY, NORCROSS GA 30093ESCORT W/O LICENSE$140SBGwinnett County PoliceCharges
03/19/2015 00:1403/27/2015 13:47PHARRTAKITAMARIE9952293399522933 5885 OAKBROOK PKWY, NORCROSS GA 30093HOLD FOR OTHER AGENCY$0NBGwinnett County PoliceCharges
03/19/2015 00:0403/26/2015 22:15KELLYTERESAFULTZ9907749399077493APT 130 3750 SATELLITE BLVD, DULUTH GA 30096* KEEPING A PLACE OF PROSTITUTION$1300SBNorcross PoliceCharges
03/19/2015 00:04BOWENSTAMIKACHANTAL9952293299522932 3228 EDGEMONT WAY, DECATUR GA 30032* GIVING FALSE NAME OR INFORMATION$1300SBGwinnett County PoliceCharges
03/19/2015 00:04BOWENSTAMIKACHANTAL9952293299522932 3228 EDGEMONT WAY, DECATUR GA 30032HOLD FOR OTHER AGENCY$0NBGwinnett County PoliceCharges
03/18/2015 23:55JOHNSONJUDYLEE9952293199522931 201 WASHINGTON ST, ATLANTA GA 30303* PROSTITUTION$1300SBNorcross PoliceCharges
03/18/2015 23:55JOHNSONJUDYLEE9952293199522931 201 WASHINGTON ST, ATLANTA GA 30303* KEEPING A PLACE OF PROSTITUTION$1300SBNorcross PoliceCharges
03/18/2015 23:55JOHNSONJUDYLEE9952293199522931 201 WASHINGTON ST, ATLANTA GA 30303HOLD FOR OTHER AGENCY$0NBNorcross PoliceCharges
03/18/2015 23:55JOHNSONJUDYLEE9952293199522931 201 WASHINGTON ST, ATLANTA GA 30303HOLD FOR OTHER AGENCY$0NBNorcross PoliceCharges
03/18/2015 23:4203/19/2015 11:30CROCKETTROSILYNRAYCHELL9952293099522930 115 E MAPLE ST, DECATUR GA 30030HOLD FOR OTHER AGENCY$0NBGwinnett County PoliceCharges
03/18/2015 23:3103/19/2015 05:43MARTINEZMANUELALEJANDRO9952292999522929 3362 FOWLER BLVD, LAWRENCEVILLE GA 30044@ * SIMPLE BATTERY$1300SBGwinnett County SheriffCharges
03/18/2015 23:3103/19/2015 05:43MARTINEZMANUELALEJANDRO9952292999522929 3362 FOWLER BLVD, LAWRENCEVILLE GA 30044* CRIMINAL TRESPASS$1300SBGwinnett County SheriffCharges
03/18/2015 23:2503/24/2015 21:29OKUNATOSAMUELOLUBANJI9948713299487132 1086 BETH MEADOW CT, LAWRENCEVILLE GA 30043@ * BATTERY$1300SBGwinnett County PoliceCharges
03/18/2015 23:17CARROLLTOMMYEUGENE9924620399246203 1155 TREE CREEK PKWY, LAWRENCEVILLE GA 30043Violation of Probation$0NBGwinnett County SheriffCharges
03/18/2015 23:17CARROLLTOMMYEUGENE9924620399246203 1155 TREE CREEK PKWY, LAWRENCEVILLE GA 30043* VIOLATION OF PROBATION$0NBGwinnett County SheriffCharges
03/18/2015 23:10MCWHINNEYDAVIDLEWIS9950693199506931 6191 VALLEY GREEN ROAD, LITHONIA GA 30058* POSS OF FIREARM BY CONVICTED FELON$0NBGwinnett County PoliceCharges
03/18/2015 22:5403/19/2015 14:57LOPEZGUADOLUPE9920724599522926 419 HURRICANE SHOALS, LAWRENCEVILLE GA 30045FAILURE TO APPEAR$2940CBLawrenceville PoliceCharges
03/18/2015 22:4603/20/2015 12:47HAMILTONDEONTERRELL9952292599522925APT 517 2101 WALTON WAY, AUGUSTA GA 30904HOLD FOR OTHER AGENCY$0NBGwinnett County PoliceCharges
03/18/2015 22:3603/19/2015 13:27RAYSEVRON9937647999376479UNIT 801 2935 ROSEBUD RD, LOGANVILLE GA 30052SPEEDING 16-20 OVER$186.5CBSnellville PoliceCharges
03/18/2015 22:3603/19/2015 13:27RAYSEVRON9937647999376479UNIT 801 2935 ROSEBUD RD, LOGANVILLE GA 30052*POSS < 1 OZ$437.5CBSnellville PoliceCharges
03/18/2015 22:3603/19/2015 13:27RAYSEVRON9937647999376479UNIT 801 2935 ROSEBUD RD, LOGANVILLE GA 30052FAILURE TO APPEAR$570CBSnellville PoliceCharges
03/18/2015 22:2203/19/2015 10:08COBURNROBERTCLAY9943201199432011 23 FRIARS GATE DR, LAWRENCEVILLE GA 30043HOLD FOR OTHER AGENCY$0NBGwinnett County SheriffCharges
03/18/2015 22:22CAMPOSCYNTHIA9927788399281165 4498 BUFORD HWY LOT 166, NORCROSS GA 30071* VIOLATION OF PROBATION$0NBGwinnett County SheriffCharges
03/18/2015 22:2003/19/2015 19:51DOMINICCINICHOLAS9952292499522924APT 1510 1635 PIRKLE RD, NORCROSS GA 30093FAILURE TO APPEAR$957CBGwinnett County SheriffCharges
03/18/2015 22:17HENSONBILLYRAY9950661299506612 490 ASHLEY LN, ATHENS GA 30607FAILURE TO APPEAR$0NBGwinnett County SheriffCharges
03/18/2015 22:15KENDRICKJAMESEDWARD9934909999349099 2974 BICENTENNIAL DR, STONE MOUNTAIN GA 30087*OBSTRUCTION OF OFFICER$0NBGwinnett County SheriffCharges
03/18/2015 22:15KENDRICKJAMESEDWARD9934909999349099 2974 BICENTENNIAL DR, STONE MOUNTAIN GA 30087* CRIMINAL TRESPASS$1300SBGwinnett County SheriffCharges
03/18/2015 22:15KENDRICKJAMESEDWARD9934909999349099 2974 BICENTENNIAL DR, STONE MOUNTAIN GA 30087HOLD FOR OTHER AGENCY$0NBGwinnett County SheriffCharges
03/18/2015 22:15KENDRICKJAMESEDWARD9934909999349099 2974 BICENTENNIAL DR, STONE MOUNTAIN GA 30087* OBSTRUCTION LAW ENFORCEMENT OFFICER$1300SBGwinnett County SheriffCharges
03/18/2015 21:58HOLLINGSHEDBRADLEYEUGENE9933724299337242 44 C HANNAH DRIVE, TALKING ROCK GA 30175* VIOLATION OF PROBATION$0NBGwinnett County SheriffCharges
03/18/2015 21:58HOLLINGSHEDBRADLEYEUGENE9933724299337242 44 C HANNAH DRIVE, TALKING ROCK GA 30175HOLD FOR OTHER AGENCY$0NBGwinnett County SheriffCharges
03/18/2015 21:51EDJIDJIMOMOSEKANHYA9950830599508305 3530 SIMS RD, SNELLVILLE GA 30039*VGCSA OF C/S$0NBSnellville PoliceCharges
03/18/2015 21:51EDJIDJIMOMOSEKANHYA9950830599508305 3530 SIMS RD, SNELLVILLE GA 30039*LESS THAN AN OZ OF MARIJ.$1300SBSnellville PoliceCharges
03/18/2015 21:51EDJIDJIMOMOSEKANHYA9950830599508305 3530 SIMS RD, SNELLVILLE GA 30039* OBSTRUCTION LAW ENFORCEMENT OFFICER$1300SBSnellville PoliceCharges
03/18/2015 21:3803/20/2015 17:23RIGGINSINIKIYAHCHATIQUE9950585999505859 3356 DESHONG DR, STONE MOUNTAIN GA 30087Violation of Probation$0NBGwinnett County SheriffCharges
03/18/2015 21:1303/19/2015 06:01MCLEROYKALENBLYTHE9952292399522923 1187 BEECHWOOD CT, STONE MOUNTAIN GA 30087@ * THEFT BY TAKING$0ORGwinnett County SheriffCharges
03/18/2015 21:1103/19/2015 02:56GLASSKRISTYRYAN9952292299522922 2255 HUNTINGTON DR, LOGANVILLE GA 30052*SHOPLIFTING LESS THAN 300.00$558.5SBSnellville PoliceCharges
03/18/2015 21:0703/19/2015 01:49MEYMAREDGARARMANDO9952292199522921 1405 BEAVER RUIN RD APT 902, NORCROSS GA 30093*NO DRIVERS LICENSE$705CBGwinnett County PoliceCharges
03/18/2015 21:0703/19/2015 01:49MEYMAREDGARARMANDO9952292199522921 1405 BEAVER RUIN RD APT 902, NORCROSS GA 30093IMPROPER/ERRATIC LANE CHANGE$96CBGwinnett County PoliceCharges
03/18/2015 20:5503/19/2015 00:55DICKERSONMELIYAHBREE9952292099522920 3115 GOLFE LINKS DR, SNELLVILLE GA 30039* AFFRAY$650SBGwinnett County SheriffCharges
03/18/2015 20:5503/19/2015 00:55DICKERSONMELIYAHBREE9952292099522920 3115 GOLFE LINKS DR, SNELLVILLE GA 30039 DISRUPTION OF A PUBLIC SCHOOL$650SBGwinnett County SheriffCharges
03/18/2015 20:4203/19/2015 03:04MISCHJEREMIAHGERMANS9947502999475029 1133 SANDUNE DR, NORCROSS GA 30093OPEN CONTAINER LAW$299SBGwinnett County SheriffCharges
03/18/2015 20:4203/19/2015 03:04MISCHJEREMIAHGERMANS9947502999475029 1133 SANDUNE DR, NORCROSS GA 30093*NO DRIVERS LICENSE$705SBGwinnett County SheriffCharges
03/18/2015 20:4203/19/2015 03:04MISCHJEREMIAHGERMANS9947502999475029 1133 SANDUNE DR, NORCROSS GA 30093LANE VIOLATION$68SBGwinnett County SheriffCharges
03/18/2015 20:2803/19/2015 06:01HUGHESDELICIALAQUERIDA9952291899522918 152 BROOK LEA CV, LAWRENCEVILLE GA 30044@ * THEFT BY TAKING$0ORGwinnett County SheriffCharges
03/18/2015 20:2003/18/2015 23:21ARROYOCARLOS9939441299394412 1073 SINGLTON VALLEY CIR, NORCROSS GA 30093*DRIVING WHILE UNLICENSED LICENSE$758.75CBSuwanee PoliceCharges
03/18/2015 20:2003/18/2015 23:21ARROYOCARLOS9939441299394412 1073 SINGLTON VALLEY CIR, NORCROSS GA 30093WINDSHIELD / WINDOW WIPER REQUIREMENTS$123CBSuwanee PoliceCharges
03/18/2015 20:0703/18/2015 23:18BRADDYCHRISTOPHERPHILLIP9952291799522917 1936 ELM WOOD CIR, SNELLVILLE GA 30039*VIOLATION OF FAM VIOLENCE ORDER$1300SBGwinnett County PoliceCharges
03/18/2015 20:0103/19/2015 00:09STUBBSGABRIELLELEONTRA9952291699522916 2360 ARLINGTON WALK LN, GRAYSON GA 30017FAIL TO YIELD RIGHT OF WAY TO VEHICLE$96SBGwinnett County PoliceCharges
03/18/2015 20:0103/19/2015 00:09STUBBSGABRIELLELEONTRA9952291699522916 2360 ARLINGTON WALK LN, GRAYSON GA 30017* DRIVING WHILE LICENSE WITHDRAWN$705SBGwinnett County PoliceCharges
03/18/2015 19:5803/20/2015 22:50MARKSPATRICKERIC9952275099522750 1048 DALLAS WAY, LAWRENCEVILLE GA 30046* DUI-ALCOHOL$2006ORGwinnett County PoliceCharges
03/18/2015 19:5803/20/2015 22:50MARKSPATRICKERIC9952275099522750 1048 DALLAS WAY, LAWRENCEVILLE GA 30046* DRIVING WHILE LIC SUSP/REVOKED$705ORGwinnett County PoliceCharges
03/18/2015 19:5803/20/2015 22:50MARKSPATRICKERIC9952275099522750 1048 DALLAS WAY, LAWRENCEVILLE GA 30046OPEN CONTAINER LAW$299ORGwinnett County PoliceCharges
03/18/2015 19:5403/18/2015 23:07LESTERBRITTANYMARIEE9952291599522915 311 BEDFORD BAY LN, LAWRENCEVILLE GA 30046@ * THEFT BY TAKING$0ORGwinnett County SheriffCharges
03/18/2015 19:12GIBSONDELOREANALLEN9931984799319847 6045 OAKBROOK PKWIY, NORCROSS GA 30093* PIMPING$1300SBGwinnett County PoliceCharges
03/18/2015 19:12GIBSONDELOREANALLEN9931984799319847 6045 OAKBROOK PKWIY, NORCROSS GA 30093* KEEPING A PLACE OF PROSTITUTION$1300SBGwinnett County PoliceCharges
03/18/2015 19:12GIBSONDELOREANALLEN9931984799319847 6045 OAKBROOK PKWIY, NORCROSS GA 30093*LESS THAN AN OZ OF MARIJ.$1300SBGwinnett County PoliceCharges
03/18/2015 19:12GIBSONDELOREANALLEN9931984799319847 6045 OAKBROOK PKWIY, NORCROSS GA 30093* VIOLATION OF PROBATION$0NBGwinnett County PoliceCharges
03/18/2015 19:0703/18/2015 21:46PARADA-CAMPOSCARLOSADONAY9952291399522913 2909 SENTINEL CIR, LAWRENCEVILLE GA 30043DRIVING WITHOUT VALID LICENSE$803CBLawrenceville PoliceCharges
03/18/2015 19:05KINGHENRYRESON9949307599493075 83 MEETING PLACE RD, LAWRENCEVILLE GA 30044*VGCSA POSS OF MARIJUANA W/INTENT TO DIS$3500SBGwinnett County PoliceCharges
03/18/2015 18:5703/27/2015 13:39VALLEJOREBECCA9952291299522912 10030 GUIDY LN, PENSACOLA FL 32514* PROSTITUTION$1300SBNorcross PoliceCharges
03/18/2015 18:5703/27/2015 13:39VALLEJOREBECCA9952291299522912 10030 GUIDY LN, PENSACOLA FL 32514* KEEPING A PLACE OF PROSTITUTION$1300SBNorcross PoliceCharges
03/18/2015 18:55DORSEYVASHTIR9950364899503648 6045 OAKBROOK PKWY, NORCROSS GA 30093* VIOLATION OF PROBATION$0NBNorcross PoliceCharges
03/18/2015 18:55DORSEYVASHTIR9950364899503648 6045 OAKBROOK PKWY, NORCROSS GA 30093ESCORT W/O LICENSE$140SBNorcross PoliceCharges
03/18/2015 18:55DORSEYVASHTIR9950364899503648 6045 OAKBROOK PKWY, NORCROSS GA 30093* PROSTITUTION$1300SBNorcross PoliceCharges
03/18/2015 18:55DORSEYVASHTIR9950364899503648 6045 OAKBROOK PKWY, NORCROSS GA 30093* KEEPING A PLACE OF PROSTITUTION$1300SBNorcross PoliceCharges
03/18/2015 18:3503/19/2015 00:45PLEDGEROTTISLEE9952291199522911 1191 LEXUS CT, LAWRENCEVILLE GA 30045*DUI > .08 GRAM$1230SBLawrenceville PoliceCharges
03/18/2015 18:3503/19/2015 00:45PLEDGEROTTISLEE9952291199522911 1191 LEXUS CT, LAWRENCEVILLE GA 30045FAIL MAINTAIN LANE$133SBLawrenceville PoliceCharges
03/18/2015 18:1803/19/2015 11:53WHITEASHLEYDANIELLE9952291099522910 6761 DEVON TRACE, STONE MOUNTAIN GA 30087@ * THEFT BY SHOPLIFTING$1300SBGwinnett County PoliceCharges
03/18/2015 18:06FERNANDEZJONATHAN9928276199282761APT A 3212 QUAILS LAKE VILLAGE LN, NORCROSS GA 30093* SERIOUS INJURY BY VEHICLE$0NBGwinnett County SheriffCharges
03/18/2015 17:4203/20/2015 01:25GUERRAJORGEANDRES9933326199333261 755 RYANS RUN CT, LILBURN GA 30047SPEEDING$1300SBGwinnett County SheriffCharges
03/18/2015 17:4203/20/2015 01:25GUERRAJORGEANDRES9933326199333261 755 RYANS RUN CT, LILBURN GA 30047IMPROPER/ERRATIC LANE CHANGE$1300SBGwinnett County SheriffCharges
03/18/2015 17:4203/20/2015 01:25GUERRAJORGEANDRES9933326199333261 755 RYANS RUN CT, LILBURN GA 30047GIVING WRONG SIGNAL$1300SBGwinnett County SheriffCharges
03/18/2015 17:4203/20/2015 01:25GUERRAJORGEANDRES9933326199333261 755 RYANS RUN CT, LILBURN GA 30047FAILURE TO HAVE LICENSE ON PERSON$1300SBGwinnett County SheriffCharges
03/18/2015 17:4203/20/2015 01:25GUERRAJORGEANDRES9933326199333261 755 RYANS RUN CT, LILBURN GA 30047FAILURE TO YIELD FOR EMERGENCY$1300SBGwinnett County SheriffCharges
03/18/2015 17:4203/20/2015 01:25GUERRAJORGEANDRES9933326199333261 755 RYANS RUN CT, LILBURN GA 30047* FLEEING OR ATTEMPTING TO ELUDE$1300SBGwinnett County SheriffCharges
03/18/2015 17:4203/20/2015 01:25GUERRAJORGEANDRES9933326199333261 755 RYANS RUN CT, LILBURN GA 30047RECKLESS DRIVING$1300SBGwinnett County SheriffCharges
03/18/2015 17:35WATSONWALTERCHARLES9948496499484964 1367 WINDMILL WAY, NORCROSS GA 30093* VIOLATION OF PROBATION$0NBGwinnett County SheriffCharges
03/18/2015 17:2803/18/2015 17:34WATSONWALTERCHARLES9948496499484964 1367 WINDMILL WAY, NORCROSS GA 30093$Gwinnett County SheriffCharges
03/18/2015 17:15RUDOLPHERNESTLEE9947418799474187 2196 MORRIS AVENUE, TUCKER GA 30084@ * RAPE$0NBGwinnett County SheriffCharges
03/18/2015 17:13LARA-ROSTRORUBEN9907871999078719 743 REBECCA ST NW, LILBURN GA 30047@ * BATTERY$2400SBGwinnett County SheriffCharges
03/18/2015 17:13LARA-ROSTRORUBEN9907871999078719 743 REBECCA ST NW, LILBURN GA 30047* DUI - DRUGS/ALCOHOL$0NBGwinnett County SheriffCharges
03/18/2015 17:13LARA-ROSTRORUBEN9907871999078719 743 REBECCA ST NW, LILBURN GA 30047HOLD FOR IMMIGRATION$0NBGwinnett County SheriffCharges
03/18/2015 16:58WRIGHTGRACHANM9952290499522906 4422 GAELIC WAY, SNELLVILLE GA 30039* GIVING FALSE NAME OR INFORMATION$2400SBGwinnett County PoliceCharges
03/18/2015 16:58WRIGHTGRACHANM9952290499522906 4422 GAELIC WAY, SNELLVILLE GA 30039POSSESSION OF LESS THAN OZ MARIJUANA$585SBGwinnett County PoliceCharges
03/18/2015 16:58WRIGHTGRACHANM9952290499522906 4422 GAELIC WAY, SNELLVILLE GA 30039HOLD FOR OTHER AGENCY$0NBGwinnett County PoliceCharges
03/18/2015 16:4203/18/2015 21:09DEALMEIDAMEIRESTACY9952290299522902 912 NOBLE OAK CT, LAWRENCEVILLE GA 30046* THEFT BY SHOPLIFTING$788CBLawrenceville PoliceCharges
03/18/2015 16:2803/18/2015 23:05HERNANDEZJULIETTAAMBARO9904925299522903 4943 COLD SPRINGS DR NW, LILBURN GA 30047* ENDANGERING SECURITY INTEREST$1300SBGwinnett County PoliceCharges
03/18/2015 16:1703/20/2015 18:24HERNANDEZCRISTOFHERISRAEL9952290199522901 1400 HERRINGTON RD APT 10101, LAWRENCEVILLE GA 30044@ * THEFT BY RECEIVING$5700SBGwinnett County PoliceCharges
03/18/2015 16:1703/20/2015 18:24HERNANDEZCRISTOFHERISRAEL9952290199522901 1400 HERRINGTON RD APT 10101, LAWRENCEVILLE GA 30044OPERATING VEH WITH SUSP/CANC/REV REGISTR$705SBGwinnett County PoliceCharges
03/18/2015 16:1703/20/2015 18:24HERNANDEZCRISTOFHERISRAEL9952290199522901 1400 HERRINGTON RD APT 10101, LAWRENCEVILLE GA 30044REMOVED PLATE W. INTENT TO CON$152SBGwinnett County PoliceCharges
03/18/2015 16:1703/20/2015 18:24HERNANDEZCRISTOFHERISRAEL9952290199522901 1400 HERRINGTON RD APT 10101, LAWRENCEVILLE GA 30044FAILURE TO MAINTAIN INSURANCE$299SBGwinnett County PoliceCharges
03/18/2015 16:1703/20/2015 18:24HERNANDEZCRISTOFHERISRAEL9952290199522901 1400 HERRINGTON RD APT 10101, LAWRENCEVILLE GA 30044*NO DRIVERS LICENSE$705SBGwinnett County PoliceCharges
03/18/2015 16:1703/20/2015 18:24HERNANDEZCRISTOFHERISRAEL9952290199522901 1400 HERRINGTON RD APT 10101, LAWRENCEVILLE GA 30044FAILURE TO EXERCISE DUE CARE$124SBGwinnett County PoliceCharges
03/18/2015 15:5603/28/2015 05:10PERRYRICKY9949204999492049 11104 NORTHLAKE HEIGHTS CIR NE, ATLANTA GA 30345Violation of Probation$0NBGwinnett County SheriffCharges
03/18/2015 15:5603/28/2015 05:10PERRYRICKY9949204999492049 11104 NORTHLAKE HEIGHTS CIR NE, ATLANTA GA 30345* VIOLATION OF PROBATION$0NBGwinnett County SheriffCharges
03/18/2015 15:3703/18/2015 21:01HUBACHERLARRYPAUL9952289999522899 2357 BIRCH HOLLOW TRAIL, LAWRENCEVILLE GA 30043@ * ROBBERY$5700SBGwinnett County SheriffCharges
03/18/2015 15:3703/18/2015 21:01HUBACHERLARRYPAUL9952289999522899 2357 BIRCH HOLLOW TRAIL, LAWRENCEVILLE GA 30043@ * BATTERY$1300SBGwinnett County SheriffCharges
03/18/2015 15:2803/18/2015 22:17MEDRANOCARLOSARMANDO9200823699204399 474 CHARLESTON LANE, LAWRENCEVILLE GA 30045VGCSA LESS THAN 1 OZ.$691SBLawrenceville PoliceCharges
03/18/2015 15:2803/18/2015 22:17MEDRANOCARLOSARMANDO9200823699204399 474 CHARLESTON LANE, LAWRENCEVILLE GA 30045NO TURN SIGNALS$49SBLawrenceville PoliceCharges
03/18/2015 15:2503/18/2015 19:58BRAVOADRIAN9945006499450064 288 PINE VALLEY CIR, LAWRENCEVILLE GA 30046VGCSA LESS THAN 1 OZ.$691SBLawrenceville PoliceCharges
03/18/2015 15:11VELEZJUAN9944143799441437 615 SPARROWS LN, NORCROSS GA 30093@ * CHILD MOLESTATION/AGG CHILD MOLES$0NBGwinnett County SheriffCharges
03/18/2015 14:32MILLERKRISHONTERMAIN9931627099316270 2056 LAKE RIDGE TER, LAWRENCEVILLE GA 30043* VIOLATION OF PROBATION$0NBGA Pardons and ParolesCharges
03/18/2015 14:32MILLERKRISHONTERMAIN9931627099316270 2056 LAKE RIDGE TER, LAWRENCEVILLE GA 30043FAILURE TO APPEAR$280CBGA Pardons and ParolesCharges
03/18/2015 14:2103/18/2015 23:17ROBINSONJASONPATRICK9952289899522898 4308 PEACHFORD CIR, ATLANTA GA 30338*THEFT X SHOPLIFTING$420CBLilburn PoliceCharges
03/18/2015 14:20BLOOMCIMBERLIEJAN9948883199488831 1909 WILSON WYND WAY, LAWRENCEVILLE GA 30043OTHER OFFENSE$0NBGwinnett County SheriffCharges
03/18/2015 14:1103/19/2015 15:54CASEYGERALDWAYNE89000608900060 2 CHARLES ST, BUFORD GA 30518*DISORDERLY CONDUCT$140SBGwinnett County PoliceCharges
03/18/2015 13:53LEONETIMOTHYALLEN9952154899521548 8756 BIGTREE CT, CLEVES OH 45002@ * THEFT OF LOST/MISLAID PROPERTY$2400SBGwinnett County PoliceCharges
03/18/2015 13:51CHAPMANREGGIEDARREL9916806699168066 3567 HAMPTON CT, PEACHTREE CORNERS GA 30092FAILURE TO APPEAR$0NBGwinnett County SheriffCharges
03/18/2015 13:47SCROGGINSTAYLORALLEN9950166299501662 5990 CLARK LN, CUMMING GA 30028* VIOLATION OF PROBATION$0NBGwinnett County SheriffCharges
03/18/2015 13:4703/18/2015 21:47STERLINGARCHIERAY9920660999206609 6220 SPARKLING COVE LN, BUFORD GA 30518*DRIVING WHILE LICENSE SUSPENDED$1207SBSuwanee PoliceCharges
03/18/2015 13:4703/18/2015 21:47STERLINGARCHIERAY9920660999206609 6220 SPARKLING COVE LN, BUFORD GA 30518FAILURE TO OBEY TRAFFIC CONTROL$123SBSuwanee PoliceCharges
03/18/2015 13:3403/18/2015 18:29LEAZERDAVIDBILBO9919049499223088 3318 MANSFIELD LN, SNELLVILLE GA 30039HOLD FOR OTHER AGENCY$0NBLawrenceville PoliceCharges
03/18/2015 13:02EDWARDSPALMERLYNN9936811499368114 192 PAPER MILL RD, LAWRENCEVILLE GA 30046* VIOLATION OF PROBATION$0NBGwinnett County SheriffCharges
03/18/2015 12:52DOVERSHERYLLYNN9200779692007796 564 CEDAR CREEK ROAD, CARTERSVILLE GA 30121* VIOLATION OF PROBATION$0NBGA Pardons and ParolesCharges
03/18/2015 12:52DOVERSHERYLLYNN9200779692007796 564 CEDAR CREEK ROAD, CARTERSVILLE GA 30121* VIOLATION OF PROBATION$0NBGA Pardons and ParolesCharges
03/18/2015 12:41PROSPEREDWINOBAFEMI9946090399460903 126 MAE BELLE WAY, LAWRENCEVILLE GA 30044Violation of Probation$0NBGwinnett County SheriffCharges
03/18/2015 12:41PROSPEREDWINOBAFEMI9946090399460903 126 MAE BELLE WAY, LAWRENCEVILLE GA 30044* VIOLATION OF PROBATION$0NBGwinnett County SheriffCharges
03/18/2015 12:28GUTIERREZJOHNSEBASTIAN9950327499503274 215 MORNINGSIDE DR, COVINGTON GA 30016* VIOLATION OF PROBATION$0NBGwinnett County SheriffCharges
03/18/2015 12:25HADDIXKYLEJORDAN9947828699478286 4070 WILD SONNET TRL, PEACHTREE CORNERS GA 30092Violation of Probation$0NBGwinnett County SheriffCharges
03/18/2015 12:25HADDIXKYLEJORDAN9947828699478286 4070 WILD SONNET TRL, PEACHTREE CORNERS GA 30092* VIOLATION OF PROBATION$0NBGwinnett County SheriffCharges
03/18/2015 11:5803/20/2015 09:48PASCALRUBEN9951040999510409 880 HARBINS VIEW DR, DACULA GA 30019SPEEDING 21-25 OVER$214.5ORSnellville PoliceCharges
03/18/2015 11:5803/20/2015 09:48PASCALRUBEN9951040999510409 880 HARBINS VIEW DR, DACULA GA 30019*RECKLESS DRIVING$537ORSnellville PoliceCharges
03/18/2015 11:5403/18/2015 14:10PARSONSMILESREGINALD9950604799506047 2938 SAGEWOOD DR, SNELLVILLE GA 30039VIOLATION OF PROBATION$194.5CBSnellville PoliceCharges
03/18/2015 11:28CROCKETTRASHAWNDONT'A9944884699448846 104 BELMONTE DR, ATLANTA GA 30311* VIOLATION OF PROBATION$0NBGwinnett County SheriffCharges
03/18/2015 11:2203/18/2015 22:53LOPEZ-DIAZABEL9952289699522896 , $Lawrenceville PoliceCharges
03/18/2015 10:5603/18/2015 12:26GAMBLEAARONNICOLE9950928199509281 461 HUNTERS GLEN CT, LAWRENCEVILLE GA 30044* DRIVING WHILE LIC SUSP/REVOKED$0NBGwinnett County SheriffCharges
03/18/2015 10:4303/18/2015 12:22GENEUSSTANLEY9952289499522894 1123 DIAMOND XING, MCDONOUGH GA 30252*DRIVING W/O LICENSE-FAIL OBTAIN 30 DAYS$0NBGwinnett County SheriffCharges
03/18/2015 10:2703/19/2015 02:56GANTSOPHIACONSTANCE9952289399522893 1003 HOWELL CT, DULUTH GA 30096@ * THEFT BY TAKING$5700SBDuluth PoliceCharges
03/18/2015 10:2003/19/2015 08:44RAABLAURENLESLIE9945712199457121 3930 ROSEBUD RD, LOGANVILLE GA 30052*GA RES/ NO LIC AFT 30 DAYS$0NBSnellville PoliceCharges
03/18/2015 09:59CANINOPEGGYJOSEPHINE9600470296004702 1179 WOODMERE DR, LITHONIA GA 30058* VIOLATION OF PROBATION$0NBGwinnett County SheriffCharges
03/18/2015 09:5403/20/2015 09:18YARBOROUGHJONATHANDUANE9903683799036886 2742 CRESTWORTH LANE, BUFORD GA 30519MATERIALS ON WINDSHIELD/LIGHT$68ORGA State PatrolCharges
03/18/2015 09:5403/20/2015 09:18YARBOROUGHJONATHANDUANE9903683799036886 2742 CRESTWORTH LANE, BUFORD GA 30519*NO DRIVERS LICENSE$705ORGA State PatrolCharges
03/18/2015 09:4603/21/2015 09:23HOLTTERRYEUGENE9200461592004615 1335 RICHLAND CREEK CT, SUGAR HILL GA 30518* DUI-ALCOHOL$0NBGwinnett County SheriffCharges
03/18/2015 09:3803/23/2015 05:38VENNDANIELJOSEPH9951490099514900 2453 CALVIN AVE, EAST POINT GA 30344*DRIVING W/O LICENSE-FAIL OBTAIN 30 DAYS$0NBGwinnett County SheriffCharges
03/18/2015 09:3803/18/2015 12:19ROBLERO-BARTOLONJEFFREYMANUEL9952289199522891 4013 RED OAK DR, DORAVILLE GA 30340*DRIVING W/O LICENSE-FAIL OBTAIN 30 DAYS$0NBGwinnett County SheriffCharges
03/18/2015 09:3503/18/2015 12:20OCHOA CRUZDENISAREL9952289099522890 2003 PARK COLONY DR, NORCROSS GA 30093*NO DRIVERS LICENSE$0NBGwinnett County SheriffCharges
03/18/2015 08:5503/18/2015 09:23BYRDMELVINEMMETT9952288999522889 5401 SKYLAR CREEK LN, BUFORD GA 30518@ * THEFT BY SHOPLIFTING$0NBGwinnett County SheriffCharges
03/18/2015 08:4103/18/2015 09:22PEREZ-RUIZIRISMARGANTA9952139899521398 2705 MALL OF GEORGIA BLVD #APT 825, BUFORD GA 30519@ * THEFT BY SHOPLIFTING$0NBGwinnett County SheriffCharges
03/18/2015 08:4003/18/2015 13:10KENNEDYDOMINIQUEMICHELLE9952288899522888 1525 LAUREL CROSSING PKWY APT 1300, BUFORD GA 30519@ * THEFT BY SHOPLIFTING$1300SBSuwanee PoliceCharges
03/18/2015 08:2203/27/2015 19:12HERNANDEZ-NAVARROHECTOR9924549699245527 1451 EDGELEY WAY, LAWRENCEVILLE GA 30044@ * AGGRAVATED ASSAULT$7900SBGwinnett County SheriffCharges
03/18/2015 08:2203/27/2015 19:12HERNANDEZ-NAVARROHECTOR9924549699245527 1451 EDGELEY WAY, LAWRENCEVILLE GA 30044* DISCHARGING FIREARM ON ANOTHER'S PROP$1300SBGwinnett County SheriffCharges
03/18/2015 08:2203/27/2015 19:12HERNANDEZ-NAVARROHECTOR9924549699245527 1451 EDGELEY WAY, LAWRENCEVILLE GA 30044* POINTING GUN OR PISTOL AT ANOTHER$1300SBGwinnett County SheriffCharges
03/18/2015 08:2203/27/2015 19:12HERNANDEZ-NAVARROHECTOR9924549699245527 1451 EDGELEY WAY, LAWRENCEVILLE GA 30044* DISCHARGE OF GUN NEAR STREET$1300SBGwinnett County SheriffCharges
03/18/2015 07:4003/18/2015 11:36MARTINNICHOLASSHAWN9952288799522887 411 NEW LIBERTY CHURCH RD LOT 4, BRASELTON GA 30517SPEEDING 24-33 OVER$381SBBraselton PDCharges
03/18/2015 07:4003/18/2015 11:36MARTINNICHOLASSHAWN9952288799522887 411 NEW LIBERTY CHURCH RD LOT 4, BRASELTON GA 30517RECKLESS DRIVING$1001SBBraselton PDCharges
03/18/2015 04:5803/19/2015 01:47ALEXANDERDEMARCUS9937831699378316 1017 HANK ARRON, ATLANTA GA 30315HOLD FOR OTHER AGENCY$0NBGwinnett County PoliceCharges
03/18/2015 04:5803/19/2015 01:47ALEXANDERDEMARCUS9937831699378316 1017 HANK ARRON, ATLANTA GA 30315HOLD FOR OTHER AGENCY$0NBGwinnett County PoliceCharges
03/18/2015 04:5203/18/2015 10:35MORGANANDREWDEAN9952288599522886 4781 CASTLEWOOD DR, LILBURN GA 30047* FLEEING OR ELUDE POLICE OFFICER$705CBGwinnett County PoliceCharges
03/18/2015 04:5203/18/2015 10:35MORGANANDREWDEAN9952288599522886 4781 CASTLEWOOD DR, LILBURN GA 30047RECKLESS DRIVING$420CBGwinnett County PoliceCharges
03/18/2015 04:5203/18/2015 10:35MORGANANDREWDEAN9952288599522886 4781 CASTLEWOOD DR, LILBURN GA 30047DRIVING WITHOUT HEADLIGHTS$68CBGwinnett County PoliceCharges
03/18/2015 04:5203/18/2015 10:35MORGANANDREWDEAN9952288599522886 4781 CASTLEWOOD DR, LILBURN GA 30047M/V MUST HAVE 2 HEADLIGHTS$68CBGwinnett County PoliceCharges
03/18/2015 04:5203/18/2015 10:35MORGANANDREWDEAN9952288599522886 4781 CASTLEWOOD DR, LILBURN GA 30047SPEEDING$250CBGwinnett County PoliceCharges
03/18/2015 04:3503/18/2015 14:53WILLIAMSDENNISMCNEIL9951129799511297 950 WISTERIA VIEW CT, DACULA GA 30019VIOLATION OF PROBATION$0NBDuluth PoliceCharges
03/18/2015 04:2703/18/2015 12:36NORMANERROLL9951007499510074 234 WEST HILL ST, DECATUR GA 30030VIOLATION OF PROBATION$0NBDuluth PoliceCharges
03/18/2015 04:2203/18/2015 21:43BROWN-SURLESKENDALWILLIAM9952288499522884 4052 ROXBERRY HILL LN, BUFORD GA 30518SPEEDING$215SBGwinnett County PoliceCharges
03/18/2015 04:2203/18/2015 21:43BROWN-SURLESKENDALWILLIAM9952288499522884 4052 ROXBERRY HILL LN, BUFORD GA 30518* DUI-MORE THAN 0.10%BLOOD ALCOHOL$2006SBGwinnett County PoliceCharges
03/18/2015 04:2203/18/2015 21:43BROWN-SURLESKENDALWILLIAM9952288499522884 4052 ROXBERRY HILL LN, BUFORD GA 30518IMPROPER LANE CHANGE$68SBGwinnett County PoliceCharges
03/18/2015 04:2203/18/2015 21:43BROWN-SURLESKENDALWILLIAM9952288499522884 4052 ROXBERRY HILL LN, BUFORD GA 30518* DRIVING WHILE LIC SUSP/REVOKED$705SBGwinnett County PoliceCharges
03/18/2015 03:5803/21/2015 02:03PACHECO-ROMANIANDREAMASSIEL9951962699519626 2025 BECHENHAM WALK LANE, DACULA GA 30019*MAUFACTUR/POSS/PURCH/DIST/SALE MARIJUAN$5700SBGwinnett County PoliceCharges
03/18/2015 03:5803/21/2015 02:03PACHECO-ROMANIANDREAMASSIEL9951962699519626 2025 BECHENHAM WALK LANE, DACULA GA 30019*VGCSA OF C/S$5700SBGwinnett County PoliceCharges
03/18/2015 03:4703/19/2015 20:49CALDERON-ABREULEONELALEXANDER9943822699438226 3533 DUNBAR LN, SUWANEE GA 30024*MAUFACTUR/POSS/PURCH/DIST/SALE MARIJUAN$5700SBGwinnett County PoliceCharges
03/18/2015 03:4703/19/2015 20:49CALDERON-ABREULEONELALEXANDER9943822699438226 3533 DUNBAR LN, SUWANEE GA 30024*VGCSA POSS OF MARIJUANA W/INTENT TO DIS$5700SBGwinnett County PoliceCharges
03/18/2015 03:4703/19/2015 20:49CALDERON-ABREULEONELALEXANDER9943822699438226 3533 DUNBAR LN, SUWANEE GA 30024*VGCSA OF C/S$5700SBGwinnett County PoliceCharges
03/18/2015 03:3203/18/2015 13:15FAJARDO-BONDSARIELJASMINE9952288399522883 3032 CRYSTAL GATE PLACE, LAWRENCEVILLE GA 30044* DUI - DRUGS/ALCOHOL$2006SBGwinnett County PoliceCharges
03/18/2015 03:3203/18/2015 13:15FAJARDO-BONDSARIELJASMINE9952288399522883 3032 CRYSTAL GATE PLACE, LAWRENCEVILLE GA 30044LANE VIOLATION$68SBGwinnett County PoliceCharges
03/18/2015 03:0003/19/2015 10:32MCMULLENBRITTANYNICOLE9952288299522882 1400 HERRINTON ROAD APT 9002, LAWRENCEVILLE GA 30044HOLD FOR OTHER AGENCY$0NBGwinnett County PoliceCharges
03/18/2015 02:5803/19/2015 15:44WILSONKELITADASHAE9952288199522881 1400 HERRINTON RD APT 9002, LAWRENCEVILLE GA 30044* GIVING FALSE NAME OR INFORMATION$2950SBGwinnett County PoliceCharges
03/18/2015 02:5803/19/2015 15:44WILSONKELITADASHAE9952288199522881 1400 HERRINTON RD APT 9002, LAWRENCEVILLE GA 30044HOLD FOR OTHER AGENCY$0NBGwinnett County PoliceCharges
03/18/2015 02:5003/18/2015 09:47SPRAYBRIANALEIGH9952288099522880 480 E SHADBURN AVE APT B, BUFORD GA 30518DIS COND - PUBLIC INTOXICATION$140CBGwinnett County PoliceCharges
03/18/2015 02:3303/18/2015 12:19MOORETERRENCELEON9934956599349565APT 146B 3655 HABERSHAM RD NE, ATLANTA GA 30305HOLD FOR OTHER AGENCY$0NBNorcross PoliceCharges
03/18/2015 02:3303/18/2015 12:19MOORETERRENCELEON9934956599349565APT 146B 3655 HABERSHAM RD NE, ATLANTA GA 30305VIOL. OF COND.LIMIT PERMIT$305SBNorcross PoliceCharges
03/18/2015 02:3303/18/2015 12:19MOORETERRENCELEON9934956599349565APT 146B 3655 HABERSHAM RD NE, ATLANTA GA 30305IMPROPER TURN$210SBNorcross PoliceCharges
03/18/2015 02:1303/20/2015 01:22FLECKJEFFERYELLIOTT9952287999522879 3150 VICTORIA PARK DR, BUFORD GA 30519* DUI-MORE THAN 0.10%BLOOD ALCOHOL$2006ORGwinnett County SheriffCharges
03/18/2015 02:1303/20/2015 01:22FLECKJEFFERYELLIOTT9952287999522879 3150 VICTORIA PARK DR, BUFORD GA 30519IMPROPER/ERRATIC LANE CHANGE$68ORGwinnett County SheriffCharges
03/18/2015 02:1303/20/2015 01:22FLECKJEFFERYELLIOTT9952287999522879 3150 VICTORIA PARK DR, BUFORD GA 30519SPEEDING$250ORGwinnett County SheriffCharges
03/18/2015 02:1303/20/2015 01:22FLECKJEFFERYELLIOTT9952287999522879 3150 VICTORIA PARK DR, BUFORD GA 30519POSS OF OPEN ALCOHOL CONTAINER$299ORGwinnett County SheriffCharges
03/18/2015 02:0003/18/2015 17:56TERRYCHRISTOPHERBRIAN9952287899522878 2046 KHYBER PASS, SNELLVILLE GA 30039*SUSPENDED/REVOKED LIC$816SBSnellville PoliceCharges
03/18/2015 01:5603/18/2015 10:02RUCKSKELLYCHRISTINE9952287799522877 1642 ELDONALAS CT, STONE MOUNTAIN GA 30087* DUI-MORE THAN 0.10%BLOOD ALCOHOL$2006SBGwinnett County PoliceCharges
03/18/2015 01:5603/18/2015 10:02RUCKSKELLYCHRISTINE9952287799522877 1642 ELDONALAS CT, STONE MOUNTAIN GA 30087IMPROPER/ERRATIC LANE CHANGE$68SBGwinnett County PoliceCharges
03/18/2015 01:5203/18/2015 09:33DIAZCARLOSANTHONY9952287699522876 1277 IVEY POINTE DR, LAWRENCEVILLE GA 30045* DUI-MORE THAN 0.10%BLOOD ALCOHOL$2006CBGwinnett County PoliceCharges
03/18/2015 01:5203/18/2015 09:33DIAZCARLOSANTHONY9952287699522876 1277 IVEY POINTE DR, LAWRENCEVILLE GA 30045EXHIBITION OF SPEED/ACCELERATION$425CBGwinnett County PoliceCharges
03/18/2015 01:4003/18/2015 03:19NNAIFEEDWARDIZUKA9951742299517422 985 WHITE BIRCH WAY, LAWRENCEVILLE GA 30043* DRIVING WHILE LICENSE WITHDRAWN$705CBGwinnett County PoliceCharges
03/18/2015 01:3003/18/2015 09:37DAVYKELSEN9951911599519115APT 2308 6015 STATE BRIDGE RD, DULUTH GA 30096*LICENSE:DRIVING WHILE UNLIC. OR EXPIRED$731.25SBDuluth PoliceCharges
03/18/2015 01:3003/18/2015 09:37DAVYKELSEN9951911599519115APT 2308 6015 STATE BRIDGE RD, DULUTH GA 30096SPEEDING 15-18 OVER$178.25SBDuluth PoliceCharges
03/18/2015 01:30MURPHREETILENAMICHELLE9952287599522875 703 LANIER SPUR RD, PENDERGRASS GA 3057HOLD FOR OTHER AGENCY$0NBGwinnett County PoliceCharges
03/18/2015 01:30MURPHREETILENAMICHELLE9952287599522875 703 LANIER SPUR RD, PENDERGRASS GA 3057* GIVING FALSE NAME OR INFORMATION$5700SBGwinnett County PoliceCharges
03/18/2015 01:06PATELNILESH9951876199518761 5070 ARROWWIND RD NW, LILBURN GA 30047* VIOLATION OF PROBATION$0NBGwinnett County SheriffCharges
03/18/2015 00:5703/18/2015 03:23EVANSDARNELLANTHONY9950283899502838APT 6111 1869 APPALOOSA LN, BUFORD GA 30519TAIL LIGHTS$68CBGwinnett County PoliceCharges
03/18/2015 00:5703/18/2015 03:23EVANSDARNELLANTHONY9950283899502838APT 6111 1869 APPALOOSA LN, BUFORD GA 30519POSSESSION OF LESS 1 OZ. MARIJUANA$585CBGwinnett County PoliceCharges
03/18/2015 00:4903/20/2015 14:28BOSTCHRISTOPHERCOLLINS9952287499522874 106 SIR SCOTT CT, LAWRENCEVILLE GA 30044HOLD FOR OTHER AGENCY$0NBGwinnett County SheriffCharges
03/18/2015 00:2603/18/2015 06:42JEAN-LOUISMARGUERITE9952287399522873 1920 SAILCLOTH ST, LITHONIA GA 30058AT LEAST ONE BRAKE LIGHT$68SBGwinnett County PoliceCharges
03/18/2015 00:2603/18/2015 06:42JEAN-LOUISMARGUERITE9952287399522873 1920 SAILCLOTH ST, LITHONIA GA 30058* DRIVING WHILE LIC SUSP/REVOKED$705SBGwinnett County PoliceCharges
03/18/2015 00:0803/18/2015 16:57LYLESTRACYSHONTELL9952287299522872 2405 BRASELTON HWY, BUFORD GA 30519* DRIVING WHILE LICENSE WITHDRAWN$705SBGwinnett County PoliceCharges
03/17/2015 23:5603/23/2015 00:00KINGCHEREMIEALEXIS9952287199522871 10334 WATKINS MILL DRIVE, GAITHERSBURG MD 20886* PROSTITUTION$1300CBGwinnett County PoliceCharges
03/17/2015 23:3303/18/2015 09:49WALKERTAMMIKA9952287099522870 4138 PEBBLE POINT LN, LILBURN GA 30047@ * SIMPLE BATTERY$2950SBGwinnett County PoliceCharges
03/17/2015 23:2103/22/2015 12:31BELANGERASIA9952286999522869 4138 PEBBLE POINT LN, LILBURN GA 30047@ * BATTERY$2950SBGwinnett County PoliceCharges
03/17/2015 23:1403/18/2015 16:57ALEXANDERKAELARENE9952286899522868 2713 ARBOR DRIVE, DULUTH GA 30096FAILURE TO APPEAR$115CBGwinnett County SheriffCharges
03/17/2015 23:1403/18/2015 16:57ALEXANDERKAELARENE9952286899522868 2713 ARBOR DRIVE, DULUTH GA 30096FAILURE TO MAINTAIN INSURANCE$299SBGwinnett County SheriffCharges
03/17/2015 23:1403/18/2015 16:57ALEXANDERKAELARENE9952286899522868 2713 ARBOR DRIVE, DULUTH GA 30096EXPIRED OR NO LICENSE PLATE OR DECAL$152SBGwinnett County SheriffCharges
03/17/2015 23:1403/18/2015 16:57ALEXANDERKAELARENE9952286899522868 2713 ARBOR DRIVE, DULUTH GA 30096NO LICENSE ON PERSON$45.25SBGwinnett County SheriffCharges
03/17/2015 23:1403/18/2015 16:57ALEXANDERKAELARENE9952286899522868 2713 ARBOR DRIVE, DULUTH GA 30096OPERATING VEH WITH SUSP/CANC/REV REGISTR$705SBGwinnett County SheriffCharges
03/17/2015 23:1403/18/2015 16:57ALEXANDERKAELARENE9952286899522868 2713 ARBOR DRIVE, DULUTH GA 30096SAFETY BELTS REQUIRED$15SBGwinnett County SheriffCharges
03/17/2015 22:3903/23/2015 16:59RODGERSEMILYAPHET9949757199497571 3006 TREEHOUSE PKWY, NORCROSS GA 30071Violation of Probation$0NBGwinnett County SheriffCharges
03/17/2015 22:3903/23/2015 16:59RODGERSEMILYAPHET9949757199497571 3006 TREEHOUSE PKWY, NORCROSS GA 30071* VIOLATION OF PROBATION$0NBGwinnett County SheriffCharges
03/17/2015 22:3503/23/2015 18:47BARTOMEHYEAYEWAAKA9939652699396526 287 E CROGAN ST APT 6231, LAWRENCEVILLE GA 30046FAILURE TO APPEAR$5700CBGwinnett County SheriffCharges
03/17/2015 22:31GAGLIARDICHRISTOPHERROBERT9934206999342069 4040 LOST MILL LN, BUFORD GA 30519* VIOLATION OF PROBATION$0NBGwinnett County SheriffCharges
03/17/2015 22:2503/18/2015 09:03ORTIZ-RIVERAISRAEL9952286799522867 1827 STURGEON RD, BUFORD GA 30518HOLD FOR OTHER AGENCY$0NBGwinnett County SheriffCharges
03/17/2015 22:0003/20/2015 02:28CAMPBELLFREDERICKLEWIS9952286699522866 4129 VALLEY BROOK RD, SNELLVILLE GA 30039RUNNING RED LIGHT$117ORSnellville PoliceCharges
03/17/2015 22:0003/20/2015 02:28CAMPBELLFREDERICKLEWIS9952286699522866 4129 VALLEY BROOK RD, SNELLVILLE GA 30039DUI-ALCOHOL$969.5ORSnellville PoliceCharges
03/17/2015 21:5103/18/2015 03:43BLOWCHRISTOPHERJAMES9300636593006365 673 CHURCH ST, BUFORD GA 30518* HABITUAL VIOLATOR$1350SBGA State PatrolCharges
03/17/2015 21:5103/18/2015 03:43BLOWCHRISTOPHERJAMES9300636593006365 673 CHURCH ST, BUFORD GA 30518DUI-ALCOHOL$2006SBGA State PatrolCharges
03/17/2015 21:5103/18/2015 03:43BLOWCHRISTOPHERJAMES9300636593006365 673 CHURCH ST, BUFORD GA 30518MATERIALS ON WINDSHIELD/LIGHT$68SBGA State PatrolCharges
03/17/2015 21:4503/20/2015 17:24STEPHENSELISEDANELLE9950912599509125APT 603 156 BETHESDA CHURCH RD, LAWRENCEVILLE GA 30044FAILURE TO APPEAR$0NBGwinnett County SheriffCharges
03/17/2015 21:3003/19/2015 16:09HARRISCRYSTALKUYOR9909420499094204 1736 STURGEON ROAD, BUFORD GA 30518Violation of Probation$0NBGwinnett County SheriffCharges
03/17/2015 20:37PRICESHEENANICOLE9952071699520716 4575 BROOK FARMS CT, DULUTH GA 30096* PROSTITUTION$11200SBGwinnett County PoliceCharges
03/17/2015 20:37PRICESHEENANICOLE9952071699520716 4575 BROOK FARMS CT, DULUTH GA 30096* VIOLATION OF PROBATION$0NBGwinnett County PoliceCharges
03/17/2015 20:3503/19/2015 20:55STEPHENSONSHERMAN9952286599522865 4300 JIMMY CARTER BLVD APT 902, NORCROSS GA 30093FAILURE TO APPEAR$252CBGwinnett County SheriffCharges
03/17/2015 20:3503/19/2015 20:55STEPHENSONSHERMAN9952286599522865 4300 JIMMY CARTER BLVD APT 902, NORCROSS GA 30093FAILURE TO PAY/CHILD SUPPORT$2500FIGwinnett County SheriffCharges
03/17/2015 20:27HURSTTERRYBERNARD9944332799443327 514 ATWOOD ST, ATLANTA GA 30310* VIOLATION OF PROBATION$0NBGwinnett County SheriffCharges
03/17/2015 20:1003/18/2015 00:33AMAYAMARIACLAUDIA9946266899462668 3795 ELSIDE VILLAGE LN APT E, NORCROSS GA 30093FOLLOWING TOO CLOSELY$96CBGwinnett County PoliceCharges
03/17/2015 20:1003/18/2015 00:33AMAYAMARIACLAUDIA9946266899462668 3795 ELSIDE VILLAGE LN APT E, NORCROSS GA 30093*DRIVING W/O LICENSE-FAIL OBTAIN 30 DAYS$705CBGwinnett County PoliceCharges
03/17/2015 19:1403/19/2015 18:07CROSBYJAMAALLUCAS9936538199365381 801 TREEHOUSE PKW, NORCROSS GA 30093SAFETY RESTRAINT FOR CHILDREN$56ORGA State PatrolCharges
03/17/2015 19:1403/19/2015 18:07CROSBYJAMAALLUCAS9936538199365381 801 TREEHOUSE PKW, NORCROSS GA 30093SAFETY RESTRAINT FOR CHILDREN$56ORGA State PatrolCharges
03/17/2015 19:1403/19/2015 18:07CROSBYJAMAALLUCAS9936538199365381 801 TREEHOUSE PKW, NORCROSS GA 30093* DRIVING WHILE LIC SUSP/REVOKED$705ORGA State PatrolCharges
03/17/2015 18:52KERRNEEMANICOLE9950405699504056 1762 CHATTAKAY LANE, SUWANEE GA 30024@ * THEFT BY SHOPLIFTING$5700SBGwinnett County PoliceCharges
03/17/2015 18:52KERRNEEMANICOLE9950405699504056 1762 CHATTAKAY LANE, SUWANEE GA 30024Violation of Probation$0NBGwinnett County PoliceCharges
03/17/2015 18:52KERRNEEMANICOLE9950405699504056 1762 CHATTAKAY LANE, SUWANEE GA 30024* VIOLATION OF PROBATION$0NBGwinnett County PoliceCharges
03/17/2015 18:52KERRNEEMANICOLE9950405699504056 1762 CHATTAKAY LANE, SUWANEE GA 30024Violation of Probation$0NBGwinnett County PoliceCharges
03/17/2015 18:4303/18/2015 08:45BRODLICISMAR9950570299505703 16301 HOLLAND PL, LAWRENCEVILLE GA 30043*VGCSA OF C/S$0NBGwinnett County SheriffCharges
03/17/2015 18:2203/18/2015 11:47KELLYSATCHELJAMAL9930581999305819 1522 CATHERINE CT, SUWANEE GA 30024VIOLATION OF PROBATION$0NBGwinnett County SheriffCharges
03/17/2015 18:0103/17/2015 21:24AULTMANJENNIFERREARICK9949160999491609 2648 IVES WAY, KENNESAW GA 30152@ * THEFT BY SHOPLIFTING$0ORGwinnett County PoliceCharges
03/17/2015 17:5003/17/2015 22:55GREENRASHARDLEE9952286299522862 5204 MAGNOLIA POINT BLVD, DULUTH GA 30096*NO DRIVERS LICENSE$705SBGwinnett County PoliceCharges
03/17/2015 17:4403/17/2015 22:57VOGLEZONKYLEALEXANDER9952286199522861 3372 SUMMIT GLEN DR, LOGANVILLE GA 30052*FAIL TO STOP@ACCIDENT W/INJURY, DAMAGE$803CBLawrenceville PoliceCharges
03/17/2015 17:4403/17/2015 22:57VOGLEZONKYLEALEXANDER9952286199522861 3372 SUMMIT GLEN DR, LOGANVILLE GA 30052FAILURE TO YIELD EMER VEH$421CBLawrenceville PoliceCharges
03/17/2015 17:4403/17/2015 22:57VOGLEZONKYLEALEXANDER9952286199522861 3372 SUMMIT GLEN DR, LOGANVILLE GA 30052FOLLOWING TOO CLOSELY$148CBLawrenceville PoliceCharges
03/17/2015 17:30RAMIREZHECTORGIOVANNI9943999099439990 358 ENGLE DRIVE, TUCKER GA 30084* VIOLATION OF PROBATION$0NBProbationCharges
03/17/2015 17:2503/17/2015 20:37WEMPENIELSENANDREW9952286099522860 4470 SIRROCCO LANE SW, LILBURN GA 30047THEFT BY SHOPLIFTING$420CBLilburn PoliceCharges
03/17/2015 16:4203/17/2015 23:30GUNTERBRITTANYNICOLE9952285899522858 7385 WHITMIRE DR, CUMMING GA 30028* CRIMINAL TRESPASS$2400SBSuwanee PoliceCharges
03/17/2015 16:3503/17/2015 21:46COLECRYSTALPATRICE JASMINE9952285799522857 1677 AMHEARST WALK RD, LAWRENCEVILLE GA 30043SPEEDING$250SBGA State PatrolCharges
03/17/2015 16:3503/17/2015 21:46COLECRYSTALPATRICE JASMINE9952285799522857 1677 AMHEARST WALK RD, LAWRENCEVILLE GA 30043* DRIVING WHILE LIC SUSP/REVOKED$705SBGA State PatrolCharges
03/17/2015 16:0903/17/2015 20:24DRINKWATERDEVINTAYLOR9952285699522856 920 BONAVENTURE WAY, LAWRENCEVILLE GA 30043FAILURE TO APPEAR$150FIGwinnett County PoliceCharges
03/17/2015 15:3203/17/2015 18:12CAMPBELLTAREKT9950965299509652 2656 KACHINA TRL, DACULA GA 30019DRIVING WITHOUT VALID LICENSE$0NBLawrenceville PoliceCharges
03/17/2015 15:0703/17/2015 20:01GILESFELIXJR9200582392005823 3159 DOVER DRIVE, DULUTH GA 30096POSS MARIJUANA<1OZ$665SBNorcross PoliceCharges
03/17/2015 15:0103/19/2015 05:41BUICESCOTTYLAMAR9949428699494286 3350 SWEETWATER RD APT 601, LAWRENCEVILLE GA 30044@ * SIMPLE BATTERY$2950SBGwinnett County PoliceCharges
03/17/2015 15:01VISNAWDANIELDAVID9952285599522942 4625 HARDWICK CT, SUWANEE GA 30024@ * THEFT BY SHOPLIFTING$1300SBGwinnett County PoliceCharges
03/17/2015 15:01VISNAWDANIELDAVID9952285599522942 4625 HARDWICK CT, SUWANEE GA 30024* DISORDERLY CONDUCT$1300SBGwinnett County PoliceCharges
03/17/2015 14:4703/23/2015 18:45CANFIELDGREGORYMICHAEL9949811799498117 3429 PARTON CT, NORCROSS GA 30092PED WALK ON SHOULDER$1300SBDuluth PoliceCharges
03/17/2015 14:41WILLIAMSANNIEMELISSA9941322899413228 1850 E WASHINGTON AVE, WAYCROSS GA 31503* VIOLATION OF PROBATION$0NBGwinnett County SheriffCharges
03/17/2015 14:41WILLIAMSANNIEMELISSA9941322899413228 1850 E WASHINGTON AVE, WAYCROSS GA 31503HOLD FOR OTHER AGENCY$0NBGwinnett County SheriffCharges
03/17/2015 14:3603/19/2015 05:52COLEMANASHIAMARIE9952285499522854 4980 WEST RIDGE DR, DOUGLASVILLE GA 30135* CREDIT CARD THEFT$27700SBGwinnett County SheriffCharges
03/17/2015 14:35OTTTORRANCETORVALD9942936799429367 3400 CLUB DR APT 904, LAWRENCEVILLE GA 30044* VIOLATION OF PROBATION$0NBGA Pardons and ParolesCharges
03/17/2015 14:2509/11/2011 02:19OTTTORRANCETORVALD9942936799429367 2944 FRANKLIN RD, LAWRENCEVILLE GA 30044* GIVING FALSE NAME OR INFORMATION$1300SBProbationCharges
03/17/2015 14:2509/11/2011 02:19OTTTORRANCETORVALD9942936799429367 2944 FRANKLIN RD, LAWRENCEVILLE GA 30044@ * THEFT BY SHOPLIFTING$1300SBProbationCharges
03/17/2015 14:2503/17/2015 14:34OTTTORRANCETORVALD9942936799429367 2944 FRANKLIN RD, LAWRENCEVILLE GA 30044@ * THEFT BY SHOPLIFTING$1300SBProbationCharges
03/17/2015 14:2503/17/2015 14:34OTTTORRANCETORVALD9942936799429367 2944 FRANKLIN RD, LAWRENCEVILLE GA 30044* GIVING FALSE NAME OR INFORMATION$1300SBProbationCharges
03/17/2015 14:23CURRYJUSTINLAMAR9939794199397941 1935 SWEET FLAG ROAD, LAWRENCEVILLE GA 30045* VIOLATION OF PROBATION$0NBProbationCharges
03/17/2015 14:21CUFFIECEDRICKDONNELL9914160199141601 6335 OAKLEY ROAD, UNION CITY GA 30291* VIOLATION OF PROBATION$0NBGwinnett County SheriffCharges
03/17/2015 14:0903/17/2015 22:00SACHARCHIRJEEYSINGH9905806799058067 2260 THORNBERRY DRIVE, LAWRENCEVILLE GA 30044FAILURE TO APPEAR$1067.5CBGwinnett County SheriffCharges
03/17/2015 14:0903/17/2015 22:00SACHARCHIRJEEYSINGH9905806799058067 2260 THORNBERRY DRIVE, LAWRENCEVILLE GA 30044@ * THEFT BY TAKING$16700SBGwinnett County SheriffCharges
03/17/2015 14:0403/19/2015 11:31NICHOLSDAVIDJORDAN9952285399522853 3845 CORINTH DR, GAINESVILLE GA 30506HOLD FOR OTHER AGENCY$0NBGwinnett County SheriffCharges
03/17/2015 14:0403/19/2015 11:31NICHOLSDAVIDJORDAN9952285399522853 3845 CORINTH DR, GAINESVILLE GA 30506* DRIVING WHILE LIC SUSP/REVOKED$705SBGwinnett County SheriffCharges
03/17/2015 14:0403/19/2015 11:31NICHOLSDAVIDJORDAN9952285399522853 3845 CORINTH DR, GAINESVILLE GA 30506FAILURE TO APPEAR$315CBGwinnett County SheriffCharges
03/17/2015 14:0403/19/2015 11:31NICHOLSDAVIDJORDAN9952285399522853 3845 CORINTH DR, GAINESVILLE GA 30506FAILURE TO MAINTAIN INSURANCE$299SBGwinnett County SheriffCharges
03/17/2015 14:0203/18/2015 04:41BLACKVANEEKADENISE9952285299522852 3829 GOTHIC ELEM CT, DECATUR GA 30034SPEEDING$215SBGwinnett County PoliceCharges
03/17/2015 14:0203/18/2015 04:41BLACKVANEEKADENISE9952285299522852 3829 GOTHIC ELEM CT, DECATUR GA 30034*NO DRIVERS LICENSE$705SBGwinnett County PoliceCharges
03/17/2015 14:0203/18/2015 04:41BLACKVANEEKADENISE9952285299522852 3829 GOTHIC ELEM CT, DECATUR GA 30034FAILURE TO MAINTAIN INSURANCE$299SBGwinnett County PoliceCharges
03/17/2015 14:0203/18/2015 04:41BLACKVANEEKADENISE9952285299522852 3829 GOTHIC ELEM CT, DECATUR GA 30034OPERATING VEH WITH SUSP/CANC/REV REGISTR$705SBGwinnett County PoliceCharges
03/17/2015 14:0103/17/2015 15:12SKINNERKENDRICKRICHARD9952285199522851 5311 SHERWIN DR, NORCROSS GA 30093@ * THEFT BY SHOPLIFTING$0NBGwinnett County SheriffCharges
03/17/2015 13:5303/19/2015 13:25HARTBRANDONWAYNE9952285099522850 465 OAK ST, ROSSVILLE GA 30741HOLD FOR OTHER AGENCY$0NBGwinnett County SheriffCharges
03/17/2015 13:5003/24/2015 19:09LOPEZ-ROSALESABEL9952077899520778 1055 MOCKINGBIRD TRAIL, NORCROSS GA 30093@ * BATTERY$2950CBGwinnett County PoliceCharges
03/17/2015 13:5003/24/2015 19:09LOPEZ-ROSALESABEL9952077899520778 1055 MOCKINGBIRD TRAIL, NORCROSS GA 30093*HARASSING PHONE CALLS$11200CBGwinnett County PoliceCharges
03/17/2015 13:4703/17/2015 15:12TUCKERDOMINICLATRELL9930945599309455 5876 MARCELLE LN, NORCROSS GA 30093@ * THEFT BY SHOPLIFTING$0NBGwinnett County SheriffCharges
03/17/2015 13:4403/17/2015 15:12NESBITTTAMIKASIMONE9952284999522849 3353 PEACHTREE CORNERS CIR, NORCROSS GA 30092@ * THEFT BY SHOPLIFTING$0NBGwinnett County SheriffCharges
03/17/2015 13:4003/17/2015 15:12HOGANASIANICOLE9952284899522848 521 IVEY PARK LN, NORCROSS GA 30092@ * THEFT BY SHOPLIFTING$0NBGwinnett County SheriffCharges
03/17/2015 13:3803/17/2015 15:13PERKINSTONYA9952284799522847 1934 MARSHES GLENN DR, NORCROSS GA 30071@ * THEFT BY SHOPLIFTING$0NBGwinnett County SheriffCharges
03/17/2015 13:3403/17/2015 15:10MARTINEZTOMASHERIBERTO9933207899332078 2742 KEYSTONE CT, NORCROSS GA 30071@ * THEFT BY SHOPLIFTING$0NBGwinnett County SheriffCharges
03/17/2015 13:2903/17/2015 15:11ROBINSONTREVONEMARI9951827099518270 4207 SIGNAL RDG SW, LILBURN GA 30047@ * THEFT BY SHOPLIFTING$0NBGwinnett County SheriffCharges
03/17/2015 13:2903/17/2015 15:11HUSBANDPAULRAY9952284699522846 1000 UNIVERSITY CENTER LN # 1434, LAWRENCEVILLE GA 30043@ * THEFT BY SHOPLIFTING$0NBGwinnett County SheriffCharges
03/17/2015 13:0003/20/2015 08:47ROBERTSTORITASHAE9951443799514437 1450 BOWLDERCREST RD SE, ATLANTA GA 30316* VIOLATION OF PROBATION$0NBGwinnett County SheriffCharges
03/17/2015 12:5803/27/2015 05:00REYES-CORONADOARTURO9951476299514762 308 PARK CROSSING WAY, LILBURN GA 30047* VIOLATION OF PROBATION$0NBGwinnett County SheriffCharges
03/17/2015 12:40LARSENERICDAVID9945084499450844 5361 SYCAMORE RD, SUGAR HILL GA 30518* VIOLATION OF PROBATION$0NBProbationCharges
03/17/2015 12:39WELLHAMJOHNATHANNICHOLES9948342299483422 2267 NEWNAN ST, ATLANTA GA 30344* VIOLATION OF PROBATION$0NBProbationCharges
03/17/2015 12:3003/27/2015 20:56JOHNSONDERRICKLAMONT9800315598003155 226 LAURELTON CIR, LAWRENCEVILLE GA 30044Violation of Probation$0NBGwinnett County PoliceCharges
03/17/2015 12:3003/27/2015 20:56JOHNSONDERRICKLAMONT9800315598003155 226 LAURELTON CIR, LAWRENCEVILLE GA 30044Violation of Probation$0NBGwinnett County PoliceCharges
03/17/2015 12:1703/26/2015 15:50KNIGHTKENNETHJASON9915387299153872 302 OLD IVY RD NE, ATLANTA GA 30342Violation of Probation$0NBGwinnett County SheriffCharges
03/17/2015 12:1303/20/2015 14:29JOHNSONKARONRASHOD9952284599522845APT 173 3154 REEVES CIR NW, ATLANTA GA 30311FAILURE TO APPEAR$417CBGwinnett County SheriffCharges
03/17/2015 12:1303/20/2015 14:29JOHNSONKARONRASHOD9952284599522845APT 173 3154 REEVES CIR NW, ATLANTA GA 30311HOLD FOR OTHER AGENCY$0NBGwinnett County SheriffCharges
03/17/2015 12:1303/20/2015 14:29JOHNSONKARONRASHOD9952284599522845APT 173 3154 REEVES CIR NW, ATLANTA GA 30311NO LICENSE PLATE$0NBGwinnett County SheriffCharges
03/17/2015 12:0503/24/2015 12:51OLIVERLYMONEDWARD9949401799494017APT E15 1675 ROSWELL ST, SMYRNA GA 30080FTA BENCH WARRANT$663CBLawrenceville PoliceCharges
03/17/2015 11:4903/17/2015 18:31BAHFATUMATASAIDY9952284499522844APT 110 109 HARVEY DR, STATESBORO GA 30458VIOLATION OF PROBATION$0NBDuluth PoliceCharges
03/17/2015 11:3503/17/2015 18:08ADKINSONROBERTLEE9952284399522843 4508 BRUCE ST, ATLANTA GA 30340*DRIVING WHILE UNLICENSED LICENSE$758.75CBSuwanee PoliceCharges
03/17/2015 11:3503/17/2015 18:08ADKINSONROBERTLEE9952284399522843 4508 BRUCE ST, ATLANTA GA 30340SEATBELT VIOLATION/OVER 18 YRS OLD$15CBSuwanee PoliceCharges
03/17/2015 11:2803/17/2015 18:51BARRDAVIDDEWAYNE9952284299522842 14133 MOON HEARD RD, PRAIRIE MS 39756SEATBELT VIOLATION/OVER 18 YRS OLD$15SBSuwanee PoliceCharges
03/17/2015 11:2803/17/2015 18:51BARRDAVIDDEWAYNE9952284299522842 14133 MOON HEARD RD, PRAIRIE MS 39756*SUSPENDED LICENSE$1176.25SBSuwanee PoliceCharges
03/17/2015 11:1903/26/2015 06:37FISHERERISKORDELL CORNEZ9949781999497819 1908 GRAVES RD, NORCROSS GA 30093HOLD FOR COURT$0NBGwinnett County SheriffCharges
03/17/2015 11:15HARTMANKYLEMCCLAIN9940899399408993 578 WINDER HWY, LAWRENCEVILLE GA 30045HOLD FOR COURT$0NBGwinnett County SheriffCharges
03/17/2015 11:1203/17/2015 23:36COVINGTONROBERTDUPREE9935217099352170 2048 SUMMERTOWN DR, NORCROSS GA 30071@ * SIMPLE BATTERY$1850SBNorcross PoliceCharges
03/17/2015 11:0703/18/2015 01:17WHITFIELDERROLCHRISTOPHER9952284199522841 2765 VARLET CT, SNELLVILLE GA 30039@ * THEFT BY SHOPLIFTING$1300SBGwinnett County PoliceCharges
03/17/2015 10:5803/17/2015 13:28PEREZ-RAVELOMARIO9946957199469571 211 KELLY MILL RD, CUMMING GA 30040*NO DRIVERS LICENSE$0NBGwinnett County SheriffCharges
03/17/2015 10:4703/17/2015 13:28FRITSCHIJONATHANRALPH9952284099522840 976 JEFFERSON ST NW STE I, ATLANTA GA 30318* DRIVING WHILE LIC SUSP/REVOKED$0NBGwinnett County SheriffCharges
03/17/2015 10:4303/27/2015 17:56HAYWOODSTACEYPADRACE9944553799445537 1441 PROVIDENCE WAY, LAWRENCEVILLE GA 30046*DRIVING W/O LICENSE-FAIL OBTAIN 30 DAYS$0NBGwinnett County SheriffCharges
03/17/2015 10:4303/27/2015 17:56HAYWOODSTACEYPADRACE9944553799445537 1441 PROVIDENCE WAY, LAWRENCEVILLE GA 30046* FALSE STATEMENTS$0NBGwinnett County SheriffCharges
03/17/2015 10:3803/17/2015 18:22HOLTROBERTDANIEL9952283899522838 600 TROTTERS RIDGE RD, JEFFERSON GA 30549* DRIVING WHILE LIC SUSP/REVOKED$705SBGwinnett County PoliceCharges
03/17/2015 10:2403/17/2015 12:39WHITEJANNELLENICOLE9952283799522837 3207 CLUB PLACE, DULUTH GA 30096*NO DRIVERS LICENSE$0NBGwinnett County SheriffCharges
03/17/2015 09:58GRAYEBONYJ9952283699522836 4750 HILLCREST ST S, HILLIARD OH 43026@ * THEFT BY TAKING$0NBPrisoner Transport ServicesCharges
03/17/2015 09:58GRAYEBONYJ9952283699522836 4750 HILLCREST ST S, HILLIARD OH 43026HOLD FOR OTHER AGENCY$0NBPrisoner Transport ServicesCharges
03/17/2015 09:5203/17/2015 18:36HUNTECHRISTINEMARIE T9952283599522835APT 1110 3920 CLUB DR, DULUTH GA 30096SPEEDING$250SBGA State PatrolCharges
03/17/2015 09:5203/17/2015 18:36HUNTECHRISTINEMARIE T9952283599522835APT 1110 3920 CLUB DR, DULUTH GA 30096* DRIVING WHILE LIC SUSP/REVOKED$705SBGA State PatrolCharges
03/17/2015 09:31RODGERSJORDAANMONTGOMERY9942021699420216 1945 CHAMPIONS PARKWAY, LAWRENCEVILLE GA 30044* CREDIT CARD FRAUD$0NBGwinnett County SheriffCharges
03/17/2015 09:2603/17/2015 10:57JOYCEGARYDUANE9952283499522834 455 W PIKE STREET, LAWRENCEVILLE GA 30046@ * BATTERY$2950CBGwinnett County SheriffCharges
03/17/2015 09:1603/17/2015 18:33SANTIBANEZ-VARGASNORCEDALIA9942755599427555 28 RAMBLEWOOD TRL, LAWRENCEVILLE GA 30043*DRIVING W/O LICENSE-FAIL OBTAIN 30 DAYS$705CBGwinnett County PoliceCharges
03/17/2015 08:5503/18/2015 22:43RODHOUSEJAYLINDSEYJR9700524697005246 5120 DONALD DRIVE, LOGANVILLE GA 30052* CRIMINAL TRESPASS$1300SBGwinnett County PoliceCharges
03/17/2015 08:5503/18/2015 22:43RODHOUSEJAYLINDSEYJR9700524697005246 5120 DONALD DRIVE, LOGANVILLE GA 30052* OBSTRUCTION LAW ENFORCEMENT OFFICER$1300SBGwinnett County PoliceCharges
03/17/2015 08:5503/18/2015 22:43RODHOUSEJAYLINDSEYJR9700524697005246 5120 DONALD DRIVE, LOGANVILLE GA 30052* DISORDERLY CONDUCT$1300SBGwinnett County PoliceCharges
03/17/2015 08:3903/17/2015 13:54MARTINGLADYSKORANTEMMA9952283399522833APT K7 100 CASTOR DR, NORCROSS GA 30071*DRIVING WHILE LICENSE SUSP/REVOKED$971.75SBDuluth PoliceCharges
03/17/2015 08:2903/17/2015 22:13GRATEROLMIGUEL9952283299522832 2204 PIERCE WAY, BUFORD GA 30519@ * SIMPLE BATTERY$1850SBGwinnett County PoliceCharges
03/17/2015 05:1503/17/2015 15:27PINEDA-VASQUEZELVIA-XIOMARA9952282999522829 1023 SEASONS PKWY APT 26, NORCROSS GA 30093*NO DRIVERS LICENSE$705CBGwinnett County PoliceCharges
03/17/2015 05:1503/17/2015 15:27PINEDA-VASQUEZELVIA-XIOMARA9952282999522829 1023 SEASONS PKWY APT 26, NORCROSS GA 30093TAG LIGHT VISIBLE 50 FT.$68CBGwinnett County PoliceCharges
03/17/2015 05:1503/17/2015 15:27PINEDA-VASQUEZELVIA-XIOMARA9952282999522829 1023 SEASONS PKWY APT 26, NORCROSS GA 30093IMPROPER/ERRATIC LANE CHANGE$68CBGwinnett County PoliceCharges
03/17/2015 04:0903/20/2015 02:26POLKRODNEYDARNELL9952282899522828 307 TWIN HILL CT, AUSTELL GA 30168*LESS THAN AN OZ OF MARIJ.$2400SBGwinnett County PoliceCharges
03/17/2015 04:0903/20/2015 02:26POLKRODNEYDARNELL9952282899522828 307 TWIN HILL CT, AUSTELL GA 30168*VGCSA OF C/S$11200SBGwinnett County PoliceCharges
03/17/2015 04:0203/17/2015 11:00RAGANJOHNPAUL9952282799522827 4135 PADDINGTON DR, DULUTH GA 30096*DUI$1623SBDuluth PoliceCharges
03/17/2015 04:0203/17/2015 11:00RAGANJOHNPAUL9952282799522827 4135 PADDINGTON DR, DULUTH GA 30096FAILURE TO MAINTAIN LANE$129.25SBDuluth PoliceCharges
03/17/2015 03:4103/24/2015 18:44THOMASXAVIERALEXANDER9949339599493395 1056 COUNTRY CT, LAWRENCEVILLE GA 0044FTA BENCH WARRANT$348CBGwinnett County PoliceCharges
03/17/2015 03:4103/24/2015 18:44THOMASXAVIERALEXANDER9949339599493395 1056 COUNTRY CT, LAWRENCEVILLE GA 0044* DRIVING WHILE LIC SUSP/REVOKED$705SBGwinnett County PoliceCharges
03/17/2015 03:4103/24/2015 18:44THOMASXAVIERALEXANDER9949339599493395 1056 COUNTRY CT, LAWRENCEVILLE GA 0044FAILURE TO APPEAR$495CBGwinnett County PoliceCharges
03/17/2015 03:3803/24/2015 14:50BROWNKEITHIONLAMONT9949531499495314 239 NEW HOPE ROAD, LAWRENCEVILLE GA 30046*FORGERY 4TH DEGREE$4600SBGwinnett County SheriffCharges
03/17/2015 03:3803/24/2015 14:50BROWNKEITHIONLAMONT9949531499495314 239 NEW HOPE ROAD, LAWRENCEVILLE GA 30046FAILURE TO APPEAR$413CBGwinnett County SheriffCharges
03/17/2015 03:2003/19/2015 11:45EDWARDSKARASTANLAUGHTON9948230699482306 1113 GREENYARD WAY, NORCROSS GA 30093* OBSTRUCTION LAW ENFORCEMENT OFFICER$5700SBGwinnett County PoliceCharges
03/17/2015 03:2003/19/2015 11:45EDWARDSKARASTANLAUGHTON9948230699482306 1113 GREENYARD WAY, NORCROSS GA 30093SPEEDING$180SBGwinnett County PoliceCharges
03/17/2015 03:2003/19/2015 11:45EDWARDSKARASTANLAUGHTON9948230699482306 1113 GREENYARD WAY, NORCROSS GA 30093IMPROPER LANE CHANGE$68SBGwinnett County PoliceCharges
03/17/2015 03:2003/19/2015 11:45EDWARDSKARASTANLAUGHTON9948230699482306 1113 GREENYARD WAY, NORCROSS GA 30093RECKLESS DRIVING$425SBGwinnett County PoliceCharges
03/17/2015 03:2003/19/2015 11:45EDWARDSKARASTANLAUGHTON9948230699482306 1113 GREENYARD WAY, NORCROSS GA 30093HOLD FOR IMMIGRATION$0NBGwinnett County PoliceCharges
03/17/2015 03:2003/19/2015 11:45EDWARDSKARASTANLAUGHTON9948230699482306 1113 GREENYARD WAY, NORCROSS GA 30093IMPROPER NAME AND ADDRESS$40SBGwinnett County PoliceCharges
03/17/2015 03:2003/19/2015 11:45EDWARDSKARASTANLAUGHTON9948230699482306 1113 GREENYARD WAY, NORCROSS GA 30093* DRIVING WHILE LICENSE WITHDRAWN$705SBGwinnett County PoliceCharges
03/17/2015 03:2003/19/2015 11:45EDWARDSKARASTANLAUGHTON9948230699482306 1113 GREENYARD WAY, NORCROSS GA 30093DL TO BE EXHIBITED ON DEMAND$19SBGwinnett County PoliceCharges
03/17/2015 03:1303/19/2015 02:40BENSONDAQUIEDAVID9935346599353465 221 8TH AVE, WILMINGTON DE 19805*DISORDERLY CONDUCT$356ORSnellville PoliceCharges
03/17/2015 03:0703/17/2015 09:02STATENCAMERONALAN9952282599522826 3901 SINGLETREE PL, NORCROSS GA 30093* DRIVING WHILE LIC SUSP/REVOKED$705SBGwinnett County PoliceCharges
03/17/2015 03:0703/17/2015 09:02STATENCAMERONALAN9952282599522826 3901 SINGLETREE PL, NORCROSS GA 30093SPEEDING$180SBGwinnett County PoliceCharges
03/17/2015 03:0703/17/2015 09:02STATENCAMERONALAN9952282599522826 3901 SINGLETREE PL, NORCROSS GA 30093CROSS D-HWY/GORE/BAR/SHLD/ EM L$68SBGwinnett County PoliceCharges
03/17/2015 03:0703/17/2015 09:02STATENCAMERONALAN9952282599522826 3901 SINGLETREE PL, NORCROSS GA 30093IMPROPER/ERRATIC LANE CHANGE$68SBGwinnett County PoliceCharges
03/17/2015 02:5803/19/2015 09:29MUNOZ-SANCHEZJUANMANUEL9952282499522824APT L 5015 CHERRYCREST LN, CHARLOTTE NC 28217*DUI$1623ORDuluth PoliceCharges
03/17/2015 02:5803/19/2015 09:29MUNOZ-SANCHEZJUANMANUEL9952282499522824APT L 5015 CHERRYCREST LN, CHARLOTTE NC 28217DIRVING WITHIN THE EMERGENCY LANE$129.25ORDuluth PoliceCharges
03/17/2015 02:5803/19/2015 09:29MUNOZ-SANCHEZJUANMANUEL9952282499522824APT L 5015 CHERRYCREST LN, CHARLOTTE NC 28217DRIVING WHILE UNLICENSED OR EXPIRED$732ORDuluth PoliceCharges
03/17/2015 02:5803/19/2015 09:29MUNOZ-SANCHEZJUANMANUEL9952282499522824APT L 5015 CHERRYCREST LN, CHARLOTTE NC 28217HOLD FOR IMMIGRATION$0NBDuluth PoliceCharges
03/17/2015 02:5803/19/2015 09:29MUNOZ-SANCHEZJUANMANUEL9952282499522824APT L 5015 CHERRYCREST LN, CHARLOTTE NC 28217OPEN CONTAINER VIOLATION$402.25ORDuluth PoliceCharges
03/17/2015 02:3703/19/2015 01:51GARCIALUISMIGUEL9952282399522823 3504 POPLAR SPRINGS RD, GAINESVILLE GA 30507* DUI-ALCOHOL$2006ORGwinnett County PoliceCharges
03/17/2015 02:3703/19/2015 01:51GARCIALUISMIGUEL9952282399522823 3504 POPLAR SPRINGS RD, GAINESVILLE GA 30507SPEEDING$250ORGwinnett County PoliceCharges
03/17/2015 02:3703/19/2015 01:51GARCIALUISMIGUEL9952282399522823 3504 POPLAR SPRINGS RD, GAINESVILLE GA 30507IMPROPER/ERRATIC LANE CHANGE$68ORGwinnett County PoliceCharges
03/17/2015 02:2003/17/2015 06:10MARSHALLNATHANIEL9952282299522822 1504 GLEN LEAF DR, NORCROSS GA 30394HOLD FOR OTHER AGENCY$0NBGwinnett County PoliceCharges
03/17/2015 01:5903/17/2015 09:08BYRDDARRENO'SHEA9952282199522821 3009 TUSCAN RIDGE DR, SNELLVILLE GA 30039POSS OF < 1 OZ OF MARIJ.$585SBGwinnett County PoliceCharges
03/17/2015 01:4603/17/2015 18:13HARSHMATTHEWROBERT9951671099516710 2416 HAMPTON PARK DRIVE, BUFORD GA 30519IMPROPER/ERRATIC LANE CHANGE$96SBGwinnett County PoliceCharges
03/17/2015 01:4603/17/2015 18:13HARSHMATTHEWROBERT9951671099516710 2416 HAMPTON PARK DRIVE, BUFORD GA 30519*HIT AND RUN$420SBGwinnett County PoliceCharges
03/17/2015 01:4603/17/2015 18:13HARSHMATTHEWROBERT9951671099516710 2416 HAMPTON PARK DRIVE, BUFORD GA 30519* DUI - DRUGS/ALCOHOL$2006SBGwinnett County PoliceCharges
03/17/2015 01:1403/20/2015 01:52CORFAHFIDELMAMDEE SUMO9952282099522820 1345 SHELTON WAY, LAWRENCEVILLE GA 30043* GIVING FALSE NAME OR INFORMATION$1850SBGwinnett County PoliceCharges
03/17/2015 01:1403/20/2015 01:52CORFAHFIDELMAMDEE SUMO9952282099522820 1345 SHELTON WAY, LAWRENCEVILLE GA 30043EXPIRED OR NO LICENSE PLATE OR DECAL$152SBGwinnett County PoliceCharges
03/17/2015 01:1403/20/2015 01:52CORFAHFIDELMAMDEE SUMO9952282099522820 1345 SHELTON WAY, LAWRENCEVILLE GA 30043*NO DRIVERS LICENSE$705SBGwinnett County PoliceCharges
03/17/2015 00:2603/18/2015 23:50ALDRIDGECLAYEUGENE9800645998006459 5130 JAYCREEK RD, OAKWOOD GA 30566*DISORDERLY CONDUCT$275ORBraselton PDCharges
03/17/2015 00:2003/17/2015 09:52ROBINSONROBERTBRENT9300370393003703 2798 MAJESTIC CIR, DACULA GA 30019HOLD FOR OTHER AGENCY$0NBGwinnett County PoliceCharges
03/17/2015 00:0303/17/2015 04:04ADEBIYIMICHAELB9942280999422809 3080 EMDEN TRL, SNELLVILLE GA 30039HOLD FOR OTHER AGENCY$0NBGwinnett County PoliceCharges